<?xml version="1.0" encoding="UTF-8" standalone="no" ?>
<gpx xmlns="http://www.topografix.com/GPX/1/1" xmlns:xsi="http://www.w3.org/2001/XMLSchema-instance" xsi:schemaLocation="http://www.topografix.com/GPX/1/1 http://www.topografix.com/GPX/1/1/gpx.xsd" version="1.1" creator="VisuGPX - https://www.visugpx.com">
  <metadata>
    <name>CMC Le Cheval du Roi</name>
    <desc><![CDATA[Belle randonnée par temps doux et venteux, heureusement la plus grande partie du circuit est à l'abri du vent. De belles demeures refaites à neuf ou "dans leur jus". Visibilité extra-ordinaire, on a pu apercevoir quelques crêtes pyrénéennes. Dégustation de chataîgnes, de noix, de noisettes et de mûres pour les gourmands, c'est à dire à peu près tout le monde.]]></desc>
  </metadata>
  <trk>
    <name><![CDATA[CMC Le Cheval du Roi_1]]></name>
    <trkseg>
      <trkpt lat="44.18805" lon="2.16044">
        <ele>220</ele>
        <time>2016-10-23T09:48:22Z</time>
      </trkpt>
      <trkpt lat="44.18805" lon="2.16044">
        <ele>220</ele>
        <time>2016-10-23T09:48:27Z</time>
      </trkpt>
      <trkpt lat="44.18805" lon="2.16044">
        <ele>220</ele>
        <time>2016-10-23T09:48:32Z</time>
      </trkpt>
      <trkpt lat="44.18804" lon="2.16045">
        <ele>220</ele>
        <time>2016-10-23T09:48:37Z</time>
      </trkpt>
      <trkpt lat="44.18804" lon="2.16045">
        <ele>220</ele>
        <time>2016-10-23T09:48:42Z</time>
      </trkpt>
      <trkpt lat="44.18804" lon="2.16045">
        <ele>220</ele>
        <time>2016-10-23T09:48:47Z</time>
      </trkpt>
      <trkpt lat="44.18803" lon="2.16046">
        <ele>220</ele>
        <time>2016-10-23T09:48:52Z</time>
      </trkpt>
      <trkpt lat="44.18804" lon="2.16045">
        <ele>220</ele>
        <time>2016-10-23T09:48:57Z</time>
      </trkpt>
      <trkpt lat="44.18803" lon="2.16045">
        <ele>220</ele>
        <time>2016-10-23T09:49:02Z</time>
      </trkpt>
      <trkpt lat="44.18802" lon="2.16046">
        <ele>220</ele>
        <time>2016-10-23T09:49:07Z</time>
      </trkpt>
      <trkpt lat="44.18803" lon="2.16045">
        <ele>220</ele>
        <time>2016-10-23T09:49:12Z</time>
      </trkpt>
      <trkpt lat="44.18803" lon="2.16047">
        <ele>220</ele>
        <time>2016-10-23T09:49:17Z</time>
      </trkpt>
      <trkpt lat="44.18804" lon="2.16047">
        <ele>220</ele>
        <time>2016-10-23T09:49:22Z</time>
      </trkpt>
      <trkpt lat="44.18804" lon="2.16048">
        <ele>220</ele>
        <time>2016-10-23T09:49:27Z</time>
      </trkpt>
      <trkpt lat="44.18803" lon="2.16047">
        <ele>220</ele>
        <time>2016-10-23T09:49:32Z</time>
      </trkpt>
      <trkpt lat="44.18801" lon="2.1605">
        <ele>220</ele>
        <time>2016-10-23T09:49:37Z</time>
      </trkpt>
      <trkpt lat="44.188" lon="2.16048">
        <ele>220</ele>
        <time>2016-10-23T09:49:42Z</time>
      </trkpt>
      <trkpt lat="44.188" lon="2.16048">
        <ele>220</ele>
        <time>2016-10-23T09:49:47Z</time>
      </trkpt>
      <trkpt lat="44.18798" lon="2.16046">
        <ele>220</ele>
        <time>2016-10-23T09:49:52Z</time>
      </trkpt>
      <trkpt lat="44.18801" lon="2.16041">
        <ele>225</ele>
        <time>2016-10-23T09:49:57Z</time>
      </trkpt>
      <trkpt lat="44.18807" lon="2.16035">
        <ele>225</ele>
        <time>2016-10-23T09:50:02Z</time>
      </trkpt>
      <trkpt lat="44.1881" lon="2.16032">
        <ele>225</ele>
        <time>2016-10-23T09:50:07Z</time>
      </trkpt>
      <trkpt lat="44.18813" lon="2.16029">
        <ele>225</ele>
        <time>2016-10-23T09:50:12Z</time>
      </trkpt>
      <trkpt lat="44.18817" lon="2.16024">
        <ele>225</ele>
        <time>2016-10-23T09:50:17Z</time>
      </trkpt>
      <trkpt lat="44.18821" lon="2.16023">
        <ele>225</ele>
        <time>2016-10-23T09:50:22Z</time>
      </trkpt>
      <trkpt lat="44.18826" lon="2.1602">
        <ele>225</ele>
        <time>2016-10-23T09:50:27Z</time>
      </trkpt>
      <trkpt lat="44.1883" lon="2.16018">
        <ele>225</ele>
        <time>2016-10-23T09:50:32Z</time>
      </trkpt>
      <trkpt lat="44.18835" lon="2.16014">
        <ele>225</ele>
        <time>2016-10-23T09:50:37Z</time>
      </trkpt>
      <trkpt lat="44.18838" lon="2.16013">
        <ele>225</ele>
        <time>2016-10-23T09:50:42Z</time>
      </trkpt>
      <trkpt lat="44.1884" lon="2.16013">
        <ele>225</ele>
        <time>2016-10-23T09:50:47Z</time>
      </trkpt>
      <trkpt lat="44.18844" lon="2.16013">
        <ele>225</ele>
        <time>2016-10-23T09:50:52Z</time>
      </trkpt>
      <trkpt lat="44.18847" lon="2.16015">
        <ele>225</ele>
        <time>2016-10-23T09:50:57Z</time>
      </trkpt>
      <trkpt lat="44.18852" lon="2.1602">
        <ele>225</ele>
        <time>2016-10-23T09:51:02Z</time>
      </trkpt>
      <trkpt lat="44.18856" lon="2.16024">
        <ele>225</ele>
        <time>2016-10-23T09:51:07Z</time>
      </trkpt>
      <trkpt lat="44.1886" lon="2.16028">
        <ele>225</ele>
        <time>2016-10-23T09:51:12Z</time>
      </trkpt>
      <trkpt lat="44.18862" lon="2.16032">
        <ele>225</ele>
        <time>2016-10-23T09:51:17Z</time>
      </trkpt>
      <trkpt lat="44.18867" lon="2.16036">
        <ele>225</ele>
        <time>2016-10-23T09:51:22Z</time>
      </trkpt>
      <trkpt lat="44.18873" lon="2.16041">
        <ele>225</ele>
        <time>2016-10-23T09:51:27Z</time>
      </trkpt>
      <trkpt lat="44.18878" lon="2.16046">
        <ele>235</ele>
        <time>2016-10-23T09:51:32Z</time>
      </trkpt>
      <trkpt lat="44.18882" lon="2.16052">
        <ele>235</ele>
        <time>2016-10-23T09:51:37Z</time>
      </trkpt>
      <trkpt lat="44.18886" lon="2.16057">
        <ele>235</ele>
        <time>2016-10-23T09:51:42Z</time>
      </trkpt>
      <trkpt lat="44.18889" lon="2.16062">
        <ele>235</ele>
        <time>2016-10-23T09:51:47Z</time>
      </trkpt>
      <trkpt lat="44.18893" lon="2.16066">
        <ele>235</ele>
        <time>2016-10-23T09:51:52Z</time>
      </trkpt>
      <trkpt lat="44.18899" lon="2.16071">
        <ele>235</ele>
        <time>2016-10-23T09:51:57Z</time>
      </trkpt>
      <trkpt lat="44.18904" lon="2.16075">
        <ele>235</ele>
        <time>2016-10-23T09:52:02Z</time>
      </trkpt>
      <trkpt lat="44.1891" lon="2.16078">
        <ele>235</ele>
        <time>2016-10-23T09:52:07Z</time>
      </trkpt>
      <trkpt lat="44.18911" lon="2.16078">
        <ele>235</ele>
        <time>2016-10-23T09:52:12Z</time>
      </trkpt>
      <trkpt lat="44.18912" lon="2.16076">
        <ele>235</ele>
        <time>2016-10-23T09:52:17Z</time>
      </trkpt>
      <trkpt lat="44.18915" lon="2.16072">
        <ele>235</ele>
        <time>2016-10-23T09:52:22Z</time>
      </trkpt>
      <trkpt lat="44.18918" lon="2.16069">
        <ele>235</ele>
        <time>2016-10-23T09:52:27Z</time>
      </trkpt>
      <trkpt lat="44.18923" lon="2.16065">
        <ele>235</ele>
        <time>2016-10-23T09:52:32Z</time>
      </trkpt>
      <trkpt lat="44.18926" lon="2.16059">
        <ele>235</ele>
        <time>2016-10-23T09:52:37Z</time>
      </trkpt>
      <trkpt lat="44.1893" lon="2.16053">
        <ele>235</ele>
        <time>2016-10-23T09:52:42Z</time>
      </trkpt>
      <trkpt lat="44.18935" lon="2.16047">
        <ele>235</ele>
        <time>2016-10-23T09:52:47Z</time>
      </trkpt>
      <trkpt lat="44.18937" lon="2.16042">
        <ele>235</ele>
        <time>2016-10-23T09:52:52Z</time>
      </trkpt>
      <trkpt lat="44.18939" lon="2.16036">
        <ele>222</ele>
        <time>2016-10-23T09:52:57Z</time>
      </trkpt>
      <trkpt lat="44.18943" lon="2.16028">
        <ele>222</ele>
        <time>2016-10-23T09:53:02Z</time>
      </trkpt>
      <trkpt lat="44.18948" lon="2.16021">
        <ele>222</ele>
        <time>2016-10-23T09:53:07Z</time>
      </trkpt>
      <trkpt lat="44.18951" lon="2.16017">
        <ele>222</ele>
        <time>2016-10-23T09:53:12Z</time>
      </trkpt>
      <trkpt lat="44.18953" lon="2.16011">
        <ele>222</ele>
        <time>2016-10-23T09:53:17Z</time>
      </trkpt>
      <trkpt lat="44.18959" lon="2.16004">
        <ele>253</ele>
        <time>2016-10-23T09:53:22Z</time>
      </trkpt>
      <trkpt lat="44.18962" lon="2.16001">
        <ele>253</ele>
        <time>2016-10-23T09:53:27Z</time>
      </trkpt>
      <trkpt lat="44.18966" lon="2.15995">
        <ele>253</ele>
        <time>2016-10-23T09:53:32Z</time>
      </trkpt>
      <trkpt lat="44.18969" lon="2.15987">
        <ele>253</ele>
        <time>2016-10-23T09:53:37Z</time>
      </trkpt>
      <trkpt lat="44.18974" lon="2.15981">
        <ele>253</ele>
        <time>2016-10-23T09:53:42Z</time>
      </trkpt>
      <trkpt lat="44.18979" lon="2.15972">
        <ele>253</ele>
        <time>2016-10-23T09:53:47Z</time>
      </trkpt>
      <trkpt lat="44.18984" lon="2.15967">
        <ele>253</ele>
        <time>2016-10-23T09:53:52Z</time>
      </trkpt>
      <trkpt lat="44.18988" lon="2.15962">
        <ele>253</ele>
        <time>2016-10-23T09:53:57Z</time>
      </trkpt>
      <trkpt lat="44.18994" lon="2.15955">
        <ele>235</ele>
        <time>2016-10-23T09:54:02Z</time>
      </trkpt>
      <trkpt lat="44.18997" lon="2.15952">
        <ele>235</ele>
        <time>2016-10-23T09:54:07Z</time>
      </trkpt>
      <trkpt lat="44.19" lon="2.15945">
        <ele>235</ele>
        <time>2016-10-23T09:54:12Z</time>
      </trkpt>
      <trkpt lat="44.19004" lon="2.15939">
        <ele>235</ele>
        <time>2016-10-23T09:54:17Z</time>
      </trkpt>
      <trkpt lat="44.19008" lon="2.15931">
        <ele>235</ele>
        <time>2016-10-23T09:54:22Z</time>
      </trkpt>
      <trkpt lat="44.1901" lon="2.15924">
        <ele>235</ele>
        <time>2016-10-23T09:54:27Z</time>
      </trkpt>
      <trkpt lat="44.19012" lon="2.15918">
        <ele>235</ele>
        <time>2016-10-23T09:54:32Z</time>
      </trkpt>
      <trkpt lat="44.19015" lon="2.15913">
        <ele>235</ele>
        <time>2016-10-23T09:54:37Z</time>
      </trkpt>
      <trkpt lat="44.19018" lon="2.15908">
        <ele>235</ele>
        <time>2016-10-23T09:54:42Z</time>
      </trkpt>
      <trkpt lat="44.19021" lon="2.15901">
        <ele>235</ele>
        <time>2016-10-23T09:54:47Z</time>
      </trkpt>
      <trkpt lat="44.19025" lon="2.15892">
        <ele>235</ele>
        <time>2016-10-23T09:54:52Z</time>
      </trkpt>
      <trkpt lat="44.19026" lon="2.15884">
        <ele>235</ele>
        <time>2016-10-23T09:54:57Z</time>
      </trkpt>
      <trkpt lat="44.19029" lon="2.15879">
        <ele>235</ele>
        <time>2016-10-23T09:55:02Z</time>
      </trkpt>
      <trkpt lat="44.19031" lon="2.15873">
        <ele>224</ele>
        <time>2016-10-23T09:55:07Z</time>
      </trkpt>
      <trkpt lat="44.19034" lon="2.15865">
        <ele>224</ele>
        <time>2016-10-23T09:55:12Z</time>
      </trkpt>
      <trkpt lat="44.19036" lon="2.15858">
        <ele>224</ele>
        <time>2016-10-23T09:55:17Z</time>
      </trkpt>
      <trkpt lat="44.19039" lon="2.15849">
        <ele>224</ele>
        <time>2016-10-23T09:55:22Z</time>
      </trkpt>
      <trkpt lat="44.19041" lon="2.15841">
        <ele>224</ele>
        <time>2016-10-23T09:55:27Z</time>
      </trkpt>
      <trkpt lat="44.19043" lon="2.15833">
        <ele>250</ele>
        <time>2016-10-23T09:55:32Z</time>
      </trkpt>
      <trkpt lat="44.19044" lon="2.15826">
        <ele>250</ele>
        <time>2016-10-23T09:55:37Z</time>
      </trkpt>
      <trkpt lat="44.19047" lon="2.15818">
        <ele>250</ele>
        <time>2016-10-23T09:55:42Z</time>
      </trkpt>
      <trkpt lat="44.19049" lon="2.15811">
        <ele>250</ele>
        <time>2016-10-23T09:55:47Z</time>
      </trkpt>
      <trkpt lat="44.19052" lon="2.15804">
        <ele>250</ele>
        <time>2016-10-23T09:55:52Z</time>
      </trkpt>
      <trkpt lat="44.19054" lon="2.15796">
        <ele>250</ele>
        <time>2016-10-23T09:55:57Z</time>
      </trkpt>
      <trkpt lat="44.19057" lon="2.15792">
        <ele>250</ele>
        <time>2016-10-23T09:56:02Z</time>
      </trkpt>
      <trkpt lat="44.19063" lon="2.15787">
        <ele>233</ele>
        <time>2016-10-23T09:56:07Z</time>
      </trkpt>
      <trkpt lat="44.19067" lon="2.15781">
        <ele>233</ele>
        <time>2016-10-23T09:56:12Z</time>
      </trkpt>
      <trkpt lat="44.19071" lon="2.15778">
        <ele>233</ele>
        <time>2016-10-23T09:56:17Z</time>
      </trkpt>
      <trkpt lat="44.19074" lon="2.15773">
        <ele>233</ele>
        <time>2016-10-23T09:56:22Z</time>
      </trkpt>
      <trkpt lat="44.19079" lon="2.15767">
        <ele>233</ele>
        <time>2016-10-23T09:56:27Z</time>
      </trkpt>
      <trkpt lat="44.19086" lon="2.15764">
        <ele>233</ele>
        <time>2016-10-23T09:56:32Z</time>
      </trkpt>
      <trkpt lat="44.19091" lon="2.15759">
        <ele>233</ele>
        <time>2016-10-23T09:56:37Z</time>
      </trkpt>
      <trkpt lat="44.19097" lon="2.15757">
        <ele>233</ele>
        <time>2016-10-23T09:56:42Z</time>
      </trkpt>
      <trkpt lat="44.19101" lon="2.15757">
        <ele>233</ele>
        <time>2016-10-23T09:56:47Z</time>
      </trkpt>
      <trkpt lat="44.19108" lon="2.15758">
        <ele>233</ele>
        <time>2016-10-23T09:56:52Z</time>
      </trkpt>
      <trkpt lat="44.19116" lon="2.15755">
        <ele>233</ele>
        <time>2016-10-23T09:56:57Z</time>
      </trkpt>
      <trkpt lat="44.19125" lon="2.15755">
        <ele>249</ele>
        <time>2016-10-23T09:57:02Z</time>
      </trkpt>
      <trkpt lat="44.1913" lon="2.15754">
        <ele>249</ele>
        <time>2016-10-23T09:57:07Z</time>
      </trkpt>
      <trkpt lat="44.19136" lon="2.15751">
        <ele>249</ele>
        <time>2016-10-23T09:57:12Z</time>
      </trkpt>
      <trkpt lat="44.19143" lon="2.15748">
        <ele>249</ele>
        <time>2016-10-23T09:57:17Z</time>
      </trkpt>
      <trkpt lat="44.19149" lon="2.15746">
        <ele>249</ele>
        <time>2016-10-23T09:57:22Z</time>
      </trkpt>
      <trkpt lat="44.19154" lon="2.15744">
        <ele>249</ele>
        <time>2016-10-23T09:57:27Z</time>
      </trkpt>
      <trkpt lat="44.19161" lon="2.15742">
        <ele>249</ele>
        <time>2016-10-23T09:57:32Z</time>
      </trkpt>
      <trkpt lat="44.19168" lon="2.15738">
        <ele>249</ele>
        <time>2016-10-23T09:57:37Z</time>
      </trkpt>
      <trkpt lat="44.19171" lon="2.15731">
        <ele>249</ele>
        <time>2016-10-23T09:57:42Z</time>
      </trkpt>
      <trkpt lat="44.19176" lon="2.15726">
        <ele>249</ele>
        <time>2016-10-23T09:57:47Z</time>
      </trkpt>
      <trkpt lat="44.19181" lon="2.15719">
        <ele>249</ele>
        <time>2016-10-23T09:57:52Z</time>
      </trkpt>
      <trkpt lat="44.19185" lon="2.15713">
        <ele>249</ele>
        <time>2016-10-23T09:57:57Z</time>
      </trkpt>
      <trkpt lat="44.19187" lon="2.15705">
        <ele>227</ele>
        <time>2016-10-23T09:58:02Z</time>
      </trkpt>
      <trkpt lat="44.19189" lon="2.15697">
        <ele>227</ele>
        <time>2016-10-23T09:58:07Z</time>
      </trkpt>
      <trkpt lat="44.19191" lon="2.15688">
        <ele>227</ele>
        <time>2016-10-23T09:58:12Z</time>
      </trkpt>
      <trkpt lat="44.19193" lon="2.15681">
        <ele>227</ele>
        <time>2016-10-23T09:58:17Z</time>
      </trkpt>
      <trkpt lat="44.19195" lon="2.15673">
        <ele>227</ele>
        <time>2016-10-23T09:58:22Z</time>
      </trkpt>
      <trkpt lat="44.19198" lon="2.15666">
        <ele>227</ele>
        <time>2016-10-23T09:58:27Z</time>
      </trkpt>
      <trkpt lat="44.19201" lon="2.1566">
        <ele>227</ele>
        <time>2016-10-23T09:58:32Z</time>
      </trkpt>
      <trkpt lat="44.19204" lon="2.15654">
        <ele>227</ele>
        <time>2016-10-23T09:58:37Z</time>
      </trkpt>
      <trkpt lat="44.19204" lon="2.1565">
        <ele>227</ele>
        <time>2016-10-23T09:58:42Z</time>
      </trkpt>
      <trkpt lat="44.19204" lon="2.1564">
        <ele>227</ele>
        <time>2016-10-23T09:58:47Z</time>
      </trkpt>
      <trkpt lat="44.19202" lon="2.15631">
        <ele>227</ele>
        <time>2016-10-23T09:58:52Z</time>
      </trkpt>
      <trkpt lat="44.19198" lon="2.15624">
        <ele>235</ele>
        <time>2016-10-23T09:58:57Z</time>
      </trkpt>
      <trkpt lat="44.19195" lon="2.15618">
        <ele>235</ele>
        <time>2016-10-23T09:59:02Z</time>
      </trkpt>
      <trkpt lat="44.19191" lon="2.1561">
        <ele>235</ele>
        <time>2016-10-23T09:59:07Z</time>
      </trkpt>
      <trkpt lat="44.19189" lon="2.15606">
        <ele>235</ele>
        <time>2016-10-23T09:59:12Z</time>
      </trkpt>
      <trkpt lat="44.19181" lon="2.15603">
        <ele>235</ele>
        <time>2016-10-23T09:59:17Z</time>
      </trkpt>
      <trkpt lat="44.19172" lon="2.15603">
        <ele>235</ele>
        <time>2016-10-23T09:59:22Z</time>
      </trkpt>
      <trkpt lat="44.19165" lon="2.15603">
        <ele>235</ele>
        <time>2016-10-23T09:59:27Z</time>
      </trkpt>
      <trkpt lat="44.1916" lon="2.15602">
        <ele>235</ele>
        <time>2016-10-23T09:59:32Z</time>
      </trkpt>
      <trkpt lat="44.19154" lon="2.156">
        <ele>235</ele>
        <time>2016-10-23T09:59:37Z</time>
      </trkpt>
      <trkpt lat="44.19147" lon="2.15598">
        <ele>235</ele>
        <time>2016-10-23T09:59:42Z</time>
      </trkpt>
      <trkpt lat="44.19143" lon="2.15596">
        <ele>235</ele>
        <time>2016-10-23T09:59:47Z</time>
      </trkpt>
      <trkpt lat="44.19139" lon="2.15596">
        <ele>235</ele>
        <time>2016-10-23T09:59:52Z</time>
      </trkpt>
      <trkpt lat="44.19135" lon="2.15596">
        <ele>235</ele>
        <time>2016-10-23T09:59:57Z</time>
      </trkpt>
      <trkpt lat="44.19127" lon="2.15595">
        <ele>235</ele>
        <time>2016-10-23T10:00:02Z</time>
      </trkpt>
      <trkpt lat="44.19116" lon="2.15596">
        <ele>230</ele>
        <time>2016-10-23T10:00:07Z</time>
      </trkpt>
      <trkpt lat="44.19112" lon="2.15597">
        <ele>230</ele>
        <time>2016-10-23T10:00:12Z</time>
      </trkpt>
      <trkpt lat="44.19106" lon="2.15595">
        <ele>230</ele>
        <time>2016-10-23T10:00:17Z</time>
      </trkpt>
      <trkpt lat="44.191" lon="2.15595">
        <ele>230</ele>
        <time>2016-10-23T10:00:22Z</time>
      </trkpt>
      <trkpt lat="44.19095" lon="2.15595">
        <ele>230</ele>
        <time>2016-10-23T10:00:27Z</time>
      </trkpt>
      <trkpt lat="44.19089" lon="2.15594">
        <ele>230</ele>
        <time>2016-10-23T10:00:32Z</time>
      </trkpt>
      <trkpt lat="44.19083" lon="2.15594">
        <ele>230</ele>
        <time>2016-10-23T10:00:37Z</time>
      </trkpt>
      <trkpt lat="44.19078" lon="2.15592">
        <ele>230</ele>
        <time>2016-10-23T10:00:42Z</time>
      </trkpt>
      <trkpt lat="44.19072" lon="2.15592">
        <ele>230</ele>
        <time>2016-10-23T10:00:47Z</time>
      </trkpt>
      <trkpt lat="44.19067" lon="2.15591">
        <ele>230</ele>
        <time>2016-10-23T10:00:52Z</time>
      </trkpt>
      <trkpt lat="44.1906" lon="2.15591">
        <ele>230</ele>
        <time>2016-10-23T10:00:57Z</time>
      </trkpt>
      <trkpt lat="44.19055" lon="2.15589">
        <ele>230</ele>
        <time>2016-10-23T10:01:02Z</time>
      </trkpt>
      <trkpt lat="44.19052" lon="2.15582">
        <ele>230</ele>
        <time>2016-10-23T10:01:07Z</time>
      </trkpt>
      <trkpt lat="44.1905" lon="2.15575">
        <ele>230</ele>
        <time>2016-10-23T10:01:12Z</time>
      </trkpt>
      <trkpt lat="44.19046" lon="2.15569">
        <ele>230</ele>
        <time>2016-10-23T10:01:17Z</time>
      </trkpt>
      <trkpt lat="44.19042" lon="2.15564">
        <ele>230</ele>
        <time>2016-10-23T10:01:22Z</time>
      </trkpt>
      <trkpt lat="44.19037" lon="2.15558">
        <ele>223</ele>
        <time>2016-10-23T10:01:27Z</time>
      </trkpt>
      <trkpt lat="44.19032" lon="2.15554">
        <ele>223</ele>
        <time>2016-10-23T10:01:32Z</time>
      </trkpt>
      <trkpt lat="44.19032" lon="2.15554">
        <ele>223</ele>
        <time>2016-10-23T10:01:37Z</time>
      </trkpt>
      <trkpt lat="44.19031" lon="2.15553">
        <ele>223</ele>
        <time>2016-10-23T10:01:42Z</time>
      </trkpt>
      <trkpt lat="44.19027" lon="2.15547">
        <ele>223</ele>
        <time>2016-10-23T10:01:47Z</time>
      </trkpt>
      <trkpt lat="44.19023" lon="2.1554">
        <ele>223</ele>
        <time>2016-10-23T10:01:52Z</time>
      </trkpt>
      <trkpt lat="44.1902" lon="2.1553">
        <ele>223</ele>
        <time>2016-10-23T10:01:57Z</time>
      </trkpt>
      <trkpt lat="44.1902" lon="2.15521">
        <ele>223</ele>
        <time>2016-10-23T10:02:02Z</time>
      </trkpt>
      <trkpt lat="44.19019" lon="2.15511">
        <ele>223</ele>
        <time>2016-10-23T10:02:07Z</time>
      </trkpt>
      <trkpt lat="44.19018" lon="2.15503">
        <ele>223</ele>
        <time>2016-10-23T10:02:12Z</time>
      </trkpt>
      <trkpt lat="44.19016" lon="2.15497">
        <ele>223</ele>
        <time>2016-10-23T10:02:17Z</time>
      </trkpt>
      <trkpt lat="44.19015" lon="2.1549">
        <ele>223</ele>
        <time>2016-10-23T10:02:22Z</time>
      </trkpt>
      <trkpt lat="44.19013" lon="2.15482">
        <ele>223</ele>
        <time>2016-10-23T10:02:27Z</time>
      </trkpt>
      <trkpt lat="44.1901" lon="2.15475">
        <ele>223</ele>
        <time>2016-10-23T10:02:32Z</time>
      </trkpt>
      <trkpt lat="44.1901" lon="2.15467">
        <ele>223</ele>
        <time>2016-10-23T10:02:37Z</time>
      </trkpt>
      <trkpt lat="44.19011" lon="2.1546">
        <ele>223</ele>
        <time>2016-10-23T10:02:42Z</time>
      </trkpt>
      <trkpt lat="44.19011" lon="2.15452">
        <ele>224</ele>
        <time>2016-10-23T10:02:47Z</time>
      </trkpt>
      <trkpt lat="44.19012" lon="2.15446">
        <ele>224</ele>
        <time>2016-10-23T10:02:52Z</time>
      </trkpt>
      <trkpt lat="44.19014" lon="2.15438">
        <ele>224</ele>
        <time>2016-10-23T10:02:57Z</time>
      </trkpt>
      <trkpt lat="44.19016" lon="2.15432">
        <ele>224</ele>
        <time>2016-10-23T10:03:02Z</time>
      </trkpt>
      <trkpt lat="44.19018" lon="2.15427">
        <ele>224</ele>
        <time>2016-10-23T10:03:07Z</time>
      </trkpt>
      <trkpt lat="44.1902" lon="2.15416">
        <ele>224</ele>
        <time>2016-10-23T10:03:12Z</time>
      </trkpt>
      <trkpt lat="44.19023" lon="2.15403">
        <ele>224</ele>
        <time>2016-10-23T10:03:17Z</time>
      </trkpt>
      <trkpt lat="44.19024" lon="2.15394">
        <ele>224</ele>
        <time>2016-10-23T10:03:22Z</time>
      </trkpt>
      <trkpt lat="44.19027" lon="2.15386">
        <ele>224</ele>
        <time>2016-10-23T10:03:27Z</time>
      </trkpt>
      <trkpt lat="44.19028" lon="2.1538">
        <ele>224</ele>
        <time>2016-10-23T10:03:32Z</time>
      </trkpt>
      <trkpt lat="44.1903" lon="2.15369">
        <ele>226</ele>
        <time>2016-10-23T10:03:37Z</time>
      </trkpt>
      <trkpt lat="44.19034" lon="2.15362">
        <ele>226</ele>
        <time>2016-10-23T10:03:42Z</time>
      </trkpt>
      <trkpt lat="44.19038" lon="2.15356">
        <ele>226</ele>
        <time>2016-10-23T10:03:47Z</time>
      </trkpt>
      <trkpt lat="44.19041" lon="2.15349">
        <ele>226</ele>
        <time>2016-10-23T10:03:52Z</time>
      </trkpt>
      <trkpt lat="44.19045" lon="2.15344">
        <ele>250</ele>
        <time>2016-10-23T10:03:57Z</time>
      </trkpt>
      <trkpt lat="44.19048" lon="2.15336">
        <ele>250</ele>
        <time>2016-10-23T10:04:02Z</time>
      </trkpt>
      <trkpt lat="44.19052" lon="2.15328">
        <ele>250</ele>
        <time>2016-10-23T10:04:07Z</time>
      </trkpt>
      <trkpt lat="44.19055" lon="2.1532">
        <ele>250</ele>
        <time>2016-10-23T10:04:12Z</time>
      </trkpt>
      <trkpt lat="44.19057" lon="2.15312">
        <ele>250</ele>
        <time>2016-10-23T10:04:17Z</time>
      </trkpt>
      <trkpt lat="44.1906" lon="2.15303">
        <ele>250</ele>
        <time>2016-10-23T10:04:22Z</time>
      </trkpt>
      <trkpt lat="44.19064" lon="2.15297">
        <ele>250</ele>
        <time>2016-10-23T10:04:27Z</time>
      </trkpt>
      <trkpt lat="44.19067" lon="2.15293">
        <ele>250</ele>
        <time>2016-10-23T10:04:32Z</time>
      </trkpt>
      <trkpt lat="44.19069" lon="2.15285">
        <ele>237</ele>
        <time>2016-10-23T10:04:37Z</time>
      </trkpt>
      <trkpt lat="44.19069" lon="2.15275">
        <ele>237</ele>
        <time>2016-10-23T10:04:42Z</time>
      </trkpt>
      <trkpt lat="44.19071" lon="2.15266">
        <ele>237</ele>
        <time>2016-10-23T10:04:47Z</time>
      </trkpt>
      <trkpt lat="44.19072" lon="2.15261">
        <ele>237</ele>
        <time>2016-10-23T10:04:52Z</time>
      </trkpt>
      <trkpt lat="44.19077" lon="2.15253">
        <ele>237</ele>
        <time>2016-10-23T10:04:57Z</time>
      </trkpt>
      <trkpt lat="44.19082" lon="2.15244">
        <ele>237</ele>
        <time>2016-10-23T10:05:02Z</time>
      </trkpt>
      <trkpt lat="44.19087" lon="2.15236">
        <ele>237</ele>
        <time>2016-10-23T10:05:07Z</time>
      </trkpt>
      <trkpt lat="44.19089" lon="2.15229">
        <ele>237</ele>
        <time>2016-10-23T10:05:12Z</time>
      </trkpt>
      <trkpt lat="44.19091" lon="2.15222">
        <ele>237</ele>
        <time>2016-10-23T10:05:17Z</time>
      </trkpt>
      <trkpt lat="44.19096" lon="2.15215">
        <ele>237</ele>
        <time>2016-10-23T10:05:22Z</time>
      </trkpt>
      <trkpt lat="44.19099" lon="2.1521">
        <ele>237</ele>
        <time>2016-10-23T10:05:27Z</time>
      </trkpt>
      <trkpt lat="44.19103" lon="2.15203">
        <ele>226</ele>
        <time>2016-10-23T10:05:32Z</time>
      </trkpt>
      <trkpt lat="44.19108" lon="2.15199">
        <ele>226</ele>
        <time>2016-10-23T10:05:37Z</time>
      </trkpt>
      <trkpt lat="44.19114" lon="2.15193">
        <ele>226</ele>
        <time>2016-10-23T10:05:42Z</time>
      </trkpt>
      <trkpt lat="44.1912" lon="2.15188">
        <ele>226</ele>
        <time>2016-10-23T10:05:47Z</time>
      </trkpt>
      <trkpt lat="44.19126" lon="2.15183">
        <ele>230</ele>
        <time>2016-10-23T10:05:52Z</time>
      </trkpt>
      <trkpt lat="44.19133" lon="2.15179">
        <ele>230</ele>
        <time>2016-10-23T10:05:57Z</time>
      </trkpt>
      <trkpt lat="44.19138" lon="2.15174">
        <ele>230</ele>
        <time>2016-10-23T10:06:02Z</time>
      </trkpt>
      <trkpt lat="44.19144" lon="2.15169">
        <ele>230</ele>
        <time>2016-10-23T10:06:07Z</time>
      </trkpt>
      <trkpt lat="44.1915" lon="2.15165">
        <ele>230</ele>
        <time>2016-10-23T10:06:12Z</time>
      </trkpt>
      <trkpt lat="44.19155" lon="2.15162">
        <ele>230</ele>
        <time>2016-10-23T10:06:17Z</time>
      </trkpt>
      <trkpt lat="44.19158" lon="2.15159">
        <ele>230</ele>
        <time>2016-10-23T10:06:22Z</time>
      </trkpt>
      <trkpt lat="44.1916" lon="2.15153">
        <ele>230</ele>
        <time>2016-10-23T10:06:27Z</time>
      </trkpt>
      <trkpt lat="44.19159" lon="2.15146">
        <ele>230</ele>
        <time>2016-10-23T10:06:32Z</time>
      </trkpt>
      <trkpt lat="44.19163" lon="2.15143">
        <ele>230</ele>
        <time>2016-10-23T10:06:37Z</time>
      </trkpt>
      <trkpt lat="44.19164" lon="2.15138">
        <ele>230</ele>
        <time>2016-10-23T10:06:42Z</time>
      </trkpt>
      <trkpt lat="44.19167" lon="2.15136">
        <ele>230</ele>
        <time>2016-10-23T10:06:47Z</time>
      </trkpt>
      <trkpt lat="44.19176" lon="2.15135">
        <ele>230</ele>
        <time>2016-10-23T10:06:52Z</time>
      </trkpt>
      <trkpt lat="44.19185" lon="2.15138">
        <ele>230</ele>
        <time>2016-10-23T10:06:57Z</time>
      </trkpt>
      <trkpt lat="44.19187" lon="2.15133">
        <ele>230</ele>
        <time>2016-10-23T10:07:02Z</time>
      </trkpt>
      <trkpt lat="44.19196" lon="2.15133">
        <ele>230</ele>
        <time>2016-10-23T10:07:07Z</time>
      </trkpt>
      <trkpt lat="44.19204" lon="2.15137">
        <ele>230</ele>
        <time>2016-10-23T10:07:12Z</time>
      </trkpt>
      <trkpt lat="44.19213" lon="2.1514">
        <ele>223</ele>
        <time>2016-10-23T10:07:17Z</time>
      </trkpt>
      <trkpt lat="44.19217" lon="2.15145">
        <ele>223</ele>
        <time>2016-10-23T10:07:22Z</time>
      </trkpt>
      <trkpt lat="44.19225" lon="2.15146">
        <ele>223</ele>
        <time>2016-10-23T10:07:27Z</time>
      </trkpt>
      <trkpt lat="44.19231" lon="2.15147">
        <ele>223</ele>
        <time>2016-10-23T10:07:32Z</time>
      </trkpt>
      <trkpt lat="44.19238" lon="2.15153">
        <ele>223</ele>
        <time>2016-10-23T10:07:37Z</time>
      </trkpt>
      <trkpt lat="44.19243" lon="2.15156">
        <ele>223</ele>
        <time>2016-10-23T10:07:42Z</time>
      </trkpt>
      <trkpt lat="44.19245" lon="2.15157">
        <ele>223</ele>
        <time>2016-10-23T10:07:47Z</time>
      </trkpt>
      <trkpt lat="44.19253" lon="2.1516">
        <ele>223</ele>
        <time>2016-10-23T10:07:52Z</time>
      </trkpt>
      <trkpt lat="44.19259" lon="2.15167">
        <ele>223</ele>
        <time>2016-10-23T10:07:57Z</time>
      </trkpt>
      <trkpt lat="44.19264" lon="2.15173">
        <ele>223</ele>
        <time>2016-10-23T10:08:02Z</time>
      </trkpt>
      <trkpt lat="44.19269" lon="2.15176">
        <ele>223</ele>
        <time>2016-10-23T10:08:07Z</time>
      </trkpt>
      <trkpt lat="44.19276" lon="2.15182">
        <ele>223</ele>
        <time>2016-10-23T10:08:12Z</time>
      </trkpt>
      <trkpt lat="44.1928" lon="2.15185">
        <ele>223</ele>
        <time>2016-10-23T10:08:17Z</time>
      </trkpt>
      <trkpt lat="44.19285" lon="2.15187">
        <ele>223</ele>
        <time>2016-10-23T10:08:22Z</time>
      </trkpt>
      <trkpt lat="44.19291" lon="2.15193">
        <ele>223</ele>
        <time>2016-10-23T10:08:27Z</time>
      </trkpt>
      <trkpt lat="44.19297" lon="2.15198">
        <ele>219</ele>
        <time>2016-10-23T10:08:32Z</time>
      </trkpt>
      <trkpt lat="44.19303" lon="2.15205">
        <ele>219</ele>
        <time>2016-10-23T10:08:37Z</time>
      </trkpt>
      <trkpt lat="44.19307" lon="2.15212">
        <ele>229</ele>
        <time>2016-10-23T10:08:42Z</time>
      </trkpt>
      <trkpt lat="44.1931" lon="2.15214">
        <ele>229</ele>
        <time>2016-10-23T10:08:47Z</time>
      </trkpt>
      <trkpt lat="44.19312" lon="2.15215">
        <ele>229</ele>
        <time>2016-10-23T10:08:52Z</time>
      </trkpt>
      <trkpt lat="44.19311" lon="2.15215">
        <ele>229</ele>
        <time>2016-10-23T10:08:57Z</time>
      </trkpt>
      <trkpt lat="44.19313" lon="2.15215">
        <ele>229</ele>
        <time>2016-10-23T10:09:02Z</time>
      </trkpt>
      <trkpt lat="44.19317" lon="2.15222">
        <ele>229</ele>
        <time>2016-10-23T10:09:07Z</time>
      </trkpt>
      <trkpt lat="44.19319" lon="2.15226">
        <ele>229</ele>
        <time>2016-10-23T10:09:12Z</time>
      </trkpt>
      <trkpt lat="44.19323" lon="2.1523">
        <ele>229</ele>
        <time>2016-10-23T10:09:17Z</time>
      </trkpt>
      <trkpt lat="44.1933" lon="2.15233">
        <ele>229</ele>
        <time>2016-10-23T10:09:22Z</time>
      </trkpt>
      <trkpt lat="44.19338" lon="2.15239">
        <ele>229</ele>
        <time>2016-10-23T10:09:27Z</time>
      </trkpt>
      <trkpt lat="44.19342" lon="2.15244">
        <ele>229</ele>
        <time>2016-10-23T10:09:32Z</time>
      </trkpt>
      <trkpt lat="44.19345" lon="2.15248">
        <ele>229</ele>
        <time>2016-10-23T10:09:37Z</time>
      </trkpt>
      <trkpt lat="44.19353" lon="2.15254">
        <ele>229</ele>
        <time>2016-10-23T10:09:42Z</time>
      </trkpt>
      <trkpt lat="44.19356" lon="2.15256">
        <ele>229</ele>
        <time>2016-10-23T10:09:47Z</time>
      </trkpt>
      <trkpt lat="44.19361" lon="2.15263">
        <ele>229</ele>
        <time>2016-10-23T10:09:52Z</time>
      </trkpt>
      <trkpt lat="44.19365" lon="2.15266">
        <ele>229</ele>
        <time>2016-10-23T10:09:57Z</time>
      </trkpt>
      <trkpt lat="44.19369" lon="2.1527">
        <ele>229</ele>
        <time>2016-10-23T10:10:02Z</time>
      </trkpt>
      <trkpt lat="44.19375" lon="2.15273">
        <ele>229</ele>
        <time>2016-10-23T10:10:07Z</time>
      </trkpt>
      <trkpt lat="44.19378" lon="2.15279">
        <ele>216</ele>
        <time>2016-10-23T10:10:12Z</time>
      </trkpt>
      <trkpt lat="44.19382" lon="2.15282">
        <ele>216</ele>
        <time>2016-10-23T10:10:17Z</time>
      </trkpt>
      <trkpt lat="44.19388" lon="2.15284">
        <ele>216</ele>
        <time>2016-10-23T10:10:22Z</time>
      </trkpt>
      <trkpt lat="44.19392" lon="2.15289">
        <ele>216</ele>
        <time>2016-10-23T10:10:27Z</time>
      </trkpt>
      <trkpt lat="44.19398" lon="2.15293">
        <ele>235</ele>
        <time>2016-10-23T10:10:32Z</time>
      </trkpt>
      <trkpt lat="44.19405" lon="2.15297">
        <ele>235</ele>
        <time>2016-10-23T10:10:37Z</time>
      </trkpt>
      <trkpt lat="44.1941" lon="2.15299">
        <ele>235</ele>
        <time>2016-10-23T10:10:42Z</time>
      </trkpt>
      <trkpt lat="44.19414" lon="2.15301">
        <ele>235</ele>
        <time>2016-10-23T10:10:47Z</time>
      </trkpt>
      <trkpt lat="44.19419" lon="2.15307">
        <ele>235</ele>
        <time>2016-10-23T10:10:52Z</time>
      </trkpt>
      <trkpt lat="44.19424" lon="2.15312">
        <ele>235</ele>
        <time>2016-10-23T10:10:57Z</time>
      </trkpt>
      <trkpt lat="44.19426" lon="2.15311">
        <ele>235</ele>
        <time>2016-10-23T10:11:02Z</time>
      </trkpt>
      <trkpt lat="44.19431" lon="2.15313">
        <ele>235</ele>
        <time>2016-10-23T10:11:07Z</time>
      </trkpt>
      <trkpt lat="44.19436" lon="2.15317">
        <ele>235</ele>
        <time>2016-10-23T10:11:12Z</time>
      </trkpt>
      <trkpt lat="44.19446" lon="2.15322">
        <ele>235</ele>
        <time>2016-10-23T10:11:17Z</time>
      </trkpt>
      <trkpt lat="44.19456" lon="2.15326">
        <ele>235</ele>
        <time>2016-10-23T10:11:22Z</time>
      </trkpt>
      <trkpt lat="44.19462" lon="2.15329">
        <ele>229</ele>
        <time>2016-10-23T10:11:27Z</time>
      </trkpt>
      <trkpt lat="44.19466" lon="2.15332">
        <ele>229</ele>
        <time>2016-10-23T10:11:32Z</time>
      </trkpt>
      <trkpt lat="44.19471" lon="2.15338">
        <ele>229</ele>
        <time>2016-10-23T10:11:37Z</time>
      </trkpt>
      <trkpt lat="44.19476" lon="2.15339">
        <ele>229</ele>
        <time>2016-10-23T10:11:42Z</time>
      </trkpt>
      <trkpt lat="44.1948" lon="2.1534">
        <ele>229</ele>
        <time>2016-10-23T10:11:47Z</time>
      </trkpt>
      <trkpt lat="44.19484" lon="2.15342">
        <ele>229</ele>
        <time>2016-10-23T10:11:52Z</time>
      </trkpt>
      <trkpt lat="44.1949" lon="2.15347">
        <ele>229</ele>
        <time>2016-10-23T10:11:57Z</time>
      </trkpt>
      <trkpt lat="44.19494" lon="2.15353">
        <ele>229</ele>
        <time>2016-10-23T10:12:02Z</time>
      </trkpt>
      <trkpt lat="44.19498" lon="2.15357">
        <ele>229</ele>
        <time>2016-10-23T10:12:07Z</time>
      </trkpt>
      <trkpt lat="44.19504" lon="2.15359">
        <ele>229</ele>
        <time>2016-10-23T10:12:12Z</time>
      </trkpt>
      <trkpt lat="44.1951" lon="2.15364">
        <ele>229</ele>
        <time>2016-10-23T10:12:17Z</time>
      </trkpt>
      <trkpt lat="44.19515" lon="2.1537">
        <ele>229</ele>
        <time>2016-10-23T10:12:22Z</time>
      </trkpt>
      <trkpt lat="44.1952" lon="2.15373">
        <ele>229</ele>
        <time>2016-10-23T10:12:27Z</time>
      </trkpt>
      <trkpt lat="44.19527" lon="2.15376">
        <ele>253</ele>
        <time>2016-10-23T10:12:32Z</time>
      </trkpt>
      <trkpt lat="44.19532" lon="2.15377">
        <ele>253</ele>
        <time>2016-10-23T10:12:37Z</time>
      </trkpt>
      <trkpt lat="44.19534" lon="2.1538">
        <ele>253</ele>
        <time>2016-10-23T10:12:42Z</time>
      </trkpt>
      <trkpt lat="44.19539" lon="2.15383">
        <ele>253</ele>
        <time>2016-10-23T10:12:47Z</time>
      </trkpt>
      <trkpt lat="44.19545" lon="2.15385">
        <ele>242</ele>
        <time>2016-10-23T10:12:52Z</time>
      </trkpt>
      <trkpt lat="44.19548" lon="2.1539">
        <ele>242</ele>
        <time>2016-10-23T10:12:57Z</time>
      </trkpt>
      <trkpt lat="44.19552" lon="2.15392">
        <ele>242</ele>
        <time>2016-10-23T10:13:02Z</time>
      </trkpt>
      <trkpt lat="44.19559" lon="2.15394">
        <ele>242</ele>
        <time>2016-10-23T10:13:07Z</time>
      </trkpt>
      <trkpt lat="44.19566" lon="2.15399">
        <ele>242</ele>
        <time>2016-10-23T10:13:12Z</time>
      </trkpt>
      <trkpt lat="44.1957" lon="2.154">
        <ele>242</ele>
        <time>2016-10-23T10:13:17Z</time>
      </trkpt>
      <trkpt lat="44.19575" lon="2.15403">
        <ele>242</ele>
        <time>2016-10-23T10:13:22Z</time>
      </trkpt>
      <trkpt lat="44.1958" lon="2.15408">
        <ele>242</ele>
        <time>2016-10-23T10:13:27Z</time>
      </trkpt>
      <trkpt lat="44.19585" lon="2.1541">
        <ele>242</ele>
        <time>2016-10-23T10:13:32Z</time>
      </trkpt>
      <trkpt lat="44.1959" lon="2.15412">
        <ele>242</ele>
        <time>2016-10-23T10:13:37Z</time>
      </trkpt>
      <trkpt lat="44.19595" lon="2.15414">
        <ele>242</ele>
        <time>2016-10-23T10:13:42Z</time>
      </trkpt>
      <trkpt lat="44.19602" lon="2.15414">
        <ele>242</ele>
        <time>2016-10-23T10:13:47Z</time>
      </trkpt>
      <trkpt lat="44.19609" lon="2.15418">
        <ele>242</ele>
        <time>2016-10-23T10:13:52Z</time>
      </trkpt>
      <trkpt lat="44.19616" lon="2.15423">
        <ele>242</ele>
        <time>2016-10-23T10:13:57Z</time>
      </trkpt>
      <trkpt lat="44.19621" lon="2.15427">
        <ele>242</ele>
        <time>2016-10-23T10:14:02Z</time>
      </trkpt>
      <trkpt lat="44.19626" lon="2.15429">
        <ele>228</ele>
        <time>2016-10-23T10:14:07Z</time>
      </trkpt>
      <trkpt lat="44.19631" lon="2.15433">
        <ele>228</ele>
        <time>2016-10-23T10:14:12Z</time>
      </trkpt>
      <trkpt lat="44.19635" lon="2.15436">
        <ele>228</ele>
        <time>2016-10-23T10:14:17Z</time>
      </trkpt>
      <trkpt lat="44.1964" lon="2.15441">
        <ele>228</ele>
        <time>2016-10-23T10:14:22Z</time>
      </trkpt>
      <trkpt lat="44.19645" lon="2.15444">
        <ele>228</ele>
        <time>2016-10-23T10:14:27Z</time>
      </trkpt>
      <trkpt lat="44.19648" lon="2.15444">
        <ele>228</ele>
        <time>2016-10-23T10:14:32Z</time>
      </trkpt>
      <trkpt lat="44.19655" lon="2.15449">
        <ele>228</ele>
        <time>2016-10-23T10:14:37Z</time>
      </trkpt>
      <trkpt lat="44.19659" lon="2.1545">
        <ele>228</ele>
        <time>2016-10-23T10:14:42Z</time>
      </trkpt>
      <trkpt lat="44.19663" lon="2.15455">
        <ele>228</ele>
        <time>2016-10-23T10:14:47Z</time>
      </trkpt>
      <trkpt lat="44.19669" lon="2.15459">
        <ele>251</ele>
        <time>2016-10-23T10:14:52Z</time>
      </trkpt>
      <trkpt lat="44.19675" lon="2.15464">
        <ele>251</ele>
        <time>2016-10-23T10:14:57Z</time>
      </trkpt>
      <trkpt lat="44.19679" lon="2.15465">
        <ele>251</ele>
        <time>2016-10-23T10:15:02Z</time>
      </trkpt>
      <trkpt lat="44.19684" lon="2.1547">
        <ele>251</ele>
        <time>2016-10-23T10:15:07Z</time>
      </trkpt>
      <trkpt lat="44.19688" lon="2.15474">
        <ele>251</ele>
        <time>2016-10-23T10:15:12Z</time>
      </trkpt>
      <trkpt lat="44.19692" lon="2.15475">
        <ele>251</ele>
        <time>2016-10-23T10:15:17Z</time>
      </trkpt>
      <trkpt lat="44.19697" lon="2.15476">
        <ele>251</ele>
        <time>2016-10-23T10:15:22Z</time>
      </trkpt>
      <trkpt lat="44.19702" lon="2.15479">
        <ele>251</ele>
        <time>2016-10-23T10:15:27Z</time>
      </trkpt>
      <trkpt lat="44.19708" lon="2.1548">
        <ele>251</ele>
        <time>2016-10-23T10:15:32Z</time>
      </trkpt>
      <trkpt lat="44.19714" lon="2.15485">
        <ele>247</ele>
        <time>2016-10-23T10:15:37Z</time>
      </trkpt>
      <trkpt lat="44.1972" lon="2.15487">
        <ele>247</ele>
        <time>2016-10-23T10:15:42Z</time>
      </trkpt>
      <trkpt lat="44.19725" lon="2.15488">
        <ele>247</ele>
        <time>2016-10-23T10:15:47Z</time>
      </trkpt>
      <trkpt lat="44.1973" lon="2.15489">
        <ele>247</ele>
        <time>2016-10-23T10:15:52Z</time>
      </trkpt>
      <trkpt lat="44.19738" lon="2.15492">
        <ele>247</ele>
        <time>2016-10-23T10:15:57Z</time>
      </trkpt>
      <trkpt lat="44.19743" lon="2.15494">
        <ele>247</ele>
        <time>2016-10-23T10:16:02Z</time>
      </trkpt>
      <trkpt lat="44.19749" lon="2.155">
        <ele>247</ele>
        <time>2016-10-23T10:16:07Z</time>
      </trkpt>
      <trkpt lat="44.19749" lon="2.15498">
        <ele>247</ele>
        <time>2016-10-23T10:16:12Z</time>
      </trkpt>
      <trkpt lat="44.19749" lon="2.15499">
        <ele>247</ele>
        <time>2016-10-23T10:16:17Z</time>
      </trkpt>
      <trkpt lat="44.19749" lon="2.15498">
        <ele>247</ele>
        <time>2016-10-23T10:16:22Z</time>
      </trkpt>
      <trkpt lat="44.19749" lon="2.15498">
        <ele>247</ele>
        <time>2016-10-23T10:16:27Z</time>
      </trkpt>
      <trkpt lat="44.19749" lon="2.15498">
        <ele>247</ele>
        <time>2016-10-23T10:16:32Z</time>
      </trkpt>
      <trkpt lat="44.19749" lon="2.15498">
        <ele>247</ele>
        <time>2016-10-23T10:16:37Z</time>
      </trkpt>
      <trkpt lat="44.19749" lon="2.15498">
        <ele>247</ele>
        <time>2016-10-23T10:16:42Z</time>
      </trkpt>
      <trkpt lat="44.19749" lon="2.15498">
        <ele>247</ele>
        <time>2016-10-23T10:16:47Z</time>
      </trkpt>
      <trkpt lat="44.19749" lon="2.15497">
        <ele>247</ele>
        <time>2016-10-23T10:16:52Z</time>
      </trkpt>
      <trkpt lat="44.19749" lon="2.15498">
        <ele>247</ele>
        <time>2016-10-23T10:16:57Z</time>
      </trkpt>
      <trkpt lat="44.19749" lon="2.15497">
        <ele>247</ele>
        <time>2016-10-23T10:17:02Z</time>
      </trkpt>
      <trkpt lat="44.19749" lon="2.15497">
        <ele>247</ele>
        <time>2016-10-23T10:17:07Z</time>
      </trkpt>
      <trkpt lat="44.1975" lon="2.15497">
        <ele>247</ele>
        <time>2016-10-23T10:17:12Z</time>
      </trkpt>
      <trkpt lat="44.1975" lon="2.15497">
        <ele>247</ele>
        <time>2016-10-23T10:17:17Z</time>
      </trkpt>
      <trkpt lat="44.1975" lon="2.15497">
        <ele>247</ele>
        <time>2016-10-23T10:17:22Z</time>
      </trkpt>
      <trkpt lat="44.19751" lon="2.15497">
        <ele>247</ele>
        <time>2016-10-23T10:17:27Z</time>
      </trkpt>
      <trkpt lat="44.19751" lon="2.15498">
        <ele>247</ele>
        <time>2016-10-23T10:17:32Z</time>
      </trkpt>
      <trkpt lat="44.19751" lon="2.15497">
        <ele>247</ele>
        <time>2016-10-23T10:17:37Z</time>
      </trkpt>
      <trkpt lat="44.19751" lon="2.15498">
        <ele>247</ele>
        <time>2016-10-23T10:17:42Z</time>
      </trkpt>
      <trkpt lat="44.19752" lon="2.15497">
        <ele>247</ele>
        <time>2016-10-23T10:17:47Z</time>
      </trkpt>
      <trkpt lat="44.19753" lon="2.15499">
        <ele>247</ele>
        <time>2016-10-23T10:17:52Z</time>
      </trkpt>
      <trkpt lat="44.19752" lon="2.15499">
        <ele>247</ele>
        <time>2016-10-23T10:17:57Z</time>
      </trkpt>
      <trkpt lat="44.19746" lon="2.15502">
        <ele>247</ele>
        <time>2016-10-23T10:18:02Z</time>
      </trkpt>
      <trkpt lat="44.19739" lon="2.15504">
        <ele>247</ele>
        <time>2016-10-23T10:18:07Z</time>
      </trkpt>
      <trkpt lat="44.19738" lon="2.15506">
        <ele>247</ele>
        <time>2016-10-23T10:18:12Z</time>
      </trkpt>
      <trkpt lat="44.19738" lon="2.15506">
        <ele>247</ele>
        <time>2016-10-23T10:18:17Z</time>
      </trkpt>
      <trkpt lat="44.19737" lon="2.15507">
        <ele>247</ele>
        <time>2016-10-23T10:18:22Z</time>
      </trkpt>
      <trkpt lat="44.19737" lon="2.15507">
        <ele>247</ele>
        <time>2016-10-23T10:18:27Z</time>
      </trkpt>
      <trkpt lat="44.19737" lon="2.15508">
        <ele>247</ele>
        <time>2016-10-23T10:18:32Z</time>
      </trkpt>
      <trkpt lat="44.19737" lon="2.15508">
        <ele>247</ele>
        <time>2016-10-23T10:18:37Z</time>
      </trkpt>
      <trkpt lat="44.19737" lon="2.15508">
        <ele>247</ele>
        <time>2016-10-23T10:18:42Z</time>
      </trkpt>
      <trkpt lat="44.19737" lon="2.15509">
        <ele>247</ele>
        <time>2016-10-23T10:18:47Z</time>
      </trkpt>
      <trkpt lat="44.19737" lon="2.15509">
        <ele>247</ele>
        <time>2016-10-23T10:18:52Z</time>
      </trkpt>
      <trkpt lat="44.19742" lon="2.15504">
        <ele>247</ele>
        <time>2016-10-23T10:18:57Z</time>
      </trkpt>
      <trkpt lat="44.19752" lon="2.15501">
        <ele>247</ele>
        <time>2016-10-23T10:19:02Z</time>
      </trkpt>
      <trkpt lat="44.19754" lon="2.155">
        <ele>247</ele>
        <time>2016-10-23T10:19:07Z</time>
      </trkpt>
      <trkpt lat="44.19754" lon="2.155">
        <ele>247</ele>
        <time>2016-10-23T10:19:12Z</time>
      </trkpt>
      <trkpt lat="44.19754" lon="2.155">
        <ele>247</ele>
        <time>2016-10-23T10:19:17Z</time>
      </trkpt>
      <trkpt lat="44.19754" lon="2.155">
        <ele>247</ele>
        <time>2016-10-23T10:19:22Z</time>
      </trkpt>
      <trkpt lat="44.19758" lon="2.15496">
        <ele>247</ele>
        <time>2016-10-23T10:19:27Z</time>
      </trkpt>
      <trkpt lat="44.19762" lon="2.15498">
        <ele>247</ele>
        <time>2016-10-23T10:19:32Z</time>
      </trkpt>
      <trkpt lat="44.19765" lon="2.15497">
        <ele>247</ele>
        <time>2016-10-23T10:19:37Z</time>
      </trkpt>
      <trkpt lat="44.19772" lon="2.15492">
        <ele>247</ele>
        <time>2016-10-23T10:19:42Z</time>
      </trkpt>
      <trkpt lat="44.19779" lon="2.1549">
        <ele>247</ele>
        <time>2016-10-23T10:19:47Z</time>
      </trkpt>
      <trkpt lat="44.19784" lon="2.15488">
        <ele>247</ele>
        <time>2016-10-23T10:19:52Z</time>
      </trkpt>
      <trkpt lat="44.19791" lon="2.15486">
        <ele>247</ele>
        <time>2016-10-23T10:19:57Z</time>
      </trkpt>
      <trkpt lat="44.19797" lon="2.15485">
        <ele>268</ele>
        <time>2016-10-23T10:20:02Z</time>
      </trkpt>
      <trkpt lat="44.19803" lon="2.15485">
        <ele>268</ele>
        <time>2016-10-23T10:20:07Z</time>
      </trkpt>
      <trkpt lat="44.19805" lon="2.15486">
        <ele>268</ele>
        <time>2016-10-23T10:20:12Z</time>
      </trkpt>
      <trkpt lat="44.19809" lon="2.15483">
        <ele>268</ele>
        <time>2016-10-23T10:20:17Z</time>
      </trkpt>
      <trkpt lat="44.19814" lon="2.15483">
        <ele>268</ele>
        <time>2016-10-23T10:20:22Z</time>
      </trkpt>
      <trkpt lat="44.19819" lon="2.15483">
        <ele>268</ele>
        <time>2016-10-23T10:20:27Z</time>
      </trkpt>
      <trkpt lat="44.19825" lon="2.15482">
        <ele>268</ele>
        <time>2016-10-23T10:20:32Z</time>
      </trkpt>
      <trkpt lat="44.19827" lon="2.1548">
        <ele>268</ele>
        <time>2016-10-23T10:20:37Z</time>
      </trkpt>
      <trkpt lat="44.19831" lon="2.15478">
        <ele>268</ele>
        <time>2016-10-23T10:20:42Z</time>
      </trkpt>
      <trkpt lat="44.19835" lon="2.15476">
        <ele>268</ele>
        <time>2016-10-23T10:20:47Z</time>
      </trkpt>
      <trkpt lat="44.19838" lon="2.15475">
        <ele>268</ele>
        <time>2016-10-23T10:20:52Z</time>
      </trkpt>
      <trkpt lat="44.19844" lon="2.15474">
        <ele>268</ele>
        <time>2016-10-23T10:20:57Z</time>
      </trkpt>
      <trkpt lat="44.19849" lon="2.15472">
        <ele>268</ele>
        <time>2016-10-23T10:21:02Z</time>
      </trkpt>
      <trkpt lat="44.19852" lon="2.15471">
        <ele>268</ele>
        <time>2016-10-23T10:21:07Z</time>
      </trkpt>
      <trkpt lat="44.19857" lon="2.15469">
        <ele>268</ele>
        <time>2016-10-23T10:21:12Z</time>
      </trkpt>
      <trkpt lat="44.1986" lon="2.15467">
        <ele>268</ele>
        <time>2016-10-23T10:21:17Z</time>
      </trkpt>
      <trkpt lat="44.19864" lon="2.15463">
        <ele>268</ele>
        <time>2016-10-23T10:21:22Z</time>
      </trkpt>
      <trkpt lat="44.19864" lon="2.15459">
        <ele>268</ele>
        <time>2016-10-23T10:21:27Z</time>
      </trkpt>
      <trkpt lat="44.19866" lon="2.15454">
        <ele>264</ele>
        <time>2016-10-23T10:21:32Z</time>
      </trkpt>
      <trkpt lat="44.19867" lon="2.15449">
        <ele>264</ele>
        <time>2016-10-23T10:21:37Z</time>
      </trkpt>
      <trkpt lat="44.19869" lon="2.15445">
        <ele>264</ele>
        <time>2016-10-23T10:21:42Z</time>
      </trkpt>
      <trkpt lat="44.19872" lon="2.15439">
        <ele>264</ele>
        <time>2016-10-23T10:21:47Z</time>
      </trkpt>
      <trkpt lat="44.19874" lon="2.15435">
        <ele>264</ele>
        <time>2016-10-23T10:21:52Z</time>
      </trkpt>
      <trkpt lat="44.19874" lon="2.15435">
        <ele>264</ele>
        <time>2016-10-23T10:21:57Z</time>
      </trkpt>
      <trkpt lat="44.19871" lon="2.15437">
        <ele>264</ele>
        <time>2016-10-23T10:22:02Z</time>
      </trkpt>
      <trkpt lat="44.19868" lon="2.15443">
        <ele>264</ele>
        <time>2016-10-23T10:22:07Z</time>
      </trkpt>
      <trkpt lat="44.19867" lon="2.15449">
        <ele>264</ele>
        <time>2016-10-23T10:22:12Z</time>
      </trkpt>
      <trkpt lat="44.19866" lon="2.15452">
        <ele>264</ele>
        <time>2016-10-23T10:22:17Z</time>
      </trkpt>
      <trkpt lat="44.19866" lon="2.15458">
        <ele>264</ele>
        <time>2016-10-23T10:22:22Z</time>
      </trkpt>
      <trkpt lat="44.19864" lon="2.15461">
        <ele>268</ele>
        <time>2016-10-23T10:22:27Z</time>
      </trkpt>
      <trkpt lat="44.19862" lon="2.15465">
        <ele>268</ele>
        <time>2016-10-23T10:22:32Z</time>
      </trkpt>
      <trkpt lat="44.1986" lon="2.15472">
        <ele>268</ele>
        <time>2016-10-23T10:22:37Z</time>
      </trkpt>
      <trkpt lat="44.1986" lon="2.15479">
        <ele>268</ele>
        <time>2016-10-23T10:22:42Z</time>
      </trkpt>
      <trkpt lat="44.19861" lon="2.15486">
        <ele>268</ele>
        <time>2016-10-23T10:22:47Z</time>
      </trkpt>
      <trkpt lat="44.19862" lon="2.15489">
        <ele>268</ele>
        <time>2016-10-23T10:22:52Z</time>
      </trkpt>
      <trkpt lat="44.19864" lon="2.15491">
        <ele>268</ele>
        <time>2016-10-23T10:22:57Z</time>
      </trkpt>
      <trkpt lat="44.19866" lon="2.15491">
        <ele>268</ele>
        <time>2016-10-23T10:23:02Z</time>
      </trkpt>
      <trkpt lat="44.1987" lon="2.1549">
        <ele>268</ele>
        <time>2016-10-23T10:23:07Z</time>
      </trkpt>
      <trkpt lat="44.1987" lon="2.15491">
        <ele>268</ele>
        <time>2016-10-23T10:23:12Z</time>
      </trkpt>
      <trkpt lat="44.1987" lon="2.15492">
        <ele>268</ele>
        <time>2016-10-23T10:23:17Z</time>
      </trkpt>
      <trkpt lat="44.19871" lon="2.15486">
        <ele>268</ele>
        <time>2016-10-23T10:23:22Z</time>
      </trkpt>
      <trkpt lat="44.19873" lon="2.15483">
        <ele>268</ele>
        <time>2016-10-23T10:23:27Z</time>
      </trkpt>
      <trkpt lat="44.19875" lon="2.15481">
        <ele>298</ele>
        <time>2016-10-23T10:23:32Z</time>
      </trkpt>
      <trkpt lat="44.19877" lon="2.15478">
        <ele>298</ele>
        <time>2016-10-23T10:23:37Z</time>
      </trkpt>
      <trkpt lat="44.19879" lon="2.15476">
        <ele>298</ele>
        <time>2016-10-23T10:23:42Z</time>
      </trkpt>
      <trkpt lat="44.19882" lon="2.15472">
        <ele>298</ele>
        <time>2016-10-23T10:23:47Z</time>
      </trkpt>
      <trkpt lat="44.19885" lon="2.15469">
        <ele>298</ele>
        <time>2016-10-23T10:23:52Z</time>
      </trkpt>
      <trkpt lat="44.19888" lon="2.15467">
        <ele>298</ele>
        <time>2016-10-23T10:23:57Z</time>
      </trkpt>
      <trkpt lat="44.1989" lon="2.15461">
        <ele>298</ele>
        <time>2016-10-23T10:24:02Z</time>
      </trkpt>
      <trkpt lat="44.19892" lon="2.15457">
        <ele>304</ele>
        <time>2016-10-23T10:24:07Z</time>
      </trkpt>
      <trkpt lat="44.19894" lon="2.15452">
        <ele>304</ele>
        <time>2016-10-23T10:24:12Z</time>
      </trkpt>
      <trkpt lat="44.19896" lon="2.15446">
        <ele>304</ele>
        <time>2016-10-23T10:24:17Z</time>
      </trkpt>
      <trkpt lat="44.19899" lon="2.15442">
        <ele>304</ele>
        <time>2016-10-23T10:24:22Z</time>
      </trkpt>
      <trkpt lat="44.199" lon="2.15439">
        <ele>304</ele>
        <time>2016-10-23T10:24:27Z</time>
      </trkpt>
      <trkpt lat="44.19899" lon="2.15434">
        <ele>304</ele>
        <time>2016-10-23T10:24:32Z</time>
      </trkpt>
      <trkpt lat="44.19899" lon="2.15433">
        <ele>304</ele>
        <time>2016-10-23T10:24:37Z</time>
      </trkpt>
      <trkpt lat="44.19899" lon="2.15431">
        <ele>304</ele>
        <time>2016-10-23T10:24:42Z</time>
      </trkpt>
      <trkpt lat="44.19899" lon="2.15431">
        <ele>304</ele>
        <time>2016-10-23T10:24:47Z</time>
      </trkpt>
      <trkpt lat="44.19899" lon="2.1543">
        <ele>304</ele>
        <time>2016-10-23T10:24:52Z</time>
      </trkpt>
      <trkpt lat="44.19899" lon="2.1543">
        <ele>304</ele>
        <time>2016-10-23T10:24:57Z</time>
      </trkpt>
      <trkpt lat="44.19899" lon="2.1543">
        <ele>304</ele>
        <time>2016-10-23T10:25:02Z</time>
      </trkpt>
      <trkpt lat="44.19899" lon="2.15431">
        <ele>304</ele>
        <time>2016-10-23T10:25:07Z</time>
      </trkpt>
      <trkpt lat="44.19899" lon="2.15431">
        <ele>304</ele>
        <time>2016-10-23T10:25:12Z</time>
      </trkpt>
      <trkpt lat="44.19898" lon="2.1543">
        <ele>304</ele>
        <time>2016-10-23T10:25:17Z</time>
      </trkpt>
      <trkpt lat="44.19899" lon="2.1543">
        <ele>304</ele>
        <time>2016-10-23T10:25:22Z</time>
      </trkpt>
      <trkpt lat="44.19899" lon="2.1543">
        <ele>304</ele>
        <time>2016-10-23T10:25:27Z</time>
      </trkpt>
      <trkpt lat="44.19899" lon="2.1543">
        <ele>304</ele>
        <time>2016-10-23T10:25:32Z</time>
      </trkpt>
      <trkpt lat="44.19899" lon="2.1543">
        <ele>304</ele>
        <time>2016-10-23T10:25:37Z</time>
      </trkpt>
      <trkpt lat="44.19898" lon="2.15434">
        <ele>304</ele>
        <time>2016-10-23T10:25:42Z</time>
      </trkpt>
      <trkpt lat="44.19898" lon="2.15442">
        <ele>304</ele>
        <time>2016-10-23T10:25:47Z</time>
      </trkpt>
      <trkpt lat="44.19899" lon="2.15448">
        <ele>304</ele>
        <time>2016-10-23T10:25:52Z</time>
      </trkpt>
      <trkpt lat="44.19899" lon="2.15454">
        <ele>304</ele>
        <time>2016-10-23T10:25:57Z</time>
      </trkpt>
      <trkpt lat="44.19901" lon="2.15458">
        <ele>304</ele>
        <time>2016-10-23T10:26:02Z</time>
      </trkpt>
      <trkpt lat="44.19902" lon="2.15463">
        <ele>298</ele>
        <time>2016-10-23T10:26:07Z</time>
      </trkpt>
      <trkpt lat="44.19904" lon="2.15473">
        <ele>298</ele>
        <time>2016-10-23T10:26:12Z</time>
      </trkpt>
      <trkpt lat="44.19908" lon="2.15477">
        <ele>298</ele>
        <time>2016-10-23T10:26:17Z</time>
      </trkpt>
      <trkpt lat="44.19912" lon="2.15476">
        <ele>298</ele>
        <time>2016-10-23T10:26:22Z</time>
      </trkpt>
      <trkpt lat="44.19911" lon="2.15469">
        <ele>298</ele>
        <time>2016-10-23T10:26:27Z</time>
      </trkpt>
      <trkpt lat="44.19912" lon="2.15464">
        <ele>298</ele>
        <time>2016-10-23T10:26:32Z</time>
      </trkpt>
      <trkpt lat="44.19914" lon="2.1546">
        <ele>298</ele>
        <time>2016-10-23T10:26:37Z</time>
      </trkpt>
      <trkpt lat="44.19917" lon="2.15456">
        <ele>304</ele>
        <time>2016-10-23T10:26:42Z</time>
      </trkpt>
      <trkpt lat="44.19919" lon="2.15449">
        <ele>304</ele>
        <time>2016-10-23T10:26:47Z</time>
      </trkpt>
      <trkpt lat="44.1992" lon="2.15443">
        <ele>304</ele>
        <time>2016-10-23T10:26:52Z</time>
      </trkpt>
      <trkpt lat="44.19923" lon="2.15436">
        <ele>304</ele>
        <time>2016-10-23T10:26:57Z</time>
      </trkpt>
      <trkpt lat="44.19928" lon="2.15428">
        <ele>304</ele>
        <time>2016-10-23T10:27:02Z</time>
      </trkpt>
      <trkpt lat="44.19932" lon="2.15422">
        <ele>304</ele>
        <time>2016-10-23T10:27:07Z</time>
      </trkpt>
      <trkpt lat="44.19933" lon="2.15419">
        <ele>304</ele>
        <time>2016-10-23T10:27:12Z</time>
      </trkpt>
      <trkpt lat="44.19934" lon="2.15413">
        <ele>304</ele>
        <time>2016-10-23T10:27:17Z</time>
      </trkpt>
      <trkpt lat="44.19935" lon="2.15403">
        <ele>304</ele>
        <time>2016-10-23T10:27:22Z</time>
      </trkpt>
      <trkpt lat="44.19937" lon="2.15395">
        <ele>304</ele>
        <time>2016-10-23T10:27:27Z</time>
      </trkpt>
      <trkpt lat="44.1994" lon="2.15391">
        <ele>304</ele>
        <time>2016-10-23T10:27:32Z</time>
      </trkpt>
      <trkpt lat="44.19944" lon="2.15383">
        <ele>304</ele>
        <time>2016-10-23T10:27:37Z</time>
      </trkpt>
      <trkpt lat="44.19946" lon="2.15379">
        <ele>304</ele>
        <time>2016-10-23T10:27:42Z</time>
      </trkpt>
      <trkpt lat="44.19945" lon="2.15381">
        <ele>304</ele>
        <time>2016-10-23T10:27:47Z</time>
      </trkpt>
      <trkpt lat="44.19941" lon="2.15387">
        <ele>304</ele>
        <time>2016-10-23T10:27:52Z</time>
      </trkpt>
      <trkpt lat="44.19935" lon="2.15392">
        <ele>304</ele>
        <time>2016-10-23T10:27:57Z</time>
      </trkpt>
      <trkpt lat="44.19934" lon="2.15394">
        <ele>304</ele>
        <time>2016-10-23T10:28:02Z</time>
      </trkpt>
      <trkpt lat="44.19933" lon="2.15399">
        <ele>304</ele>
        <time>2016-10-23T10:28:07Z</time>
      </trkpt>
      <trkpt lat="44.19934" lon="2.15406">
        <ele>304</ele>
        <time>2016-10-23T10:28:12Z</time>
      </trkpt>
      <trkpt lat="44.19933" lon="2.15409">
        <ele>304</ele>
        <time>2016-10-23T10:28:17Z</time>
      </trkpt>
      <trkpt lat="44.19939" lon="2.15409">
        <ele>304</ele>
        <time>2016-10-23T10:28:22Z</time>
      </trkpt>
      <trkpt lat="44.19943" lon="2.15407">
        <ele>304</ele>
        <time>2016-10-23T10:28:27Z</time>
      </trkpt>
      <trkpt lat="44.19946" lon="2.15406">
        <ele>304</ele>
        <time>2016-10-23T10:28:32Z</time>
      </trkpt>
      <trkpt lat="44.19948" lon="2.15407">
        <ele>304</ele>
        <time>2016-10-23T10:28:37Z</time>
      </trkpt>
      <trkpt lat="44.19951" lon="2.15407">
        <ele>304</ele>
        <time>2016-10-23T10:28:42Z</time>
      </trkpt>
      <trkpt lat="44.19952" lon="2.15405">
        <ele>304</ele>
        <time>2016-10-23T10:28:47Z</time>
      </trkpt>
      <trkpt lat="44.19957" lon="2.15402">
        <ele>304</ele>
        <time>2016-10-23T10:28:52Z</time>
      </trkpt>
      <trkpt lat="44.19964" lon="2.15401">
        <ele>338</ele>
        <time>2016-10-23T10:28:57Z</time>
      </trkpt>
      <trkpt lat="44.19968" lon="2.154">
        <ele>338</ele>
        <time>2016-10-23T10:29:02Z</time>
      </trkpt>
      <trkpt lat="44.19969" lon="2.15401">
        <ele>338</ele>
        <time>2016-10-23T10:29:07Z</time>
      </trkpt>
      <trkpt lat="44.19966" lon="2.15399">
        <ele>338</ele>
        <time>2016-10-23T10:29:12Z</time>
      </trkpt>
      <trkpt lat="44.19963" lon="2.15396">
        <ele>338</ele>
        <time>2016-10-23T10:29:17Z</time>
      </trkpt>
      <trkpt lat="44.1996" lon="2.15394">
        <ele>338</ele>
        <time>2016-10-23T10:29:22Z</time>
      </trkpt>
      <trkpt lat="44.19959" lon="2.15396">
        <ele>338</ele>
        <time>2016-10-23T10:29:27Z</time>
      </trkpt>
      <trkpt lat="44.19958" lon="2.15396">
        <ele>304</ele>
        <time>2016-10-23T10:29:32Z</time>
      </trkpt>
      <trkpt lat="44.19959" lon="2.15394">
        <ele>338</ele>
        <time>2016-10-23T10:29:37Z</time>
      </trkpt>
      <trkpt lat="44.19962" lon="2.15391">
        <ele>338</ele>
        <time>2016-10-23T10:29:42Z</time>
      </trkpt>
      <trkpt lat="44.19964" lon="2.15388">
        <ele>338</ele>
        <time>2016-10-23T10:29:47Z</time>
      </trkpt>
      <trkpt lat="44.19965" lon="2.15385">
        <ele>338</ele>
        <time>2016-10-23T10:29:52Z</time>
      </trkpt>
      <trkpt lat="44.19967" lon="2.15386">
        <ele>338</ele>
        <time>2016-10-23T10:29:57Z</time>
      </trkpt>
      <trkpt lat="44.1997" lon="2.15385">
        <ele>338</ele>
        <time>2016-10-23T10:30:02Z</time>
      </trkpt>
      <trkpt lat="44.19972" lon="2.15386">
        <ele>338</ele>
        <time>2016-10-23T10:30:07Z</time>
      </trkpt>
      <trkpt lat="44.19974" lon="2.15388">
        <ele>338</ele>
        <time>2016-10-23T10:30:12Z</time>
      </trkpt>
      <trkpt lat="44.19977" lon="2.15388">
        <ele>338</ele>
        <time>2016-10-23T10:30:17Z</time>
      </trkpt>
      <trkpt lat="44.19978" lon="2.15386">
        <ele>338</ele>
        <time>2016-10-23T10:30:22Z</time>
      </trkpt>
      <trkpt lat="44.19982" lon="2.15383">
        <ele>338</ele>
        <time>2016-10-23T10:30:27Z</time>
      </trkpt>
      <trkpt lat="44.19986" lon="2.15383">
        <ele>338</ele>
        <time>2016-10-23T10:30:32Z</time>
      </trkpt>
      <trkpt lat="44.19992" lon="2.15383">
        <ele>338</ele>
        <time>2016-10-23T10:30:37Z</time>
      </trkpt>
      <trkpt lat="44.19998" lon="2.15382">
        <ele>338</ele>
        <time>2016-10-23T10:30:42Z</time>
      </trkpt>
      <trkpt lat="44.19997" lon="2.15383">
        <ele>338</ele>
        <time>2016-10-23T10:30:47Z</time>
      </trkpt>
      <trkpt lat="44.19993" lon="2.15381">
        <ele>338</ele>
        <time>2016-10-23T10:30:52Z</time>
      </trkpt>
      <trkpt lat="44.19989" lon="2.15376">
        <ele>338</ele>
        <time>2016-10-23T10:30:57Z</time>
      </trkpt>
      <trkpt lat="44.19984" lon="2.15372">
        <ele>342</ele>
        <time>2016-10-23T10:31:02Z</time>
      </trkpt>
      <trkpt lat="44.19983" lon="2.15368">
        <ele>342</ele>
        <time>2016-10-23T10:31:07Z</time>
      </trkpt>
      <trkpt lat="44.19981" lon="2.15367">
        <ele>342</ele>
        <time>2016-10-23T10:31:12Z</time>
      </trkpt>
      <trkpt lat="44.19979" lon="2.15361">
        <ele>342</ele>
        <time>2016-10-23T10:31:17Z</time>
      </trkpt>
      <trkpt lat="44.19981" lon="2.15355">
        <ele>342</ele>
        <time>2016-10-23T10:31:22Z</time>
      </trkpt>
      <trkpt lat="44.19986" lon="2.15351">
        <ele>342</ele>
        <time>2016-10-23T10:31:27Z</time>
      </trkpt>
      <trkpt lat="44.19989" lon="2.15348">
        <ele>342</ele>
        <time>2016-10-23T10:31:32Z</time>
      </trkpt>
      <trkpt lat="44.19994" lon="2.15344">
        <ele>342</ele>
        <time>2016-10-23T10:31:37Z</time>
      </trkpt>
      <trkpt lat="44.19999" lon="2.15343">
        <ele>342</ele>
        <time>2016-10-23T10:31:42Z</time>
      </trkpt>
      <trkpt lat="44.20002" lon="2.1534">
        <ele>342</ele>
        <time>2016-10-23T10:31:47Z</time>
      </trkpt>
      <trkpt lat="44.20004" lon="2.15337">
        <ele>342</ele>
        <time>2016-10-23T10:31:52Z</time>
      </trkpt>
      <trkpt lat="44.20004" lon="2.15337">
        <ele>342</ele>
        <time>2016-10-23T10:31:57Z</time>
      </trkpt>
      <trkpt lat="44.20005" lon="2.15336">
        <ele>342</ele>
        <time>2016-10-23T10:32:02Z</time>
      </trkpt>
      <trkpt lat="44.20006" lon="2.15339">
        <ele>342</ele>
        <time>2016-10-23T10:32:07Z</time>
      </trkpt>
      <trkpt lat="44.20008" lon="2.15339">
        <ele>342</ele>
        <time>2016-10-23T10:32:12Z</time>
      </trkpt>
      <trkpt lat="44.20013" lon="2.15338">
        <ele>342</ele>
        <time>2016-10-23T10:32:17Z</time>
      </trkpt>
      <trkpt lat="44.20016" lon="2.15338">
        <ele>342</ele>
        <time>2016-10-23T10:32:22Z</time>
      </trkpt>
      <trkpt lat="44.20019" lon="2.15338">
        <ele>342</ele>
        <time>2016-10-23T10:32:27Z</time>
      </trkpt>
      <trkpt lat="44.20024" lon="2.15338">
        <ele>342</ele>
        <time>2016-10-23T10:32:32Z</time>
      </trkpt>
      <trkpt lat="44.20028" lon="2.15338">
        <ele>342</ele>
        <time>2016-10-23T10:32:37Z</time>
      </trkpt>
      <trkpt lat="44.20033" lon="2.15338">
        <ele>342</ele>
        <time>2016-10-23T10:32:42Z</time>
      </trkpt>
      <trkpt lat="44.20035" lon="2.15338">
        <ele>342</ele>
        <time>2016-10-23T10:32:47Z</time>
      </trkpt>
      <trkpt lat="44.20036" lon="2.1534">
        <ele>342</ele>
        <time>2016-10-23T10:32:52Z</time>
      </trkpt>
      <trkpt lat="44.20035" lon="2.15343">
        <ele>342</ele>
        <time>2016-10-23T10:32:57Z</time>
      </trkpt>
      <trkpt lat="44.20034" lon="2.15347">
        <ele>342</ele>
        <time>2016-10-23T10:33:02Z</time>
      </trkpt>
      <trkpt lat="44.20034" lon="2.15352">
        <ele>342</ele>
        <time>2016-10-23T10:33:07Z</time>
      </trkpt>
      <trkpt lat="44.20035" lon="2.15354">
        <ele>342</ele>
        <time>2016-10-23T10:33:12Z</time>
      </trkpt>
      <trkpt lat="44.20039" lon="2.15353">
        <ele>342</ele>
        <time>2016-10-23T10:33:17Z</time>
      </trkpt>
      <trkpt lat="44.20046" lon="2.15354">
        <ele>369</ele>
        <time>2016-10-23T10:33:22Z</time>
      </trkpt>
      <trkpt lat="44.2005" lon="2.15351">
        <ele>369</ele>
        <time>2016-10-23T10:33:27Z</time>
      </trkpt>
      <trkpt lat="44.20053" lon="2.15353">
        <ele>369</ele>
        <time>2016-10-23T10:33:32Z</time>
      </trkpt>
      <trkpt lat="44.20056" lon="2.15355">
        <ele>369</ele>
        <time>2016-10-23T10:33:37Z</time>
      </trkpt>
      <trkpt lat="44.20059" lon="2.15356">
        <ele>369</ele>
        <time>2016-10-23T10:33:42Z</time>
      </trkpt>
      <trkpt lat="44.20062" lon="2.15359">
        <ele>369</ele>
        <time>2016-10-23T10:33:47Z</time>
      </trkpt>
      <trkpt lat="44.20065" lon="2.1536">
        <ele>369</ele>
        <time>2016-10-23T10:33:52Z</time>
      </trkpt>
      <trkpt lat="44.20071" lon="2.15361">
        <ele>369</ele>
        <time>2016-10-23T10:33:57Z</time>
      </trkpt>
      <trkpt lat="44.20076" lon="2.15359">
        <ele>369</ele>
        <time>2016-10-23T10:34:02Z</time>
      </trkpt>
      <trkpt lat="44.20079" lon="2.15358">
        <ele>369</ele>
        <time>2016-10-23T10:34:07Z</time>
      </trkpt>
      <trkpt lat="44.20084" lon="2.15355">
        <ele>369</ele>
        <time>2016-10-23T10:34:12Z</time>
      </trkpt>
      <trkpt lat="44.20085" lon="2.15354">
        <ele>369</ele>
        <time>2016-10-23T10:34:17Z</time>
      </trkpt>
      <trkpt lat="44.20087" lon="2.15354">
        <ele>369</ele>
        <time>2016-10-23T10:34:22Z</time>
      </trkpt>
      <trkpt lat="44.20089" lon="2.15353">
        <ele>369</ele>
        <time>2016-10-23T10:34:27Z</time>
      </trkpt>
      <trkpt lat="44.2009" lon="2.15353">
        <ele>369</ele>
        <time>2016-10-23T10:34:32Z</time>
      </trkpt>
      <trkpt lat="44.20091" lon="2.15355">
        <ele>369</ele>
        <time>2016-10-23T10:34:37Z</time>
      </trkpt>
      <trkpt lat="44.20093" lon="2.15358">
        <ele>369</ele>
        <time>2016-10-23T10:34:42Z</time>
      </trkpt>
      <trkpt lat="44.20095" lon="2.15361">
        <ele>369</ele>
        <time>2016-10-23T10:34:47Z</time>
      </trkpt>
      <trkpt lat="44.20098" lon="2.15364">
        <ele>369</ele>
        <time>2016-10-23T10:34:52Z</time>
      </trkpt>
      <trkpt lat="44.20103" lon="2.15367">
        <ele>369</ele>
        <time>2016-10-23T10:34:57Z</time>
      </trkpt>
      <trkpt lat="44.20106" lon="2.1537">
        <ele>369</ele>
        <time>2016-10-23T10:35:02Z</time>
      </trkpt>
      <trkpt lat="44.20111" lon="2.15371">
        <ele>369</ele>
        <time>2016-10-23T10:35:07Z</time>
      </trkpt>
      <trkpt lat="44.20116" lon="2.15372">
        <ele>369</ele>
        <time>2016-10-23T10:35:12Z</time>
      </trkpt>
      <trkpt lat="44.2012" lon="2.15369">
        <ele>369</ele>
        <time>2016-10-23T10:35:17Z</time>
      </trkpt>
      <trkpt lat="44.20122" lon="2.15366">
        <ele>369</ele>
        <time>2016-10-23T10:35:22Z</time>
      </trkpt>
      <trkpt lat="44.20127" lon="2.15366">
        <ele>377</ele>
        <time>2016-10-23T10:35:27Z</time>
      </trkpt>
      <trkpt lat="44.20132" lon="2.15366">
        <ele>377</ele>
        <time>2016-10-23T10:35:32Z</time>
      </trkpt>
      <trkpt lat="44.20137" lon="2.15369">
        <ele>377</ele>
        <time>2016-10-23T10:35:37Z</time>
      </trkpt>
      <trkpt lat="44.20141" lon="2.15372">
        <ele>377</ele>
        <time>2016-10-23T10:35:42Z</time>
      </trkpt>
      <trkpt lat="44.20146" lon="2.15374">
        <ele>377</ele>
        <time>2016-10-23T10:35:47Z</time>
      </trkpt>
      <trkpt lat="44.2015" lon="2.15376">
        <ele>390</ele>
        <time>2016-10-23T10:35:52Z</time>
      </trkpt>
      <trkpt lat="44.20154" lon="2.15383">
        <ele>390</ele>
        <time>2016-10-23T10:35:57Z</time>
      </trkpt>
      <trkpt lat="44.20158" lon="2.15385">
        <ele>390</ele>
        <time>2016-10-23T10:36:02Z</time>
      </trkpt>
      <trkpt lat="44.20163" lon="2.15387">
        <ele>390</ele>
        <time>2016-10-23T10:36:07Z</time>
      </trkpt>
      <trkpt lat="44.20166" lon="2.15388">
        <ele>390</ele>
        <time>2016-10-23T10:36:12Z</time>
      </trkpt>
      <trkpt lat="44.2017" lon="2.15393">
        <ele>390</ele>
        <time>2016-10-23T10:36:17Z</time>
      </trkpt>
      <trkpt lat="44.20171" lon="2.15398">
        <ele>390</ele>
        <time>2016-10-23T10:36:22Z</time>
      </trkpt>
      <trkpt lat="44.20171" lon="2.15407">
        <ele>390</ele>
        <time>2016-10-23T10:36:27Z</time>
      </trkpt>
      <trkpt lat="44.20173" lon="2.1541">
        <ele>390</ele>
        <time>2016-10-23T10:36:32Z</time>
      </trkpt>
      <trkpt lat="44.20174" lon="2.15414">
        <ele>390</ele>
        <time>2016-10-23T10:36:37Z</time>
      </trkpt>
      <trkpt lat="44.20174" lon="2.15416">
        <ele>390</ele>
        <time>2016-10-23T10:36:42Z</time>
      </trkpt>
      <trkpt lat="44.20177" lon="2.1542">
        <ele>390</ele>
        <time>2016-10-23T10:36:47Z</time>
      </trkpt>
      <trkpt lat="44.20179" lon="2.15425">
        <ele>390</ele>
        <time>2016-10-23T10:36:52Z</time>
      </trkpt>
      <trkpt lat="44.20179" lon="2.15427">
        <ele>390</ele>
        <time>2016-10-23T10:36:57Z</time>
      </trkpt>
      <trkpt lat="44.20181" lon="2.15432">
        <ele>390</ele>
        <time>2016-10-23T10:37:02Z</time>
      </trkpt>
      <trkpt lat="44.20183" lon="2.15436">
        <ele>390</ele>
        <time>2016-10-23T10:37:07Z</time>
      </trkpt>
      <trkpt lat="44.20185" lon="2.15437">
        <ele>390</ele>
        <time>2016-10-23T10:37:12Z</time>
      </trkpt>
      <trkpt lat="44.20185" lon="2.15441">
        <ele>390</ele>
        <time>2016-10-23T10:37:17Z</time>
      </trkpt>
      <trkpt lat="44.20189" lon="2.15449">
        <ele>390</ele>
        <time>2016-10-23T10:37:22Z</time>
      </trkpt>
      <trkpt lat="44.20191" lon="2.15454">
        <ele>390</ele>
        <time>2016-10-23T10:37:27Z</time>
      </trkpt>
      <trkpt lat="44.20195" lon="2.15459">
        <ele>391</ele>
        <time>2016-10-23T10:37:32Z</time>
      </trkpt>
      <trkpt lat="44.20198" lon="2.15463">
        <ele>391</ele>
        <time>2016-10-23T10:37:37Z</time>
      </trkpt>
      <trkpt lat="44.20199" lon="2.15465">
        <ele>391</ele>
        <time>2016-10-23T10:37:42Z</time>
      </trkpt>
      <trkpt lat="44.20201" lon="2.15467">
        <ele>391</ele>
        <time>2016-10-23T10:37:47Z</time>
      </trkpt>
      <trkpt lat="44.20202" lon="2.1547">
        <ele>391</ele>
        <time>2016-10-23T10:37:52Z</time>
      </trkpt>
      <trkpt lat="44.20208" lon="2.15473">
        <ele>391</ele>
        <time>2016-10-23T10:37:57Z</time>
      </trkpt>
      <trkpt lat="44.20214" lon="2.15476">
        <ele>411</ele>
        <time>2016-10-23T10:38:02Z</time>
      </trkpt>
      <trkpt lat="44.20218" lon="2.15477">
        <ele>411</ele>
        <time>2016-10-23T10:38:07Z</time>
      </trkpt>
      <trkpt lat="44.20223" lon="2.15478">
        <ele>411</ele>
        <time>2016-10-23T10:38:12Z</time>
      </trkpt>
      <trkpt lat="44.20227" lon="2.15479">
        <ele>411</ele>
        <time>2016-10-23T10:38:17Z</time>
      </trkpt>
      <trkpt lat="44.20231" lon="2.1548">
        <ele>411</ele>
        <time>2016-10-23T10:38:22Z</time>
      </trkpt>
      <trkpt lat="44.20233" lon="2.15482">
        <ele>411</ele>
        <time>2016-10-23T10:38:27Z</time>
      </trkpt>
      <trkpt lat="44.20239" lon="2.15483">
        <ele>411</ele>
        <time>2016-10-23T10:38:32Z</time>
      </trkpt>
      <trkpt lat="44.20244" lon="2.15482">
        <ele>411</ele>
        <time>2016-10-23T10:38:37Z</time>
      </trkpt>
      <trkpt lat="44.2025" lon="2.15482">
        <ele>411</ele>
        <time>2016-10-23T10:38:42Z</time>
      </trkpt>
      <trkpt lat="44.20255" lon="2.15483">
        <ele>411</ele>
        <time>2016-10-23T10:38:47Z</time>
      </trkpt>
      <trkpt lat="44.2026" lon="2.15486">
        <ele>411</ele>
        <time>2016-10-23T10:38:52Z</time>
      </trkpt>
      <trkpt lat="44.20267" lon="2.1549">
        <ele>411</ele>
        <time>2016-10-23T10:38:57Z</time>
      </trkpt>
      <trkpt lat="44.20271" lon="2.15492">
        <ele>411</ele>
        <time>2016-10-23T10:39:02Z</time>
      </trkpt>
      <trkpt lat="44.20274" lon="2.15493">
        <ele>411</ele>
        <time>2016-10-23T10:39:07Z</time>
      </trkpt>
      <trkpt lat="44.20283" lon="2.15493">
        <ele>411</ele>
        <time>2016-10-23T10:39:12Z</time>
      </trkpt>
      <trkpt lat="44.20291" lon="2.15493">
        <ele>411</ele>
        <time>2016-10-23T10:39:17Z</time>
      </trkpt>
      <trkpt lat="44.20301" lon="2.1549">
        <ele>412</ele>
        <time>2016-10-23T10:39:22Z</time>
      </trkpt>
      <trkpt lat="44.20308" lon="2.15492">
        <ele>412</ele>
        <time>2016-10-23T10:39:27Z</time>
      </trkpt>
      <trkpt lat="44.20314" lon="2.15499">
        <ele>412</ele>
        <time>2016-10-23T10:39:32Z</time>
      </trkpt>
      <trkpt lat="44.20319" lon="2.15502">
        <ele>412</ele>
        <time>2016-10-23T10:39:37Z</time>
      </trkpt>
      <trkpt lat="44.2033" lon="2.15502">
        <ele>412</ele>
        <time>2016-10-23T10:39:42Z</time>
      </trkpt>
      <trkpt lat="44.20338" lon="2.15501">
        <ele>412</ele>
        <time>2016-10-23T10:39:47Z</time>
      </trkpt>
      <trkpt lat="44.20348" lon="2.155">
        <ele>412</ele>
        <time>2016-10-23T10:39:52Z</time>
      </trkpt>
      <trkpt lat="44.20355" lon="2.15499">
        <ele>412</ele>
        <time>2016-10-23T10:39:57Z</time>
      </trkpt>
      <trkpt lat="44.20356" lon="2.155">
        <ele>412</ele>
        <time>2016-10-23T10:40:02Z</time>
      </trkpt>
      <trkpt lat="44.2036" lon="2.15504">
        <ele>412</ele>
        <time>2016-10-23T10:40:07Z</time>
      </trkpt>
      <trkpt lat="44.20364" lon="2.15504">
        <ele>412</ele>
        <time>2016-10-23T10:40:12Z</time>
      </trkpt>
      <trkpt lat="44.20366" lon="2.15503">
        <ele>412</ele>
        <time>2016-10-23T10:40:17Z</time>
      </trkpt>
      <trkpt lat="44.20367" lon="2.15503">
        <ele>412</ele>
        <time>2016-10-23T10:40:22Z</time>
      </trkpt>
      <trkpt lat="44.2037" lon="2.15502">
        <ele>412</ele>
        <time>2016-10-23T10:40:27Z</time>
      </trkpt>
      <trkpt lat="44.20373" lon="2.15502">
        <ele>412</ele>
        <time>2016-10-23T10:40:32Z</time>
      </trkpt>
      <trkpt lat="44.20375" lon="2.15501">
        <ele>429</ele>
        <time>2016-10-23T10:40:37Z</time>
      </trkpt>
      <trkpt lat="44.2038" lon="2.15501">
        <ele>429</ele>
        <time>2016-10-23T10:40:42Z</time>
      </trkpt>
      <trkpt lat="44.20381" lon="2.15499">
        <ele>429</ele>
        <time>2016-10-23T10:40:47Z</time>
      </trkpt>
      <trkpt lat="44.20381" lon="2.15499">
        <ele>429</ele>
        <time>2016-10-23T10:40:52Z</time>
      </trkpt>
      <trkpt lat="44.20382" lon="2.15499">
        <ele>429</ele>
        <time>2016-10-23T10:40:57Z</time>
      </trkpt>
      <trkpt lat="44.20382" lon="2.15499">
        <ele>429</ele>
        <time>2016-10-23T10:41:02Z</time>
      </trkpt>
      <trkpt lat="44.20383" lon="2.15498">
        <ele>429</ele>
        <time>2016-10-23T10:41:07Z</time>
      </trkpt>
      <trkpt lat="44.20383" lon="2.15497">
        <ele>429</ele>
        <time>2016-10-23T10:41:12Z</time>
      </trkpt>
      <trkpt lat="44.20378" lon="2.15496">
        <ele>429</ele>
        <time>2016-10-23T10:41:17Z</time>
      </trkpt>
      <trkpt lat="44.20374" lon="2.15498">
        <ele>412</ele>
        <time>2016-10-23T10:41:22Z</time>
      </trkpt>
      <trkpt lat="44.20374" lon="2.15498">
        <ele>412</ele>
        <time>2016-10-23T10:41:27Z</time>
      </trkpt>
      <trkpt lat="44.20373" lon="2.15498">
        <ele>412</ele>
        <time>2016-10-23T10:41:32Z</time>
      </trkpt>
      <trkpt lat="44.20373" lon="2.15498">
        <ele>412</ele>
        <time>2016-10-23T10:41:37Z</time>
      </trkpt>
      <trkpt lat="44.20373" lon="2.15498">
        <ele>412</ele>
        <time>2016-10-23T10:41:42Z</time>
      </trkpt>
      <trkpt lat="44.20373" lon="2.15498">
        <ele>412</ele>
        <time>2016-10-23T10:41:47Z</time>
      </trkpt>
      <trkpt lat="44.20373" lon="2.15498">
        <ele>412</ele>
        <time>2016-10-23T10:41:52Z</time>
      </trkpt>
      <trkpt lat="44.20372" lon="2.15498">
        <ele>412</ele>
        <time>2016-10-23T10:41:57Z</time>
      </trkpt>
      <trkpt lat="44.20372" lon="2.15497">
        <ele>412</ele>
        <time>2016-10-23T10:42:02Z</time>
      </trkpt>
      <trkpt lat="44.20372" lon="2.15497">
        <ele>412</ele>
        <time>2016-10-23T10:42:07Z</time>
      </trkpt>
      <trkpt lat="44.20372" lon="2.15497">
        <ele>412</ele>
        <time>2016-10-23T10:42:12Z</time>
      </trkpt>
      <trkpt lat="44.20372" lon="2.15497">
        <ele>412</ele>
        <time>2016-10-23T10:42:17Z</time>
      </trkpt>
      <trkpt lat="44.20372" lon="2.15497">
        <ele>412</ele>
        <time>2016-10-23T10:42:22Z</time>
      </trkpt>
      <trkpt lat="44.20372" lon="2.15497">
        <ele>412</ele>
        <time>2016-10-23T10:42:27Z</time>
      </trkpt>
      <trkpt lat="44.20372" lon="2.15497">
        <ele>412</ele>
        <time>2016-10-23T10:42:32Z</time>
      </trkpt>
      <trkpt lat="44.20371" lon="2.15497">
        <ele>412</ele>
        <time>2016-10-23T10:42:37Z</time>
      </trkpt>
      <trkpt lat="44.20371" lon="2.15497">
        <ele>412</ele>
        <time>2016-10-23T10:42:42Z</time>
      </trkpt>
      <trkpt lat="44.20371" lon="2.15497">
        <ele>412</ele>
        <time>2016-10-23T10:42:47Z</time>
      </trkpt>
      <trkpt lat="44.20371" lon="2.15497">
        <ele>412</ele>
        <time>2016-10-23T10:42:52Z</time>
      </trkpt>
      <trkpt lat="44.20371" lon="2.15497">
        <ele>412</ele>
        <time>2016-10-23T10:42:57Z</time>
      </trkpt>
      <trkpt lat="44.2037" lon="2.15497">
        <ele>412</ele>
        <time>2016-10-23T10:43:02Z</time>
      </trkpt>
      <trkpt lat="44.2037" lon="2.15497">
        <ele>412</ele>
        <time>2016-10-23T10:43:07Z</time>
      </trkpt>
      <trkpt lat="44.2037" lon="2.15497">
        <ele>412</ele>
        <time>2016-10-23T10:43:12Z</time>
      </trkpt>
      <trkpt lat="44.2037" lon="2.15497">
        <ele>412</ele>
        <time>2016-10-23T10:43:17Z</time>
      </trkpt>
      <trkpt lat="44.20369" lon="2.15497">
        <ele>412</ele>
        <time>2016-10-23T10:43:22Z</time>
      </trkpt>
      <trkpt lat="44.2037" lon="2.15497">
        <ele>412</ele>
        <time>2016-10-23T10:43:27Z</time>
      </trkpt>
      <trkpt lat="44.2037" lon="2.15497">
        <ele>412</ele>
        <time>2016-10-23T10:43:32Z</time>
      </trkpt>
      <trkpt lat="44.2037" lon="2.15497">
        <ele>412</ele>
        <time>2016-10-23T10:43:37Z</time>
      </trkpt>
      <trkpt lat="44.2037" lon="2.15497">
        <ele>412</ele>
        <time>2016-10-23T10:43:42Z</time>
      </trkpt>
      <trkpt lat="44.2037" lon="2.15498">
        <ele>412</ele>
        <time>2016-10-23T10:43:47Z</time>
      </trkpt>
      <trkpt lat="44.20369" lon="2.15498">
        <ele>412</ele>
        <time>2016-10-23T10:43:52Z</time>
      </trkpt>
      <trkpt lat="44.20369" lon="2.15498">
        <ele>412</ele>
        <time>2016-10-23T10:43:57Z</time>
      </trkpt>
      <trkpt lat="44.20369" lon="2.15498">
        <ele>412</ele>
        <time>2016-10-23T10:44:02Z</time>
      </trkpt>
      <trkpt lat="44.20369" lon="2.15497">
        <ele>412</ele>
        <time>2016-10-23T10:44:07Z</time>
      </trkpt>
      <trkpt lat="44.20369" lon="2.15497">
        <ele>412</ele>
        <time>2016-10-23T10:44:12Z</time>
      </trkpt>
      <trkpt lat="44.20369" lon="2.15497">
        <ele>412</ele>
        <time>2016-10-23T10:44:17Z</time>
      </trkpt>
      <trkpt lat="44.20369" lon="2.15497">
        <ele>412</ele>
        <time>2016-10-23T10:44:22Z</time>
      </trkpt>
      <trkpt lat="44.20369" lon="2.15497">
        <ele>412</ele>
        <time>2016-10-23T10:44:27Z</time>
      </trkpt>
      <trkpt lat="44.20368" lon="2.15497">
        <ele>412</ele>
        <time>2016-10-23T10:44:32Z</time>
      </trkpt>
      <trkpt lat="44.20368" lon="2.15497">
        <ele>412</ele>
        <time>2016-10-23T10:44:37Z</time>
      </trkpt>
      <trkpt lat="44.20368" lon="2.15497">
        <ele>412</ele>
        <time>2016-10-23T10:44:42Z</time>
      </trkpt>
      <trkpt lat="44.20368" lon="2.15497">
        <ele>412</ele>
        <time>2016-10-23T10:44:47Z</time>
      </trkpt>
      <trkpt lat="44.20368" lon="2.15497">
        <ele>412</ele>
        <time>2016-10-23T10:44:52Z</time>
      </trkpt>
      <trkpt lat="44.20368" lon="2.15497">
        <ele>412</ele>
        <time>2016-10-23T10:44:57Z</time>
      </trkpt>
      <trkpt lat="44.20368" lon="2.15497">
        <ele>412</ele>
        <time>2016-10-23T10:45:02Z</time>
      </trkpt>
      <trkpt lat="44.20367" lon="2.15498">
        <ele>412</ele>
        <time>2016-10-23T10:45:07Z</time>
      </trkpt>
      <trkpt lat="44.20367" lon="2.15498">
        <ele>412</ele>
        <time>2016-10-23T10:45:12Z</time>
      </trkpt>
      <trkpt lat="44.20368" lon="2.15498">
        <ele>412</ele>
        <time>2016-10-23T10:45:17Z</time>
      </trkpt>
      <trkpt lat="44.20368" lon="2.15498">
        <ele>412</ele>
        <time>2016-10-23T10:45:22Z</time>
      </trkpt>
      <trkpt lat="44.20368" lon="2.15499">
        <ele>412</ele>
        <time>2016-10-23T10:45:27Z</time>
      </trkpt>
      <trkpt lat="44.20368" lon="2.15499">
        <ele>412</ele>
        <time>2016-10-23T10:45:32Z</time>
      </trkpt>
      <trkpt lat="44.20368" lon="2.15499">
        <ele>412</ele>
        <time>2016-10-23T10:45:37Z</time>
      </trkpt>
      <trkpt lat="44.20368" lon="2.155">
        <ele>412</ele>
        <time>2016-10-23T10:45:42Z</time>
      </trkpt>
      <trkpt lat="44.20368" lon="2.155">
        <ele>412</ele>
        <time>2016-10-23T10:45:47Z</time>
      </trkpt>
      <trkpt lat="44.20368" lon="2.155">
        <ele>412</ele>
        <time>2016-10-23T10:45:52Z</time>
      </trkpt>
      <trkpt lat="44.20368" lon="2.155">
        <ele>412</ele>
        <time>2016-10-23T10:45:57Z</time>
      </trkpt>
      <trkpt lat="44.20367" lon="2.155">
        <ele>412</ele>
        <time>2016-10-23T10:46:02Z</time>
      </trkpt>
      <trkpt lat="44.20367" lon="2.15501">
        <ele>412</ele>
        <time>2016-10-23T10:46:07Z</time>
      </trkpt>
      <trkpt lat="44.20367" lon="2.15501">
        <ele>412</ele>
        <time>2016-10-23T10:46:12Z</time>
      </trkpt>
      <trkpt lat="44.20366" lon="2.15502">
        <ele>412</ele>
        <time>2016-10-23T10:46:17Z</time>
      </trkpt>
      <trkpt lat="44.20366" lon="2.15503">
        <ele>412</ele>
        <time>2016-10-23T10:46:22Z</time>
      </trkpt>
      <trkpt lat="44.20366" lon="2.15502">
        <ele>412</ele>
        <time>2016-10-23T10:46:27Z</time>
      </trkpt>
      <trkpt lat="44.20365" lon="2.15502">
        <ele>412</ele>
        <time>2016-10-23T10:46:32Z</time>
      </trkpt>
      <trkpt lat="44.20365" lon="2.15502">
        <ele>412</ele>
        <time>2016-10-23T10:46:37Z</time>
      </trkpt>
      <trkpt lat="44.20366" lon="2.15502">
        <ele>412</ele>
        <time>2016-10-23T10:46:42Z</time>
      </trkpt>
      <trkpt lat="44.20366" lon="2.15502">
        <ele>412</ele>
        <time>2016-10-23T10:46:47Z</time>
      </trkpt>
      <trkpt lat="44.20366" lon="2.15502">
        <ele>412</ele>
        <time>2016-10-23T10:46:52Z</time>
      </trkpt>
      <trkpt lat="44.20366" lon="2.15502">
        <ele>412</ele>
        <time>2016-10-23T10:46:57Z</time>
      </trkpt>
      <trkpt lat="44.20366" lon="2.15502">
        <ele>412</ele>
        <time>2016-10-23T10:47:02Z</time>
      </trkpt>
      <trkpt lat="44.20365" lon="2.15504">
        <ele>412</ele>
        <time>2016-10-23T10:47:07Z</time>
      </trkpt>
      <trkpt lat="44.20365" lon="2.15504">
        <ele>412</ele>
        <time>2016-10-23T10:47:12Z</time>
      </trkpt>
      <trkpt lat="44.20365" lon="2.15504">
        <ele>412</ele>
        <time>2016-10-23T10:47:17Z</time>
      </trkpt>
      <trkpt lat="44.20365" lon="2.15504">
        <ele>412</ele>
        <time>2016-10-23T10:47:22Z</time>
      </trkpt>
      <trkpt lat="44.20365" lon="2.15505">
        <ele>412</ele>
        <time>2016-10-23T10:47:27Z</time>
      </trkpt>
      <trkpt lat="44.20366" lon="2.15505">
        <ele>412</ele>
        <time>2016-10-23T10:47:32Z</time>
      </trkpt>
      <trkpt lat="44.20366" lon="2.15505">
        <ele>412</ele>
        <time>2016-10-23T10:47:37Z</time>
      </trkpt>
      <trkpt lat="44.20366" lon="2.15505">
        <ele>412</ele>
        <time>2016-10-23T10:47:42Z</time>
      </trkpt>
      <trkpt lat="44.20367" lon="2.15505">
        <ele>412</ele>
        <time>2016-10-23T10:47:47Z</time>
      </trkpt>
      <trkpt lat="44.20367" lon="2.15506">
        <ele>412</ele>
        <time>2016-10-23T10:47:52Z</time>
      </trkpt>
      <trkpt lat="44.20367" lon="2.15505">
        <ele>412</ele>
        <time>2016-10-23T10:47:57Z</time>
      </trkpt>
      <trkpt lat="44.20367" lon="2.15506">
        <ele>412</ele>
        <time>2016-10-23T10:48:02Z</time>
      </trkpt>
      <trkpt lat="44.20367" lon="2.15506">
        <ele>412</ele>
        <time>2016-10-23T10:48:07Z</time>
      </trkpt>
      <trkpt lat="44.20367" lon="2.15506">
        <ele>412</ele>
        <time>2016-10-23T10:48:12Z</time>
      </trkpt>
      <trkpt lat="44.20367" lon="2.15506">
        <ele>412</ele>
        <time>2016-10-23T10:48:17Z</time>
      </trkpt>
      <trkpt lat="44.20366" lon="2.15506">
        <ele>412</ele>
        <time>2016-10-23T10:48:22Z</time>
      </trkpt>
      <trkpt lat="44.20366" lon="2.15506">
        <ele>412</ele>
        <time>2016-10-23T10:48:27Z</time>
      </trkpt>
      <trkpt lat="44.20366" lon="2.15506">
        <ele>412</ele>
        <time>2016-10-23T10:48:32Z</time>
      </trkpt>
      <trkpt lat="44.20365" lon="2.15506">
        <ele>412</ele>
        <time>2016-10-23T10:48:37Z</time>
      </trkpt>
      <trkpt lat="44.20365" lon="2.15506">
        <ele>412</ele>
        <time>2016-10-23T10:48:42Z</time>
      </trkpt>
      <trkpt lat="44.20365" lon="2.15506">
        <ele>412</ele>
        <time>2016-10-23T10:48:47Z</time>
      </trkpt>
      <trkpt lat="44.20365" lon="2.15507">
        <ele>412</ele>
        <time>2016-10-23T10:48:52Z</time>
      </trkpt>
      <trkpt lat="44.20364" lon="2.15507">
        <ele>412</ele>
        <time>2016-10-23T10:48:57Z</time>
      </trkpt>
      <trkpt lat="44.20364" lon="2.15509">
        <ele>412</ele>
        <time>2016-10-23T10:49:02Z</time>
      </trkpt>
      <trkpt lat="44.20364" lon="2.1551">
        <ele>412</ele>
        <time>2016-10-23T10:49:07Z</time>
      </trkpt>
      <trkpt lat="44.20364" lon="2.1551">
        <ele>412</ele>
        <time>2016-10-23T10:49:12Z</time>
      </trkpt>
      <trkpt lat="44.20366" lon="2.15511">
        <ele>412</ele>
        <time>2016-10-23T10:49:17Z</time>
      </trkpt>
      <trkpt lat="44.2037" lon="2.15514">
        <ele>412</ele>
        <time>2016-10-23T10:49:22Z</time>
      </trkpt>
      <trkpt lat="44.20377" lon="2.15522">
        <ele>429</ele>
        <time>2016-10-23T10:49:27Z</time>
      </trkpt>
      <trkpt lat="44.20381" lon="2.15528">
        <ele>429</ele>
        <time>2016-10-23T10:49:32Z</time>
      </trkpt>
      <trkpt lat="44.20387" lon="2.15532">
        <ele>429</ele>
        <time>2016-10-23T10:49:37Z</time>
      </trkpt>
      <trkpt lat="44.20393" lon="2.15537">
        <ele>429</ele>
        <time>2016-10-23T10:49:42Z</time>
      </trkpt>
      <trkpt lat="44.204" lon="2.15544">
        <ele>415</ele>
        <time>2016-10-23T10:49:47Z</time>
      </trkpt>
      <trkpt lat="44.20405" lon="2.15548">
        <ele>415</ele>
        <time>2016-10-23T10:49:52Z</time>
      </trkpt>
      <trkpt lat="44.2041" lon="2.15551">
        <ele>415</ele>
        <time>2016-10-23T10:49:57Z</time>
      </trkpt>
      <trkpt lat="44.20421" lon="2.15553">
        <ele>415</ele>
        <time>2016-10-23T10:50:02Z</time>
      </trkpt>
      <trkpt lat="44.20427" lon="2.15554">
        <ele>415</ele>
        <time>2016-10-23T10:50:07Z</time>
      </trkpt>
      <trkpt lat="44.20433" lon="2.15557">
        <ele>415</ele>
        <time>2016-10-23T10:50:12Z</time>
      </trkpt>
      <trkpt lat="44.20436" lon="2.15559">
        <ele>415</ele>
        <time>2016-10-23T10:50:17Z</time>
      </trkpt>
      <trkpt lat="44.20446" lon="2.15562">
        <ele>415</ele>
        <time>2016-10-23T10:50:22Z</time>
      </trkpt>
      <trkpt lat="44.20452" lon="2.15565">
        <ele>415</ele>
        <time>2016-10-23T10:50:27Z</time>
      </trkpt>
      <trkpt lat="44.20459" lon="2.15569">
        <ele>433</ele>
        <time>2016-10-23T10:50:32Z</time>
      </trkpt>
      <trkpt lat="44.20466" lon="2.1557">
        <ele>433</ele>
        <time>2016-10-23T10:50:37Z</time>
      </trkpt>
      <trkpt lat="44.20472" lon="2.15571">
        <ele>433</ele>
        <time>2016-10-23T10:50:42Z</time>
      </trkpt>
      <trkpt lat="44.2048" lon="2.15573">
        <ele>433</ele>
        <time>2016-10-23T10:50:47Z</time>
      </trkpt>
      <trkpt lat="44.20485" lon="2.15573">
        <ele>433</ele>
        <time>2016-10-23T10:50:52Z</time>
      </trkpt>
      <trkpt lat="44.20492" lon="2.15572">
        <ele>433</ele>
        <time>2016-10-23T10:50:57Z</time>
      </trkpt>
      <trkpt lat="44.20496" lon="2.1557">
        <ele>433</ele>
        <time>2016-10-23T10:51:02Z</time>
      </trkpt>
      <trkpt lat="44.20501" lon="2.15569">
        <ele>433</ele>
        <time>2016-10-23T10:51:07Z</time>
      </trkpt>
      <trkpt lat="44.20506" lon="2.1557">
        <ele>433</ele>
        <time>2016-10-23T10:51:12Z</time>
      </trkpt>
      <trkpt lat="44.2051" lon="2.15568">
        <ele>433</ele>
        <time>2016-10-23T10:51:17Z</time>
      </trkpt>
      <trkpt lat="44.20515" lon="2.15571">
        <ele>433</ele>
        <time>2016-10-23T10:51:22Z</time>
      </trkpt>
      <trkpt lat="44.20521" lon="2.15572">
        <ele>433</ele>
        <time>2016-10-23T10:51:27Z</time>
      </trkpt>
      <trkpt lat="44.20528" lon="2.15572">
        <ele>433</ele>
        <time>2016-10-23T10:51:32Z</time>
      </trkpt>
      <trkpt lat="44.20537" lon="2.15577">
        <ele>433</ele>
        <time>2016-10-23T10:51:37Z</time>
      </trkpt>
      <trkpt lat="44.2054" lon="2.15578">
        <ele>433</ele>
        <time>2016-10-23T10:51:42Z</time>
      </trkpt>
      <trkpt lat="44.20546" lon="2.15581">
        <ele>448</ele>
        <time>2016-10-23T10:51:47Z</time>
      </trkpt>
      <trkpt lat="44.20551" lon="2.15584">
        <ele>448</ele>
        <time>2016-10-23T10:51:52Z</time>
      </trkpt>
      <trkpt lat="44.20556" lon="2.15586">
        <ele>448</ele>
        <time>2016-10-23T10:51:57Z</time>
      </trkpt>
      <trkpt lat="44.20558" lon="2.15586">
        <ele>448</ele>
        <time>2016-10-23T10:52:02Z</time>
      </trkpt>
      <trkpt lat="44.20565" lon="2.15587">
        <ele>448</ele>
        <time>2016-10-23T10:52:07Z</time>
      </trkpt>
      <trkpt lat="44.20573" lon="2.15588">
        <ele>448</ele>
        <time>2016-10-23T10:52:12Z</time>
      </trkpt>
      <trkpt lat="44.20577" lon="2.15587">
        <ele>448</ele>
        <time>2016-10-23T10:52:17Z</time>
      </trkpt>
      <trkpt lat="44.20582" lon="2.15588">
        <ele>448</ele>
        <time>2016-10-23T10:52:22Z</time>
      </trkpt>
      <trkpt lat="44.20588" lon="2.15588">
        <ele>448</ele>
        <time>2016-10-23T10:52:27Z</time>
      </trkpt>
      <trkpt lat="44.20595" lon="2.1559">
        <ele>448</ele>
        <time>2016-10-23T10:52:32Z</time>
      </trkpt>
      <trkpt lat="44.20601" lon="2.15592">
        <ele>448</ele>
        <time>2016-10-23T10:52:37Z</time>
      </trkpt>
      <trkpt lat="44.20607" lon="2.15594">
        <ele>448</ele>
        <time>2016-10-23T10:52:42Z</time>
      </trkpt>
      <trkpt lat="44.20614" lon="2.15594">
        <ele>448</ele>
        <time>2016-10-23T10:52:47Z</time>
      </trkpt>
      <trkpt lat="44.20619" lon="2.15598">
        <ele>448</ele>
        <time>2016-10-23T10:52:52Z</time>
      </trkpt>
      <trkpt lat="44.20625" lon="2.15601">
        <ele>465</ele>
        <time>2016-10-23T10:52:57Z</time>
      </trkpt>
      <trkpt lat="44.2063" lon="2.15603">
        <ele>465</ele>
        <time>2016-10-23T10:53:02Z</time>
      </trkpt>
      <trkpt lat="44.20634" lon="2.15604">
        <ele>465</ele>
        <time>2016-10-23T10:53:07Z</time>
      </trkpt>
      <trkpt lat="44.20641" lon="2.15605">
        <ele>465</ele>
        <time>2016-10-23T10:53:12Z</time>
      </trkpt>
      <trkpt lat="44.20647" lon="2.15605">
        <ele>465</ele>
        <time>2016-10-23T10:53:17Z</time>
      </trkpt>
      <trkpt lat="44.20652" lon="2.15607">
        <ele>465</ele>
        <time>2016-10-23T10:53:22Z</time>
      </trkpt>
      <trkpt lat="44.20655" lon="2.15607">
        <ele>465</ele>
        <time>2016-10-23T10:53:27Z</time>
      </trkpt>
      <trkpt lat="44.20656" lon="2.15607">
        <ele>465</ele>
        <time>2016-10-23T10:53:32Z</time>
      </trkpt>
      <trkpt lat="44.20657" lon="2.15607">
        <ele>465</ele>
        <time>2016-10-23T10:53:37Z</time>
      </trkpt>
      <trkpt lat="44.20658" lon="2.15606">
        <ele>465</ele>
        <time>2016-10-23T10:53:42Z</time>
      </trkpt>
      <trkpt lat="44.20659" lon="2.15605">
        <ele>465</ele>
        <time>2016-10-23T10:53:47Z</time>
      </trkpt>
      <trkpt lat="44.20662" lon="2.15606">
        <ele>465</ele>
        <time>2016-10-23T10:53:52Z</time>
      </trkpt>
      <trkpt lat="44.20666" lon="2.15606">
        <ele>465</ele>
        <time>2016-10-23T10:53:57Z</time>
      </trkpt>
      <trkpt lat="44.20671" lon="2.15608">
        <ele>465</ele>
        <time>2016-10-23T10:54:02Z</time>
      </trkpt>
      <trkpt lat="44.20675" lon="2.15604">
        <ele>465</ele>
        <time>2016-10-23T10:54:07Z</time>
      </trkpt>
      <trkpt lat="44.20679" lon="2.15602">
        <ele>465</ele>
        <time>2016-10-23T10:54:12Z</time>
      </trkpt>
      <trkpt lat="44.20683" lon="2.15601">
        <ele>465</ele>
        <time>2016-10-23T10:54:17Z</time>
      </trkpt>
      <trkpt lat="44.20685" lon="2.15602">
        <ele>465</ele>
        <time>2016-10-23T10:54:22Z</time>
      </trkpt>
      <trkpt lat="44.20686" lon="2.15603">
        <ele>465</ele>
        <time>2016-10-23T10:54:27Z</time>
      </trkpt>
      <trkpt lat="44.20686" lon="2.15604">
        <ele>465</ele>
        <time>2016-10-23T10:54:32Z</time>
      </trkpt>
      <trkpt lat="44.20686" lon="2.15602">
        <ele>465</ele>
        <time>2016-10-23T10:54:37Z</time>
      </trkpt>
      <trkpt lat="44.20687" lon="2.15602">
        <ele>465</ele>
        <time>2016-10-23T10:54:42Z</time>
      </trkpt>
      <trkpt lat="44.20686" lon="2.15603">
        <ele>465</ele>
        <time>2016-10-23T10:54:47Z</time>
      </trkpt>
      <trkpt lat="44.20686" lon="2.15604">
        <ele>465</ele>
        <time>2016-10-23T10:54:52Z</time>
      </trkpt>
      <trkpt lat="44.20686" lon="2.15604">
        <ele>465</ele>
        <time>2016-10-23T10:54:57Z</time>
      </trkpt>
      <trkpt lat="44.20686" lon="2.15604">
        <ele>465</ele>
        <time>2016-10-23T10:55:02Z</time>
      </trkpt>
      <trkpt lat="44.20686" lon="2.15604">
        <ele>465</ele>
        <time>2016-10-23T10:55:07Z</time>
      </trkpt>
      <trkpt lat="44.20686" lon="2.15605">
        <ele>465</ele>
        <time>2016-10-23T10:55:12Z</time>
      </trkpt>
      <trkpt lat="44.20686" lon="2.15605">
        <ele>465</ele>
        <time>2016-10-23T10:55:17Z</time>
      </trkpt>
      <trkpt lat="44.20688" lon="2.15606">
        <ele>465</ele>
        <time>2016-10-23T10:55:22Z</time>
      </trkpt>
      <trkpt lat="44.20689" lon="2.15605">
        <ele>465</ele>
        <time>2016-10-23T10:55:27Z</time>
      </trkpt>
      <trkpt lat="44.20688" lon="2.15606">
        <ele>465</ele>
        <time>2016-10-23T10:55:32Z</time>
      </trkpt>
      <trkpt lat="44.20688" lon="2.15606">
        <ele>465</ele>
        <time>2016-10-23T10:55:37Z</time>
      </trkpt>
      <trkpt lat="44.20687" lon="2.15607">
        <ele>465</ele>
        <time>2016-10-23T10:55:42Z</time>
      </trkpt>
      <trkpt lat="44.20687" lon="2.15607">
        <ele>465</ele>
        <time>2016-10-23T10:55:47Z</time>
      </trkpt>
      <trkpt lat="44.20687" lon="2.15607">
        <ele>465</ele>
        <time>2016-10-23T10:55:52Z</time>
      </trkpt>
      <trkpt lat="44.20687" lon="2.15608">
        <ele>465</ele>
        <time>2016-10-23T10:55:57Z</time>
      </trkpt>
      <trkpt lat="44.20686" lon="2.15608">
        <ele>465</ele>
        <time>2016-10-23T10:56:02Z</time>
      </trkpt>
      <trkpt lat="44.20685" lon="2.15607">
        <ele>465</ele>
        <time>2016-10-23T10:56:07Z</time>
      </trkpt>
      <trkpt lat="44.20687" lon="2.15609">
        <ele>465</ele>
        <time>2016-10-23T10:56:12Z</time>
      </trkpt>
      <trkpt lat="44.20687" lon="2.15609">
        <ele>465</ele>
        <time>2016-10-23T10:56:17Z</time>
      </trkpt>
      <trkpt lat="44.20686" lon="2.15609">
        <ele>465</ele>
        <time>2016-10-23T10:56:22Z</time>
      </trkpt>
      <trkpt lat="44.20686" lon="2.15609">
        <ele>465</ele>
        <time>2016-10-23T10:56:27Z</time>
      </trkpt>
      <trkpt lat="44.20686" lon="2.15609">
        <ele>465</ele>
        <time>2016-10-23T10:56:32Z</time>
      </trkpt>
      <trkpt lat="44.20686" lon="2.15609">
        <ele>465</ele>
        <time>2016-10-23T10:56:37Z</time>
      </trkpt>
      <trkpt lat="44.20687" lon="2.15609">
        <ele>465</ele>
        <time>2016-10-23T10:56:42Z</time>
      </trkpt>
      <trkpt lat="44.20687" lon="2.15609">
        <ele>465</ele>
        <time>2016-10-23T10:56:47Z</time>
      </trkpt>
      <trkpt lat="44.20687" lon="2.15608">
        <ele>465</ele>
        <time>2016-10-23T10:56:52Z</time>
      </trkpt>
      <trkpt lat="44.20687" lon="2.15608">
        <ele>465</ele>
        <time>2016-10-23T10:56:57Z</time>
      </trkpt>
      <trkpt lat="44.20687" lon="2.15608">
        <ele>465</ele>
        <time>2016-10-23T10:57:02Z</time>
      </trkpt>
      <trkpt lat="44.20687" lon="2.15608">
        <ele>465</ele>
        <time>2016-10-23T10:57:07Z</time>
      </trkpt>
      <trkpt lat="44.20687" lon="2.15608">
        <ele>465</ele>
        <time>2016-10-23T10:57:12Z</time>
      </trkpt>
      <trkpt lat="44.20686" lon="2.15609">
        <ele>465</ele>
        <time>2016-10-23T10:57:17Z</time>
      </trkpt>
      <trkpt lat="44.20687" lon="2.15609">
        <ele>465</ele>
        <time>2016-10-23T10:57:22Z</time>
      </trkpt>
      <trkpt lat="44.20686" lon="2.15609">
        <ele>465</ele>
        <time>2016-10-23T10:57:27Z</time>
      </trkpt>
      <trkpt lat="44.20686" lon="2.15609">
        <ele>465</ele>
        <time>2016-10-23T10:57:32Z</time>
      </trkpt>
      <trkpt lat="44.20686" lon="2.15609">
        <ele>465</ele>
        <time>2016-10-23T10:57:37Z</time>
      </trkpt>
      <trkpt lat="44.20686" lon="2.15609">
        <ele>465</ele>
        <time>2016-10-23T10:57:42Z</time>
      </trkpt>
      <trkpt lat="44.20686" lon="2.15609">
        <ele>465</ele>
        <time>2016-10-23T10:57:47Z</time>
      </trkpt>
      <trkpt lat="44.20686" lon="2.15609">
        <ele>465</ele>
        <time>2016-10-23T10:57:52Z</time>
      </trkpt>
      <trkpt lat="44.20684" lon="2.1561">
        <ele>465</ele>
        <time>2016-10-23T10:57:57Z</time>
      </trkpt>
      <trkpt lat="44.20667" lon="2.15619">
        <ele>465</ele>
        <time>2016-10-23T10:58:02Z</time>
      </trkpt>
      <trkpt lat="44.20666" lon="2.15629">
        <ele>433</ele>
        <time>2016-10-23T10:58:07Z</time>
      </trkpt>
      <trkpt lat="44.20666" lon="2.15633">
        <ele>433</ele>
        <time>2016-10-23T10:58:12Z</time>
      </trkpt>
      <trkpt lat="44.2066" lon="2.15645">
        <ele>433</ele>
        <time>2016-10-23T10:58:17Z</time>
      </trkpt>
      <trkpt lat="44.2066" lon="2.15655">
        <ele>433</ele>
        <time>2016-10-23T10:58:22Z</time>
      </trkpt>
      <trkpt lat="44.20661" lon="2.15656">
        <ele>433</ele>
        <time>2016-10-23T10:58:27Z</time>
      </trkpt>
      <trkpt lat="44.2066" lon="2.15648">
        <ele>433</ele>
        <time>2016-10-23T10:58:32Z</time>
      </trkpt>
      <trkpt lat="44.20658" lon="2.15642">
        <ele>433</ele>
        <time>2016-10-23T10:58:37Z</time>
      </trkpt>
      <trkpt lat="44.20658" lon="2.15633">
        <ele>433</ele>
        <time>2016-10-23T10:58:42Z</time>
      </trkpt>
      <trkpt lat="44.20659" lon="2.15619">
        <ele>465</ele>
        <time>2016-10-23T10:58:47Z</time>
      </trkpt>
      <trkpt lat="44.20659" lon="2.1561">
        <ele>465</ele>
        <time>2016-10-23T10:58:52Z</time>
      </trkpt>
      <trkpt lat="44.20657" lon="2.15602">
        <ele>465</ele>
        <time>2016-10-23T10:58:57Z</time>
      </trkpt>
      <trkpt lat="44.20655" lon="2.15594">
        <ele>465</ele>
        <time>2016-10-23T10:59:02Z</time>
      </trkpt>
      <trkpt lat="44.20652" lon="2.15588">
        <ele>465</ele>
        <time>2016-10-23T10:59:07Z</time>
      </trkpt>
      <trkpt lat="44.20648" lon="2.15582">
        <ele>465</ele>
        <time>2016-10-23T10:59:12Z</time>
      </trkpt>
      <trkpt lat="44.20645" lon="2.15576">
        <ele>465</ele>
        <time>2016-10-23T10:59:17Z</time>
      </trkpt>
      <trkpt lat="44.20641" lon="2.15569">
        <ele>465</ele>
        <time>2016-10-23T10:59:22Z</time>
      </trkpt>
      <trkpt lat="44.20639" lon="2.15563">
        <ele>465</ele>
        <time>2016-10-23T10:59:27Z</time>
      </trkpt>
      <trkpt lat="44.20635" lon="2.15559">
        <ele>465</ele>
        <time>2016-10-23T10:59:32Z</time>
      </trkpt>
      <trkpt lat="44.20632" lon="2.15556">
        <ele>465</ele>
        <time>2016-10-23T10:59:37Z</time>
      </trkpt>
      <trkpt lat="44.20629" lon="2.15549">
        <ele>465</ele>
        <time>2016-10-23T10:59:42Z</time>
      </trkpt>
      <trkpt lat="44.20626" lon="2.15541">
        <ele>491</ele>
        <time>2016-10-23T10:59:47Z</time>
      </trkpt>
      <trkpt lat="44.20622" lon="2.15535">
        <ele>475</ele>
        <time>2016-10-23T10:59:52Z</time>
      </trkpt>
      <trkpt lat="44.20618" lon="2.1553">
        <ele>475</ele>
        <time>2016-10-23T10:59:57Z</time>
      </trkpt>
      <trkpt lat="44.20614" lon="2.15526">
        <ele>475</ele>
        <time>2016-10-23T11:00:02Z</time>
      </trkpt>
      <trkpt lat="44.20611" lon="2.15525">
        <ele>475</ele>
        <time>2016-10-23T11:00:07Z</time>
      </trkpt>
      <trkpt lat="44.20608" lon="2.15524">
        <ele>475</ele>
        <time>2016-10-23T11:00:12Z</time>
      </trkpt>
      <trkpt lat="44.20603" lon="2.15519">
        <ele>475</ele>
        <time>2016-10-23T11:00:17Z</time>
      </trkpt>
      <trkpt lat="44.206" lon="2.15517">
        <ele>475</ele>
        <time>2016-10-23T11:00:22Z</time>
      </trkpt>
      <trkpt lat="44.20597" lon="2.15511">
        <ele>475</ele>
        <time>2016-10-23T11:00:27Z</time>
      </trkpt>
      <trkpt lat="44.20592" lon="2.15499">
        <ele>475</ele>
        <time>2016-10-23T11:00:32Z</time>
      </trkpt>
      <trkpt lat="44.20592" lon="2.15498">
        <ele>475</ele>
        <time>2016-10-23T11:00:37Z</time>
      </trkpt>
      <trkpt lat="44.20587" lon="2.15496">
        <ele>475</ele>
        <time>2016-10-23T11:00:42Z</time>
      </trkpt>
      <trkpt lat="44.20581" lon="2.15496">
        <ele>475</ele>
        <time>2016-10-23T11:00:47Z</time>
      </trkpt>
      <trkpt lat="44.20577" lon="2.15496">
        <ele>475</ele>
        <time>2016-10-23T11:00:52Z</time>
      </trkpt>
      <trkpt lat="44.20572" lon="2.15496">
        <ele>475</ele>
        <time>2016-10-23T11:00:57Z</time>
      </trkpt>
      <trkpt lat="44.20569" lon="2.15496">
        <ele>475</ele>
        <time>2016-10-23T11:01:02Z</time>
      </trkpt>
      <trkpt lat="44.20565" lon="2.15495">
        <ele>475</ele>
        <time>2016-10-23T11:01:07Z</time>
      </trkpt>
      <trkpt lat="44.20561" lon="2.15496">
        <ele>475</ele>
        <time>2016-10-23T11:01:12Z</time>
      </trkpt>
      <trkpt lat="44.20558" lon="2.15493">
        <ele>475</ele>
        <time>2016-10-23T11:01:17Z</time>
      </trkpt>
      <trkpt lat="44.20553" lon="2.15493">
        <ele>475</ele>
        <time>2016-10-23T11:01:22Z</time>
      </trkpt>
      <trkpt lat="44.20548" lon="2.15491">
        <ele>475</ele>
        <time>2016-10-23T11:01:27Z</time>
      </trkpt>
      <trkpt lat="44.20543" lon="2.15491">
        <ele>475</ele>
        <time>2016-10-23T11:01:32Z</time>
      </trkpt>
      <trkpt lat="44.2054" lon="2.15489">
        <ele>458</ele>
        <time>2016-10-23T11:01:37Z</time>
      </trkpt>
      <trkpt lat="44.20538" lon="2.1549">
        <ele>458</ele>
        <time>2016-10-23T11:01:42Z</time>
      </trkpt>
      <trkpt lat="44.20538" lon="2.1549">
        <ele>458</ele>
        <time>2016-10-23T11:01:47Z</time>
      </trkpt>
      <trkpt lat="44.20539" lon="2.1549">
        <ele>458</ele>
        <time>2016-10-23T11:01:52Z</time>
      </trkpt>
      <trkpt lat="44.2054" lon="2.1549">
        <ele>458</ele>
        <time>2016-10-23T11:01:57Z</time>
      </trkpt>
      <trkpt lat="44.2054" lon="2.15491">
        <ele>458</ele>
        <time>2016-10-23T11:02:02Z</time>
      </trkpt>
      <trkpt lat="44.20541" lon="2.1549">
        <ele>458</ele>
        <time>2016-10-23T11:02:07Z</time>
      </trkpt>
      <trkpt lat="44.20539" lon="2.15484">
        <ele>458</ele>
        <time>2016-10-23T11:02:12Z</time>
      </trkpt>
      <trkpt lat="44.20539" lon="2.15473">
        <ele>458</ele>
        <time>2016-10-23T11:02:17Z</time>
      </trkpt>
      <trkpt lat="44.20541" lon="2.15465">
        <ele>458</ele>
        <time>2016-10-23T11:02:22Z</time>
      </trkpt>
      <trkpt lat="44.20542" lon="2.1546">
        <ele>475</ele>
        <time>2016-10-23T11:02:27Z</time>
      </trkpt>
      <trkpt lat="44.20544" lon="2.15456">
        <ele>476</ele>
        <time>2016-10-23T11:02:32Z</time>
      </trkpt>
      <trkpt lat="44.20546" lon="2.15451">
        <ele>476</ele>
        <time>2016-10-23T11:02:37Z</time>
      </trkpt>
      <trkpt lat="44.20552" lon="2.15448">
        <ele>476</ele>
        <time>2016-10-23T11:02:42Z</time>
      </trkpt>
      <trkpt lat="44.20556" lon="2.15446">
        <ele>476</ele>
        <time>2016-10-23T11:02:47Z</time>
      </trkpt>
      <trkpt lat="44.2056" lon="2.15445">
        <ele>476</ele>
        <time>2016-10-23T11:02:52Z</time>
      </trkpt>
      <trkpt lat="44.20563" lon="2.15443">
        <ele>476</ele>
        <time>2016-10-23T11:02:57Z</time>
      </trkpt>
      <trkpt lat="44.20567" lon="2.15439">
        <ele>476</ele>
        <time>2016-10-23T11:03:02Z</time>
      </trkpt>
      <trkpt lat="44.20572" lon="2.15436">
        <ele>476</ele>
        <time>2016-10-23T11:03:07Z</time>
      </trkpt>
      <trkpt lat="44.20574" lon="2.15435">
        <ele>476</ele>
        <time>2016-10-23T11:03:12Z</time>
      </trkpt>
      <trkpt lat="44.20579" lon="2.15431">
        <ele>476</ele>
        <time>2016-10-23T11:03:17Z</time>
      </trkpt>
      <trkpt lat="44.20583" lon="2.15427">
        <ele>476</ele>
        <time>2016-10-23T11:03:22Z</time>
      </trkpt>
      <trkpt lat="44.20587" lon="2.15421">
        <ele>476</ele>
        <time>2016-10-23T11:03:27Z</time>
      </trkpt>
      <trkpt lat="44.20588" lon="2.1542">
        <ele>476</ele>
        <time>2016-10-23T11:03:32Z</time>
      </trkpt>
      <trkpt lat="44.20591" lon="2.15418">
        <ele>476</ele>
        <time>2016-10-23T11:03:37Z</time>
      </trkpt>
      <trkpt lat="44.20594" lon="2.15415">
        <ele>476</ele>
        <time>2016-10-23T11:03:42Z</time>
      </trkpt>
      <trkpt lat="44.20599" lon="2.15411">
        <ele>476</ele>
        <time>2016-10-23T11:03:47Z</time>
      </trkpt>
      <trkpt lat="44.20603" lon="2.15409">
        <ele>476</ele>
        <time>2016-10-23T11:03:52Z</time>
      </trkpt>
      <trkpt lat="44.20608" lon="2.15407">
        <ele>476</ele>
        <time>2016-10-23T11:03:57Z</time>
      </trkpt>
      <trkpt lat="44.20614" lon="2.15406">
        <ele>476</ele>
        <time>2016-10-23T11:04:02Z</time>
      </trkpt>
      <trkpt lat="44.20618" lon="2.15404">
        <ele>476</ele>
        <time>2016-10-23T11:04:07Z</time>
      </trkpt>
      <trkpt lat="44.20621" lon="2.15403">
        <ele>476</ele>
        <time>2016-10-23T11:04:12Z</time>
      </trkpt>
      <trkpt lat="44.20624" lon="2.15402">
        <ele>476</ele>
        <time>2016-10-23T11:04:17Z</time>
      </trkpt>
      <trkpt lat="44.20629" lon="2.154">
        <ele>485</ele>
        <time>2016-10-23T11:04:22Z</time>
      </trkpt>
      <trkpt lat="44.20635" lon="2.154">
        <ele>485</ele>
        <time>2016-10-23T11:04:27Z</time>
      </trkpt>
      <trkpt lat="44.20641" lon="2.154">
        <ele>485</ele>
        <time>2016-10-23T11:04:32Z</time>
      </trkpt>
      <trkpt lat="44.20645" lon="2.15396">
        <ele>485</ele>
        <time>2016-10-23T11:04:37Z</time>
      </trkpt>
      <trkpt lat="44.20647" lon="2.15392">
        <ele>485</ele>
        <time>2016-10-23T11:04:42Z</time>
      </trkpt>
      <trkpt lat="44.20647" lon="2.15392">
        <ele>485</ele>
        <time>2016-10-23T11:04:47Z</time>
      </trkpt>
      <trkpt lat="44.20651" lon="2.15391">
        <ele>485</ele>
        <time>2016-10-23T11:04:52Z</time>
      </trkpt>
      <trkpt lat="44.20653" lon="2.1539">
        <ele>485</ele>
        <time>2016-10-23T11:04:57Z</time>
      </trkpt>
      <trkpt lat="44.20655" lon="2.15384">
        <ele>485</ele>
        <time>2016-10-23T11:05:02Z</time>
      </trkpt>
      <trkpt lat="44.20664" lon="2.15381">
        <ele>485</ele>
        <time>2016-10-23T11:05:07Z</time>
      </trkpt>
      <trkpt lat="44.20676" lon="2.15384">
        <ele>485</ele>
        <time>2016-10-23T11:05:12Z</time>
      </trkpt>
      <trkpt lat="44.2068" lon="2.15381">
        <ele>485</ele>
        <time>2016-10-23T11:05:17Z</time>
      </trkpt>
      <trkpt lat="44.2069" lon="2.15379">
        <ele>485</ele>
        <time>2016-10-23T11:05:22Z</time>
      </trkpt>
      <trkpt lat="44.20696" lon="2.15377">
        <ele>485</ele>
        <time>2016-10-23T11:05:27Z</time>
      </trkpt>
      <trkpt lat="44.20703" lon="2.15375">
        <ele>485</ele>
        <time>2016-10-23T11:05:32Z</time>
      </trkpt>
      <trkpt lat="44.20708" lon="2.15372">
        <ele>464</ele>
        <time>2016-10-23T11:05:37Z</time>
      </trkpt>
      <trkpt lat="44.20714" lon="2.15372">
        <ele>480</ele>
        <time>2016-10-23T11:05:42Z</time>
      </trkpt>
      <trkpt lat="44.20719" lon="2.15365">
        <ele>480</ele>
        <time>2016-10-23T11:05:47Z</time>
      </trkpt>
      <trkpt lat="44.20724" lon="2.1536">
        <ele>480</ele>
        <time>2016-10-23T11:05:52Z</time>
      </trkpt>
      <trkpt lat="44.2073" lon="2.15354">
        <ele>480</ele>
        <time>2016-10-23T11:05:57Z</time>
      </trkpt>
      <trkpt lat="44.20737" lon="2.1535">
        <ele>480</ele>
        <time>2016-10-23T11:06:02Z</time>
      </trkpt>
      <trkpt lat="44.20742" lon="2.15348">
        <ele>480</ele>
        <time>2016-10-23T11:06:07Z</time>
      </trkpt>
      <trkpt lat="44.20746" lon="2.15346">
        <ele>480</ele>
        <time>2016-10-23T11:06:12Z</time>
      </trkpt>
      <trkpt lat="44.20751" lon="2.15345">
        <ele>480</ele>
        <time>2016-10-23T11:06:17Z</time>
      </trkpt>
      <trkpt lat="44.20755" lon="2.1534">
        <ele>480</ele>
        <time>2016-10-23T11:06:22Z</time>
      </trkpt>
      <trkpt lat="44.20762" lon="2.15339">
        <ele>480</ele>
        <time>2016-10-23T11:06:27Z</time>
      </trkpt>
      <trkpt lat="44.20769" lon="2.15335">
        <ele>480</ele>
        <time>2016-10-23T11:06:32Z</time>
      </trkpt>
      <trkpt lat="44.20773" lon="2.15334">
        <ele>480</ele>
        <time>2016-10-23T11:06:37Z</time>
      </trkpt>
      <trkpt lat="44.20782" lon="2.15326">
        <ele>480</ele>
        <time>2016-10-23T11:06:42Z</time>
      </trkpt>
      <trkpt lat="44.20786" lon="2.15322">
        <ele>480</ele>
        <time>2016-10-23T11:06:47Z</time>
      </trkpt>
      <trkpt lat="44.20792" lon="2.15319">
        <ele>493</ele>
        <time>2016-10-23T11:06:52Z</time>
      </trkpt>
      <trkpt lat="44.20796" lon="2.15312">
        <ele>493</ele>
        <time>2016-10-23T11:06:57Z</time>
      </trkpt>
      <trkpt lat="44.208" lon="2.15303">
        <ele>493</ele>
        <time>2016-10-23T11:07:02Z</time>
      </trkpt>
      <trkpt lat="44.20801" lon="2.15296">
        <ele>493</ele>
        <time>2016-10-23T11:07:07Z</time>
      </trkpt>
      <trkpt lat="44.20805" lon="2.1529">
        <ele>487</ele>
        <time>2016-10-23T11:07:12Z</time>
      </trkpt>
      <trkpt lat="44.20808" lon="2.1529">
        <ele>487</ele>
        <time>2016-10-23T11:07:17Z</time>
      </trkpt>
      <trkpt lat="44.20806" lon="2.1529">
        <ele>487</ele>
        <time>2016-10-23T11:07:22Z</time>
      </trkpt>
      <trkpt lat="44.20805" lon="2.15289">
        <ele>487</ele>
        <time>2016-10-23T11:07:27Z</time>
      </trkpt>
      <trkpt lat="44.20802" lon="2.15286">
        <ele>487</ele>
        <time>2016-10-23T11:07:32Z</time>
      </trkpt>
      <trkpt lat="44.20797" lon="2.15282">
        <ele>487</ele>
        <time>2016-10-23T11:07:37Z</time>
      </trkpt>
      <trkpt lat="44.20795" lon="2.1528">
        <ele>487</ele>
        <time>2016-10-23T11:07:42Z</time>
      </trkpt>
      <trkpt lat="44.20791" lon="2.15278">
        <ele>477</ele>
        <time>2016-10-23T11:07:47Z</time>
      </trkpt>
      <trkpt lat="44.20789" lon="2.15275">
        <ele>477</ele>
        <time>2016-10-23T11:07:52Z</time>
      </trkpt>
      <trkpt lat="44.20785" lon="2.1527">
        <ele>477</ele>
        <time>2016-10-23T11:07:57Z</time>
      </trkpt>
      <trkpt lat="44.20781" lon="2.15267">
        <ele>477</ele>
        <time>2016-10-23T11:08:02Z</time>
      </trkpt>
      <trkpt lat="44.20776" lon="2.15265">
        <ele>477</ele>
        <time>2016-10-23T11:08:07Z</time>
      </trkpt>
      <trkpt lat="44.20771" lon="2.15261">
        <ele>477</ele>
        <time>2016-10-23T11:08:12Z</time>
      </trkpt>
      <trkpt lat="44.20768" lon="2.15256">
        <ele>477</ele>
        <time>2016-10-23T11:08:17Z</time>
      </trkpt>
      <trkpt lat="44.20765" lon="2.15248">
        <ele>477</ele>
        <time>2016-10-23T11:08:22Z</time>
      </trkpt>
      <trkpt lat="44.20765" lon="2.15246">
        <ele>477</ele>
        <time>2016-10-23T11:08:27Z</time>
      </trkpt>
      <trkpt lat="44.20763" lon="2.15241">
        <ele>477</ele>
        <time>2016-10-23T11:08:32Z</time>
      </trkpt>
      <trkpt lat="44.20761" lon="2.1524">
        <ele>477</ele>
        <time>2016-10-23T11:08:37Z</time>
      </trkpt>
      <trkpt lat="44.2076" lon="2.15238">
        <ele>477</ele>
        <time>2016-10-23T11:08:42Z</time>
      </trkpt>
      <trkpt lat="44.2076" lon="2.15238">
        <ele>477</ele>
        <time>2016-10-23T11:08:47Z</time>
      </trkpt>
      <trkpt lat="44.2076" lon="2.15233">
        <ele>477</ele>
        <time>2016-10-23T11:08:52Z</time>
      </trkpt>
      <trkpt lat="44.20763" lon="2.15228">
        <ele>477</ele>
        <time>2016-10-23T11:08:57Z</time>
      </trkpt>
      <trkpt lat="44.20766" lon="2.15226">
        <ele>477</ele>
        <time>2016-10-23T11:09:02Z</time>
      </trkpt>
      <trkpt lat="44.20766" lon="2.15225">
        <ele>477</ele>
        <time>2016-10-23T11:09:07Z</time>
      </trkpt>
      <trkpt lat="44.20766" lon="2.15224">
        <ele>477</ele>
        <time>2016-10-23T11:09:12Z</time>
      </trkpt>
      <trkpt lat="44.20766" lon="2.15223">
        <ele>477</ele>
        <time>2016-10-23T11:09:17Z</time>
      </trkpt>
      <trkpt lat="44.20765" lon="2.15221">
        <ele>477</ele>
        <time>2016-10-23T11:09:22Z</time>
      </trkpt>
      <trkpt lat="44.20765" lon="2.15221">
        <ele>477</ele>
        <time>2016-10-23T11:09:27Z</time>
      </trkpt>
      <trkpt lat="44.20764" lon="2.1522">
        <ele>477</ele>
        <time>2016-10-23T11:09:32Z</time>
      </trkpt>
      <trkpt lat="44.20763" lon="2.15215">
        <ele>477</ele>
        <time>2016-10-23T11:09:37Z</time>
      </trkpt>
      <trkpt lat="44.20763" lon="2.15214">
        <ele>477</ele>
        <time>2016-10-23T11:09:42Z</time>
      </trkpt>
      <trkpt lat="44.20764" lon="2.15214">
        <ele>477</ele>
        <time>2016-10-23T11:09:47Z</time>
      </trkpt>
      <trkpt lat="44.20764" lon="2.15214">
        <ele>477</ele>
        <time>2016-10-23T11:09:52Z</time>
      </trkpt>
      <trkpt lat="44.20764" lon="2.15214">
        <ele>477</ele>
        <time>2016-10-23T11:09:57Z</time>
      </trkpt>
      <trkpt lat="44.20764" lon="2.15214">
        <ele>477</ele>
        <time>2016-10-23T11:10:02Z</time>
      </trkpt>
      <trkpt lat="44.20764" lon="2.15213">
        <ele>477</ele>
        <time>2016-10-23T11:10:07Z</time>
      </trkpt>
      <trkpt lat="44.20764" lon="2.15213">
        <ele>477</ele>
        <time>2016-10-23T11:10:12Z</time>
      </trkpt>
      <trkpt lat="44.20764" lon="2.15213">
        <ele>477</ele>
        <time>2016-10-23T11:10:17Z</time>
      </trkpt>
      <trkpt lat="44.20764" lon="2.15213">
        <ele>477</ele>
        <time>2016-10-23T11:10:22Z</time>
      </trkpt>
      <trkpt lat="44.20764" lon="2.15213">
        <ele>477</ele>
        <time>2016-10-23T11:10:27Z</time>
      </trkpt>
      <trkpt lat="44.20764" lon="2.15213">
        <ele>477</ele>
        <time>2016-10-23T11:10:32Z</time>
      </trkpt>
      <trkpt lat="44.20764" lon="2.15213">
        <ele>477</ele>
        <time>2016-10-23T11:10:37Z</time>
      </trkpt>
      <trkpt lat="44.20764" lon="2.15213">
        <ele>477</ele>
        <time>2016-10-23T11:10:42Z</time>
      </trkpt>
      <trkpt lat="44.20764" lon="2.15213">
        <ele>477</ele>
        <time>2016-10-23T11:10:47Z</time>
      </trkpt>
      <trkpt lat="44.20764" lon="2.15213">
        <ele>477</ele>
        <time>2016-10-23T11:10:52Z</time>
      </trkpt>
      <trkpt lat="44.20764" lon="2.15213">
        <ele>477</ele>
        <time>2016-10-23T11:10:57Z</time>
      </trkpt>
      <trkpt lat="44.20764" lon="2.15213">
        <ele>477</ele>
        <time>2016-10-23T11:11:02Z</time>
      </trkpt>
      <trkpt lat="44.20764" lon="2.15213">
        <ele>477</ele>
        <time>2016-10-23T11:11:07Z</time>
      </trkpt>
      <trkpt lat="44.20764" lon="2.15213">
        <ele>477</ele>
        <time>2016-10-23T11:11:12Z</time>
      </trkpt>
      <trkpt lat="44.20764" lon="2.15212">
        <ele>477</ele>
        <time>2016-10-23T11:11:17Z</time>
      </trkpt>
      <trkpt lat="44.20764" lon="2.15213">
        <ele>477</ele>
        <time>2016-10-23T11:11:22Z</time>
      </trkpt>
      <trkpt lat="44.20764" lon="2.15213">
        <ele>477</ele>
        <time>2016-10-23T11:11:27Z</time>
      </trkpt>
      <trkpt lat="44.20764" lon="2.15213">
        <ele>477</ele>
        <time>2016-10-23T11:11:32Z</time>
      </trkpt>
      <trkpt lat="44.20764" lon="2.15213">
        <ele>477</ele>
        <time>2016-10-23T11:11:37Z</time>
      </trkpt>
      <trkpt lat="44.20764" lon="2.15213">
        <ele>477</ele>
        <time>2016-10-23T11:11:42Z</time>
      </trkpt>
      <trkpt lat="44.20763" lon="2.15213">
        <ele>477</ele>
        <time>2016-10-23T11:11:47Z</time>
      </trkpt>
      <trkpt lat="44.20763" lon="2.15213">
        <ele>477</ele>
        <time>2016-10-23T11:11:52Z</time>
      </trkpt>
      <trkpt lat="44.20763" lon="2.15213">
        <ele>477</ele>
        <time>2016-10-23T11:11:57Z</time>
      </trkpt>
      <trkpt lat="44.20763" lon="2.15213">
        <ele>477</ele>
        <time>2016-10-23T11:12:02Z</time>
      </trkpt>
      <trkpt lat="44.20763" lon="2.15213">
        <ele>477</ele>
        <time>2016-10-23T11:12:07Z</time>
      </trkpt>
      <trkpt lat="44.20763" lon="2.15213">
        <ele>477</ele>
        <time>2016-10-23T11:12:12Z</time>
      </trkpt>
      <trkpt lat="44.20763" lon="2.15213">
        <ele>477</ele>
        <time>2016-10-23T11:12:17Z</time>
      </trkpt>
      <trkpt lat="44.20763" lon="2.15214">
        <ele>477</ele>
        <time>2016-10-23T11:12:22Z</time>
      </trkpt>
      <trkpt lat="44.20763" lon="2.15214">
        <ele>477</ele>
        <time>2016-10-23T11:12:27Z</time>
      </trkpt>
      <trkpt lat="44.20763" lon="2.15215">
        <ele>477</ele>
        <time>2016-10-23T11:12:32Z</time>
      </trkpt>
      <trkpt lat="44.20764" lon="2.15215">
        <ele>477</ele>
        <time>2016-10-23T11:12:37Z</time>
      </trkpt>
      <trkpt lat="44.20764" lon="2.15215">
        <ele>477</ele>
        <time>2016-10-23T11:12:42Z</time>
      </trkpt>
      <trkpt lat="44.20764" lon="2.15215">
        <ele>477</ele>
        <time>2016-10-23T11:12:47Z</time>
      </trkpt>
      <trkpt lat="44.20764" lon="2.15215">
        <ele>477</ele>
        <time>2016-10-23T11:12:52Z</time>
      </trkpt>
      <trkpt lat="44.20765" lon="2.15215">
        <ele>477</ele>
        <time>2016-10-23T11:12:57Z</time>
      </trkpt>
      <trkpt lat="44.20765" lon="2.15215">
        <ele>477</ele>
        <time>2016-10-23T11:13:02Z</time>
      </trkpt>
      <trkpt lat="44.20765" lon="2.15215">
        <ele>477</ele>
        <time>2016-10-23T11:13:07Z</time>
      </trkpt>
      <trkpt lat="44.20765" lon="2.15215">
        <ele>477</ele>
        <time>2016-10-23T11:13:12Z</time>
      </trkpt>
      <trkpt lat="44.20764" lon="2.15215">
        <ele>477</ele>
        <time>2016-10-23T11:13:17Z</time>
      </trkpt>
      <trkpt lat="44.20764" lon="2.15215">
        <ele>477</ele>
        <time>2016-10-23T11:13:22Z</time>
      </trkpt>
      <trkpt lat="44.20764" lon="2.15215">
        <ele>477</ele>
        <time>2016-10-23T11:13:27Z</time>
      </trkpt>
      <trkpt lat="44.20764" lon="2.15215">
        <ele>477</ele>
        <time>2016-10-23T11:13:32Z</time>
      </trkpt>
      <trkpt lat="44.20764" lon="2.15215">
        <ele>477</ele>
        <time>2016-10-23T11:13:37Z</time>
      </trkpt>
      <trkpt lat="44.20764" lon="2.15215">
        <ele>477</ele>
        <time>2016-10-23T11:13:42Z</time>
      </trkpt>
      <trkpt lat="44.20763" lon="2.15215">
        <ele>477</ele>
        <time>2016-10-23T11:13:47Z</time>
      </trkpt>
      <trkpt lat="44.20763" lon="2.15215">
        <ele>477</ele>
        <time>2016-10-23T11:13:52Z</time>
      </trkpt>
      <trkpt lat="44.20763" lon="2.15214">
        <ele>477</ele>
        <time>2016-10-23T11:13:57Z</time>
      </trkpt>
      <trkpt lat="44.20763" lon="2.15214">
        <ele>477</ele>
        <time>2016-10-23T11:14:02Z</time>
      </trkpt>
      <trkpt lat="44.20763" lon="2.15214">
        <ele>477</ele>
        <time>2016-10-23T11:14:07Z</time>
      </trkpt>
      <trkpt lat="44.20763" lon="2.15214">
        <ele>477</ele>
        <time>2016-10-23T11:14:12Z</time>
      </trkpt>
      <trkpt lat="44.20763" lon="2.15214">
        <ele>477</ele>
        <time>2016-10-23T11:14:17Z</time>
      </trkpt>
      <trkpt lat="44.20763" lon="2.15214">
        <ele>477</ele>
        <time>2016-10-23T11:14:22Z</time>
      </trkpt>
      <trkpt lat="44.20763" lon="2.15214">
        <ele>477</ele>
        <time>2016-10-23T11:14:27Z</time>
      </trkpt>
      <trkpt lat="44.20763" lon="2.15212">
        <ele>477</ele>
        <time>2016-10-23T11:14:32Z</time>
      </trkpt>
      <trkpt lat="44.20763" lon="2.15211">
        <ele>477</ele>
        <time>2016-10-23T11:14:37Z</time>
      </trkpt>
      <trkpt lat="44.20763" lon="2.1521">
        <ele>477</ele>
        <time>2016-10-23T11:14:42Z</time>
      </trkpt>
      <trkpt lat="44.20763" lon="2.1521">
        <ele>477</ele>
        <time>2016-10-23T11:14:47Z</time>
      </trkpt>
      <trkpt lat="44.20764" lon="2.15209">
        <ele>477</ele>
        <time>2016-10-23T11:14:52Z</time>
      </trkpt>
      <trkpt lat="44.20764" lon="2.15208">
        <ele>479</ele>
        <time>2016-10-23T11:14:57Z</time>
      </trkpt>
      <trkpt lat="44.20764" lon="2.15208">
        <ele>479</ele>
        <time>2016-10-23T11:15:02Z</time>
      </trkpt>
      <trkpt lat="44.20764" lon="2.15208">
        <ele>479</ele>
        <time>2016-10-23T11:15:07Z</time>
      </trkpt>
      <trkpt lat="44.20764" lon="2.15208">
        <ele>479</ele>
        <time>2016-10-23T11:15:12Z</time>
      </trkpt>
      <trkpt lat="44.20763" lon="2.15208">
        <ele>479</ele>
        <time>2016-10-23T11:15:17Z</time>
      </trkpt>
      <trkpt lat="44.20763" lon="2.15209">
        <ele>477</ele>
        <time>2016-10-23T11:15:22Z</time>
      </trkpt>
      <trkpt lat="44.20762" lon="2.1521">
        <ele>477</ele>
        <time>2016-10-23T11:15:27Z</time>
      </trkpt>
      <trkpt lat="44.20762" lon="2.15211">
        <ele>477</ele>
        <time>2016-10-23T11:15:32Z</time>
      </trkpt>
      <trkpt lat="44.20762" lon="2.15211">
        <ele>477</ele>
        <time>2016-10-23T11:15:37Z</time>
      </trkpt>
      <trkpt lat="44.20761" lon="2.15211">
        <ele>477</ele>
        <time>2016-10-23T11:15:42Z</time>
      </trkpt>
      <trkpt lat="44.20761" lon="2.15212">
        <ele>477</ele>
        <time>2016-10-23T11:15:47Z</time>
      </trkpt>
      <trkpt lat="44.20761" lon="2.15212">
        <ele>477</ele>
        <time>2016-10-23T11:15:52Z</time>
      </trkpt>
      <trkpt lat="44.20761" lon="2.15212">
        <ele>477</ele>
        <time>2016-10-23T11:15:57Z</time>
      </trkpt>
      <trkpt lat="44.2076" lon="2.15212">
        <ele>477</ele>
        <time>2016-10-23T11:16:02Z</time>
      </trkpt>
      <trkpt lat="44.2076" lon="2.15213">
        <ele>477</ele>
        <time>2016-10-23T11:16:07Z</time>
      </trkpt>
      <trkpt lat="44.2076" lon="2.15213">
        <ele>477</ele>
        <time>2016-10-23T11:16:12Z</time>
      </trkpt>
      <trkpt lat="44.2076" lon="2.15213">
        <ele>477</ele>
        <time>2016-10-23T11:16:17Z</time>
      </trkpt>
      <trkpt lat="44.20759" lon="2.15213">
        <ele>477</ele>
        <time>2016-10-23T11:16:22Z</time>
      </trkpt>
      <trkpt lat="44.20759" lon="2.15213">
        <ele>477</ele>
        <time>2016-10-23T11:16:27Z</time>
      </trkpt>
      <trkpt lat="44.20759" lon="2.15213">
        <ele>477</ele>
        <time>2016-10-23T11:16:32Z</time>
      </trkpt>
      <trkpt lat="44.20759" lon="2.15213">
        <ele>477</ele>
        <time>2016-10-23T11:16:37Z</time>
      </trkpt>
      <trkpt lat="44.20759" lon="2.15212">
        <ele>477</ele>
        <time>2016-10-23T11:16:42Z</time>
      </trkpt>
      <trkpt lat="44.20759" lon="2.15212">
        <ele>477</ele>
        <time>2016-10-23T11:16:47Z</time>
      </trkpt>
      <trkpt lat="44.2076" lon="2.15211">
        <ele>477</ele>
        <time>2016-10-23T11:16:52Z</time>
      </trkpt>
      <trkpt lat="44.2076" lon="2.15211">
        <ele>477</ele>
        <time>2016-10-23T11:16:57Z</time>
      </trkpt>
      <trkpt lat="44.2076" lon="2.15211">
        <ele>477</ele>
        <time>2016-10-23T11:17:02Z</time>
      </trkpt>
      <trkpt lat="44.2076" lon="2.15212">
        <ele>477</ele>
        <time>2016-10-23T11:17:07Z</time>
      </trkpt>
      <trkpt lat="44.2076" lon="2.15212">
        <ele>477</ele>
        <time>2016-10-23T11:17:12Z</time>
      </trkpt>
      <trkpt lat="44.2076" lon="2.15212">
        <ele>477</ele>
        <time>2016-10-23T11:17:17Z</time>
      </trkpt>
      <trkpt lat="44.2076" lon="2.15212">
        <ele>477</ele>
        <time>2016-10-23T11:17:22Z</time>
      </trkpt>
      <trkpt lat="44.2076" lon="2.15211">
        <ele>477</ele>
        <time>2016-10-23T11:17:27Z</time>
      </trkpt>
      <trkpt lat="44.2076" lon="2.15212">
        <ele>477</ele>
        <time>2016-10-23T11:17:32Z</time>
      </trkpt>
      <trkpt lat="44.20761" lon="2.15212">
        <ele>477</ele>
        <time>2016-10-23T11:17:37Z</time>
      </trkpt>
      <trkpt lat="44.20761" lon="2.1521">
        <ele>477</ele>
        <time>2016-10-23T11:17:42Z</time>
      </trkpt>
      <trkpt lat="44.20762" lon="2.1521">
        <ele>477</ele>
        <time>2016-10-23T11:17:47Z</time>
      </trkpt>
      <trkpt lat="44.20762" lon="2.15211">
        <ele>477</ele>
        <time>2016-10-23T11:17:52Z</time>
      </trkpt>
      <trkpt lat="44.20762" lon="2.15211">
        <ele>477</ele>
        <time>2016-10-23T11:17:57Z</time>
      </trkpt>
      <trkpt lat="44.20762" lon="2.15211">
        <ele>477</ele>
        <time>2016-10-23T11:18:02Z</time>
      </trkpt>
      <trkpt lat="44.20762" lon="2.1521">
        <ele>477</ele>
        <time>2016-10-23T11:18:07Z</time>
      </trkpt>
      <trkpt lat="44.20762" lon="2.1521">
        <ele>477</ele>
        <time>2016-10-23T11:18:12Z</time>
      </trkpt>
      <trkpt lat="44.20762" lon="2.15209">
        <ele>477</ele>
        <time>2016-10-23T11:18:17Z</time>
      </trkpt>
      <trkpt lat="44.20766" lon="2.15208">
        <ele>479</ele>
        <time>2016-10-23T11:18:22Z</time>
      </trkpt>
      <trkpt lat="44.20766" lon="2.15207">
        <ele>479</ele>
        <time>2016-10-23T11:18:27Z</time>
      </trkpt>
      <trkpt lat="44.20766" lon="2.15207">
        <ele>479</ele>
        <time>2016-10-23T11:18:32Z</time>
      </trkpt>
      <trkpt lat="44.20766" lon="2.15207">
        <ele>479</ele>
        <time>2016-10-23T11:18:37Z</time>
      </trkpt>
      <trkpt lat="44.20765" lon="2.15207">
        <ele>479</ele>
        <time>2016-10-23T11:18:42Z</time>
      </trkpt>
      <trkpt lat="44.20765" lon="2.15208">
        <ele>479</ele>
        <time>2016-10-23T11:18:47Z</time>
      </trkpt>
      <trkpt lat="44.20764" lon="2.15208">
        <ele>479</ele>
        <time>2016-10-23T11:18:52Z</time>
      </trkpt>
      <trkpt lat="44.20764" lon="2.15209">
        <ele>477</ele>
        <time>2016-10-23T11:18:57Z</time>
      </trkpt>
      <trkpt lat="44.20763" lon="2.15211">
        <ele>477</ele>
        <time>2016-10-23T11:19:02Z</time>
      </trkpt>
      <trkpt lat="44.20762" lon="2.15212">
        <ele>477</ele>
        <time>2016-10-23T11:19:07Z</time>
      </trkpt>
      <trkpt lat="44.20762" lon="2.15212">
        <ele>477</ele>
        <time>2016-10-23T11:19:12Z</time>
      </trkpt>
      <trkpt lat="44.20763" lon="2.15212">
        <ele>477</ele>
        <time>2016-10-23T11:19:17Z</time>
      </trkpt>
      <trkpt lat="44.20763" lon="2.15212">
        <ele>477</ele>
        <time>2016-10-23T11:19:22Z</time>
      </trkpt>
      <trkpt lat="44.20763" lon="2.15212">
        <ele>477</ele>
        <time>2016-10-23T11:19:27Z</time>
      </trkpt>
      <trkpt lat="44.20763" lon="2.15212">
        <ele>477</ele>
        <time>2016-10-23T11:19:32Z</time>
      </trkpt>
      <trkpt lat="44.20763" lon="2.15212">
        <ele>477</ele>
        <time>2016-10-23T11:19:37Z</time>
      </trkpt>
      <trkpt lat="44.20763" lon="2.15212">
        <ele>477</ele>
        <time>2016-10-23T11:19:42Z</time>
      </trkpt>
      <trkpt lat="44.20763" lon="2.15212">
        <ele>477</ele>
        <time>2016-10-23T11:19:47Z</time>
      </trkpt>
      <trkpt lat="44.20764" lon="2.15211">
        <ele>477</ele>
        <time>2016-10-23T11:19:52Z</time>
      </trkpt>
      <trkpt lat="44.20763" lon="2.1521">
        <ele>477</ele>
        <time>2016-10-23T11:19:57Z</time>
      </trkpt>
      <trkpt lat="44.20763" lon="2.1521">
        <ele>477</ele>
        <time>2016-10-23T11:20:02Z</time>
      </trkpt>
      <trkpt lat="44.20763" lon="2.1521">
        <ele>477</ele>
        <time>2016-10-23T11:20:07Z</time>
      </trkpt>
      <trkpt lat="44.20762" lon="2.15208">
        <ele>479</ele>
        <time>2016-10-23T11:20:12Z</time>
      </trkpt>
      <trkpt lat="44.20762" lon="2.15207">
        <ele>479</ele>
        <time>2016-10-23T11:20:17Z</time>
      </trkpt>
      <trkpt lat="44.20762" lon="2.15207">
        <ele>479</ele>
        <time>2016-10-23T11:20:22Z</time>
      </trkpt>
      <trkpt lat="44.20763" lon="2.15203">
        <ele>479</ele>
        <time>2016-10-23T11:20:27Z</time>
      </trkpt>
      <trkpt lat="44.20764" lon="2.152">
        <ele>479</ele>
        <time>2016-10-23T11:20:32Z</time>
      </trkpt>
      <trkpt lat="44.20765" lon="2.15197">
        <ele>479</ele>
        <time>2016-10-23T11:20:37Z</time>
      </trkpt>
      <trkpt lat="44.20768" lon="2.15194">
        <ele>479</ele>
        <time>2016-10-23T11:20:42Z</time>
      </trkpt>
      <trkpt lat="44.20769" lon="2.15192">
        <ele>479</ele>
        <time>2016-10-23T11:20:47Z</time>
      </trkpt>
      <trkpt lat="44.20769" lon="2.15192">
        <ele>479</ele>
        <time>2016-10-23T11:20:52Z</time>
      </trkpt>
      <trkpt lat="44.2077" lon="2.15189">
        <ele>479</ele>
        <time>2016-10-23T11:20:57Z</time>
      </trkpt>
      <trkpt lat="44.2077" lon="2.15188">
        <ele>479</ele>
        <time>2016-10-23T11:21:02Z</time>
      </trkpt>
      <trkpt lat="44.20771" lon="2.15188">
        <ele>479</ele>
        <time>2016-10-23T11:21:07Z</time>
      </trkpt>
      <trkpt lat="44.20774" lon="2.15185">
        <ele>479</ele>
        <time>2016-10-23T11:21:12Z</time>
      </trkpt>
      <trkpt lat="44.20777" lon="2.15178">
        <ele>479</ele>
        <time>2016-10-23T11:21:17Z</time>
      </trkpt>
      <trkpt lat="44.20779" lon="2.15173">
        <ele>479</ele>
        <time>2016-10-23T11:21:22Z</time>
      </trkpt>
      <trkpt lat="44.2078" lon="2.15169">
        <ele>479</ele>
        <time>2016-10-23T11:21:27Z</time>
      </trkpt>
      <trkpt lat="44.2078" lon="2.15168">
        <ele>479</ele>
        <time>2016-10-23T11:21:32Z</time>
      </trkpt>
      <trkpt lat="44.2078" lon="2.15168">
        <ele>479</ele>
        <time>2016-10-23T11:21:37Z</time>
      </trkpt>
      <trkpt lat="44.2078" lon="2.15168">
        <ele>479</ele>
        <time>2016-10-23T11:21:42Z</time>
      </trkpt>
      <trkpt lat="44.2078" lon="2.15168">
        <ele>479</ele>
        <time>2016-10-23T11:21:47Z</time>
      </trkpt>
      <trkpt lat="44.20779" lon="2.15167">
        <ele>479</ele>
        <time>2016-10-23T11:21:52Z</time>
      </trkpt>
      <trkpt lat="44.20779" lon="2.15167">
        <ele>479</ele>
        <time>2016-10-23T11:21:57Z</time>
      </trkpt>
      <trkpt lat="44.2078" lon="2.15165">
        <ele>479</ele>
        <time>2016-10-23T11:22:02Z</time>
      </trkpt>
      <trkpt lat="44.20781" lon="2.15164">
        <ele>479</ele>
        <time>2016-10-23T11:22:07Z</time>
      </trkpt>
      <trkpt lat="44.20784" lon="2.15157">
        <ele>479</ele>
        <time>2016-10-23T11:22:12Z</time>
      </trkpt>
      <trkpt lat="44.20788" lon="2.15149">
        <ele>479</ele>
        <time>2016-10-23T11:22:17Z</time>
      </trkpt>
      <trkpt lat="44.20792" lon="2.15139">
        <ele>492</ele>
        <time>2016-10-23T11:22:22Z</time>
      </trkpt>
      <trkpt lat="44.20795" lon="2.15131">
        <ele>492</ele>
        <time>2016-10-23T11:22:27Z</time>
      </trkpt>
      <trkpt lat="44.20798" lon="2.15124">
        <ele>495</ele>
        <time>2016-10-23T11:22:32Z</time>
      </trkpt>
      <trkpt lat="44.20803" lon="2.15116">
        <ele>495</ele>
        <time>2016-10-23T11:22:37Z</time>
      </trkpt>
      <trkpt lat="44.20804" lon="2.15112">
        <ele>495</ele>
        <time>2016-10-23T11:22:42Z</time>
      </trkpt>
      <trkpt lat="44.20804" lon="2.15108">
        <ele>495</ele>
        <time>2016-10-23T11:22:47Z</time>
      </trkpt>
      <trkpt lat="44.20805" lon="2.15105">
        <ele>495</ele>
        <time>2016-10-23T11:22:52Z</time>
      </trkpt>
      <trkpt lat="44.20806" lon="2.15107">
        <ele>495</ele>
        <time>2016-10-23T11:22:57Z</time>
      </trkpt>
      <trkpt lat="44.20808" lon="2.15109">
        <ele>495</ele>
        <time>2016-10-23T11:23:02Z</time>
      </trkpt>
      <trkpt lat="44.20806" lon="2.15109">
        <ele>495</ele>
        <time>2016-10-23T11:23:07Z</time>
      </trkpt>
      <trkpt lat="44.20808" lon="2.15111">
        <ele>495</ele>
        <time>2016-10-23T11:23:12Z</time>
      </trkpt>
      <trkpt lat="44.2081" lon="2.15114">
        <ele>495</ele>
        <time>2016-10-23T11:23:17Z</time>
      </trkpt>
      <trkpt lat="44.20815" lon="2.15119">
        <ele>495</ele>
        <time>2016-10-23T11:23:22Z</time>
      </trkpt>
      <trkpt lat="44.2082" lon="2.15123">
        <ele>495</ele>
        <time>2016-10-23T11:23:27Z</time>
      </trkpt>
      <trkpt lat="44.20825" lon="2.15128">
        <ele>492</ele>
        <time>2016-10-23T11:23:32Z</time>
      </trkpt>
      <trkpt lat="44.20829" lon="2.15133">
        <ele>492</ele>
        <time>2016-10-23T11:23:37Z</time>
      </trkpt>
      <trkpt lat="44.20833" lon="2.15138">
        <ele>492</ele>
        <time>2016-10-23T11:23:42Z</time>
      </trkpt>
      <trkpt lat="44.20836" lon="2.15142">
        <ele>492</ele>
        <time>2016-10-23T11:23:47Z</time>
      </trkpt>
      <trkpt lat="44.20839" lon="2.15148">
        <ele>492</ele>
        <time>2016-10-23T11:23:52Z</time>
      </trkpt>
      <trkpt lat="44.20844" lon="2.15152">
        <ele>492</ele>
        <time>2016-10-23T11:23:57Z</time>
      </trkpt>
      <trkpt lat="44.20849" lon="2.15156">
        <ele>492</ele>
        <time>2016-10-23T11:24:02Z</time>
      </trkpt>
      <trkpt lat="44.20852" lon="2.15159">
        <ele>492</ele>
        <time>2016-10-23T11:24:07Z</time>
      </trkpt>
      <trkpt lat="44.20856" lon="2.15163">
        <ele>492</ele>
        <time>2016-10-23T11:24:12Z</time>
      </trkpt>
      <trkpt lat="44.20858" lon="2.15164">
        <ele>492</ele>
        <time>2016-10-23T11:24:17Z</time>
      </trkpt>
      <trkpt lat="44.20861" lon="2.15163">
        <ele>492</ele>
        <time>2016-10-23T11:24:22Z</time>
      </trkpt>
      <trkpt lat="44.20863" lon="2.15161">
        <ele>492</ele>
        <time>2016-10-23T11:24:27Z</time>
      </trkpt>
      <trkpt lat="44.20864" lon="2.15158">
        <ele>492</ele>
        <time>2016-10-23T11:24:32Z</time>
      </trkpt>
      <trkpt lat="44.20865" lon="2.15153">
        <ele>492</ele>
        <time>2016-10-23T11:24:37Z</time>
      </trkpt>
      <trkpt lat="44.20872" lon="2.15148">
        <ele>492</ele>
        <time>2016-10-23T11:24:42Z</time>
      </trkpt>
      <trkpt lat="44.20877" lon="2.15142">
        <ele>498</ele>
        <time>2016-10-23T11:24:47Z</time>
      </trkpt>
      <trkpt lat="44.20883" lon="2.15137">
        <ele>498</ele>
        <time>2016-10-23T11:24:52Z</time>
      </trkpt>
      <trkpt lat="44.20887" lon="2.15128">
        <ele>498</ele>
        <time>2016-10-23T11:24:57Z</time>
      </trkpt>
      <trkpt lat="44.20889" lon="2.15121">
        <ele>509</ele>
        <time>2016-10-23T11:25:02Z</time>
      </trkpt>
      <trkpt lat="44.20891" lon="2.15113">
        <ele>509</ele>
        <time>2016-10-23T11:25:07Z</time>
      </trkpt>
      <trkpt lat="44.20893" lon="2.15108">
        <ele>509</ele>
        <time>2016-10-23T11:25:12Z</time>
      </trkpt>
      <trkpt lat="44.20895" lon="2.15102">
        <ele>509</ele>
        <time>2016-10-23T11:25:17Z</time>
      </trkpt>
      <trkpt lat="44.20897" lon="2.15097">
        <ele>509</ele>
        <time>2016-10-23T11:25:22Z</time>
      </trkpt>
      <trkpt lat="44.20899" lon="2.15092">
        <ele>509</ele>
        <time>2016-10-23T11:25:27Z</time>
      </trkpt>
      <trkpt lat="44.20899" lon="2.15089">
        <ele>509</ele>
        <time>2016-10-23T11:25:32Z</time>
      </trkpt>
      <trkpt lat="44.20902" lon="2.15082">
        <ele>509</ele>
        <time>2016-10-23T11:25:37Z</time>
      </trkpt>
      <trkpt lat="44.20904" lon="2.15077">
        <ele>509</ele>
        <time>2016-10-23T11:25:42Z</time>
      </trkpt>
      <trkpt lat="44.20907" lon="2.15069">
        <ele>509</ele>
        <time>2016-10-23T11:25:47Z</time>
      </trkpt>
      <trkpt lat="44.20909" lon="2.15063">
        <ele>509</ele>
        <time>2016-10-23T11:25:52Z</time>
      </trkpt>
      <trkpt lat="44.20911" lon="2.15055">
        <ele>509</ele>
        <time>2016-10-23T11:25:57Z</time>
      </trkpt>
      <trkpt lat="44.20914" lon="2.1505">
        <ele>509</ele>
        <time>2016-10-23T11:26:02Z</time>
      </trkpt>
      <trkpt lat="44.20916" lon="2.15043">
        <ele>509</ele>
        <time>2016-10-23T11:26:07Z</time>
      </trkpt>
      <trkpt lat="44.20919" lon="2.15036">
        <ele>512</ele>
        <time>2016-10-23T11:26:12Z</time>
      </trkpt>
      <trkpt lat="44.20923" lon="2.15028">
        <ele>512</ele>
        <time>2016-10-23T11:26:17Z</time>
      </trkpt>
      <trkpt lat="44.20927" lon="2.15021">
        <ele>512</ele>
        <time>2016-10-23T11:26:22Z</time>
      </trkpt>
      <trkpt lat="44.20929" lon="2.15017">
        <ele>512</ele>
        <time>2016-10-23T11:26:27Z</time>
      </trkpt>
      <trkpt lat="44.20932" lon="2.15008">
        <ele>512</ele>
        <time>2016-10-23T11:26:32Z</time>
      </trkpt>
      <trkpt lat="44.20937" lon="2.15002">
        <ele>512</ele>
        <time>2016-10-23T11:26:37Z</time>
      </trkpt>
      <trkpt lat="44.20939" lon="2.14995">
        <ele>512</ele>
        <time>2016-10-23T11:26:42Z</time>
      </trkpt>
      <trkpt lat="44.20942" lon="2.14986">
        <ele>512</ele>
        <time>2016-10-23T11:26:47Z</time>
      </trkpt>
      <trkpt lat="44.20945" lon="2.14977">
        <ele>512</ele>
        <time>2016-10-23T11:26:52Z</time>
      </trkpt>
      <trkpt lat="44.20946" lon="2.14971">
        <ele>512</ele>
        <time>2016-10-23T11:26:57Z</time>
      </trkpt>
      <trkpt lat="44.20948" lon="2.14963">
        <ele>512</ele>
        <time>2016-10-23T11:27:02Z</time>
      </trkpt>
      <trkpt lat="44.20951" lon="2.1496">
        <ele>512</ele>
        <time>2016-10-23T11:27:07Z</time>
      </trkpt>
      <trkpt lat="44.20954" lon="2.14956">
        <ele>515</ele>
        <time>2016-10-23T11:27:12Z</time>
      </trkpt>
      <trkpt lat="44.20956" lon="2.14948">
        <ele>515</ele>
        <time>2016-10-23T11:27:17Z</time>
      </trkpt>
      <trkpt lat="44.20959" lon="2.14941">
        <ele>524</ele>
        <time>2016-10-23T11:27:22Z</time>
      </trkpt>
      <trkpt lat="44.20962" lon="2.14934">
        <ele>524</ele>
        <time>2016-10-23T11:27:27Z</time>
      </trkpt>
      <trkpt lat="44.20966" lon="2.14929">
        <ele>524</ele>
        <time>2016-10-23T11:27:32Z</time>
      </trkpt>
      <trkpt lat="44.20966" lon="2.14924">
        <ele>524</ele>
        <time>2016-10-23T11:27:37Z</time>
      </trkpt>
      <trkpt lat="44.20972" lon="2.14913">
        <ele>524</ele>
        <time>2016-10-23T11:27:42Z</time>
      </trkpt>
      <trkpt lat="44.20975" lon="2.14902">
        <ele>524</ele>
        <time>2016-10-23T11:27:47Z</time>
      </trkpt>
      <trkpt lat="44.20972" lon="2.14898">
        <ele>524</ele>
        <time>2016-10-23T11:27:52Z</time>
      </trkpt>
      <trkpt lat="44.20971" lon="2.14897">
        <ele>524</ele>
        <time>2016-10-23T11:27:57Z</time>
      </trkpt>
      <trkpt lat="44.20971" lon="2.14897">
        <ele>524</ele>
        <time>2016-10-23T11:28:02Z</time>
      </trkpt>
      <trkpt lat="44.20971" lon="2.14897">
        <ele>524</ele>
        <time>2016-10-23T11:28:07Z</time>
      </trkpt>
      <trkpt lat="44.2097" lon="2.14897">
        <ele>524</ele>
        <time>2016-10-23T11:28:12Z</time>
      </trkpt>
      <trkpt lat="44.20971" lon="2.14896">
        <ele>524</ele>
        <time>2016-10-23T11:28:17Z</time>
      </trkpt>
      <trkpt lat="44.20974" lon="2.1489">
        <ele>524</ele>
        <time>2016-10-23T11:28:22Z</time>
      </trkpt>
      <trkpt lat="44.20977" lon="2.14885">
        <ele>524</ele>
        <time>2016-10-23T11:28:27Z</time>
      </trkpt>
      <trkpt lat="44.2098" lon="2.14879">
        <ele>524</ele>
        <time>2016-10-23T11:28:32Z</time>
      </trkpt>
      <trkpt lat="44.20984" lon="2.14874">
        <ele>530</ele>
        <time>2016-10-23T11:28:37Z</time>
      </trkpt>
      <trkpt lat="44.20987" lon="2.1487">
        <ele>530</ele>
        <time>2016-10-23T11:28:42Z</time>
      </trkpt>
      <trkpt lat="44.20992" lon="2.14865">
        <ele>530</ele>
        <time>2016-10-23T11:28:47Z</time>
      </trkpt>
      <trkpt lat="44.20995" lon="2.14863">
        <ele>530</ele>
        <time>2016-10-23T11:28:52Z</time>
      </trkpt>
      <trkpt lat="44.20998" lon="2.14856">
        <ele>530</ele>
        <time>2016-10-23T11:28:57Z</time>
      </trkpt>
      <trkpt lat="44.21003" lon="2.14849">
        <ele>530</ele>
        <time>2016-10-23T11:29:02Z</time>
      </trkpt>
      <trkpt lat="44.21008" lon="2.14841">
        <ele>530</ele>
        <time>2016-10-23T11:29:07Z</time>
      </trkpt>
      <trkpt lat="44.21013" lon="2.14835">
        <ele>530</ele>
        <time>2016-10-23T11:29:12Z</time>
      </trkpt>
      <trkpt lat="44.21016" lon="2.14832">
        <ele>530</ele>
        <time>2016-10-23T11:29:17Z</time>
      </trkpt>
      <trkpt lat="44.21015" lon="2.14833">
        <ele>530</ele>
        <time>2016-10-23T11:29:22Z</time>
      </trkpt>
      <trkpt lat="44.21015" lon="2.14833">
        <ele>530</ele>
        <time>2016-10-23T11:29:27Z</time>
      </trkpt>
      <trkpt lat="44.21016" lon="2.14831">
        <ele>530</ele>
        <time>2016-10-23T11:29:32Z</time>
      </trkpt>
      <trkpt lat="44.21018" lon="2.14826">
        <ele>530</ele>
        <time>2016-10-23T11:29:37Z</time>
      </trkpt>
      <trkpt lat="44.21021" lon="2.1482">
        <ele>530</ele>
        <time>2016-10-23T11:29:42Z</time>
      </trkpt>
      <trkpt lat="44.21026" lon="2.14816">
        <ele>530</ele>
        <time>2016-10-23T11:29:47Z</time>
      </trkpt>
      <trkpt lat="44.21029" lon="2.14811">
        <ele>530</ele>
        <time>2016-10-23T11:29:52Z</time>
      </trkpt>
      <trkpt lat="44.21031" lon="2.1481">
        <ele>530</ele>
        <time>2016-10-23T11:29:57Z</time>
      </trkpt>
      <trkpt lat="44.21033" lon="2.14805">
        <ele>530</ele>
        <time>2016-10-23T11:30:02Z</time>
      </trkpt>
      <trkpt lat="44.21033" lon="2.14795">
        <ele>530</ele>
        <time>2016-10-23T11:30:07Z</time>
      </trkpt>
      <trkpt lat="44.21034" lon="2.14789">
        <ele>534</ele>
        <time>2016-10-23T11:30:12Z</time>
      </trkpt>
      <trkpt lat="44.21035" lon="2.14784">
        <ele>534</ele>
        <time>2016-10-23T11:30:17Z</time>
      </trkpt>
      <trkpt lat="44.21037" lon="2.14776">
        <ele>534</ele>
        <time>2016-10-23T11:30:22Z</time>
      </trkpt>
      <trkpt lat="44.21041" lon="2.14772">
        <ele>534</ele>
        <time>2016-10-23T11:30:27Z</time>
      </trkpt>
      <trkpt lat="44.21044" lon="2.14767">
        <ele>541</ele>
        <time>2016-10-23T11:30:32Z</time>
      </trkpt>
      <trkpt lat="44.21047" lon="2.14761">
        <ele>541</ele>
        <time>2016-10-23T11:30:37Z</time>
      </trkpt>
      <trkpt lat="44.2105" lon="2.14762">
        <ele>541</ele>
        <time>2016-10-23T11:30:42Z</time>
      </trkpt>
      <trkpt lat="44.21058" lon="2.14755">
        <ele>541</ele>
        <time>2016-10-23T11:30:47Z</time>
      </trkpt>
      <trkpt lat="44.21063" lon="2.14748">
        <ele>541</ele>
        <time>2016-10-23T11:30:52Z</time>
      </trkpt>
      <trkpt lat="44.21068" lon="2.14741">
        <ele>541</ele>
        <time>2016-10-23T11:30:57Z</time>
      </trkpt>
      <trkpt lat="44.2107" lon="2.14735">
        <ele>541</ele>
        <time>2016-10-23T11:31:02Z</time>
      </trkpt>
      <trkpt lat="44.21075" lon="2.14732">
        <ele>541</ele>
        <time>2016-10-23T11:31:07Z</time>
      </trkpt>
      <trkpt lat="44.2108" lon="2.14729">
        <ele>541</ele>
        <time>2016-10-23T11:31:12Z</time>
      </trkpt>
      <trkpt lat="44.21085" lon="2.14727">
        <ele>541</ele>
        <time>2016-10-23T11:31:17Z</time>
      </trkpt>
      <trkpt lat="44.2109" lon="2.14724">
        <ele>541</ele>
        <time>2016-10-23T11:31:22Z</time>
      </trkpt>
      <trkpt lat="44.21095" lon="2.14718">
        <ele>541</ele>
        <time>2016-10-23T11:31:27Z</time>
      </trkpt>
      <trkpt lat="44.21098" lon="2.14713">
        <ele>541</ele>
        <time>2016-10-23T11:31:32Z</time>
      </trkpt>
      <trkpt lat="44.21097" lon="2.14711">
        <ele>541</ele>
        <time>2016-10-23T11:31:37Z</time>
      </trkpt>
      <trkpt lat="44.21095" lon="2.14705">
        <ele>549</ele>
        <time>2016-10-23T11:31:42Z</time>
      </trkpt>
      <trkpt lat="44.21088" lon="2.147">
        <ele>549</ele>
        <time>2016-10-23T11:31:47Z</time>
      </trkpt>
      <trkpt lat="44.21091" lon="2.14695">
        <ele>549</ele>
        <time>2016-10-23T11:31:52Z</time>
      </trkpt>
      <trkpt lat="44.21097" lon="2.14686">
        <ele>549</ele>
        <time>2016-10-23T11:31:57Z</time>
      </trkpt>
      <trkpt lat="44.21104" lon="2.14679">
        <ele>549</ele>
        <time>2016-10-23T11:32:02Z</time>
      </trkpt>
      <trkpt lat="44.21109" lon="2.14675">
        <ele>549</ele>
        <time>2016-10-23T11:32:07Z</time>
      </trkpt>
      <trkpt lat="44.21114" lon="2.14672">
        <ele>549</ele>
        <time>2016-10-23T11:32:12Z</time>
      </trkpt>
      <trkpt lat="44.21118" lon="2.14665">
        <ele>549</ele>
        <time>2016-10-23T11:32:17Z</time>
      </trkpt>
      <trkpt lat="44.21121" lon="2.14661">
        <ele>549</ele>
        <time>2016-10-23T11:32:22Z</time>
      </trkpt>
      <trkpt lat="44.21124" lon="2.14655">
        <ele>549</ele>
        <time>2016-10-23T11:32:27Z</time>
      </trkpt>
      <trkpt lat="44.21127" lon="2.14652">
        <ele>554</ele>
        <time>2016-10-23T11:32:32Z</time>
      </trkpt>
      <trkpt lat="44.21131" lon="2.14646">
        <ele>554</ele>
        <time>2016-10-23T11:32:37Z</time>
      </trkpt>
      <trkpt lat="44.21135" lon="2.14639">
        <ele>554</ele>
        <time>2016-10-23T11:32:42Z</time>
      </trkpt>
      <trkpt lat="44.2114" lon="2.14629">
        <ele>554</ele>
        <time>2016-10-23T11:32:47Z</time>
      </trkpt>
      <trkpt lat="44.21135" lon="2.14623">
        <ele>562</ele>
        <time>2016-10-23T11:32:52Z</time>
      </trkpt>
      <trkpt lat="44.21135" lon="2.14623">
        <ele>562</ele>
        <time>2016-10-23T11:32:57Z</time>
      </trkpt>
      <trkpt lat="44.21133" lon="2.1462">
        <ele>562</ele>
        <time>2016-10-23T11:33:02Z</time>
      </trkpt>
      <trkpt lat="44.21132" lon="2.14619">
        <ele>562</ele>
        <time>2016-10-23T11:33:07Z</time>
      </trkpt>
      <trkpt lat="44.21132" lon="2.14618">
        <ele>562</ele>
        <time>2016-10-23T11:33:12Z</time>
      </trkpt>
      <trkpt lat="44.21132" lon="2.14618">
        <ele>562</ele>
        <time>2016-10-23T11:33:17Z</time>
      </trkpt>
      <trkpt lat="44.21132" lon="2.14618">
        <ele>562</ele>
        <time>2016-10-23T11:33:22Z</time>
      </trkpt>
      <trkpt lat="44.21132" lon="2.14618">
        <ele>562</ele>
        <time>2016-10-23T11:33:27Z</time>
      </trkpt>
      <trkpt lat="44.21132" lon="2.14617">
        <ele>562</ele>
        <time>2016-10-23T11:33:32Z</time>
      </trkpt>
      <trkpt lat="44.21131" lon="2.14616">
        <ele>562</ele>
        <time>2016-10-23T11:33:37Z</time>
      </trkpt>
      <trkpt lat="44.21131" lon="2.14616">
        <ele>562</ele>
        <time>2016-10-23T11:33:42Z</time>
      </trkpt>
      <trkpt lat="44.21131" lon="2.14616">
        <ele>562</ele>
        <time>2016-10-23T11:33:47Z</time>
      </trkpt>
      <trkpt lat="44.21131" lon="2.14616">
        <ele>562</ele>
        <time>2016-10-23T11:33:52Z</time>
      </trkpt>
      <trkpt lat="44.21131" lon="2.14616">
        <ele>562</ele>
        <time>2016-10-23T11:33:57Z</time>
      </trkpt>
      <trkpt lat="44.21131" lon="2.14616">
        <ele>562</ele>
        <time>2016-10-23T11:34:02Z</time>
      </trkpt>
      <trkpt lat="44.21131" lon="2.14615">
        <ele>562</ele>
        <time>2016-10-23T11:34:07Z</time>
      </trkpt>
      <trkpt lat="44.2113" lon="2.14613">
        <ele>562</ele>
        <time>2016-10-23T11:34:12Z</time>
      </trkpt>
      <trkpt lat="44.21126" lon="2.1461">
        <ele>562</ele>
        <time>2016-10-23T11:34:17Z</time>
      </trkpt>
      <trkpt lat="44.2112" lon="2.14606">
        <ele>559</ele>
        <time>2016-10-23T11:34:22Z</time>
      </trkpt>
      <trkpt lat="44.21117" lon="2.14601">
        <ele>559</ele>
        <time>2016-10-23T11:34:27Z</time>
      </trkpt>
      <trkpt lat="44.21113" lon="2.14596">
        <ele>559</ele>
        <time>2016-10-23T11:34:32Z</time>
      </trkpt>
      <trkpt lat="44.21112" lon="2.14592">
        <ele>559</ele>
        <time>2016-10-23T11:34:37Z</time>
      </trkpt>
      <trkpt lat="44.21111" lon="2.14592">
        <ele>559</ele>
        <time>2016-10-23T11:34:42Z</time>
      </trkpt>
      <trkpt lat="44.21111" lon="2.14592">
        <ele>559</ele>
        <time>2016-10-23T11:34:47Z</time>
      </trkpt>
      <trkpt lat="44.21112" lon="2.14592">
        <ele>559</ele>
        <time>2016-10-23T11:34:52Z</time>
      </trkpt>
      <trkpt lat="44.21112" lon="2.14592">
        <ele>559</ele>
        <time>2016-10-23T11:34:57Z</time>
      </trkpt>
      <trkpt lat="44.21112" lon="2.14592">
        <ele>559</ele>
        <time>2016-10-23T11:35:02Z</time>
      </trkpt>
      <trkpt lat="44.21112" lon="2.14592">
        <ele>559</ele>
        <time>2016-10-23T11:35:07Z</time>
      </trkpt>
      <trkpt lat="44.21112" lon="2.1459">
        <ele>559</ele>
        <time>2016-10-23T11:35:12Z</time>
      </trkpt>
      <trkpt lat="44.21113" lon="2.14587">
        <ele>559</ele>
        <time>2016-10-23T11:35:17Z</time>
      </trkpt>
      <trkpt lat="44.21113" lon="2.14588">
        <ele>559</ele>
        <time>2016-10-23T11:35:22Z</time>
      </trkpt>
      <trkpt lat="44.21109" lon="2.14589">
        <ele>559</ele>
        <time>2016-10-23T11:35:27Z</time>
      </trkpt>
      <trkpt lat="44.21101" lon="2.14583">
        <ele>559</ele>
        <time>2016-10-23T11:35:32Z</time>
      </trkpt>
      <trkpt lat="44.21096" lon="2.14579">
        <ele>559</ele>
        <time>2016-10-23T11:35:37Z</time>
      </trkpt>
      <trkpt lat="44.21093" lon="2.14572">
        <ele>559</ele>
        <time>2016-10-23T11:35:42Z</time>
      </trkpt>
      <trkpt lat="44.2109" lon="2.14566">
        <ele>559</ele>
        <time>2016-10-23T11:35:47Z</time>
      </trkpt>
      <trkpt lat="44.21089" lon="2.14564">
        <ele>559</ele>
        <time>2016-10-23T11:35:52Z</time>
      </trkpt>
      <trkpt lat="44.21089" lon="2.14564">
        <ele>559</ele>
        <time>2016-10-23T11:35:57Z</time>
      </trkpt>
      <trkpt lat="44.21089" lon="2.14564">
        <ele>559</ele>
        <time>2016-10-23T11:36:02Z</time>
      </trkpt>
      <trkpt lat="44.21088" lon="2.14564">
        <ele>559</ele>
        <time>2016-10-23T11:36:07Z</time>
      </trkpt>
      <trkpt lat="44.21088" lon="2.14564">
        <ele>559</ele>
        <time>2016-10-23T11:36:12Z</time>
      </trkpt>
      <trkpt lat="44.21088" lon="2.14563">
        <ele>559</ele>
        <time>2016-10-23T11:36:17Z</time>
      </trkpt>
      <trkpt lat="44.21087" lon="2.14563">
        <ele>559</ele>
        <time>2016-10-23T11:36:22Z</time>
      </trkpt>
      <trkpt lat="44.21086" lon="2.14564">
        <ele>559</ele>
        <time>2016-10-23T11:36:27Z</time>
      </trkpt>
      <trkpt lat="44.21086" lon="2.14564">
        <ele>559</ele>
        <time>2016-10-23T11:36:32Z</time>
      </trkpt>
      <trkpt lat="44.21086" lon="2.14565">
        <ele>559</ele>
        <time>2016-10-23T11:36:37Z</time>
      </trkpt>
      <trkpt lat="44.21087" lon="2.14565">
        <ele>559</ele>
        <time>2016-10-23T11:36:42Z</time>
      </trkpt>
      <trkpt lat="44.21087" lon="2.14564">
        <ele>559</ele>
        <time>2016-10-23T11:36:47Z</time>
      </trkpt>
      <trkpt lat="44.21087" lon="2.14563">
        <ele>559</ele>
        <time>2016-10-23T11:36:52Z</time>
      </trkpt>
      <trkpt lat="44.21087" lon="2.14562">
        <ele>559</ele>
        <time>2016-10-23T11:36:57Z</time>
      </trkpt>
      <trkpt lat="44.21083" lon="2.14559">
        <ele>559</ele>
        <time>2016-10-23T11:37:02Z</time>
      </trkpt>
      <trkpt lat="44.21079" lon="2.14555">
        <ele>559</ele>
        <time>2016-10-23T11:37:07Z</time>
      </trkpt>
      <trkpt lat="44.21074" lon="2.1455">
        <ele>559</ele>
        <time>2016-10-23T11:37:12Z</time>
      </trkpt>
      <trkpt lat="44.21069" lon="2.14544">
        <ele>559</ele>
        <time>2016-10-23T11:37:17Z</time>
      </trkpt>
      <trkpt lat="44.21062" lon="2.1454">
        <ele>567</ele>
        <time>2016-10-23T11:37:22Z</time>
      </trkpt>
      <trkpt lat="44.21061" lon="2.1454">
        <ele>567</ele>
        <time>2016-10-23T11:37:27Z</time>
      </trkpt>
      <trkpt lat="44.21059" lon="2.14539">
        <ele>567</ele>
        <time>2016-10-23T11:37:32Z</time>
      </trkpt>
      <trkpt lat="44.21054" lon="2.14537">
        <ele>567</ele>
        <time>2016-10-23T11:37:37Z</time>
      </trkpt>
      <trkpt lat="44.2105" lon="2.14535">
        <ele>567</ele>
        <time>2016-10-23T11:37:42Z</time>
      </trkpt>
      <trkpt lat="44.21046" lon="2.14533">
        <ele>567</ele>
        <time>2016-10-23T11:37:47Z</time>
      </trkpt>
      <trkpt lat="44.21043" lon="2.14534">
        <ele>567</ele>
        <time>2016-10-23T11:37:52Z</time>
      </trkpt>
      <trkpt lat="44.2104" lon="2.14537">
        <ele>556</ele>
        <time>2016-10-23T11:37:57Z</time>
      </trkpt>
      <trkpt lat="44.21035" lon="2.14541">
        <ele>556</ele>
        <time>2016-10-23T11:38:02Z</time>
      </trkpt>
      <trkpt lat="44.21032" lon="2.1454">
        <ele>556</ele>
        <time>2016-10-23T11:38:07Z</time>
      </trkpt>
      <trkpt lat="44.21033" lon="2.1454">
        <ele>556</ele>
        <time>2016-10-23T11:38:12Z</time>
      </trkpt>
      <trkpt lat="44.2103" lon="2.14541">
        <ele>556</ele>
        <time>2016-10-23T11:38:17Z</time>
      </trkpt>
      <trkpt lat="44.21026" lon="2.14544">
        <ele>554</ele>
        <time>2016-10-23T11:38:22Z</time>
      </trkpt>
      <trkpt lat="44.21023" lon="2.14544">
        <ele>554</ele>
        <time>2016-10-23T11:38:27Z</time>
      </trkpt>
      <trkpt lat="44.21022" lon="2.14545">
        <ele>554</ele>
        <time>2016-10-23T11:38:32Z</time>
      </trkpt>
      <trkpt lat="44.21013" lon="2.14546">
        <ele>554</ele>
        <time>2016-10-23T11:38:37Z</time>
      </trkpt>
      <trkpt lat="44.21005" lon="2.14546">
        <ele>554</ele>
        <time>2016-10-23T11:38:42Z</time>
      </trkpt>
      <trkpt lat="44.20998" lon="2.14544">
        <ele>554</ele>
        <time>2016-10-23T11:38:47Z</time>
      </trkpt>
      <trkpt lat="44.20993" lon="2.14543">
        <ele>554</ele>
        <time>2016-10-23T11:38:52Z</time>
      </trkpt>
      <trkpt lat="44.20986" lon="2.14543">
        <ele>554</ele>
        <time>2016-10-23T11:38:57Z</time>
      </trkpt>
      <trkpt lat="44.20981" lon="2.14541">
        <ele>556</ele>
        <time>2016-10-23T11:39:02Z</time>
      </trkpt>
      <trkpt lat="44.20976" lon="2.14541">
        <ele>556</ele>
        <time>2016-10-23T11:39:07Z</time>
      </trkpt>
      <trkpt lat="44.20973" lon="2.14542">
        <ele>554</ele>
        <time>2016-10-23T11:39:12Z</time>
      </trkpt>
      <trkpt lat="44.20968" lon="2.14543">
        <ele>554</ele>
        <time>2016-10-23T11:39:17Z</time>
      </trkpt>
      <trkpt lat="44.20962" lon="2.14541">
        <ele>556</ele>
        <time>2016-10-23T11:39:22Z</time>
      </trkpt>
      <trkpt lat="44.20957" lon="2.1454">
        <ele>547</ele>
        <time>2016-10-23T11:39:27Z</time>
      </trkpt>
      <trkpt lat="44.20953" lon="2.1454">
        <ele>547</ele>
        <time>2016-10-23T11:39:32Z</time>
      </trkpt>
      <trkpt lat="44.20948" lon="2.1454">
        <ele>547</ele>
        <time>2016-10-23T11:39:37Z</time>
      </trkpt>
      <trkpt lat="44.20944" lon="2.14538">
        <ele>547</ele>
        <time>2016-10-23T11:39:42Z</time>
      </trkpt>
      <trkpt lat="44.20938" lon="2.14536">
        <ele>547</ele>
        <time>2016-10-23T11:39:47Z</time>
      </trkpt>
      <trkpt lat="44.20935" lon="2.14532">
        <ele>547</ele>
        <time>2016-10-23T11:39:52Z</time>
      </trkpt>
      <trkpt lat="44.20931" lon="2.14531">
        <ele>547</ele>
        <time>2016-10-23T11:39:57Z</time>
      </trkpt>
      <trkpt lat="44.20925" lon="2.14529">
        <ele>547</ele>
        <time>2016-10-23T11:40:02Z</time>
      </trkpt>
      <trkpt lat="44.20918" lon="2.14527">
        <ele>547</ele>
        <time>2016-10-23T11:40:07Z</time>
      </trkpt>
      <trkpt lat="44.20913" lon="2.14526">
        <ele>547</ele>
        <time>2016-10-23T11:40:12Z</time>
      </trkpt>
      <trkpt lat="44.20909" lon="2.14525">
        <ele>547</ele>
        <time>2016-10-23T11:40:17Z</time>
      </trkpt>
      <trkpt lat="44.20903" lon="2.14526">
        <ele>547</ele>
        <time>2016-10-23T11:40:22Z</time>
      </trkpt>
      <trkpt lat="44.20898" lon="2.14526">
        <ele>547</ele>
        <time>2016-10-23T11:40:27Z</time>
      </trkpt>
      <trkpt lat="44.2089" lon="2.14525">
        <ele>547</ele>
        <time>2016-10-23T11:40:32Z</time>
      </trkpt>
      <trkpt lat="44.20884" lon="2.14527">
        <ele>547</ele>
        <time>2016-10-23T11:40:37Z</time>
      </trkpt>
      <trkpt lat="44.20879" lon="2.14529">
        <ele>547</ele>
        <time>2016-10-23T11:40:42Z</time>
      </trkpt>
      <trkpt lat="44.20874" lon="2.14533">
        <ele>540</ele>
        <time>2016-10-23T11:40:47Z</time>
      </trkpt>
      <trkpt lat="44.2087" lon="2.14538">
        <ele>540</ele>
        <time>2016-10-23T11:40:52Z</time>
      </trkpt>
      <trkpt lat="44.20865" lon="2.14545">
        <ele>540</ele>
        <time>2016-10-23T11:40:57Z</time>
      </trkpt>
      <trkpt lat="44.20861" lon="2.14551">
        <ele>540</ele>
        <time>2016-10-23T11:41:02Z</time>
      </trkpt>
      <trkpt lat="44.20858" lon="2.14557">
        <ele>540</ele>
        <time>2016-10-23T11:41:07Z</time>
      </trkpt>
      <trkpt lat="44.20853" lon="2.14562">
        <ele>540</ele>
        <time>2016-10-23T11:41:12Z</time>
      </trkpt>
      <trkpt lat="44.20849" lon="2.14567">
        <ele>540</ele>
        <time>2016-10-23T11:41:17Z</time>
      </trkpt>
      <trkpt lat="44.20845" lon="2.14574">
        <ele>540</ele>
        <time>2016-10-23T11:41:22Z</time>
      </trkpt>
      <trkpt lat="44.20842" lon="2.14579">
        <ele>540</ele>
        <time>2016-10-23T11:41:27Z</time>
      </trkpt>
      <trkpt lat="44.20838" lon="2.14586">
        <ele>540</ele>
        <time>2016-10-23T11:41:32Z</time>
      </trkpt>
      <trkpt lat="44.20834" lon="2.14592">
        <ele>540</ele>
        <time>2016-10-23T11:41:37Z</time>
      </trkpt>
      <trkpt lat="44.20831" lon="2.14598">
        <ele>540</ele>
        <time>2016-10-23T11:41:42Z</time>
      </trkpt>
      <trkpt lat="44.20829" lon="2.14603">
        <ele>540</ele>
        <time>2016-10-23T11:41:47Z</time>
      </trkpt>
      <trkpt lat="44.20825" lon="2.14609">
        <ele>540</ele>
        <time>2016-10-23T11:41:52Z</time>
      </trkpt>
      <trkpt lat="44.20819" lon="2.14616">
        <ele>540</ele>
        <time>2016-10-23T11:41:57Z</time>
      </trkpt>
      <trkpt lat="44.20814" lon="2.14621">
        <ele>540</ele>
        <time>2016-10-23T11:42:02Z</time>
      </trkpt>
      <trkpt lat="44.20809" lon="2.14626">
        <ele>537</ele>
        <time>2016-10-23T11:42:07Z</time>
      </trkpt>
      <trkpt lat="44.20806" lon="2.14633">
        <ele>537</ele>
        <time>2016-10-23T11:42:12Z</time>
      </trkpt>
      <trkpt lat="44.20806" lon="2.14637">
        <ele>537</ele>
        <time>2016-10-23T11:42:17Z</time>
      </trkpt>
      <trkpt lat="44.20803" lon="2.14643">
        <ele>537</ele>
        <time>2016-10-23T11:42:22Z</time>
      </trkpt>
      <trkpt lat="44.208" lon="2.14651">
        <ele>537</ele>
        <time>2016-10-23T11:42:27Z</time>
      </trkpt>
      <trkpt lat="44.20796" lon="2.14657">
        <ele>537</ele>
        <time>2016-10-23T11:42:32Z</time>
      </trkpt>
      <trkpt lat="44.20793" lon="2.14662">
        <ele>537</ele>
        <time>2016-10-23T11:42:37Z</time>
      </trkpt>
      <trkpt lat="44.20788" lon="2.14665">
        <ele>533</ele>
        <time>2016-10-23T11:42:42Z</time>
      </trkpt>
      <trkpt lat="44.20783" lon="2.14664">
        <ele>533</ele>
        <time>2016-10-23T11:42:47Z</time>
      </trkpt>
      <trkpt lat="44.20777" lon="2.14666">
        <ele>533</ele>
        <time>2016-10-23T11:42:52Z</time>
      </trkpt>
      <trkpt lat="44.20772" lon="2.14666">
        <ele>533</ele>
        <time>2016-10-23T11:42:57Z</time>
      </trkpt>
      <trkpt lat="44.20768" lon="2.14668">
        <ele>533</ele>
        <time>2016-10-23T11:43:02Z</time>
      </trkpt>
      <trkpt lat="44.20762" lon="2.1467">
        <ele>533</ele>
        <time>2016-10-23T11:43:07Z</time>
      </trkpt>
      <trkpt lat="44.20757" lon="2.14672">
        <ele>533</ele>
        <time>2016-10-23T11:43:12Z</time>
      </trkpt>
      <trkpt lat="44.20754" lon="2.14672">
        <ele>533</ele>
        <time>2016-10-23T11:43:17Z</time>
      </trkpt>
      <trkpt lat="44.20753" lon="2.14673">
        <ele>533</ele>
        <time>2016-10-23T11:43:22Z</time>
      </trkpt>
      <trkpt lat="44.2075" lon="2.14673">
        <ele>533</ele>
        <time>2016-10-23T11:43:27Z</time>
      </trkpt>
      <trkpt lat="44.20745" lon="2.14677">
        <ele>533</ele>
        <time>2016-10-23T11:43:32Z</time>
      </trkpt>
      <trkpt lat="44.20741" lon="2.1468">
        <ele>533</ele>
        <time>2016-10-23T11:43:37Z</time>
      </trkpt>
      <trkpt lat="44.20737" lon="2.14683">
        <ele>533</ele>
        <time>2016-10-23T11:43:42Z</time>
      </trkpt>
      <trkpt lat="44.20737" lon="2.14685">
        <ele>533</ele>
        <time>2016-10-23T11:43:47Z</time>
      </trkpt>
      <trkpt lat="44.20735" lon="2.14687">
        <ele>533</ele>
        <time>2016-10-23T11:43:52Z</time>
      </trkpt>
      <trkpt lat="44.20735" lon="2.14688">
        <ele>533</ele>
        <time>2016-10-23T11:43:57Z</time>
      </trkpt>
      <trkpt lat="44.20734" lon="2.1469">
        <ele>533</ele>
        <time>2016-10-23T11:44:02Z</time>
      </trkpt>
      <trkpt lat="44.2073" lon="2.14697">
        <ele>533</ele>
        <time>2016-10-23T11:44:07Z</time>
      </trkpt>
      <trkpt lat="44.20728" lon="2.147">
        <ele>533</ele>
        <time>2016-10-23T11:44:12Z</time>
      </trkpt>
      <trkpt lat="44.20726" lon="2.14703">
        <ele>533</ele>
        <time>2016-10-23T11:44:17Z</time>
      </trkpt>
      <trkpt lat="44.20724" lon="2.1471">
        <ele>525</ele>
        <time>2016-10-23T11:44:22Z</time>
      </trkpt>
      <trkpt lat="44.20723" lon="2.14715">
        <ele>525</ele>
        <time>2016-10-23T11:44:27Z</time>
      </trkpt>
      <trkpt lat="44.2072" lon="2.1472">
        <ele>525</ele>
        <time>2016-10-23T11:44:32Z</time>
      </trkpt>
      <trkpt lat="44.20717" lon="2.14721">
        <ele>525</ele>
        <time>2016-10-23T11:44:37Z</time>
      </trkpt>
      <trkpt lat="44.20717" lon="2.1472">
        <ele>525</ele>
        <time>2016-10-23T11:44:42Z</time>
      </trkpt>
      <trkpt lat="44.20716" lon="2.1472">
        <ele>525</ele>
        <time>2016-10-23T11:44:47Z</time>
      </trkpt>
      <trkpt lat="44.20715" lon="2.14721">
        <ele>525</ele>
        <time>2016-10-23T11:44:52Z</time>
      </trkpt>
      <trkpt lat="44.20715" lon="2.14721">
        <ele>525</ele>
        <time>2016-10-23T11:44:57Z</time>
      </trkpt>
      <trkpt lat="44.20715" lon="2.14721">
        <ele>525</ele>
        <time>2016-10-23T11:45:02Z</time>
      </trkpt>
      <trkpt lat="44.20714" lon="2.14721">
        <ele>525</ele>
        <time>2016-10-23T11:45:07Z</time>
      </trkpt>
      <trkpt lat="44.20714" lon="2.14721">
        <ele>525</ele>
        <time>2016-10-23T11:45:12Z</time>
      </trkpt>
      <trkpt lat="44.20713" lon="2.14722">
        <ele>525</ele>
        <time>2016-10-23T11:45:17Z</time>
      </trkpt>
      <trkpt lat="44.20713" lon="2.14722">
        <ele>525</ele>
        <time>2016-10-23T11:45:22Z</time>
      </trkpt>
      <trkpt lat="44.20713" lon="2.14722">
        <ele>525</ele>
        <time>2016-10-23T11:45:27Z</time>
      </trkpt>
      <trkpt lat="44.20713" lon="2.14722">
        <ele>525</ele>
        <time>2016-10-23T11:45:32Z</time>
      </trkpt>
      <trkpt lat="44.20712" lon="2.14722">
        <ele>525</ele>
        <time>2016-10-23T11:45:37Z</time>
      </trkpt>
      <trkpt lat="44.20712" lon="2.14723">
        <ele>525</ele>
        <time>2016-10-23T11:45:42Z</time>
      </trkpt>
      <trkpt lat="44.20712" lon="2.14722">
        <ele>525</ele>
        <time>2016-10-23T11:45:47Z</time>
      </trkpt>
      <trkpt lat="44.20711" lon="2.14723">
        <ele>525</ele>
        <time>2016-10-23T11:45:52Z</time>
      </trkpt>
      <trkpt lat="44.20711" lon="2.14726">
        <ele>525</ele>
        <time>2016-10-23T11:45:57Z</time>
      </trkpt>
      <trkpt lat="44.20709" lon="2.14732">
        <ele>525</ele>
        <time>2016-10-23T11:46:02Z</time>
      </trkpt>
      <trkpt lat="44.20705" lon="2.14739">
        <ele>520</ele>
        <time>2016-10-23T11:46:07Z</time>
      </trkpt>
      <trkpt lat="44.20704" lon="2.14742">
        <ele>520</ele>
        <time>2016-10-23T11:46:12Z</time>
      </trkpt>
      <trkpt lat="44.20704" lon="2.14746">
        <ele>520</ele>
        <time>2016-10-23T11:46:17Z</time>
      </trkpt>
      <trkpt lat="44.20704" lon="2.14746">
        <ele>520</ele>
        <time>2016-10-23T11:46:22Z</time>
      </trkpt>
      <trkpt lat="44.20704" lon="2.14746">
        <ele>520</ele>
        <time>2016-10-23T11:46:27Z</time>
      </trkpt>
      <trkpt lat="44.20704" lon="2.14746">
        <ele>520</ele>
        <time>2016-10-23T11:46:32Z</time>
      </trkpt>
      <trkpt lat="44.20704" lon="2.14746">
        <ele>520</ele>
        <time>2016-10-23T11:46:37Z</time>
      </trkpt>
      <trkpt lat="44.20703" lon="2.1475">
        <ele>520</ele>
        <time>2016-10-23T11:46:42Z</time>
      </trkpt>
      <trkpt lat="44.207" lon="2.14758">
        <ele>520</ele>
        <time>2016-10-23T11:46:47Z</time>
      </trkpt>
      <trkpt lat="44.20697" lon="2.14765">
        <ele>520</ele>
        <time>2016-10-23T11:46:52Z</time>
      </trkpt>
      <trkpt lat="44.20694" lon="2.14769">
        <ele>520</ele>
        <time>2016-10-23T11:46:57Z</time>
      </trkpt>
      <trkpt lat="44.20691" lon="2.14774">
        <ele>520</ele>
        <time>2016-10-23T11:47:02Z</time>
      </trkpt>
      <trkpt lat="44.20688" lon="2.14779">
        <ele>520</ele>
        <time>2016-10-23T11:47:07Z</time>
      </trkpt>
      <trkpt lat="44.20685" lon="2.14786">
        <ele>520</ele>
        <time>2016-10-23T11:47:12Z</time>
      </trkpt>
      <trkpt lat="44.20681" lon="2.14792">
        <ele>515</ele>
        <time>2016-10-23T11:47:17Z</time>
      </trkpt>
      <trkpt lat="44.20678" lon="2.14796">
        <ele>515</ele>
        <time>2016-10-23T11:47:22Z</time>
      </trkpt>
      <trkpt lat="44.20673" lon="2.14802">
        <ele>515</ele>
        <time>2016-10-23T11:47:27Z</time>
      </trkpt>
      <trkpt lat="44.2067" lon="2.14809">
        <ele>515</ele>
        <time>2016-10-23T11:47:32Z</time>
      </trkpt>
      <trkpt lat="44.20666" lon="2.14815">
        <ele>515</ele>
        <time>2016-10-23T11:47:37Z</time>
      </trkpt>
      <trkpt lat="44.20662" lon="2.14821">
        <ele>515</ele>
        <time>2016-10-23T11:47:42Z</time>
      </trkpt>
      <trkpt lat="44.20657" lon="2.14826">
        <ele>515</ele>
        <time>2016-10-23T11:47:47Z</time>
      </trkpt>
      <trkpt lat="44.20654" lon="2.14831">
        <ele>515</ele>
        <time>2016-10-23T11:47:52Z</time>
      </trkpt>
      <trkpt lat="44.20652" lon="2.14838">
        <ele>515</ele>
        <time>2016-10-23T11:47:57Z</time>
      </trkpt>
      <trkpt lat="44.2065" lon="2.14843">
        <ele>515</ele>
        <time>2016-10-23T11:48:02Z</time>
      </trkpt>
      <trkpt lat="44.20648" lon="2.14848">
        <ele>515</ele>
        <time>2016-10-23T11:48:07Z</time>
      </trkpt>
      <trkpt lat="44.20648" lon="2.14849">
        <ele>515</ele>
        <time>2016-10-23T11:48:12Z</time>
      </trkpt>
      <trkpt lat="44.20648" lon="2.1485">
        <ele>515</ele>
        <time>2016-10-23T11:48:17Z</time>
      </trkpt>
      <trkpt lat="44.20646" lon="2.14852">
        <ele>515</ele>
        <time>2016-10-23T11:48:22Z</time>
      </trkpt>
      <trkpt lat="44.20644" lon="2.14855">
        <ele>515</ele>
        <time>2016-10-23T11:48:27Z</time>
      </trkpt>
      <trkpt lat="44.20642" lon="2.14858">
        <ele>515</ele>
        <time>2016-10-23T11:48:32Z</time>
      </trkpt>
      <trkpt lat="44.2064" lon="2.14862">
        <ele>515</ele>
        <time>2016-10-23T11:48:37Z</time>
      </trkpt>
      <trkpt lat="44.20637" lon="2.14866">
        <ele>515</ele>
        <time>2016-10-23T11:48:42Z</time>
      </trkpt>
      <trkpt lat="44.20632" lon="2.1487">
        <ele>515</ele>
        <time>2016-10-23T11:48:47Z</time>
      </trkpt>
      <trkpt lat="44.2063" lon="2.14877">
        <ele>505</ele>
        <time>2016-10-23T11:48:52Z</time>
      </trkpt>
      <trkpt lat="44.20627" lon="2.14879">
        <ele>505</ele>
        <time>2016-10-23T11:48:57Z</time>
      </trkpt>
      <trkpt lat="44.20625" lon="2.1488">
        <ele>505</ele>
        <time>2016-10-23T11:49:02Z</time>
      </trkpt>
      <trkpt lat="44.20624" lon="2.14881">
        <ele>494</ele>
        <time>2016-10-23T11:49:07Z</time>
      </trkpt>
      <trkpt lat="44.20624" lon="2.14882">
        <ele>494</ele>
        <time>2016-10-23T11:49:12Z</time>
      </trkpt>
      <trkpt lat="44.20623" lon="2.14884">
        <ele>494</ele>
        <time>2016-10-23T11:49:17Z</time>
      </trkpt>
      <trkpt lat="44.20622" lon="2.14884">
        <ele>494</ele>
        <time>2016-10-23T11:49:22Z</time>
      </trkpt>
      <trkpt lat="44.20622" lon="2.14884">
        <ele>494</ele>
        <time>2016-10-23T11:49:27Z</time>
      </trkpt>
      <trkpt lat="44.20622" lon="2.14885">
        <ele>494</ele>
        <time>2016-10-23T11:49:32Z</time>
      </trkpt>
      <trkpt lat="44.2062" lon="2.14885">
        <ele>494</ele>
        <time>2016-10-23T11:49:37Z</time>
      </trkpt>
      <trkpt lat="44.20619" lon="2.14885">
        <ele>494</ele>
        <time>2016-10-23T11:49:42Z</time>
      </trkpt>
      <trkpt lat="44.20617" lon="2.14882">
        <ele>494</ele>
        <time>2016-10-23T11:49:47Z</time>
      </trkpt>
      <trkpt lat="44.20616" lon="2.1488">
        <ele>494</ele>
        <time>2016-10-23T11:49:52Z</time>
      </trkpt>
      <trkpt lat="44.20615" lon="2.14879">
        <ele>494</ele>
        <time>2016-10-23T11:49:57Z</time>
      </trkpt>
      <trkpt lat="44.20615" lon="2.14878">
        <ele>494</ele>
        <time>2016-10-23T11:50:02Z</time>
      </trkpt>
      <trkpt lat="44.20615" lon="2.14877">
        <ele>494</ele>
        <time>2016-10-23T11:50:07Z</time>
      </trkpt>
      <trkpt lat="44.20614" lon="2.14875">
        <ele>504</ele>
        <time>2016-10-23T11:50:12Z</time>
      </trkpt>
      <trkpt lat="44.20613" lon="2.14874">
        <ele>504</ele>
        <time>2016-10-23T11:50:17Z</time>
      </trkpt>
      <trkpt lat="44.20612" lon="2.14872">
        <ele>504</ele>
        <time>2016-10-23T11:50:22Z</time>
      </trkpt>
      <trkpt lat="44.20611" lon="2.14869">
        <ele>504</ele>
        <time>2016-10-23T11:50:27Z</time>
      </trkpt>
      <trkpt lat="44.2061" lon="2.14867">
        <ele>504</ele>
        <time>2016-10-23T11:50:32Z</time>
      </trkpt>
      <trkpt lat="44.20609" lon="2.14861">
        <ele>504</ele>
        <time>2016-10-23T11:50:37Z</time>
      </trkpt>
      <trkpt lat="44.20607" lon="2.14856">
        <ele>504</ele>
        <time>2016-10-23T11:50:42Z</time>
      </trkpt>
      <trkpt lat="44.20607" lon="2.14852">
        <ele>504</ele>
        <time>2016-10-23T11:50:47Z</time>
      </trkpt>
      <trkpt lat="44.20606" lon="2.14848">
        <ele>504</ele>
        <time>2016-10-23T11:50:52Z</time>
      </trkpt>
      <trkpt lat="44.20606" lon="2.14844">
        <ele>504</ele>
        <time>2016-10-23T11:50:57Z</time>
      </trkpt>
      <trkpt lat="44.20605" lon="2.14841">
        <ele>504</ele>
        <time>2016-10-23T11:51:02Z</time>
      </trkpt>
      <trkpt lat="44.20604" lon="2.14834">
        <ele>504</ele>
        <time>2016-10-23T11:51:07Z</time>
      </trkpt>
      <trkpt lat="44.20602" lon="2.14827">
        <ele>504</ele>
        <time>2016-10-23T11:51:12Z</time>
      </trkpt>
      <trkpt lat="44.20601" lon="2.14821">
        <ele>504</ele>
        <time>2016-10-23T11:51:17Z</time>
      </trkpt>
      <trkpt lat="44.206" lon="2.14814">
        <ele>504</ele>
        <time>2016-10-23T11:51:22Z</time>
      </trkpt>
      <trkpt lat="44.206" lon="2.14807">
        <ele>504</ele>
        <time>2016-10-23T11:51:27Z</time>
      </trkpt>
      <trkpt lat="44.20598" lon="2.148">
        <ele>504</ele>
        <time>2016-10-23T11:51:32Z</time>
      </trkpt>
      <trkpt lat="44.20596" lon="2.14794">
        <ele>504</ele>
        <time>2016-10-23T11:51:37Z</time>
      </trkpt>
      <trkpt lat="44.20596" lon="2.14787">
        <ele>506</ele>
        <time>2016-10-23T11:51:42Z</time>
      </trkpt>
      <trkpt lat="44.20597" lon="2.14779">
        <ele>506</ele>
        <time>2016-10-23T11:51:47Z</time>
      </trkpt>
      <trkpt lat="44.20596" lon="2.14777">
        <ele>506</ele>
        <time>2016-10-23T11:51:52Z</time>
      </trkpt>
      <trkpt lat="44.20596" lon="2.14768">
        <ele>506</ele>
        <time>2016-10-23T11:51:57Z</time>
      </trkpt>
      <trkpt lat="44.20597" lon="2.1476">
        <ele>506</ele>
        <time>2016-10-23T11:52:02Z</time>
      </trkpt>
      <trkpt lat="44.20596" lon="2.14752">
        <ele>506</ele>
        <time>2016-10-23T11:52:07Z</time>
      </trkpt>
      <trkpt lat="44.20596" lon="2.14746">
        <ele>506</ele>
        <time>2016-10-23T11:52:12Z</time>
      </trkpt>
      <trkpt lat="44.20597" lon="2.14739">
        <ele>506</ele>
        <time>2016-10-23T11:52:17Z</time>
      </trkpt>
      <trkpt lat="44.20597" lon="2.14735">
        <ele>506</ele>
        <time>2016-10-23T11:52:22Z</time>
      </trkpt>
      <trkpt lat="44.20594" lon="2.14726">
        <ele>506</ele>
        <time>2016-10-23T11:52:27Z</time>
      </trkpt>
      <trkpt lat="44.20594" lon="2.14721">
        <ele>506</ele>
        <time>2016-10-23T11:52:32Z</time>
      </trkpt>
      <trkpt lat="44.20595" lon="2.14714">
        <ele>506</ele>
        <time>2016-10-23T11:52:37Z</time>
      </trkpt>
      <trkpt lat="44.20593" lon="2.14707">
        <ele>513</ele>
        <time>2016-10-23T11:52:42Z</time>
      </trkpt>
      <trkpt lat="44.20592" lon="2.147">
        <ele>513</ele>
        <time>2016-10-23T11:52:47Z</time>
      </trkpt>
      <trkpt lat="44.20592" lon="2.14697">
        <ele>513</ele>
        <time>2016-10-23T11:52:52Z</time>
      </trkpt>
      <trkpt lat="44.20593" lon="2.14692">
        <ele>513</ele>
        <time>2016-10-23T11:52:57Z</time>
      </trkpt>
      <trkpt lat="44.20593" lon="2.14688">
        <ele>513</ele>
        <time>2016-10-23T11:53:02Z</time>
      </trkpt>
      <trkpt lat="44.20591" lon="2.14686">
        <ele>513</ele>
        <time>2016-10-23T11:53:07Z</time>
      </trkpt>
      <trkpt lat="44.2059" lon="2.1468">
        <ele>513</ele>
        <time>2016-10-23T11:53:12Z</time>
      </trkpt>
      <trkpt lat="44.20588" lon="2.14673">
        <ele>513</ele>
        <time>2016-10-23T11:53:17Z</time>
      </trkpt>
      <trkpt lat="44.20585" lon="2.14667">
        <ele>513</ele>
        <time>2016-10-23T11:53:22Z</time>
      </trkpt>
      <trkpt lat="44.20586" lon="2.14661">
        <ele>513</ele>
        <time>2016-10-23T11:53:27Z</time>
      </trkpt>
      <trkpt lat="44.20587" lon="2.14655">
        <ele>513</ele>
        <time>2016-10-23T11:53:32Z</time>
      </trkpt>
      <trkpt lat="44.20587" lon="2.14651">
        <ele>513</ele>
        <time>2016-10-23T11:53:37Z</time>
      </trkpt>
      <trkpt lat="44.20584" lon="2.14647">
        <ele>513</ele>
        <time>2016-10-23T11:53:42Z</time>
      </trkpt>
      <trkpt lat="44.20583" lon="2.14639">
        <ele>513</ele>
        <time>2016-10-23T11:53:47Z</time>
      </trkpt>
      <trkpt lat="44.20585" lon="2.14633">
        <ele>513</ele>
        <time>2016-10-23T11:53:52Z</time>
      </trkpt>
      <trkpt lat="44.20588" lon="2.14626">
        <ele>513</ele>
        <time>2016-10-23T11:53:57Z</time>
      </trkpt>
      <trkpt lat="44.20588" lon="2.14618">
        <ele>520</ele>
        <time>2016-10-23T11:54:02Z</time>
      </trkpt>
      <trkpt lat="44.2059" lon="2.14609">
        <ele>520</ele>
        <time>2016-10-23T11:54:07Z</time>
      </trkpt>
      <trkpt lat="44.2059" lon="2.14602">
        <ele>520</ele>
        <time>2016-10-23T11:54:12Z</time>
      </trkpt>
      <trkpt lat="44.20588" lon="2.14592">
        <ele>520</ele>
        <time>2016-10-23T11:54:17Z</time>
      </trkpt>
      <trkpt lat="44.20587" lon="2.14584">
        <ele>520</ele>
        <time>2016-10-23T11:54:22Z</time>
      </trkpt>
      <trkpt lat="44.20584" lon="2.14578">
        <ele>520</ele>
        <time>2016-10-23T11:54:27Z</time>
      </trkpt>
      <trkpt lat="44.20578" lon="2.14575">
        <ele>520</ele>
        <time>2016-10-23T11:54:32Z</time>
      </trkpt>
      <trkpt lat="44.20573" lon="2.14573">
        <ele>520</ele>
        <time>2016-10-23T11:54:37Z</time>
      </trkpt>
      <trkpt lat="44.20568" lon="2.14569">
        <ele>520</ele>
        <time>2016-10-23T11:54:42Z</time>
      </trkpt>
      <trkpt lat="44.20564" lon="2.14567">
        <ele>520</ele>
        <time>2016-10-23T11:54:47Z</time>
      </trkpt>
      <trkpt lat="44.20556" lon="2.14563">
        <ele>520</ele>
        <time>2016-10-23T11:54:52Z</time>
      </trkpt>
      <trkpt lat="44.2055" lon="2.1456">
        <ele>520</ele>
        <time>2016-10-23T11:54:57Z</time>
      </trkpt>
      <trkpt lat="44.20543" lon="2.14555">
        <ele>520</ele>
        <time>2016-10-23T11:55:02Z</time>
      </trkpt>
      <trkpt lat="44.20538" lon="2.14548">
        <ele>511</ele>
        <time>2016-10-23T11:55:07Z</time>
      </trkpt>
      <trkpt lat="44.2054" lon="2.14544">
        <ele>511</ele>
        <time>2016-10-23T11:55:12Z</time>
      </trkpt>
      <trkpt lat="44.20542" lon="2.1454">
        <ele>530</ele>
        <time>2016-10-23T11:55:17Z</time>
      </trkpt>
      <trkpt lat="44.20545" lon="2.14536">
        <ele>530</ele>
        <time>2016-10-23T11:55:22Z</time>
      </trkpt>
      <trkpt lat="44.2055" lon="2.14533">
        <ele>530</ele>
        <time>2016-10-23T11:55:27Z</time>
      </trkpt>
      <trkpt lat="44.20556" lon="2.1453">
        <ele>530</ele>
        <time>2016-10-23T11:55:32Z</time>
      </trkpt>
      <trkpt lat="44.20559" lon="2.14524">
        <ele>530</ele>
        <time>2016-10-23T11:55:37Z</time>
      </trkpt>
      <trkpt lat="44.20561" lon="2.14518">
        <ele>530</ele>
        <time>2016-10-23T11:55:42Z</time>
      </trkpt>
      <trkpt lat="44.20564" lon="2.14513">
        <ele>530</ele>
        <time>2016-10-23T11:55:47Z</time>
      </trkpt>
      <trkpt lat="44.20568" lon="2.14506">
        <ele>530</ele>
        <time>2016-10-23T11:55:52Z</time>
      </trkpt>
      <trkpt lat="44.2057" lon="2.14499">
        <ele>530</ele>
        <time>2016-10-23T11:55:57Z</time>
      </trkpt>
      <trkpt lat="44.20572" lon="2.1449">
        <ele>530</ele>
        <time>2016-10-23T11:56:02Z</time>
      </trkpt>
      <trkpt lat="44.20574" lon="2.1448">
        <ele>530</ele>
        <time>2016-10-23T11:56:07Z</time>
      </trkpt>
      <trkpt lat="44.20576" lon="2.14473">
        <ele>530</ele>
        <time>2016-10-23T11:56:12Z</time>
      </trkpt>
      <trkpt lat="44.2058" lon="2.14465">
        <ele>530</ele>
        <time>2016-10-23T11:56:17Z</time>
      </trkpt>
      <trkpt lat="44.20582" lon="2.14459">
        <ele>530</ele>
        <time>2016-10-23T11:56:22Z</time>
      </trkpt>
      <trkpt lat="44.20582" lon="2.14449">
        <ele>526</ele>
        <time>2016-10-23T11:56:27Z</time>
      </trkpt>
      <trkpt lat="44.20581" lon="2.14441">
        <ele>526</ele>
        <time>2016-10-23T11:56:32Z</time>
      </trkpt>
      <trkpt lat="44.20581" lon="2.14433">
        <ele>526</ele>
        <time>2016-10-23T11:56:37Z</time>
      </trkpt>
      <trkpt lat="44.20582" lon="2.14424">
        <ele>526</ele>
        <time>2016-10-23T11:56:42Z</time>
      </trkpt>
      <trkpt lat="44.20584" lon="2.14415">
        <ele>526</ele>
        <time>2016-10-23T11:56:47Z</time>
      </trkpt>
      <trkpt lat="44.20587" lon="2.14408">
        <ele>526</ele>
        <time>2016-10-23T11:56:52Z</time>
      </trkpt>
      <trkpt lat="44.20591" lon="2.144">
        <ele>526</ele>
        <time>2016-10-23T11:56:57Z</time>
      </trkpt>
      <trkpt lat="44.20596" lon="2.14395">
        <ele>526</ele>
        <time>2016-10-23T11:57:02Z</time>
      </trkpt>
      <trkpt lat="44.206" lon="2.1439">
        <ele>526</ele>
        <time>2016-10-23T11:57:07Z</time>
      </trkpt>
      <trkpt lat="44.20606" lon="2.14385">
        <ele>526</ele>
        <time>2016-10-23T11:57:12Z</time>
      </trkpt>
      <trkpt lat="44.20611" lon="2.14378">
        <ele>526</ele>
        <time>2016-10-23T11:57:17Z</time>
      </trkpt>
      <trkpt lat="44.20617" lon="2.14371">
        <ele>521</ele>
        <time>2016-10-23T11:57:22Z</time>
      </trkpt>
      <trkpt lat="44.20623" lon="2.14364">
        <ele>521</ele>
        <time>2016-10-23T11:57:27Z</time>
      </trkpt>
      <trkpt lat="44.20629" lon="2.14356">
        <ele>539</ele>
        <time>2016-10-23T11:57:32Z</time>
      </trkpt>
      <trkpt lat="44.20636" lon="2.14349">
        <ele>539</ele>
        <time>2016-10-23T11:57:37Z</time>
      </trkpt>
      <trkpt lat="44.20641" lon="2.14342">
        <ele>539</ele>
        <time>2016-10-23T11:57:42Z</time>
      </trkpt>
      <trkpt lat="44.20647" lon="2.14337">
        <ele>539</ele>
        <time>2016-10-23T11:57:47Z</time>
      </trkpt>
      <trkpt lat="44.2065" lon="2.14331">
        <ele>539</ele>
        <time>2016-10-23T11:57:52Z</time>
      </trkpt>
      <trkpt lat="44.20654" lon="2.14323">
        <ele>539</ele>
        <time>2016-10-23T11:57:57Z</time>
      </trkpt>
      <trkpt lat="44.20659" lon="2.14316">
        <ele>539</ele>
        <time>2016-10-23T11:58:02Z</time>
      </trkpt>
      <trkpt lat="44.20664" lon="2.14311">
        <ele>539</ele>
        <time>2016-10-23T11:58:07Z</time>
      </trkpt>
      <trkpt lat="44.20669" lon="2.14305">
        <ele>539</ele>
        <time>2016-10-23T11:58:12Z</time>
      </trkpt>
      <trkpt lat="44.20674" lon="2.143">
        <ele>539</ele>
        <time>2016-10-23T11:58:17Z</time>
      </trkpt>
      <trkpt lat="44.20678" lon="2.14286">
        <ele>540</ele>
        <time>2016-10-23T11:58:22Z</time>
      </trkpt>
      <trkpt lat="44.2068" lon="2.14277">
        <ele>540</ele>
        <time>2016-10-23T11:58:27Z</time>
      </trkpt>
      <trkpt lat="44.20684" lon="2.14268">
        <ele>540</ele>
        <time>2016-10-23T11:58:32Z</time>
      </trkpt>
      <trkpt lat="44.20684" lon="2.1426">
        <ele>540</ele>
        <time>2016-10-23T11:58:37Z</time>
      </trkpt>
      <trkpt lat="44.20685" lon="2.14249">
        <ele>540</ele>
        <time>2016-10-23T11:58:42Z</time>
      </trkpt>
      <trkpt lat="44.20687" lon="2.14239">
        <ele>540</ele>
        <time>2016-10-23T11:58:47Z</time>
      </trkpt>
      <trkpt lat="44.20688" lon="2.14228">
        <ele>540</ele>
        <time>2016-10-23T11:58:52Z</time>
      </trkpt>
      <trkpt lat="44.20688" lon="2.14219">
        <ele>540</ele>
        <time>2016-10-23T11:58:57Z</time>
      </trkpt>
      <trkpt lat="44.20684" lon="2.14211">
        <ele>540</ele>
        <time>2016-10-23T11:59:02Z</time>
      </trkpt>
      <trkpt lat="44.20678" lon="2.14204">
        <ele>547</ele>
        <time>2016-10-23T11:59:07Z</time>
      </trkpt>
      <trkpt lat="44.20673" lon="2.14198">
        <ele>547</ele>
        <time>2016-10-23T11:59:12Z</time>
      </trkpt>
      <trkpt lat="44.20668" lon="2.14193">
        <ele>547</ele>
        <time>2016-10-23T11:59:17Z</time>
      </trkpt>
      <trkpt lat="44.20664" lon="2.14185">
        <ele>547</ele>
        <time>2016-10-23T11:59:22Z</time>
      </trkpt>
      <trkpt lat="44.20658" lon="2.14178">
        <ele>547</ele>
        <time>2016-10-23T11:59:27Z</time>
      </trkpt>
      <trkpt lat="44.20653" lon="2.14171">
        <ele>547</ele>
        <time>2016-10-23T11:59:32Z</time>
      </trkpt>
      <trkpt lat="44.20648" lon="2.14163">
        <ele>547</ele>
        <time>2016-10-23T11:59:37Z</time>
      </trkpt>
      <trkpt lat="44.20644" lon="2.14156">
        <ele>547</ele>
        <time>2016-10-23T11:59:42Z</time>
      </trkpt>
      <trkpt lat="44.20639" lon="2.14148">
        <ele>547</ele>
        <time>2016-10-23T11:59:47Z</time>
      </trkpt>
      <trkpt lat="44.20635" lon="2.1414">
        <ele>547</ele>
        <time>2016-10-23T11:59:52Z</time>
      </trkpt>
      <trkpt lat="44.20631" lon="2.14132">
        <ele>547</ele>
        <time>2016-10-23T11:59:57Z</time>
      </trkpt>
      <trkpt lat="44.20627" lon="2.14125">
        <ele>547</ele>
        <time>2016-10-23T12:00:02Z</time>
      </trkpt>
      <trkpt lat="44.20622" lon="2.14119">
        <ele>540</ele>
        <time>2016-10-23T12:00:07Z</time>
      </trkpt>
      <trkpt lat="44.20618" lon="2.14112">
        <ele>540</ele>
        <time>2016-10-23T12:00:12Z</time>
      </trkpt>
      <trkpt lat="44.20612" lon="2.14104">
        <ele>540</ele>
        <time>2016-10-23T12:00:17Z</time>
      </trkpt>
      <trkpt lat="44.20608" lon="2.14098">
        <ele>540</ele>
        <time>2016-10-23T12:00:22Z</time>
      </trkpt>
      <trkpt lat="44.20602" lon="2.14092">
        <ele>540</ele>
        <time>2016-10-23T12:00:27Z</time>
      </trkpt>
      <trkpt lat="44.20596" lon="2.14086">
        <ele>540</ele>
        <time>2016-10-23T12:00:32Z</time>
      </trkpt>
      <trkpt lat="44.20591" lon="2.14081">
        <ele>540</ele>
        <time>2016-10-23T12:00:37Z</time>
      </trkpt>
      <trkpt lat="44.20586" lon="2.14075">
        <ele>540</ele>
        <time>2016-10-23T12:00:42Z</time>
      </trkpt>
      <trkpt lat="44.20581" lon="2.14068">
        <ele>540</ele>
        <time>2016-10-23T12:00:47Z</time>
      </trkpt>
      <trkpt lat="44.20576" lon="2.14062">
        <ele>540</ele>
        <time>2016-10-23T12:00:52Z</time>
      </trkpt>
      <trkpt lat="44.20573" lon="2.14055">
        <ele>540</ele>
        <time>2016-10-23T12:00:57Z</time>
      </trkpt>
      <trkpt lat="44.20569" lon="2.14048">
        <ele>540</ele>
        <time>2016-10-23T12:01:02Z</time>
      </trkpt>
      <trkpt lat="44.20565" lon="2.1404">
        <ele>542</ele>
        <time>2016-10-23T12:01:07Z</time>
      </trkpt>
      <trkpt lat="44.20563" lon="2.14031">
        <ele>542</ele>
        <time>2016-10-23T12:01:12Z</time>
      </trkpt>
      <trkpt lat="44.2056" lon="2.14024">
        <ele>542</ele>
        <time>2016-10-23T12:01:17Z</time>
      </trkpt>
      <trkpt lat="44.20558" lon="2.14013">
        <ele>542</ele>
        <time>2016-10-23T12:01:22Z</time>
      </trkpt>
      <trkpt lat="44.20557" lon="2.14003">
        <ele>542</ele>
        <time>2016-10-23T12:01:27Z</time>
      </trkpt>
      <trkpt lat="44.20557" lon="2.13995">
        <ele>542</ele>
        <time>2016-10-23T12:01:32Z</time>
      </trkpt>
      <trkpt lat="44.20556" lon="2.13987">
        <ele>542</ele>
        <time>2016-10-23T12:01:37Z</time>
      </trkpt>
      <trkpt lat="44.20557" lon="2.1398">
        <ele>542</ele>
        <time>2016-10-23T12:01:42Z</time>
      </trkpt>
      <trkpt lat="44.20558" lon="2.13972">
        <ele>542</ele>
        <time>2016-10-23T12:01:47Z</time>
      </trkpt>
      <trkpt lat="44.20559" lon="2.13963">
        <ele>542</ele>
        <time>2016-10-23T12:01:52Z</time>
      </trkpt>
      <trkpt lat="44.2056" lon="2.13956">
        <ele>536</ele>
        <time>2016-10-23T12:01:57Z</time>
      </trkpt>
      <trkpt lat="44.20562" lon="2.13949">
        <ele>536</ele>
        <time>2016-10-23T12:02:02Z</time>
      </trkpt>
      <trkpt lat="44.20564" lon="2.13942">
        <ele>536</ele>
        <time>2016-10-23T12:02:07Z</time>
      </trkpt>
      <trkpt lat="44.20568" lon="2.13934">
        <ele>536</ele>
        <time>2016-10-23T12:02:12Z</time>
      </trkpt>
      <trkpt lat="44.20572" lon="2.13924">
        <ele>536</ele>
        <time>2016-10-23T12:02:17Z</time>
      </trkpt>
      <trkpt lat="44.20577" lon="2.1391">
        <ele>536</ele>
        <time>2016-10-23T12:02:22Z</time>
      </trkpt>
      <trkpt lat="44.20581" lon="2.13901">
        <ele>536</ele>
        <time>2016-10-23T12:02:27Z</time>
      </trkpt>
      <trkpt lat="44.20585" lon="2.13895">
        <ele>536</ele>
        <time>2016-10-23T12:02:32Z</time>
      </trkpt>
      <trkpt lat="44.20587" lon="2.13888">
        <ele>536</ele>
        <time>2016-10-23T12:02:37Z</time>
      </trkpt>
      <trkpt lat="44.20589" lon="2.13881">
        <ele>536</ele>
        <time>2016-10-23T12:02:42Z</time>
      </trkpt>
      <trkpt lat="44.20591" lon="2.13874">
        <ele>531</ele>
        <time>2016-10-23T12:02:47Z</time>
      </trkpt>
      <trkpt lat="44.20593" lon="2.13867">
        <ele>531</ele>
        <time>2016-10-23T12:02:52Z</time>
      </trkpt>
      <trkpt lat="44.20595" lon="2.1386">
        <ele>531</ele>
        <time>2016-10-23T12:02:57Z</time>
      </trkpt>
      <trkpt lat="44.20599" lon="2.13852">
        <ele>531</ele>
        <time>2016-10-23T12:03:02Z</time>
      </trkpt>
      <trkpt lat="44.20603" lon="2.13845">
        <ele>531</ele>
        <time>2016-10-23T12:03:07Z</time>
      </trkpt>
      <trkpt lat="44.20608" lon="2.1384">
        <ele>531</ele>
        <time>2016-10-23T12:03:12Z</time>
      </trkpt>
      <trkpt lat="44.20611" lon="2.13833">
        <ele>531</ele>
        <time>2016-10-23T12:03:17Z</time>
      </trkpt>
      <trkpt lat="44.20613" lon="2.13827">
        <ele>531</ele>
        <time>2016-10-23T12:03:22Z</time>
      </trkpt>
      <trkpt lat="44.20616" lon="2.13818">
        <ele>531</ele>
        <time>2016-10-23T12:03:27Z</time>
      </trkpt>
      <trkpt lat="44.20617" lon="2.1381">
        <ele>531</ele>
        <time>2016-10-23T12:03:32Z</time>
      </trkpt>
      <trkpt lat="44.2062" lon="2.13803">
        <ele>531</ele>
        <time>2016-10-23T12:03:37Z</time>
      </trkpt>
      <trkpt lat="44.20624" lon="2.13793">
        <ele>531</ele>
        <time>2016-10-23T12:03:42Z</time>
      </trkpt>
      <trkpt lat="44.20627" lon="2.13785">
        <ele>543</ele>
        <time>2016-10-23T12:03:47Z</time>
      </trkpt>
      <trkpt lat="44.20631" lon="2.1378">
        <ele>543</ele>
        <time>2016-10-23T12:03:52Z</time>
      </trkpt>
      <trkpt lat="44.20632" lon="2.13776">
        <ele>543</ele>
        <time>2016-10-23T12:03:57Z</time>
      </trkpt>
      <trkpt lat="44.20634" lon="2.13769">
        <ele>543</ele>
        <time>2016-10-23T12:04:02Z</time>
      </trkpt>
      <trkpt lat="44.20638" lon="2.13762">
        <ele>543</ele>
        <time>2016-10-23T12:04:07Z</time>
      </trkpt>
      <trkpt lat="44.20642" lon="2.13756">
        <ele>543</ele>
        <time>2016-10-23T12:04:12Z</time>
      </trkpt>
      <trkpt lat="44.20643" lon="2.13748">
        <ele>543</ele>
        <time>2016-10-23T12:04:17Z</time>
      </trkpt>
      <trkpt lat="44.20645" lon="2.13741">
        <ele>543</ele>
        <time>2016-10-23T12:04:22Z</time>
      </trkpt>
      <trkpt lat="44.20645" lon="2.13735">
        <ele>543</ele>
        <time>2016-10-23T12:04:27Z</time>
      </trkpt>
      <trkpt lat="44.20648" lon="2.13731">
        <ele>543</ele>
        <time>2016-10-23T12:04:32Z</time>
      </trkpt>
      <trkpt lat="44.20651" lon="2.13727">
        <ele>543</ele>
        <time>2016-10-23T12:04:37Z</time>
      </trkpt>
      <trkpt lat="44.20656" lon="2.13724">
        <ele>543</ele>
        <time>2016-10-23T12:04:42Z</time>
      </trkpt>
      <trkpt lat="44.2066" lon="2.13717">
        <ele>543</ele>
        <time>2016-10-23T12:04:47Z</time>
      </trkpt>
      <trkpt lat="44.20664" lon="2.13712">
        <ele>543</ele>
        <time>2016-10-23T12:04:52Z</time>
      </trkpt>
      <trkpt lat="44.20668" lon="2.13706">
        <ele>540</ele>
        <time>2016-10-23T12:04:57Z</time>
      </trkpt>
      <trkpt lat="44.2067" lon="2.13701">
        <ele>540</ele>
        <time>2016-10-23T12:05:02Z</time>
      </trkpt>
      <trkpt lat="44.2067" lon="2.13699">
        <ele>540</ele>
        <time>2016-10-23T12:05:07Z</time>
      </trkpt>
      <trkpt lat="44.20669" lon="2.13698">
        <ele>540</ele>
        <time>2016-10-23T12:05:12Z</time>
      </trkpt>
      <trkpt lat="44.20669" lon="2.13698">
        <ele>540</ele>
        <time>2016-10-23T12:05:17Z</time>
      </trkpt>
      <trkpt lat="44.20668" lon="2.13697">
        <ele>540</ele>
        <time>2016-10-23T12:05:22Z</time>
      </trkpt>
      <trkpt lat="44.20668" lon="2.13697">
        <ele>540</ele>
        <time>2016-10-23T12:05:27Z</time>
      </trkpt>
      <trkpt lat="44.20668" lon="2.13694">
        <ele>540</ele>
        <time>2016-10-23T12:05:32Z</time>
      </trkpt>
      <trkpt lat="44.20668" lon="2.13694">
        <ele>540</ele>
        <time>2016-10-23T12:05:37Z</time>
      </trkpt>
      <trkpt lat="44.20668" lon="2.13694">
        <ele>540</ele>
        <time>2016-10-23T12:05:42Z</time>
      </trkpt>
      <trkpt lat="44.20668" lon="2.13694">
        <ele>540</ele>
        <time>2016-10-23T12:05:47Z</time>
      </trkpt>
      <trkpt lat="44.20668" lon="2.13694">
        <ele>540</ele>
        <time>2016-10-23T12:05:52Z</time>
      </trkpt>
      <trkpt lat="44.20668" lon="2.13694">
        <ele>540</ele>
        <time>2016-10-23T12:05:57Z</time>
      </trkpt>
      <trkpt lat="44.20669" lon="2.13694">
        <ele>540</ele>
        <time>2016-10-23T12:06:02Z</time>
      </trkpt>
      <trkpt lat="44.20669" lon="2.13694">
        <ele>540</ele>
        <time>2016-10-23T12:06:07Z</time>
      </trkpt>
      <trkpt lat="44.20669" lon="2.13693">
        <ele>540</ele>
        <time>2016-10-23T12:06:12Z</time>
      </trkpt>
      <trkpt lat="44.20669" lon="2.13692">
        <ele>540</ele>
        <time>2016-10-23T12:06:17Z</time>
      </trkpt>
      <trkpt lat="44.20669" lon="2.13692">
        <ele>540</ele>
        <time>2016-10-23T12:06:22Z</time>
      </trkpt>
      <trkpt lat="44.20669" lon="2.13692">
        <ele>540</ele>
        <time>2016-10-23T12:06:27Z</time>
      </trkpt>
      <trkpt lat="44.20669" lon="2.13692">
        <ele>540</ele>
        <time>2016-10-23T12:06:32Z</time>
      </trkpt>
      <trkpt lat="44.20669" lon="2.13691">
        <ele>540</ele>
        <time>2016-10-23T12:06:37Z</time>
      </trkpt>
      <trkpt lat="44.20669" lon="2.13691">
        <ele>540</ele>
        <time>2016-10-23T12:06:42Z</time>
      </trkpt>
      <trkpt lat="44.20669" lon="2.13691">
        <ele>540</ele>
        <time>2016-10-23T12:06:47Z</time>
      </trkpt>
      <trkpt lat="44.20669" lon="2.13691">
        <ele>540</ele>
        <time>2016-10-23T12:06:52Z</time>
      </trkpt>
      <trkpt lat="44.2067" lon="2.13691">
        <ele>540</ele>
        <time>2016-10-23T12:06:57Z</time>
      </trkpt>
      <trkpt lat="44.2067" lon="2.13691">
        <ele>540</ele>
        <time>2016-10-23T12:07:02Z</time>
      </trkpt>
      <trkpt lat="44.2067" lon="2.13691">
        <ele>540</ele>
        <time>2016-10-23T12:07:07Z</time>
      </trkpt>
      <trkpt lat="44.2067" lon="2.13691">
        <ele>540</ele>
        <time>2016-10-23T12:07:12Z</time>
      </trkpt>
      <trkpt lat="44.2067" lon="2.13691">
        <ele>540</ele>
        <time>2016-10-23T12:07:17Z</time>
      </trkpt>
      <trkpt lat="44.2067" lon="2.13692">
        <ele>540</ele>
        <time>2016-10-23T12:07:22Z</time>
      </trkpt>
      <trkpt lat="44.2067" lon="2.13692">
        <ele>540</ele>
        <time>2016-10-23T12:07:27Z</time>
      </trkpt>
      <trkpt lat="44.20671" lon="2.13692">
        <ele>540</ele>
        <time>2016-10-23T12:07:32Z</time>
      </trkpt>
      <trkpt lat="44.20671" lon="2.13691">
        <ele>540</ele>
        <time>2016-10-23T12:07:37Z</time>
      </trkpt>
      <trkpt lat="44.20671" lon="2.13692">
        <ele>540</ele>
        <time>2016-10-23T12:07:42Z</time>
      </trkpt>
      <trkpt lat="44.2067" lon="2.13694">
        <ele>540</ele>
        <time>2016-10-23T12:07:47Z</time>
      </trkpt>
      <trkpt lat="44.2067" lon="2.13694">
        <ele>540</ele>
        <time>2016-10-23T12:07:52Z</time>
      </trkpt>
      <trkpt lat="44.2067" lon="2.13693">
        <ele>540</ele>
        <time>2016-10-23T12:07:57Z</time>
      </trkpt>
      <trkpt lat="44.2067" lon="2.13693">
        <ele>540</ele>
        <time>2016-10-23T12:08:02Z</time>
      </trkpt>
      <trkpt lat="44.2067" lon="2.13693">
        <ele>540</ele>
        <time>2016-10-23T12:08:07Z</time>
      </trkpt>
      <trkpt lat="44.2067" lon="2.13692">
        <ele>540</ele>
        <time>2016-10-23T12:08:12Z</time>
      </trkpt>
      <trkpt lat="44.20671" lon="2.13693">
        <ele>540</ele>
        <time>2016-10-23T12:08:17Z</time>
      </trkpt>
      <trkpt lat="44.20671" lon="2.13693">
        <ele>540</ele>
        <time>2016-10-23T12:08:22Z</time>
      </trkpt>
      <trkpt lat="44.20672" lon="2.13692">
        <ele>540</ele>
        <time>2016-10-23T12:08:27Z</time>
      </trkpt>
      <trkpt lat="44.20668" lon="2.13686">
        <ele>540</ele>
        <time>2016-10-23T12:08:32Z</time>
      </trkpt>
      <trkpt lat="44.20668" lon="2.13688">
        <ele>540</ele>
        <time>2016-10-23T12:08:37Z</time>
      </trkpt>
      <trkpt lat="44.20669" lon="2.13691">
        <ele>540</ele>
        <time>2016-10-23T12:08:42Z</time>
      </trkpt>
      <trkpt lat="44.20669" lon="2.13691">
        <ele>540</ele>
        <time>2016-10-23T12:08:47Z</time>
      </trkpt>
      <trkpt lat="44.20669" lon="2.13691">
        <ele>540</ele>
        <time>2016-10-23T12:08:52Z</time>
      </trkpt>
      <trkpt lat="44.20669" lon="2.13692">
        <ele>540</ele>
        <time>2016-10-23T12:08:57Z</time>
      </trkpt>
      <trkpt lat="44.20669" lon="2.13694">
        <ele>540</ele>
        <time>2016-10-23T12:09:02Z</time>
      </trkpt>
      <trkpt lat="44.20669" lon="2.13693">
        <ele>540</ele>
        <time>2016-10-23T12:09:07Z</time>
      </trkpt>
      <trkpt lat="44.20668" lon="2.13692">
        <ele>540</ele>
        <time>2016-10-23T12:09:12Z</time>
      </trkpt>
      <trkpt lat="44.20668" lon="2.13692">
        <ele>540</ele>
        <time>2016-10-23T12:09:17Z</time>
      </trkpt>
      <trkpt lat="44.20669" lon="2.13692">
        <ele>540</ele>
        <time>2016-10-23T12:09:22Z</time>
      </trkpt>
      <trkpt lat="44.20671" lon="2.13689">
        <ele>540</ele>
        <time>2016-10-23T12:09:27Z</time>
      </trkpt>
      <trkpt lat="44.20672" lon="2.13691">
        <ele>540</ele>
        <time>2016-10-23T12:09:32Z</time>
      </trkpt>
      <trkpt lat="44.20674" lon="2.13691">
        <ele>540</ele>
        <time>2016-10-23T12:09:37Z</time>
      </trkpt>
      <trkpt lat="44.20676" lon="2.13691">
        <ele>540</ele>
        <time>2016-10-23T12:09:42Z</time>
      </trkpt>
      <trkpt lat="44.20676" lon="2.13691">
        <ele>540</ele>
        <time>2016-10-23T12:09:47Z</time>
      </trkpt>
      <trkpt lat="44.20677" lon="2.13691">
        <ele>540</ele>
        <time>2016-10-23T12:09:52Z</time>
      </trkpt>
      <trkpt lat="44.20677" lon="2.1369">
        <ele>540</ele>
        <time>2016-10-23T12:09:57Z</time>
      </trkpt>
      <trkpt lat="44.20679" lon="2.1369">
        <ele>540</ele>
        <time>2016-10-23T12:10:02Z</time>
      </trkpt>
      <trkpt lat="44.20679" lon="2.1369">
        <ele>540</ele>
        <time>2016-10-23T12:10:07Z</time>
      </trkpt>
      <trkpt lat="44.20682" lon="2.13689">
        <ele>540</ele>
        <time>2016-10-23T12:10:12Z</time>
      </trkpt>
      <trkpt lat="44.20685" lon="2.13686">
        <ele>540</ele>
        <time>2016-10-23T12:10:17Z</time>
      </trkpt>
      <trkpt lat="44.20685" lon="2.13681">
        <ele>540</ele>
        <time>2016-10-23T12:10:22Z</time>
      </trkpt>
      <trkpt lat="44.20687" lon="2.13676">
        <ele>540</ele>
        <time>2016-10-23T12:10:27Z</time>
      </trkpt>
      <trkpt lat="44.20689" lon="2.13673">
        <ele>540</ele>
        <time>2016-10-23T12:10:32Z</time>
      </trkpt>
      <trkpt lat="44.20691" lon="2.13674">
        <ele>540</ele>
        <time>2016-10-23T12:10:37Z</time>
      </trkpt>
      <trkpt lat="44.20691" lon="2.13674">
        <ele>540</ele>
        <time>2016-10-23T12:10:42Z</time>
      </trkpt>
      <trkpt lat="44.20691" lon="2.13674">
        <ele>540</ele>
        <time>2016-10-23T12:10:47Z</time>
      </trkpt>
      <trkpt lat="44.20692" lon="2.13673">
        <ele>540</ele>
        <time>2016-10-23T12:10:52Z</time>
      </trkpt>
      <trkpt lat="44.20696" lon="2.13667">
        <ele>540</ele>
        <time>2016-10-23T12:10:57Z</time>
      </trkpt>
      <trkpt lat="44.20702" lon="2.13663">
        <ele>540</ele>
        <time>2016-10-23T12:11:02Z</time>
      </trkpt>
      <trkpt lat="44.20705" lon="2.13658">
        <ele>540</ele>
        <time>2016-10-23T12:11:07Z</time>
      </trkpt>
      <trkpt lat="44.20708" lon="2.13655">
        <ele>540</ele>
        <time>2016-10-23T12:11:12Z</time>
      </trkpt>
      <trkpt lat="44.20712" lon="2.13652">
        <ele>547</ele>
        <time>2016-10-23T12:11:17Z</time>
      </trkpt>
      <trkpt lat="44.20717" lon="2.13649">
        <ele>547</ele>
        <time>2016-10-23T12:11:22Z</time>
      </trkpt>
      <trkpt lat="44.20721" lon="2.13647">
        <ele>547</ele>
        <time>2016-10-23T12:11:27Z</time>
      </trkpt>
      <trkpt lat="44.20723" lon="2.13642">
        <ele>547</ele>
        <time>2016-10-23T12:11:32Z</time>
      </trkpt>
      <trkpt lat="44.20726" lon="2.13637">
        <ele>547</ele>
        <time>2016-10-23T12:11:37Z</time>
      </trkpt>
      <trkpt lat="44.2073" lon="2.13632">
        <ele>547</ele>
        <time>2016-10-23T12:11:42Z</time>
      </trkpt>
      <trkpt lat="44.20733" lon="2.13625">
        <ele>547</ele>
        <time>2016-10-23T12:11:47Z</time>
      </trkpt>
      <trkpt lat="44.20737" lon="2.1362">
        <ele>541</ele>
        <time>2016-10-23T12:11:52Z</time>
      </trkpt>
      <trkpt lat="44.20742" lon="2.13615">
        <ele>541</ele>
        <time>2016-10-23T12:11:57Z</time>
      </trkpt>
      <trkpt lat="44.20747" lon="2.13609">
        <ele>541</ele>
        <time>2016-10-23T12:12:02Z</time>
      </trkpt>
      <trkpt lat="44.20747" lon="2.13606">
        <ele>541</ele>
        <time>2016-10-23T12:12:07Z</time>
      </trkpt>
      <trkpt lat="44.20748" lon="2.13606">
        <ele>541</ele>
        <time>2016-10-23T12:12:12Z</time>
      </trkpt>
      <trkpt lat="44.20749" lon="2.13606">
        <ele>541</ele>
        <time>2016-10-23T12:12:17Z</time>
      </trkpt>
      <trkpt lat="44.2075" lon="2.13606">
        <ele>541</ele>
        <time>2016-10-23T12:12:22Z</time>
      </trkpt>
      <trkpt lat="44.2075" lon="2.13606">
        <ele>541</ele>
        <time>2016-10-23T12:12:27Z</time>
      </trkpt>
      <trkpt lat="44.2075" lon="2.13606">
        <ele>541</ele>
        <time>2016-10-23T12:12:32Z</time>
      </trkpt>
      <trkpt lat="44.2075" lon="2.13606">
        <ele>541</ele>
        <time>2016-10-23T12:12:37Z</time>
      </trkpt>
      <trkpt lat="44.2075" lon="2.13607">
        <ele>541</ele>
        <time>2016-10-23T12:12:42Z</time>
      </trkpt>
      <trkpt lat="44.2075" lon="2.13607">
        <ele>541</ele>
        <time>2016-10-23T12:12:47Z</time>
      </trkpt>
      <trkpt lat="44.20751" lon="2.13607">
        <ele>541</ele>
        <time>2016-10-23T12:12:52Z</time>
      </trkpt>
      <trkpt lat="44.20751" lon="2.13606">
        <ele>541</ele>
        <time>2016-10-23T12:12:57Z</time>
      </trkpt>
      <trkpt lat="44.20751" lon="2.13607">
        <ele>541</ele>
        <time>2016-10-23T12:13:02Z</time>
      </trkpt>
      <trkpt lat="44.20755" lon="2.1361">
        <ele>541</ele>
        <time>2016-10-23T12:13:07Z</time>
      </trkpt>
      <trkpt lat="44.20756" lon="2.13612">
        <ele>541</ele>
        <time>2016-10-23T12:13:12Z</time>
      </trkpt>
      <trkpt lat="44.20762" lon="2.13615">
        <ele>541</ele>
        <time>2016-10-23T12:13:17Z</time>
      </trkpt>
      <trkpt lat="44.20766" lon="2.13621">
        <ele>541</ele>
        <time>2016-10-23T12:13:22Z</time>
      </trkpt>
      <trkpt lat="44.20769" lon="2.13625">
        <ele>541</ele>
        <time>2016-10-23T12:13:27Z</time>
      </trkpt>
      <trkpt lat="44.20769" lon="2.13625">
        <ele>547</ele>
        <time>2016-10-23T12:13:32Z</time>
      </trkpt>
      <trkpt lat="44.20772" lon="2.13627">
        <ele>547</ele>
        <time>2016-10-23T12:13:37Z</time>
      </trkpt>
      <trkpt lat="44.20775" lon="2.13628">
        <ele>547</ele>
        <time>2016-10-23T12:13:42Z</time>
      </trkpt>
      <trkpt lat="44.20779" lon="2.13633">
        <ele>547</ele>
        <time>2016-10-23T12:13:47Z</time>
      </trkpt>
      <trkpt lat="44.20784" lon="2.13638">
        <ele>547</ele>
        <time>2016-10-23T12:13:52Z</time>
      </trkpt>
      <trkpt lat="44.20785" lon="2.13641">
        <ele>547</ele>
        <time>2016-10-23T12:13:57Z</time>
      </trkpt>
      <trkpt lat="44.20789" lon="2.13646">
        <ele>547</ele>
        <time>2016-10-23T12:14:02Z</time>
      </trkpt>
      <trkpt lat="44.20793" lon="2.13649">
        <ele>554</ele>
        <time>2016-10-23T12:14:07Z</time>
      </trkpt>
      <trkpt lat="44.20796" lon="2.13652">
        <ele>554</ele>
        <time>2016-10-23T12:14:12Z</time>
      </trkpt>
      <trkpt lat="44.208" lon="2.13659">
        <ele>554</ele>
        <time>2016-10-23T12:14:17Z</time>
      </trkpt>
      <trkpt lat="44.20803" lon="2.13662">
        <ele>554</ele>
        <time>2016-10-23T12:14:22Z</time>
      </trkpt>
      <trkpt lat="44.20806" lon="2.13663">
        <ele>554</ele>
        <time>2016-10-23T12:14:27Z</time>
      </trkpt>
      <trkpt lat="44.20808" lon="2.13665">
        <ele>554</ele>
        <time>2016-10-23T12:14:32Z</time>
      </trkpt>
      <trkpt lat="44.20812" lon="2.13668">
        <ele>554</ele>
        <time>2016-10-23T12:14:37Z</time>
      </trkpt>
      <trkpt lat="44.20815" lon="2.13671">
        <ele>554</ele>
        <time>2016-10-23T12:14:42Z</time>
      </trkpt>
      <trkpt lat="44.20818" lon="2.13675">
        <ele>554</ele>
        <time>2016-10-23T12:14:47Z</time>
      </trkpt>
      <trkpt lat="44.20823" lon="2.13682">
        <ele>554</ele>
        <time>2016-10-23T12:14:52Z</time>
      </trkpt>
      <trkpt lat="44.20827" lon="2.13687">
        <ele>554</ele>
        <time>2016-10-23T12:14:57Z</time>
      </trkpt>
      <trkpt lat="44.20831" lon="2.13691">
        <ele>554</ele>
        <time>2016-10-23T12:15:02Z</time>
      </trkpt>
      <trkpt lat="44.20835" lon="2.13693">
        <ele>554</ele>
        <time>2016-10-23T12:15:07Z</time>
      </trkpt>
      <trkpt lat="44.20836" lon="2.13694">
        <ele>554</ele>
        <time>2016-10-23T12:15:12Z</time>
      </trkpt>
      <trkpt lat="44.20837" lon="2.13695">
        <ele>554</ele>
        <time>2016-10-23T12:15:17Z</time>
      </trkpt>
      <trkpt lat="44.20838" lon="2.13696">
        <ele>554</ele>
        <time>2016-10-23T12:15:22Z</time>
      </trkpt>
      <trkpt lat="44.20839" lon="2.13699">
        <ele>554</ele>
        <time>2016-10-23T12:15:27Z</time>
      </trkpt>
      <trkpt lat="44.20842" lon="2.137">
        <ele>554</ele>
        <time>2016-10-23T12:15:32Z</time>
      </trkpt>
      <trkpt lat="44.20844" lon="2.13702">
        <ele>554</ele>
        <time>2016-10-23T12:15:37Z</time>
      </trkpt>
      <trkpt lat="44.20847" lon="2.13704">
        <ele>554</ele>
        <time>2016-10-23T12:15:42Z</time>
      </trkpt>
      <trkpt lat="44.20853" lon="2.13707">
        <ele>554</ele>
        <time>2016-10-23T12:15:47Z</time>
      </trkpt>
      <trkpt lat="44.20856" lon="2.13712">
        <ele>560</ele>
        <time>2016-10-23T12:15:52Z</time>
      </trkpt>
      <trkpt lat="44.2086" lon="2.13717">
        <ele>560</ele>
        <time>2016-10-23T12:15:57Z</time>
      </trkpt>
      <trkpt lat="44.20865" lon="2.13719">
        <ele>560</ele>
        <time>2016-10-23T12:16:02Z</time>
      </trkpt>
      <trkpt lat="44.20868" lon="2.13721">
        <ele>560</ele>
        <time>2016-10-23T12:16:07Z</time>
      </trkpt>
      <trkpt lat="44.20872" lon="2.13724">
        <ele>560</ele>
        <time>2016-10-23T12:16:12Z</time>
      </trkpt>
      <trkpt lat="44.20875" lon="2.13728">
        <ele>560</ele>
        <time>2016-10-23T12:16:17Z</time>
      </trkpt>
      <trkpt lat="44.20877" lon="2.13732">
        <ele>568</ele>
        <time>2016-10-23T12:16:22Z</time>
      </trkpt>
      <trkpt lat="44.20882" lon="2.13735">
        <ele>568</ele>
        <time>2016-10-23T12:16:27Z</time>
      </trkpt>
      <trkpt lat="44.20887" lon="2.13737">
        <ele>568</ele>
        <time>2016-10-23T12:16:32Z</time>
      </trkpt>
      <trkpt lat="44.20892" lon="2.1374">
        <ele>568</ele>
        <time>2016-10-23T12:16:37Z</time>
      </trkpt>
      <trkpt lat="44.20896" lon="2.13743">
        <ele>568</ele>
        <time>2016-10-23T12:16:42Z</time>
      </trkpt>
      <trkpt lat="44.209" lon="2.13745">
        <ele>568</ele>
        <time>2016-10-23T12:16:47Z</time>
      </trkpt>
      <trkpt lat="44.20903" lon="2.13746">
        <ele>568</ele>
        <time>2016-10-23T12:16:52Z</time>
      </trkpt>
      <trkpt lat="44.20908" lon="2.13749">
        <ele>568</ele>
        <time>2016-10-23T12:16:57Z</time>
      </trkpt>
      <trkpt lat="44.20912" lon="2.13752">
        <ele>568</ele>
        <time>2016-10-23T12:17:02Z</time>
      </trkpt>
      <trkpt lat="44.20915" lon="2.13753">
        <ele>568</ele>
        <time>2016-10-23T12:17:07Z</time>
      </trkpt>
      <trkpt lat="44.20921" lon="2.13758">
        <ele>568</ele>
        <time>2016-10-23T12:17:12Z</time>
      </trkpt>
      <trkpt lat="44.20924" lon="2.13763">
        <ele>568</ele>
        <time>2016-10-23T12:17:17Z</time>
      </trkpt>
      <trkpt lat="44.20928" lon="2.13766">
        <ele>568</ele>
        <time>2016-10-23T12:17:22Z</time>
      </trkpt>
      <trkpt lat="44.20932" lon="2.13767">
        <ele>568</ele>
        <time>2016-10-23T12:17:27Z</time>
      </trkpt>
      <trkpt lat="44.20937" lon="2.1377">
        <ele>568</ele>
        <time>2016-10-23T12:17:32Z</time>
      </trkpt>
      <trkpt lat="44.2094" lon="2.13774">
        <ele>568</ele>
        <time>2016-10-23T12:17:37Z</time>
      </trkpt>
      <trkpt lat="44.20942" lon="2.13775">
        <ele>568</ele>
        <time>2016-10-23T12:17:42Z</time>
      </trkpt>
      <trkpt lat="44.20942" lon="2.13775">
        <ele>568</ele>
        <time>2016-10-23T12:17:47Z</time>
      </trkpt>
      <trkpt lat="44.20943" lon="2.13773">
        <ele>568</ele>
        <time>2016-10-23T12:17:52Z</time>
      </trkpt>
      <trkpt lat="44.20946" lon="2.13769">
        <ele>568</ele>
        <time>2016-10-23T12:17:57Z</time>
      </trkpt>
      <trkpt lat="44.20948" lon="2.13764">
        <ele>568</ele>
        <time>2016-10-23T12:18:02Z</time>
      </trkpt>
      <trkpt lat="44.2095" lon="2.13761">
        <ele>568</ele>
        <time>2016-10-23T12:18:07Z</time>
      </trkpt>
      <trkpt lat="44.20953" lon="2.13757">
        <ele>568</ele>
        <time>2016-10-23T12:18:12Z</time>
      </trkpt>
      <trkpt lat="44.20957" lon="2.1375">
        <ele>568</ele>
        <time>2016-10-23T12:18:17Z</time>
      </trkpt>
      <trkpt lat="44.2096" lon="2.13747">
        <ele>582</ele>
        <time>2016-10-23T12:18:22Z</time>
      </trkpt>
      <trkpt lat="44.20963" lon="2.13744">
        <ele>582</ele>
        <time>2016-10-23T12:18:27Z</time>
      </trkpt>
      <trkpt lat="44.20967" lon="2.1374">
        <ele>582</ele>
        <time>2016-10-23T12:18:32Z</time>
      </trkpt>
      <trkpt lat="44.20975" lon="2.13731">
        <ele>582</ele>
        <time>2016-10-23T12:18:37Z</time>
      </trkpt>
      <trkpt lat="44.20979" lon="2.13725">
        <ele>582</ele>
        <time>2016-10-23T12:18:42Z</time>
      </trkpt>
      <trkpt lat="44.20982" lon="2.13724">
        <ele>582</ele>
        <time>2016-10-23T12:18:47Z</time>
      </trkpt>
      <trkpt lat="44.20986" lon="2.13721">
        <ele>582</ele>
        <time>2016-10-23T12:18:52Z</time>
      </trkpt>
      <trkpt lat="44.20989" lon="2.13718">
        <ele>582</ele>
        <time>2016-10-23T12:18:57Z</time>
      </trkpt>
      <trkpt lat="44.20992" lon="2.13715">
        <ele>582</ele>
        <time>2016-10-23T12:19:02Z</time>
      </trkpt>
      <trkpt lat="44.20993" lon="2.13713">
        <ele>582</ele>
        <time>2016-10-23T12:19:07Z</time>
      </trkpt>
      <trkpt lat="44.20993" lon="2.13713">
        <ele>582</ele>
        <time>2016-10-23T12:19:12Z</time>
      </trkpt>
      <trkpt lat="44.20993" lon="2.13713">
        <ele>582</ele>
        <time>2016-10-23T12:19:17Z</time>
      </trkpt>
      <trkpt lat="44.20993" lon="2.13714">
        <ele>582</ele>
        <time>2016-10-23T12:19:22Z</time>
      </trkpt>
      <trkpt lat="44.20994" lon="2.13713">
        <ele>582</ele>
        <time>2016-10-23T12:19:27Z</time>
      </trkpt>
      <trkpt lat="44.20994" lon="2.13713">
        <ele>582</ele>
        <time>2016-10-23T12:19:32Z</time>
      </trkpt>
      <trkpt lat="44.20994" lon="2.13713">
        <ele>582</ele>
        <time>2016-10-23T12:19:37Z</time>
      </trkpt>
      <trkpt lat="44.20996" lon="2.1371">
        <ele>582</ele>
        <time>2016-10-23T12:19:42Z</time>
      </trkpt>
      <trkpt lat="44.21002" lon="2.13705">
        <ele>575</ele>
        <time>2016-10-23T12:19:47Z</time>
      </trkpt>
      <trkpt lat="44.21005" lon="2.13703">
        <ele>575</ele>
        <time>2016-10-23T12:19:52Z</time>
      </trkpt>
      <trkpt lat="44.21008" lon="2.13699">
        <ele>575</ele>
        <time>2016-10-23T12:19:57Z</time>
      </trkpt>
      <trkpt lat="44.21012" lon="2.13697">
        <ele>575</ele>
        <time>2016-10-23T12:20:02Z</time>
      </trkpt>
      <trkpt lat="44.21015" lon="2.13696">
        <ele>575</ele>
        <time>2016-10-23T12:20:07Z</time>
      </trkpt>
      <trkpt lat="44.21021" lon="2.13692">
        <ele>575</ele>
        <time>2016-10-23T12:20:12Z</time>
      </trkpt>
      <trkpt lat="44.21026" lon="2.13688">
        <ele>575</ele>
        <time>2016-10-23T12:20:17Z</time>
      </trkpt>
      <trkpt lat="44.21028" lon="2.13686">
        <ele>575</ele>
        <time>2016-10-23T12:20:22Z</time>
      </trkpt>
      <trkpt lat="44.21031" lon="2.13685">
        <ele>575</ele>
        <time>2016-10-23T12:20:27Z</time>
      </trkpt>
      <trkpt lat="44.21036" lon="2.13683">
        <ele>575</ele>
        <time>2016-10-23T12:20:32Z</time>
      </trkpt>
      <trkpt lat="44.21038" lon="2.13679">
        <ele>575</ele>
        <time>2016-10-23T12:20:37Z</time>
      </trkpt>
      <trkpt lat="44.21042" lon="2.13678">
        <ele>593</ele>
        <time>2016-10-23T12:20:42Z</time>
      </trkpt>
      <trkpt lat="44.21047" lon="2.13676">
        <ele>593</ele>
        <time>2016-10-23T12:20:47Z</time>
      </trkpt>
      <trkpt lat="44.21053" lon="2.13677">
        <ele>593</ele>
        <time>2016-10-23T12:20:52Z</time>
      </trkpt>
      <trkpt lat="44.21058" lon="2.13674">
        <ele>593</ele>
        <time>2016-10-23T12:20:57Z</time>
      </trkpt>
      <trkpt lat="44.21063" lon="2.13673">
        <ele>593</ele>
        <time>2016-10-23T12:21:02Z</time>
      </trkpt>
      <trkpt lat="44.2107" lon="2.13671">
        <ele>593</ele>
        <time>2016-10-23T12:21:07Z</time>
      </trkpt>
      <trkpt lat="44.21074" lon="2.13672">
        <ele>593</ele>
        <time>2016-10-23T12:21:12Z</time>
      </trkpt>
      <trkpt lat="44.21086" lon="2.13671">
        <ele>593</ele>
        <time>2016-10-23T12:21:17Z</time>
      </trkpt>
      <trkpt lat="44.21093" lon="2.13671">
        <ele>593</ele>
        <time>2016-10-23T12:21:22Z</time>
      </trkpt>
      <trkpt lat="44.21094" lon="2.13671">
        <ele>593</ele>
        <time>2016-10-23T12:21:27Z</time>
      </trkpt>
      <trkpt lat="44.21096" lon="2.13669">
        <ele>593</ele>
        <time>2016-10-23T12:21:32Z</time>
      </trkpt>
      <trkpt lat="44.21103" lon="2.13668">
        <ele>593</ele>
        <time>2016-10-23T12:21:37Z</time>
      </trkpt>
      <trkpt lat="44.21113" lon="2.13666">
        <ele>593</ele>
        <time>2016-10-23T12:21:42Z</time>
      </trkpt>
      <trkpt lat="44.21117" lon="2.13664">
        <ele>593</ele>
        <time>2016-10-23T12:21:47Z</time>
      </trkpt>
      <trkpt lat="44.21121" lon="2.13664">
        <ele>593</ele>
        <time>2016-10-23T12:21:52Z</time>
      </trkpt>
      <trkpt lat="44.21125" lon="2.13663">
        <ele>593</ele>
        <time>2016-10-23T12:21:57Z</time>
      </trkpt>
      <trkpt lat="44.21126" lon="2.13663">
        <ele>598</ele>
        <time>2016-10-23T12:22:02Z</time>
      </trkpt>
      <trkpt lat="44.2113" lon="2.13661">
        <ele>598</ele>
        <time>2016-10-23T12:22:07Z</time>
      </trkpt>
      <trkpt lat="44.21132" lon="2.1366">
        <ele>598</ele>
        <time>2016-10-23T12:22:12Z</time>
      </trkpt>
      <trkpt lat="44.21136" lon="2.13659">
        <ele>598</ele>
        <time>2016-10-23T12:22:17Z</time>
      </trkpt>
      <trkpt lat="44.21141" lon="2.13659">
        <ele>598</ele>
        <time>2016-10-23T12:22:22Z</time>
      </trkpt>
      <trkpt lat="44.21147" lon="2.13661">
        <ele>598</ele>
        <time>2016-10-23T12:22:27Z</time>
      </trkpt>
      <trkpt lat="44.21151" lon="2.13661">
        <ele>598</ele>
        <time>2016-10-23T12:22:32Z</time>
      </trkpt>
      <trkpt lat="44.21155" lon="2.13661">
        <ele>598</ele>
        <time>2016-10-23T12:22:37Z</time>
      </trkpt>
      <trkpt lat="44.21159" lon="2.13661">
        <ele>598</ele>
        <time>2016-10-23T12:22:42Z</time>
      </trkpt>
      <trkpt lat="44.21163" lon="2.13661">
        <ele>598</ele>
        <time>2016-10-23T12:22:47Z</time>
      </trkpt>
      <trkpt lat="44.21167" lon="2.13659">
        <ele>598</ele>
        <time>2016-10-23T12:22:52Z</time>
      </trkpt>
      <trkpt lat="44.21171" lon="2.13656">
        <ele>598</ele>
        <time>2016-10-23T12:22:57Z</time>
      </trkpt>
      <trkpt lat="44.21175" lon="2.13653">
        <ele>598</ele>
        <time>2016-10-23T12:23:02Z</time>
      </trkpt>
      <trkpt lat="44.21181" lon="2.13652">
        <ele>598</ele>
        <time>2016-10-23T12:23:07Z</time>
      </trkpt>
      <trkpt lat="44.21186" lon="2.13649">
        <ele>598</ele>
        <time>2016-10-23T12:23:12Z</time>
      </trkpt>
      <trkpt lat="44.2119" lon="2.13647">
        <ele>598</ele>
        <time>2016-10-23T12:23:17Z</time>
      </trkpt>
      <trkpt lat="44.21192" lon="2.13646">
        <ele>598</ele>
        <time>2016-10-23T12:23:22Z</time>
      </trkpt>
      <trkpt lat="44.21194" lon="2.13646">
        <ele>598</ele>
        <time>2016-10-23T12:23:27Z</time>
      </trkpt>
      <trkpt lat="44.21197" lon="2.13646">
        <ele>598</ele>
        <time>2016-10-23T12:23:32Z</time>
      </trkpt>
      <trkpt lat="44.21203" lon="2.13644">
        <ele>598</ele>
        <time>2016-10-23T12:23:37Z</time>
      </trkpt>
      <trkpt lat="44.21208" lon="2.13642">
        <ele>598</ele>
        <time>2016-10-23T12:23:42Z</time>
      </trkpt>
      <trkpt lat="44.21213" lon="2.13639">
        <ele>596</ele>
        <time>2016-10-23T12:23:47Z</time>
      </trkpt>
      <trkpt lat="44.21217" lon="2.13635">
        <ele>596</ele>
        <time>2016-10-23T12:23:52Z</time>
      </trkpt>
      <trkpt lat="44.21224" lon="2.13632">
        <ele>596</ele>
        <time>2016-10-23T12:23:57Z</time>
      </trkpt>
      <trkpt lat="44.21229" lon="2.1363">
        <ele>596</ele>
        <time>2016-10-23T12:24:02Z</time>
      </trkpt>
      <trkpt lat="44.21233" lon="2.13628">
        <ele>596</ele>
        <time>2016-10-23T12:24:07Z</time>
      </trkpt>
      <trkpt lat="44.21236" lon="2.13627">
        <ele>596</ele>
        <time>2016-10-23T12:24:12Z</time>
      </trkpt>
      <trkpt lat="44.21236" lon="2.13627">
        <ele>596</ele>
        <time>2016-10-23T12:24:17Z</time>
      </trkpt>
      <trkpt lat="44.21238" lon="2.13627">
        <ele>596</ele>
        <time>2016-10-23T12:24:22Z</time>
      </trkpt>
      <trkpt lat="44.21238" lon="2.13627">
        <ele>596</ele>
        <time>2016-10-23T12:24:27Z</time>
      </trkpt>
      <trkpt lat="44.21238" lon="2.13627">
        <ele>596</ele>
        <time>2016-10-23T12:24:32Z</time>
      </trkpt>
      <trkpt lat="44.21239" lon="2.13626">
        <ele>596</ele>
        <time>2016-10-23T12:24:37Z</time>
      </trkpt>
      <trkpt lat="44.2124" lon="2.13626">
        <ele>596</ele>
        <time>2016-10-23T12:24:42Z</time>
      </trkpt>
      <trkpt lat="44.2124" lon="2.13626">
        <ele>596</ele>
        <time>2016-10-23T12:24:47Z</time>
      </trkpt>
      <trkpt lat="44.2124" lon="2.13626">
        <ele>596</ele>
        <time>2016-10-23T12:24:52Z</time>
      </trkpt>
      <trkpt lat="44.21241" lon="2.13627">
        <ele>596</ele>
        <time>2016-10-23T12:24:57Z</time>
      </trkpt>
      <trkpt lat="44.21244" lon="2.13628">
        <ele>596</ele>
        <time>2016-10-23T12:25:02Z</time>
      </trkpt>
      <trkpt lat="44.21244" lon="2.13628">
        <ele>596</ele>
        <time>2016-10-23T12:25:07Z</time>
      </trkpt>
      <trkpt lat="44.21244" lon="2.13627">
        <ele>596</ele>
        <time>2016-10-23T12:25:12Z</time>
      </trkpt>
      <trkpt lat="44.21244" lon="2.13627">
        <ele>596</ele>
        <time>2016-10-23T12:25:17Z</time>
      </trkpt>
      <trkpt lat="44.21244" lon="2.13628">
        <ele>596</ele>
        <time>2016-10-23T12:25:22Z</time>
      </trkpt>
      <trkpt lat="44.21244" lon="2.13627">
        <ele>596</ele>
        <time>2016-10-23T12:25:27Z</time>
      </trkpt>
      <trkpt lat="44.21245" lon="2.13627">
        <ele>596</ele>
        <time>2016-10-23T12:25:32Z</time>
      </trkpt>
      <trkpt lat="44.21245" lon="2.13627">
        <ele>596</ele>
        <time>2016-10-23T12:25:37Z</time>
      </trkpt>
      <trkpt lat="44.21245" lon="2.13627">
        <ele>596</ele>
        <time>2016-10-23T12:25:42Z</time>
      </trkpt>
      <trkpt lat="44.21246" lon="2.13627">
        <ele>596</ele>
        <time>2016-10-23T12:25:47Z</time>
      </trkpt>
      <trkpt lat="44.21248" lon="2.13626">
        <ele>596</ele>
        <time>2016-10-23T12:25:52Z</time>
      </trkpt>
      <trkpt lat="44.21251" lon="2.13625">
        <ele>596</ele>
        <time>2016-10-23T12:25:57Z</time>
      </trkpt>
      <trkpt lat="44.21251" lon="2.13626">
        <ele>596</ele>
        <time>2016-10-23T12:26:02Z</time>
      </trkpt>
      <trkpt lat="44.21251" lon="2.13625">
        <ele>596</ele>
        <time>2016-10-23T12:26:07Z</time>
      </trkpt>
      <trkpt lat="44.21251" lon="2.13625">
        <ele>596</ele>
        <time>2016-10-23T12:26:12Z</time>
      </trkpt>
      <trkpt lat="44.21251" lon="2.13625">
        <ele>593</ele>
        <time>2016-10-23T12:26:17Z</time>
      </trkpt>
      <trkpt lat="44.21252" lon="2.13625">
        <ele>593</ele>
        <time>2016-10-23T12:26:22Z</time>
      </trkpt>
      <trkpt lat="44.21252" lon="2.13625">
        <ele>593</ele>
        <time>2016-10-23T12:26:27Z</time>
      </trkpt>
      <trkpt lat="44.21251" lon="2.13625">
        <ele>593</ele>
        <time>2016-10-23T12:26:32Z</time>
      </trkpt>
      <trkpt lat="44.21251" lon="2.13626">
        <ele>596</ele>
        <time>2016-10-23T12:26:37Z</time>
      </trkpt>
      <trkpt lat="44.21248" lon="2.13629">
        <ele>596</ele>
        <time>2016-10-23T12:26:42Z</time>
      </trkpt>
      <trkpt lat="44.21248" lon="2.13629">
        <ele>596</ele>
        <time>2016-10-23T12:26:47Z</time>
      </trkpt>
      <trkpt lat="44.21247" lon="2.13629">
        <ele>596</ele>
        <time>2016-10-23T12:26:52Z</time>
      </trkpt>
      <trkpt lat="44.21247" lon="2.13629">
        <ele>596</ele>
        <time>2016-10-23T12:26:57Z</time>
      </trkpt>
      <trkpt lat="44.21247" lon="2.13628">
        <ele>596</ele>
        <time>2016-10-23T12:27:02Z</time>
      </trkpt>
      <trkpt lat="44.21247" lon="2.13628">
        <ele>596</ele>
        <time>2016-10-23T12:27:07Z</time>
      </trkpt>
      <trkpt lat="44.21248" lon="2.13629">
        <ele>596</ele>
        <time>2016-10-23T12:27:12Z</time>
      </trkpt>
      <trkpt lat="44.21254" lon="2.13636">
        <ele>596</ele>
        <time>2016-10-23T12:27:17Z</time>
      </trkpt>
      <trkpt lat="44.21259" lon="2.13643">
        <ele>596</ele>
        <time>2016-10-23T12:27:22Z</time>
      </trkpt>
      <trkpt lat="44.21263" lon="2.1365">
        <ele>596</ele>
        <time>2016-10-23T12:27:27Z</time>
      </trkpt>
      <trkpt lat="44.21269" lon="2.13656">
        <ele>596</ele>
        <time>2016-10-23T12:27:32Z</time>
      </trkpt>
      <trkpt lat="44.21272" lon="2.13662">
        <ele>596</ele>
        <time>2016-10-23T12:27:37Z</time>
      </trkpt>
      <trkpt lat="44.21276" lon="2.13668">
        <ele>596</ele>
        <time>2016-10-23T12:27:42Z</time>
      </trkpt>
      <trkpt lat="44.21281" lon="2.13675">
        <ele>596</ele>
        <time>2016-10-23T12:27:47Z</time>
      </trkpt>
      <trkpt lat="44.21286" lon="2.13682">
        <ele>596</ele>
        <time>2016-10-23T12:27:52Z</time>
      </trkpt>
      <trkpt lat="44.2129" lon="2.1369">
        <ele>596</ele>
        <time>2016-10-23T12:27:57Z</time>
      </trkpt>
      <trkpt lat="44.21294" lon="2.13697">
        <ele>592</ele>
        <time>2016-10-23T12:28:02Z</time>
      </trkpt>
      <trkpt lat="44.21298" lon="2.13703">
        <ele>592</ele>
        <time>2016-10-23T12:28:07Z</time>
      </trkpt>
      <trkpt lat="44.21303" lon="2.1371">
        <ele>598</ele>
        <time>2016-10-23T12:28:12Z</time>
      </trkpt>
      <trkpt lat="44.21308" lon="2.13717">
        <ele>598</ele>
        <time>2016-10-23T12:28:17Z</time>
      </trkpt>
      <trkpt lat="44.21311" lon="2.13724">
        <ele>598</ele>
        <time>2016-10-23T12:28:22Z</time>
      </trkpt>
      <trkpt lat="44.21317" lon="2.13731">
        <ele>598</ele>
        <time>2016-10-23T12:28:27Z</time>
      </trkpt>
      <trkpt lat="44.21322" lon="2.13739">
        <ele>598</ele>
        <time>2016-10-23T12:28:32Z</time>
      </trkpt>
      <trkpt lat="44.21325" lon="2.13745">
        <ele>598</ele>
        <time>2016-10-23T12:28:37Z</time>
      </trkpt>
      <trkpt lat="44.21331" lon="2.1375">
        <ele>598</ele>
        <time>2016-10-23T12:28:42Z</time>
      </trkpt>
      <trkpt lat="44.21337" lon="2.13757">
        <ele>598</ele>
        <time>2016-10-23T12:28:47Z</time>
      </trkpt>
      <trkpt lat="44.21342" lon="2.13764">
        <ele>598</ele>
        <time>2016-10-23T12:28:52Z</time>
      </trkpt>
      <trkpt lat="44.21347" lon="2.13771">
        <ele>598</ele>
        <time>2016-10-23T12:28:57Z</time>
      </trkpt>
      <trkpt lat="44.21351" lon="2.13778">
        <ele>598</ele>
        <time>2016-10-23T12:29:02Z</time>
      </trkpt>
      <trkpt lat="44.21355" lon="2.13785">
        <ele>598</ele>
        <time>2016-10-23T12:29:07Z</time>
      </trkpt>
      <trkpt lat="44.21358" lon="2.13794">
        <ele>601</ele>
        <time>2016-10-23T12:29:12Z</time>
      </trkpt>
      <trkpt lat="44.21362" lon="2.13803">
        <ele>601</ele>
        <time>2016-10-23T12:29:17Z</time>
      </trkpt>
      <trkpt lat="44.21367" lon="2.1381">
        <ele>601</ele>
        <time>2016-10-23T12:29:22Z</time>
      </trkpt>
      <trkpt lat="44.21372" lon="2.13818">
        <ele>601</ele>
        <time>2016-10-23T12:29:27Z</time>
      </trkpt>
      <trkpt lat="44.21376" lon="2.13824">
        <ele>595</ele>
        <time>2016-10-23T12:29:32Z</time>
      </trkpt>
      <trkpt lat="44.2138" lon="2.13832">
        <ele>595</ele>
        <time>2016-10-23T12:29:37Z</time>
      </trkpt>
      <trkpt lat="44.21382" lon="2.13841">
        <ele>595</ele>
        <time>2016-10-23T12:29:42Z</time>
      </trkpt>
      <trkpt lat="44.21386" lon="2.13849">
        <ele>595</ele>
        <time>2016-10-23T12:29:47Z</time>
      </trkpt>
      <trkpt lat="44.2139" lon="2.13856">
        <ele>595</ele>
        <time>2016-10-23T12:29:52Z</time>
      </trkpt>
      <trkpt lat="44.21392" lon="2.13863">
        <ele>595</ele>
        <time>2016-10-23T12:29:57Z</time>
      </trkpt>
      <trkpt lat="44.21394" lon="2.13872">
        <ele>595</ele>
        <time>2016-10-23T12:30:02Z</time>
      </trkpt>
      <trkpt lat="44.21395" lon="2.1388">
        <ele>598</ele>
        <time>2016-10-23T12:30:07Z</time>
      </trkpt>
      <trkpt lat="44.21398" lon="2.13888">
        <ele>598</ele>
        <time>2016-10-23T12:30:12Z</time>
      </trkpt>
      <trkpt lat="44.21403" lon="2.13897">
        <ele>598</ele>
        <time>2016-10-23T12:30:17Z</time>
      </trkpt>
      <trkpt lat="44.21409" lon="2.13907">
        <ele>598</ele>
        <time>2016-10-23T12:30:22Z</time>
      </trkpt>
      <trkpt lat="44.21413" lon="2.13914">
        <ele>598</ele>
        <time>2016-10-23T12:30:27Z</time>
      </trkpt>
      <trkpt lat="44.21417" lon="2.13922">
        <ele>598</ele>
        <time>2016-10-23T12:30:32Z</time>
      </trkpt>
      <trkpt lat="44.2142" lon="2.13931">
        <ele>598</ele>
        <time>2016-10-23T12:30:37Z</time>
      </trkpt>
      <trkpt lat="44.21424" lon="2.13937">
        <ele>598</ele>
        <time>2016-10-23T12:30:42Z</time>
      </trkpt>
      <trkpt lat="44.21426" lon="2.13943">
        <ele>598</ele>
        <time>2016-10-23T12:30:47Z</time>
      </trkpt>
      <trkpt lat="44.2143" lon="2.13951">
        <ele>598</ele>
        <time>2016-10-23T12:30:52Z</time>
      </trkpt>
      <trkpt lat="44.21433" lon="2.13957">
        <ele>598</ele>
        <time>2016-10-23T12:30:57Z</time>
      </trkpt>
      <trkpt lat="44.21437" lon="2.13966">
        <ele>602</ele>
        <time>2016-10-23T12:31:02Z</time>
      </trkpt>
      <trkpt lat="44.2144" lon="2.13973">
        <ele>602</ele>
        <time>2016-10-23T12:31:07Z</time>
      </trkpt>
      <trkpt lat="44.21444" lon="2.1398">
        <ele>602</ele>
        <time>2016-10-23T12:31:12Z</time>
      </trkpt>
      <trkpt lat="44.21448" lon="2.13988">
        <ele>602</ele>
        <time>2016-10-23T12:31:17Z</time>
      </trkpt>
      <trkpt lat="44.21451" lon="2.13994">
        <ele>602</ele>
        <time>2016-10-23T12:31:22Z</time>
      </trkpt>
      <trkpt lat="44.21455" lon="2.14001">
        <ele>602</ele>
        <time>2016-10-23T12:31:27Z</time>
      </trkpt>
      <trkpt lat="44.21459" lon="2.14009">
        <ele>593</ele>
        <time>2016-10-23T12:31:32Z</time>
      </trkpt>
      <trkpt lat="44.21462" lon="2.14016">
        <ele>593</ele>
        <time>2016-10-23T12:31:37Z</time>
      </trkpt>
      <trkpt lat="44.21465" lon="2.14024">
        <ele>593</ele>
        <time>2016-10-23T12:31:42Z</time>
      </trkpt>
      <trkpt lat="44.21468" lon="2.1403">
        <ele>593</ele>
        <time>2016-10-23T12:31:47Z</time>
      </trkpt>
      <trkpt lat="44.21472" lon="2.14035">
        <ele>593</ele>
        <time>2016-10-23T12:31:52Z</time>
      </trkpt>
      <trkpt lat="44.21475" lon="2.14041">
        <ele>593</ele>
        <time>2016-10-23T12:31:57Z</time>
      </trkpt>
      <trkpt lat="44.21479" lon="2.14048">
        <ele>596</ele>
        <time>2016-10-23T12:32:02Z</time>
      </trkpt>
      <trkpt lat="44.21482" lon="2.14056">
        <ele>596</ele>
        <time>2016-10-23T12:32:07Z</time>
      </trkpt>
      <trkpt lat="44.21485" lon="2.14064">
        <ele>596</ele>
        <time>2016-10-23T12:32:12Z</time>
      </trkpt>
      <trkpt lat="44.21486" lon="2.14067">
        <ele>596</ele>
        <time>2016-10-23T12:32:17Z</time>
      </trkpt>
      <trkpt lat="44.21485" lon="2.14067">
        <ele>596</ele>
        <time>2016-10-23T12:32:22Z</time>
      </trkpt>
      <trkpt lat="44.21485" lon="2.14067">
        <ele>596</ele>
        <time>2016-10-23T12:32:27Z</time>
      </trkpt>
      <trkpt lat="44.21486" lon="2.14067">
        <ele>596</ele>
        <time>2016-10-23T12:32:32Z</time>
      </trkpt>
      <trkpt lat="44.21486" lon="2.14067">
        <ele>596</ele>
        <time>2016-10-23T12:32:37Z</time>
      </trkpt>
      <trkpt lat="44.21486" lon="2.14067">
        <ele>596</ele>
        <time>2016-10-23T12:32:42Z</time>
      </trkpt>
      <trkpt lat="44.21486" lon="2.14067">
        <ele>596</ele>
        <time>2016-10-23T12:32:47Z</time>
      </trkpt>
      <trkpt lat="44.21486" lon="2.14067">
        <ele>596</ele>
        <time>2016-10-23T12:32:52Z</time>
      </trkpt>
      <trkpt lat="44.21486" lon="2.14069">
        <ele>596</ele>
        <time>2016-10-23T12:32:57Z</time>
      </trkpt>
      <trkpt lat="44.21484" lon="2.14076">
        <ele>596</ele>
        <time>2016-10-23T12:33:02Z</time>
      </trkpt>
      <trkpt lat="44.21482" lon="2.14082">
        <ele>596</ele>
        <time>2016-10-23T12:33:07Z</time>
      </trkpt>
      <trkpt lat="44.21482" lon="2.14088">
        <ele>596</ele>
        <time>2016-10-23T12:33:12Z</time>
      </trkpt>
      <trkpt lat="44.21481" lon="2.14096">
        <ele>596</ele>
        <time>2016-10-23T12:33:17Z</time>
      </trkpt>
      <trkpt lat="44.21481" lon="2.14103">
        <ele>596</ele>
        <time>2016-10-23T12:33:22Z</time>
      </trkpt>
      <trkpt lat="44.2148" lon="2.1411">
        <ele>596</ele>
        <time>2016-10-23T12:33:27Z</time>
      </trkpt>
      <trkpt lat="44.21479" lon="2.14119">
        <ele>596</ele>
        <time>2016-10-23T12:33:32Z</time>
      </trkpt>
      <trkpt lat="44.21476" lon="2.14126">
        <ele>599</ele>
        <time>2016-10-23T12:33:37Z</time>
      </trkpt>
      <trkpt lat="44.21473" lon="2.14133">
        <ele>599</ele>
        <time>2016-10-23T12:33:42Z</time>
      </trkpt>
      <trkpt lat="44.21472" lon="2.14141">
        <ele>599</ele>
        <time>2016-10-23T12:33:47Z</time>
      </trkpt>
      <trkpt lat="44.21468" lon="2.14147">
        <ele>599</ele>
        <time>2016-10-23T12:33:52Z</time>
      </trkpt>
      <trkpt lat="44.21466" lon="2.14156">
        <ele>599</ele>
        <time>2016-10-23T12:33:57Z</time>
      </trkpt>
      <trkpt lat="44.21463" lon="2.14164">
        <ele>599</ele>
        <time>2016-10-23T12:34:02Z</time>
      </trkpt>
      <trkpt lat="44.2146" lon="2.14172">
        <ele>599</ele>
        <time>2016-10-23T12:34:07Z</time>
      </trkpt>
      <trkpt lat="44.21456" lon="2.14179">
        <ele>601</ele>
        <time>2016-10-23T12:34:12Z</time>
      </trkpt>
      <trkpt lat="44.21453" lon="2.14188">
        <ele>601</ele>
        <time>2016-10-23T12:34:17Z</time>
      </trkpt>
      <trkpt lat="44.21452" lon="2.14194">
        <ele>601</ele>
        <time>2016-10-23T12:34:22Z</time>
      </trkpt>
      <trkpt lat="44.2145" lon="2.14201">
        <ele>601</ele>
        <time>2016-10-23T12:34:27Z</time>
      </trkpt>
      <trkpt lat="44.21448" lon="2.14208">
        <ele>601</ele>
        <time>2016-10-23T12:34:32Z</time>
      </trkpt>
      <trkpt lat="44.21447" lon="2.14215">
        <ele>600</ele>
        <time>2016-10-23T12:34:37Z</time>
      </trkpt>
      <trkpt lat="44.21444" lon="2.14223">
        <ele>600</ele>
        <time>2016-10-23T12:34:42Z</time>
      </trkpt>
      <trkpt lat="44.21442" lon="2.14229">
        <ele>600</ele>
        <time>2016-10-23T12:34:47Z</time>
      </trkpt>
      <trkpt lat="44.21438" lon="2.14233">
        <ele>600</ele>
        <time>2016-10-23T12:34:52Z</time>
      </trkpt>
      <trkpt lat="44.21436" lon="2.14239">
        <ele>600</ele>
        <time>2016-10-23T12:34:57Z</time>
      </trkpt>
      <trkpt lat="44.21434" lon="2.14247">
        <ele>600</ele>
        <time>2016-10-23T12:35:02Z</time>
      </trkpt>
      <trkpt lat="44.21429" lon="2.14255">
        <ele>600</ele>
        <time>2016-10-23T12:35:07Z</time>
      </trkpt>
      <trkpt lat="44.21426" lon="2.14261">
        <ele>600</ele>
        <time>2016-10-23T12:35:12Z</time>
      </trkpt>
      <trkpt lat="44.21421" lon="2.14266">
        <ele>600</ele>
        <time>2016-10-23T12:35:17Z</time>
      </trkpt>
      <trkpt lat="44.21418" lon="2.14272">
        <ele>600</ele>
        <time>2016-10-23T12:35:22Z</time>
      </trkpt>
      <trkpt lat="44.21414" lon="2.14279">
        <ele>600</ele>
        <time>2016-10-23T12:35:27Z</time>
      </trkpt>
      <trkpt lat="44.2141" lon="2.14284">
        <ele>600</ele>
        <time>2016-10-23T12:35:32Z</time>
      </trkpt>
      <trkpt lat="44.21405" lon="2.1429">
        <ele>600</ele>
        <time>2016-10-23T12:35:37Z</time>
      </trkpt>
      <trkpt lat="44.21399" lon="2.14296">
        <ele>591</ele>
        <time>2016-10-23T12:35:42Z</time>
      </trkpt>
      <trkpt lat="44.21393" lon="2.14303">
        <ele>591</ele>
        <time>2016-10-23T12:35:47Z</time>
      </trkpt>
      <trkpt lat="44.21388" lon="2.14308">
        <ele>591</ele>
        <time>2016-10-23T12:35:52Z</time>
      </trkpt>
      <trkpt lat="44.21384" lon="2.14314">
        <ele>591</ele>
        <time>2016-10-23T12:35:57Z</time>
      </trkpt>
      <trkpt lat="44.21379" lon="2.14317">
        <ele>591</ele>
        <time>2016-10-23T12:36:02Z</time>
      </trkpt>
      <trkpt lat="44.21375" lon="2.14322">
        <ele>599</ele>
        <time>2016-10-23T12:36:07Z</time>
      </trkpt>
      <trkpt lat="44.2137" lon="2.14327">
        <ele>599</ele>
        <time>2016-10-23T12:36:12Z</time>
      </trkpt>
      <trkpt lat="44.21364" lon="2.14332">
        <ele>599</ele>
        <time>2016-10-23T12:36:17Z</time>
      </trkpt>
      <trkpt lat="44.21359" lon="2.14337">
        <ele>599</ele>
        <time>2016-10-23T12:36:22Z</time>
      </trkpt>
      <trkpt lat="44.21353" lon="2.14342">
        <ele>599</ele>
        <time>2016-10-23T12:36:27Z</time>
      </trkpt>
      <trkpt lat="44.21348" lon="2.14347">
        <ele>599</ele>
        <time>2016-10-23T12:36:32Z</time>
      </trkpt>
      <trkpt lat="44.21342" lon="2.1435">
        <ele>599</ele>
        <time>2016-10-23T12:36:37Z</time>
      </trkpt>
      <trkpt lat="44.21336" lon="2.14355">
        <ele>599</ele>
        <time>2016-10-23T12:36:42Z</time>
      </trkpt>
      <trkpt lat="44.21332" lon="2.1436">
        <ele>599</ele>
        <time>2016-10-23T12:36:47Z</time>
      </trkpt>
      <trkpt lat="44.21327" lon="2.14363">
        <ele>599</ele>
        <time>2016-10-23T12:36:52Z</time>
      </trkpt>
      <trkpt lat="44.21323" lon="2.14367">
        <ele>599</ele>
        <time>2016-10-23T12:36:57Z</time>
      </trkpt>
      <trkpt lat="44.21317" lon="2.14372">
        <ele>599</ele>
        <time>2016-10-23T12:37:02Z</time>
      </trkpt>
      <trkpt lat="44.21312" lon="2.14373">
        <ele>599</ele>
        <time>2016-10-23T12:37:07Z</time>
      </trkpt>
      <trkpt lat="44.21311" lon="2.14376">
        <ele>582</ele>
        <time>2016-10-23T12:37:12Z</time>
      </trkpt>
      <trkpt lat="44.2131" lon="2.14376">
        <ele>582</ele>
        <time>2016-10-23T12:37:17Z</time>
      </trkpt>
      <trkpt lat="44.21309" lon="2.14376">
        <ele>582</ele>
        <time>2016-10-23T12:37:22Z</time>
      </trkpt>
      <trkpt lat="44.21309" lon="2.14376">
        <ele>582</ele>
        <time>2016-10-23T12:37:27Z</time>
      </trkpt>
      <trkpt lat="44.2131" lon="2.14383">
        <ele>582</ele>
        <time>2016-10-23T12:37:32Z</time>
      </trkpt>
      <trkpt lat="44.21312" lon="2.14381">
        <ele>582</ele>
        <time>2016-10-23T12:37:37Z</time>
      </trkpt>
      <trkpt lat="44.21315" lon="2.14384">
        <ele>582</ele>
        <time>2016-10-23T12:37:42Z</time>
      </trkpt>
      <trkpt lat="44.21312" lon="2.14385">
        <ele>582</ele>
        <time>2016-10-23T12:37:47Z</time>
      </trkpt>
      <trkpt lat="44.21311" lon="2.14385">
        <ele>582</ele>
        <time>2016-10-23T12:37:52Z</time>
      </trkpt>
      <trkpt lat="44.21311" lon="2.14385">
        <ele>582</ele>
        <time>2016-10-23T12:37:57Z</time>
      </trkpt>
      <trkpt lat="44.2131" lon="2.14385">
        <ele>582</ele>
        <time>2016-10-23T12:38:02Z</time>
      </trkpt>
      <trkpt lat="44.2131" lon="2.14385">
        <ele>582</ele>
        <time>2016-10-23T12:38:07Z</time>
      </trkpt>
      <trkpt lat="44.2131" lon="2.14385">
        <ele>582</ele>
        <time>2016-10-23T12:38:12Z</time>
      </trkpt>
      <trkpt lat="44.21311" lon="2.14385">
        <ele>582</ele>
        <time>2016-10-23T12:38:17Z</time>
      </trkpt>
      <trkpt lat="44.21312" lon="2.14387">
        <ele>582</ele>
        <time>2016-10-23T12:38:22Z</time>
      </trkpt>
      <trkpt lat="44.2131" lon="2.14385">
        <ele>582</ele>
        <time>2016-10-23T12:38:27Z</time>
      </trkpt>
      <trkpt lat="44.2131" lon="2.14384">
        <ele>582</ele>
        <time>2016-10-23T12:38:32Z</time>
      </trkpt>
      <trkpt lat="44.2131" lon="2.14383">
        <ele>582</ele>
        <time>2016-10-23T12:38:37Z</time>
      </trkpt>
      <trkpt lat="44.2131" lon="2.14383">
        <ele>582</ele>
        <time>2016-10-23T12:38:42Z</time>
      </trkpt>
      <trkpt lat="44.2131" lon="2.14383">
        <ele>582</ele>
        <time>2016-10-23T12:38:47Z</time>
      </trkpt>
      <trkpt lat="44.21311" lon="2.14382">
        <ele>582</ele>
        <time>2016-10-23T12:38:52Z</time>
      </trkpt>
      <trkpt lat="44.21311" lon="2.14382">
        <ele>582</ele>
        <time>2016-10-23T12:38:57Z</time>
      </trkpt>
      <trkpt lat="44.21311" lon="2.14382">
        <ele>582</ele>
        <time>2016-10-23T12:39:02Z</time>
      </trkpt>
      <trkpt lat="44.21311" lon="2.14382">
        <ele>582</ele>
        <time>2016-10-23T12:39:07Z</time>
      </trkpt>
      <trkpt lat="44.2131" lon="2.14382">
        <ele>582</ele>
        <time>2016-10-23T12:39:12Z</time>
      </trkpt>
      <trkpt lat="44.2131" lon="2.14381">
        <ele>582</ele>
        <time>2016-10-23T12:39:17Z</time>
      </trkpt>
      <trkpt lat="44.2131" lon="2.14381">
        <ele>582</ele>
        <time>2016-10-23T12:39:22Z</time>
      </trkpt>
      <trkpt lat="44.2131" lon="2.14381">
        <ele>582</ele>
        <time>2016-10-23T12:39:27Z</time>
      </trkpt>
      <trkpt lat="44.2131" lon="2.14381">
        <ele>582</ele>
        <time>2016-10-23T12:39:32Z</time>
      </trkpt>
      <trkpt lat="44.21309" lon="2.14383">
        <ele>582</ele>
        <time>2016-10-23T12:39:37Z</time>
      </trkpt>
      <trkpt lat="44.21309" lon="2.14384">
        <ele>582</ele>
        <time>2016-10-23T12:39:42Z</time>
      </trkpt>
      <trkpt lat="44.21309" lon="2.14384">
        <ele>582</ele>
        <time>2016-10-23T12:39:47Z</time>
      </trkpt>
      <trkpt lat="44.21309" lon="2.14384">
        <ele>582</ele>
        <time>2016-10-23T12:39:52Z</time>
      </trkpt>
      <trkpt lat="44.21309" lon="2.14384">
        <ele>582</ele>
        <time>2016-10-23T12:39:57Z</time>
      </trkpt>
      <trkpt lat="44.2131" lon="2.14381">
        <ele>582</ele>
        <time>2016-10-23T12:40:02Z</time>
      </trkpt>
      <trkpt lat="44.21312" lon="2.14377">
        <ele>582</ele>
        <time>2016-10-23T12:40:07Z</time>
      </trkpt>
      <trkpt lat="44.21313" lon="2.14375">
        <ele>599</ele>
        <time>2016-10-23T12:40:12Z</time>
      </trkpt>
      <trkpt lat="44.21318" lon="2.14371">
        <ele>599</ele>
        <time>2016-10-23T12:40:17Z</time>
      </trkpt>
      <trkpt lat="44.21323" lon="2.14368">
        <ele>599</ele>
        <time>2016-10-23T12:40:22Z</time>
      </trkpt>
      <trkpt lat="44.21326" lon="2.14366">
        <ele>599</ele>
        <time>2016-10-23T12:40:27Z</time>
      </trkpt>
      <trkpt lat="44.21328" lon="2.14366">
        <ele>599</ele>
        <time>2016-10-23T12:40:32Z</time>
      </trkpt>
      <trkpt lat="44.21334" lon="2.14362">
        <ele>599</ele>
        <time>2016-10-23T12:40:37Z</time>
      </trkpt>
      <trkpt lat="44.21341" lon="2.14356">
        <ele>599</ele>
        <time>2016-10-23T12:40:42Z</time>
      </trkpt>
      <trkpt lat="44.21348" lon="2.1435">
        <ele>599</ele>
        <time>2016-10-23T12:40:47Z</time>
      </trkpt>
      <trkpt lat="44.21354" lon="2.14345">
        <ele>599</ele>
        <time>2016-10-23T12:40:52Z</time>
      </trkpt>
      <trkpt lat="44.21359" lon="2.1434">
        <ele>599</ele>
        <time>2016-10-23T12:40:57Z</time>
      </trkpt>
      <trkpt lat="44.21364" lon="2.14333">
        <ele>599</ele>
        <time>2016-10-23T12:41:02Z</time>
      </trkpt>
      <trkpt lat="44.21368" lon="2.14328">
        <ele>599</ele>
        <time>2016-10-23T12:41:07Z</time>
      </trkpt>
      <trkpt lat="44.21372" lon="2.14323">
        <ele>599</ele>
        <time>2016-10-23T12:41:12Z</time>
      </trkpt>
      <trkpt lat="44.21378" lon="2.14316">
        <ele>591</ele>
        <time>2016-10-23T12:41:17Z</time>
      </trkpt>
      <trkpt lat="44.21384" lon="2.1431">
        <ele>591</ele>
        <time>2016-10-23T12:41:22Z</time>
      </trkpt>
      <trkpt lat="44.21389" lon="2.14306">
        <ele>591</ele>
        <time>2016-10-23T12:41:27Z</time>
      </trkpt>
      <trkpt lat="44.21395" lon="2.14302">
        <ele>591</ele>
        <time>2016-10-23T12:41:32Z</time>
      </trkpt>
      <trkpt lat="44.21401" lon="2.14295">
        <ele>591</ele>
        <time>2016-10-23T12:41:37Z</time>
      </trkpt>
      <trkpt lat="44.21405" lon="2.14288">
        <ele>600</ele>
        <time>2016-10-23T12:41:42Z</time>
      </trkpt>
      <trkpt lat="44.2141" lon="2.14284">
        <ele>600</ele>
        <time>2016-10-23T12:41:47Z</time>
      </trkpt>
      <trkpt lat="44.21414" lon="2.14281">
        <ele>600</ele>
        <time>2016-10-23T12:41:52Z</time>
      </trkpt>
      <trkpt lat="44.21417" lon="2.14277">
        <ele>600</ele>
        <time>2016-10-23T12:41:57Z</time>
      </trkpt>
      <trkpt lat="44.21419" lon="2.14274">
        <ele>600</ele>
        <time>2016-10-23T12:42:02Z</time>
      </trkpt>
      <trkpt lat="44.21422" lon="2.14269">
        <ele>600</ele>
        <time>2016-10-23T12:42:07Z</time>
      </trkpt>
      <trkpt lat="44.21426" lon="2.14262">
        <ele>600</ele>
        <time>2016-10-23T12:42:12Z</time>
      </trkpt>
      <trkpt lat="44.21429" lon="2.14255">
        <ele>600</ele>
        <time>2016-10-23T12:42:17Z</time>
      </trkpt>
      <trkpt lat="44.21431" lon="2.1425">
        <ele>600</ele>
        <time>2016-10-23T12:42:22Z</time>
      </trkpt>
      <trkpt lat="44.21434" lon="2.14244">
        <ele>600</ele>
        <time>2016-10-23T12:42:27Z</time>
      </trkpt>
      <trkpt lat="44.21438" lon="2.14237">
        <ele>600</ele>
        <time>2016-10-23T12:42:32Z</time>
      </trkpt>
      <trkpt lat="44.21441" lon="2.14231">
        <ele>600</ele>
        <time>2016-10-23T12:42:37Z</time>
      </trkpt>
      <trkpt lat="44.21445" lon="2.14224">
        <ele>600</ele>
        <time>2016-10-23T12:42:42Z</time>
      </trkpt>
      <trkpt lat="44.21449" lon="2.14216">
        <ele>600</ele>
        <time>2016-10-23T12:42:47Z</time>
      </trkpt>
      <trkpt lat="44.21453" lon="2.14209">
        <ele>600</ele>
        <time>2016-10-23T12:42:52Z</time>
      </trkpt>
      <trkpt lat="44.21456" lon="2.14201">
        <ele>601</ele>
        <time>2016-10-23T12:42:57Z</time>
      </trkpt>
      <trkpt lat="44.21457" lon="2.14193">
        <ele>601</ele>
        <time>2016-10-23T12:43:02Z</time>
      </trkpt>
      <trkpt lat="44.2146" lon="2.14185">
        <ele>599</ele>
        <time>2016-10-23T12:43:07Z</time>
      </trkpt>
      <trkpt lat="44.21462" lon="2.14177">
        <ele>599</ele>
        <time>2016-10-23T12:43:12Z</time>
      </trkpt>
      <trkpt lat="44.21464" lon="2.1417">
        <ele>599</ele>
        <time>2016-10-23T12:43:17Z</time>
      </trkpt>
      <trkpt lat="44.21465" lon="2.14162">
        <ele>599</ele>
        <time>2016-10-23T12:43:22Z</time>
      </trkpt>
      <trkpt lat="44.21467" lon="2.14155">
        <ele>599</ele>
        <time>2016-10-23T12:43:27Z</time>
      </trkpt>
      <trkpt lat="44.21468" lon="2.14148">
        <ele>599</ele>
        <time>2016-10-23T12:43:32Z</time>
      </trkpt>
      <trkpt lat="44.2147" lon="2.14141">
        <ele>599</ele>
        <time>2016-10-23T12:43:37Z</time>
      </trkpt>
      <trkpt lat="44.21473" lon="2.14134">
        <ele>599</ele>
        <time>2016-10-23T12:43:42Z</time>
      </trkpt>
      <trkpt lat="44.21475" lon="2.14126">
        <ele>599</ele>
        <time>2016-10-23T12:43:47Z</time>
      </trkpt>
      <trkpt lat="44.21476" lon="2.14119">
        <ele>596</ele>
        <time>2016-10-23T12:43:52Z</time>
      </trkpt>
      <trkpt lat="44.21477" lon="2.14112">
        <ele>596</ele>
        <time>2016-10-23T12:43:57Z</time>
      </trkpt>
      <trkpt lat="44.21479" lon="2.14105">
        <ele>596</ele>
        <time>2016-10-23T12:44:02Z</time>
      </trkpt>
      <trkpt lat="44.2148" lon="2.14098">
        <ele>596</ele>
        <time>2016-10-23T12:44:07Z</time>
      </trkpt>
      <trkpt lat="44.21481" lon="2.1409">
        <ele>596</ele>
        <time>2016-10-23T12:44:12Z</time>
      </trkpt>
      <trkpt lat="44.21481" lon="2.14083">
        <ele>596</ele>
        <time>2016-10-23T12:44:17Z</time>
      </trkpt>
      <trkpt lat="44.21484" lon="2.14077">
        <ele>596</ele>
        <time>2016-10-23T12:44:22Z</time>
      </trkpt>
      <trkpt lat="44.21489" lon="2.14076">
        <ele>596</ele>
        <time>2016-10-23T12:44:27Z</time>
      </trkpt>
      <trkpt lat="44.21492" lon="2.1408">
        <ele>596</ele>
        <time>2016-10-23T12:44:32Z</time>
      </trkpt>
      <trkpt lat="44.21496" lon="2.14086">
        <ele>596</ele>
        <time>2016-10-23T12:44:37Z</time>
      </trkpt>
      <trkpt lat="44.21501" lon="2.1409">
        <ele>596</ele>
        <time>2016-10-23T12:44:42Z</time>
      </trkpt>
      <trkpt lat="44.21506" lon="2.14094">
        <ele>596</ele>
        <time>2016-10-23T12:44:47Z</time>
      </trkpt>
      <trkpt lat="44.2151" lon="2.14097">
        <ele>596</ele>
        <time>2016-10-23T12:44:52Z</time>
      </trkpt>
      <trkpt lat="44.21515" lon="2.141">
        <ele>596</ele>
        <time>2016-10-23T12:44:57Z</time>
      </trkpt>
      <trkpt lat="44.21521" lon="2.14104">
        <ele>596</ele>
        <time>2016-10-23T12:45:02Z</time>
      </trkpt>
      <trkpt lat="44.21527" lon="2.14107">
        <ele>596</ele>
        <time>2016-10-23T12:45:07Z</time>
      </trkpt>
      <trkpt lat="44.21533" lon="2.14109">
        <ele>596</ele>
        <time>2016-10-23T12:45:12Z</time>
      </trkpt>
      <trkpt lat="44.2154" lon="2.14112">
        <ele>596</ele>
        <time>2016-10-23T12:45:17Z</time>
      </trkpt>
      <trkpt lat="44.21545" lon="2.14116">
        <ele>595</ele>
        <time>2016-10-23T12:45:22Z</time>
      </trkpt>
      <trkpt lat="44.2155" lon="2.14118">
        <ele>595</ele>
        <time>2016-10-23T12:45:27Z</time>
      </trkpt>
      <trkpt lat="44.21554" lon="2.1412">
        <ele>595</ele>
        <time>2016-10-23T12:45:32Z</time>
      </trkpt>
      <trkpt lat="44.21559" lon="2.14123">
        <ele>595</ele>
        <time>2016-10-23T12:45:37Z</time>
      </trkpt>
      <trkpt lat="44.21564" lon="2.14125">
        <ele>602</ele>
        <time>2016-10-23T12:45:42Z</time>
      </trkpt>
      <trkpt lat="44.21568" lon="2.14128">
        <ele>602</ele>
        <time>2016-10-23T12:45:47Z</time>
      </trkpt>
      <trkpt lat="44.21574" lon="2.1413">
        <ele>602</ele>
        <time>2016-10-23T12:45:52Z</time>
      </trkpt>
      <trkpt lat="44.21578" lon="2.14132">
        <ele>602</ele>
        <time>2016-10-23T12:45:57Z</time>
      </trkpt>
      <trkpt lat="44.21583" lon="2.14135">
        <ele>602</ele>
        <time>2016-10-23T12:46:02Z</time>
      </trkpt>
      <trkpt lat="44.21588" lon="2.14138">
        <ele>602</ele>
        <time>2016-10-23T12:46:07Z</time>
      </trkpt>
      <trkpt lat="44.21592" lon="2.14141">
        <ele>602</ele>
        <time>2016-10-23T12:46:12Z</time>
      </trkpt>
      <trkpt lat="44.21599" lon="2.14144">
        <ele>602</ele>
        <time>2016-10-23T12:46:17Z</time>
      </trkpt>
      <trkpt lat="44.21604" lon="2.14146">
        <ele>602</ele>
        <time>2016-10-23T12:46:22Z</time>
      </trkpt>
      <trkpt lat="44.2161" lon="2.14149">
        <ele>602</ele>
        <time>2016-10-23T12:46:27Z</time>
      </trkpt>
      <trkpt lat="44.21615" lon="2.14153">
        <ele>602</ele>
        <time>2016-10-23T12:46:32Z</time>
      </trkpt>
      <trkpt lat="44.2162" lon="2.14154">
        <ele>602</ele>
        <time>2016-10-23T12:46:37Z</time>
      </trkpt>
      <trkpt lat="44.21624" lon="2.14158">
        <ele>602</ele>
        <time>2016-10-23T12:46:42Z</time>
      </trkpt>
      <trkpt lat="44.21629" lon="2.14161">
        <ele>602</ele>
        <time>2016-10-23T12:46:47Z</time>
      </trkpt>
      <trkpt lat="44.21635" lon="2.14165">
        <ele>602</ele>
        <time>2016-10-23T12:46:52Z</time>
      </trkpt>
      <trkpt lat="44.21639" lon="2.14169">
        <ele>602</ele>
        <time>2016-10-23T12:46:57Z</time>
      </trkpt>
      <trkpt lat="44.21644" lon="2.14174">
        <ele>602</ele>
        <time>2016-10-23T12:47:02Z</time>
      </trkpt>
      <trkpt lat="44.21649" lon="2.14179">
        <ele>602</ele>
        <time>2016-10-23T12:47:07Z</time>
      </trkpt>
      <trkpt lat="44.21652" lon="2.14184">
        <ele>602</ele>
        <time>2016-10-23T12:47:12Z</time>
      </trkpt>
      <trkpt lat="44.21655" lon="2.14189">
        <ele>602</ele>
        <time>2016-10-23T12:47:17Z</time>
      </trkpt>
      <trkpt lat="44.21658" lon="2.14196">
        <ele>602</ele>
        <time>2016-10-23T12:47:22Z</time>
      </trkpt>
      <trkpt lat="44.21661" lon="2.14202">
        <ele>602</ele>
        <time>2016-10-23T12:47:27Z</time>
      </trkpt>
      <trkpt lat="44.21664" lon="2.14206">
        <ele>602</ele>
        <time>2016-10-23T12:47:32Z</time>
      </trkpt>
      <trkpt lat="44.21668" lon="2.14211">
        <ele>609</ele>
        <time>2016-10-23T12:47:37Z</time>
      </trkpt>
      <trkpt lat="44.21671" lon="2.14215">
        <ele>609</ele>
        <time>2016-10-23T12:47:42Z</time>
      </trkpt>
      <trkpt lat="44.21675" lon="2.1422">
        <ele>609</ele>
        <time>2016-10-23T12:47:47Z</time>
      </trkpt>
      <trkpt lat="44.21679" lon="2.14224">
        <ele>609</ele>
        <time>2016-10-23T12:47:52Z</time>
      </trkpt>
      <trkpt lat="44.21682" lon="2.14229">
        <ele>609</ele>
        <time>2016-10-23T12:47:57Z</time>
      </trkpt>
      <trkpt lat="44.21687" lon="2.14235">
        <ele>609</ele>
        <time>2016-10-23T12:48:02Z</time>
      </trkpt>
      <trkpt lat="44.21691" lon="2.14241">
        <ele>609</ele>
        <time>2016-10-23T12:48:07Z</time>
      </trkpt>
      <trkpt lat="44.21694" lon="2.14246">
        <ele>609</ele>
        <time>2016-10-23T12:48:12Z</time>
      </trkpt>
      <trkpt lat="44.21698" lon="2.14249">
        <ele>609</ele>
        <time>2016-10-23T12:48:17Z</time>
      </trkpt>
      <trkpt lat="44.21703" lon="2.14255">
        <ele>609</ele>
        <time>2016-10-23T12:48:22Z</time>
      </trkpt>
      <trkpt lat="44.21708" lon="2.14259">
        <ele>609</ele>
        <time>2016-10-23T12:48:27Z</time>
      </trkpt>
      <trkpt lat="44.21711" lon="2.14265">
        <ele>606</ele>
        <time>2016-10-23T12:48:32Z</time>
      </trkpt>
      <trkpt lat="44.21715" lon="2.14271">
        <ele>606</ele>
        <time>2016-10-23T12:48:37Z</time>
      </trkpt>
      <trkpt lat="44.21719" lon="2.14277">
        <ele>606</ele>
        <time>2016-10-23T12:48:42Z</time>
      </trkpt>
      <trkpt lat="44.21722" lon="2.14282">
        <ele>606</ele>
        <time>2016-10-23T12:48:47Z</time>
      </trkpt>
      <trkpt lat="44.21726" lon="2.14289">
        <ele>606</ele>
        <time>2016-10-23T12:48:52Z</time>
      </trkpt>
      <trkpt lat="44.21728" lon="2.14294">
        <ele>610</ele>
        <time>2016-10-23T12:48:57Z</time>
      </trkpt>
      <trkpt lat="44.21732" lon="2.143">
        <ele>610</ele>
        <time>2016-10-23T12:49:02Z</time>
      </trkpt>
      <trkpt lat="44.21736" lon="2.14305">
        <ele>610</ele>
        <time>2016-10-23T12:49:07Z</time>
      </trkpt>
      <trkpt lat="44.2174" lon="2.14311">
        <ele>610</ele>
        <time>2016-10-23T12:49:12Z</time>
      </trkpt>
      <trkpt lat="44.21744" lon="2.14316">
        <ele>610</ele>
        <time>2016-10-23T12:49:17Z</time>
      </trkpt>
      <trkpt lat="44.21748" lon="2.14321">
        <ele>610</ele>
        <time>2016-10-23T12:49:22Z</time>
      </trkpt>
      <trkpt lat="44.21751" lon="2.14327">
        <ele>610</ele>
        <time>2016-10-23T12:49:27Z</time>
      </trkpt>
      <trkpt lat="44.21756" lon="2.14332">
        <ele>610</ele>
        <time>2016-10-23T12:49:32Z</time>
      </trkpt>
      <trkpt lat="44.2176" lon="2.14336">
        <ele>610</ele>
        <time>2016-10-23T12:49:37Z</time>
      </trkpt>
      <trkpt lat="44.21764" lon="2.14342">
        <ele>610</ele>
        <time>2016-10-23T12:49:42Z</time>
      </trkpt>
      <trkpt lat="44.21769" lon="2.14347">
        <ele>610</ele>
        <time>2016-10-23T12:49:47Z</time>
      </trkpt>
      <trkpt lat="44.21774" lon="2.14352">
        <ele>610</ele>
        <time>2016-10-23T12:49:52Z</time>
      </trkpt>
      <trkpt lat="44.21778" lon="2.14357">
        <ele>610</ele>
        <time>2016-10-23T12:49:57Z</time>
      </trkpt>
      <trkpt lat="44.21782" lon="2.14362">
        <ele>610</ele>
        <time>2016-10-23T12:50:02Z</time>
      </trkpt>
      <trkpt lat="44.21786" lon="2.14369">
        <ele>610</ele>
        <time>2016-10-23T12:50:07Z</time>
      </trkpt>
      <trkpt lat="44.21789" lon="2.14375">
        <ele>610</ele>
        <time>2016-10-23T12:50:12Z</time>
      </trkpt>
      <trkpt lat="44.21793" lon="2.14379">
        <ele>610</ele>
        <time>2016-10-23T12:50:17Z</time>
      </trkpt>
      <trkpt lat="44.21797" lon="2.14385">
        <ele>610</ele>
        <time>2016-10-23T12:50:22Z</time>
      </trkpt>
      <trkpt lat="44.21796" lon="2.14392">
        <ele>610</ele>
        <time>2016-10-23T12:50:27Z</time>
      </trkpt>
      <trkpt lat="44.21793" lon="2.14397">
        <ele>610</ele>
        <time>2016-10-23T12:50:32Z</time>
      </trkpt>
      <trkpt lat="44.21789" lon="2.14404">
        <ele>613</ele>
        <time>2016-10-23T12:50:37Z</time>
      </trkpt>
      <trkpt lat="44.21785" lon="2.14409">
        <ele>613</ele>
        <time>2016-10-23T12:50:42Z</time>
      </trkpt>
      <trkpt lat="44.21781" lon="2.14415">
        <ele>613</ele>
        <time>2016-10-23T12:50:47Z</time>
      </trkpt>
      <trkpt lat="44.21778" lon="2.14421">
        <ele>613</ele>
        <time>2016-10-23T12:50:52Z</time>
      </trkpt>
      <trkpt lat="44.21774" lon="2.14427">
        <ele>613</ele>
        <time>2016-10-23T12:50:57Z</time>
      </trkpt>
      <trkpt lat="44.2177" lon="2.14432">
        <ele>613</ele>
        <time>2016-10-23T12:51:02Z</time>
      </trkpt>
      <trkpt lat="44.21766" lon="2.14437">
        <ele>613</ele>
        <time>2016-10-23T12:51:07Z</time>
      </trkpt>
      <trkpt lat="44.21764" lon="2.14443">
        <ele>613</ele>
        <time>2016-10-23T12:51:12Z</time>
      </trkpt>
      <trkpt lat="44.21763" lon="2.14448">
        <ele>613</ele>
        <time>2016-10-23T12:51:17Z</time>
      </trkpt>
      <trkpt lat="44.2176" lon="2.14452">
        <ele>613</ele>
        <time>2016-10-23T12:51:22Z</time>
      </trkpt>
      <trkpt lat="44.21757" lon="2.14457">
        <ele>613</ele>
        <time>2016-10-23T12:51:27Z</time>
      </trkpt>
      <trkpt lat="44.21753" lon="2.14462">
        <ele>618</ele>
        <time>2016-10-23T12:51:32Z</time>
      </trkpt>
      <trkpt lat="44.21749" lon="2.14468">
        <ele>618</ele>
        <time>2016-10-23T12:51:37Z</time>
      </trkpt>
      <trkpt lat="44.21747" lon="2.1447">
        <ele>618</ele>
        <time>2016-10-23T12:51:42Z</time>
      </trkpt>
      <trkpt lat="44.21744" lon="2.14476">
        <ele>618</ele>
        <time>2016-10-23T12:51:47Z</time>
      </trkpt>
      <trkpt lat="44.21741" lon="2.14482">
        <ele>618</ele>
        <time>2016-10-23T12:51:52Z</time>
      </trkpt>
      <trkpt lat="44.21739" lon="2.14486">
        <ele>618</ele>
        <time>2016-10-23T12:51:57Z</time>
      </trkpt>
      <trkpt lat="44.21735" lon="2.14491">
        <ele>618</ele>
        <time>2016-10-23T12:52:02Z</time>
      </trkpt>
      <trkpt lat="44.21732" lon="2.14496">
        <ele>618</ele>
        <time>2016-10-23T12:52:07Z</time>
      </trkpt>
      <trkpt lat="44.21729" lon="2.145">
        <ele>618</ele>
        <time>2016-10-23T12:52:12Z</time>
      </trkpt>
      <trkpt lat="44.21727" lon="2.14505">
        <ele>618</ele>
        <time>2016-10-23T12:52:17Z</time>
      </trkpt>
      <trkpt lat="44.21725" lon="2.1451">
        <ele>618</ele>
        <time>2016-10-23T12:52:22Z</time>
      </trkpt>
      <trkpt lat="44.21723" lon="2.14512">
        <ele>618</ele>
        <time>2016-10-23T12:52:27Z</time>
      </trkpt>
      <trkpt lat="44.21722" lon="2.14513">
        <ele>618</ele>
        <time>2016-10-23T12:52:32Z</time>
      </trkpt>
      <trkpt lat="44.21721" lon="2.14513">
        <ele>618</ele>
        <time>2016-10-23T12:52:37Z</time>
      </trkpt>
      <trkpt lat="44.2172" lon="2.14512">
        <ele>618</ele>
        <time>2016-10-23T12:52:42Z</time>
      </trkpt>
      <trkpt lat="44.2172" lon="2.14515">
        <ele>618</ele>
        <time>2016-10-23T12:52:47Z</time>
      </trkpt>
      <trkpt lat="44.21718" lon="2.14518">
        <ele>618</ele>
        <time>2016-10-23T12:52:52Z</time>
      </trkpt>
      <trkpt lat="44.21718" lon="2.1452">
        <ele>618</ele>
        <time>2016-10-23T12:52:57Z</time>
      </trkpt>
      <trkpt lat="44.21716" lon="2.14522">
        <ele>618</ele>
        <time>2016-10-23T12:53:02Z</time>
      </trkpt>
      <trkpt lat="44.21716" lon="2.14522">
        <ele>618</ele>
        <time>2016-10-23T12:53:07Z</time>
      </trkpt>
      <trkpt lat="44.21716" lon="2.14522">
        <ele>618</ele>
        <time>2016-10-23T12:53:12Z</time>
      </trkpt>
      <trkpt lat="44.21717" lon="2.14523">
        <ele>618</ele>
        <time>2016-10-23T12:53:17Z</time>
      </trkpt>
      <trkpt lat="44.21717" lon="2.14523">
        <ele>618</ele>
        <time>2016-10-23T12:53:22Z</time>
      </trkpt>
      <trkpt lat="44.21718" lon="2.14524">
        <ele>618</ele>
        <time>2016-10-23T12:53:27Z</time>
      </trkpt>
      <trkpt lat="44.21717" lon="2.14526">
        <ele>618</ele>
        <time>2016-10-23T12:53:32Z</time>
      </trkpt>
      <trkpt lat="44.21717" lon="2.14526">
        <ele>618</ele>
        <time>2016-10-23T12:53:37Z</time>
      </trkpt>
      <trkpt lat="44.21718" lon="2.14527">
        <ele>618</ele>
        <time>2016-10-23T12:53:42Z</time>
      </trkpt>
      <trkpt lat="44.21717" lon="2.14528">
        <ele>618</ele>
        <time>2016-10-23T12:53:47Z</time>
      </trkpt>
      <trkpt lat="44.21717" lon="2.14528">
        <ele>618</ele>
        <time>2016-10-23T12:53:52Z</time>
      </trkpt>
      <trkpt lat="44.21717" lon="2.14528">
        <ele>618</ele>
        <time>2016-10-23T12:53:57Z</time>
      </trkpt>
      <trkpt lat="44.21717" lon="2.14527">
        <ele>618</ele>
        <time>2016-10-23T12:54:02Z</time>
      </trkpt>
      <trkpt lat="44.21717" lon="2.14528">
        <ele>618</ele>
        <time>2016-10-23T12:54:07Z</time>
      </trkpt>
      <trkpt lat="44.21716" lon="2.14528">
        <ele>618</ele>
        <time>2016-10-23T12:54:12Z</time>
      </trkpt>
      <trkpt lat="44.21716" lon="2.14529">
        <ele>618</ele>
        <time>2016-10-23T12:54:17Z</time>
      </trkpt>
      <trkpt lat="44.21715" lon="2.1453">
        <ele>618</ele>
        <time>2016-10-23T12:54:22Z</time>
      </trkpt>
      <trkpt lat="44.21715" lon="2.1453">
        <ele>618</ele>
        <time>2016-10-23T12:54:27Z</time>
      </trkpt>
      <trkpt lat="44.21715" lon="2.1453">
        <ele>618</ele>
        <time>2016-10-23T12:54:32Z</time>
      </trkpt>
      <trkpt lat="44.21715" lon="2.1453">
        <ele>618</ele>
        <time>2016-10-23T12:54:37Z</time>
      </trkpt>
      <trkpt lat="44.21715" lon="2.1453">
        <ele>618</ele>
        <time>2016-10-23T12:54:42Z</time>
      </trkpt>
      <trkpt lat="44.21715" lon="2.1453">
        <ele>618</ele>
        <time>2016-10-23T12:54:47Z</time>
      </trkpt>
      <trkpt lat="44.21714" lon="2.1453">
        <ele>618</ele>
        <time>2016-10-23T12:54:52Z</time>
      </trkpt>
      <trkpt lat="44.21714" lon="2.14531">
        <ele>618</ele>
        <time>2016-10-23T12:54:57Z</time>
      </trkpt>
      <trkpt lat="44.21714" lon="2.14531">
        <ele>618</ele>
        <time>2016-10-23T12:55:02Z</time>
      </trkpt>
      <trkpt lat="44.21714" lon="2.14531">
        <ele>618</ele>
        <time>2016-10-23T12:55:07Z</time>
      </trkpt>
      <trkpt lat="44.21714" lon="2.14531">
        <ele>618</ele>
        <time>2016-10-23T12:55:12Z</time>
      </trkpt>
      <trkpt lat="44.21714" lon="2.14531">
        <ele>618</ele>
        <time>2016-10-23T12:55:17Z</time>
      </trkpt>
      <trkpt lat="44.21714" lon="2.14531">
        <ele>618</ele>
        <time>2016-10-23T12:55:22Z</time>
      </trkpt>
      <trkpt lat="44.21714" lon="2.1453">
        <ele>618</ele>
        <time>2016-10-23T12:55:27Z</time>
      </trkpt>
      <trkpt lat="44.21714" lon="2.14529">
        <ele>618</ele>
        <time>2016-10-23T12:55:32Z</time>
      </trkpt>
      <trkpt lat="44.21714" lon="2.14529">
        <ele>618</ele>
        <time>2016-10-23T12:55:37Z</time>
      </trkpt>
      <trkpt lat="44.21714" lon="2.14528">
        <ele>618</ele>
        <time>2016-10-23T12:55:42Z</time>
      </trkpt>
      <trkpt lat="44.21714" lon="2.14531">
        <ele>618</ele>
        <time>2016-10-23T12:55:47Z</time>
      </trkpt>
      <trkpt lat="44.21715" lon="2.1453">
        <ele>618</ele>
        <time>2016-10-23T12:55:52Z</time>
      </trkpt>
      <trkpt lat="44.21715" lon="2.1453">
        <ele>618</ele>
        <time>2016-10-23T12:55:57Z</time>
      </trkpt>
      <trkpt lat="44.21715" lon="2.14529">
        <ele>618</ele>
        <time>2016-10-23T12:56:02Z</time>
      </trkpt>
      <trkpt lat="44.21715" lon="2.1453">
        <ele>618</ele>
        <time>2016-10-23T12:56:07Z</time>
      </trkpt>
      <trkpt lat="44.21715" lon="2.1453">
        <ele>618</ele>
        <time>2016-10-23T12:56:12Z</time>
      </trkpt>
      <trkpt lat="44.21716" lon="2.14531">
        <ele>618</ele>
        <time>2016-10-23T12:56:17Z</time>
      </trkpt>
      <trkpt lat="44.21716" lon="2.14531">
        <ele>618</ele>
        <time>2016-10-23T12:56:22Z</time>
      </trkpt>
      <trkpt lat="44.21716" lon="2.14531">
        <ele>618</ele>
        <time>2016-10-23T12:56:27Z</time>
      </trkpt>
      <trkpt lat="44.21716" lon="2.14531">
        <ele>618</ele>
        <time>2016-10-23T12:56:32Z</time>
      </trkpt>
      <trkpt lat="44.21716" lon="2.14531">
        <ele>618</ele>
        <time>2016-10-23T12:56:37Z</time>
      </trkpt>
      <trkpt lat="44.21717" lon="2.14531">
        <ele>618</ele>
        <time>2016-10-23T12:56:42Z</time>
      </trkpt>
      <trkpt lat="44.21717" lon="2.14531">
        <ele>618</ele>
        <time>2016-10-23T12:56:47Z</time>
      </trkpt>
      <trkpt lat="44.21717" lon="2.1453">
        <ele>618</ele>
        <time>2016-10-23T12:56:52Z</time>
      </trkpt>
      <trkpt lat="44.21717" lon="2.1453">
        <ele>618</ele>
        <time>2016-10-23T12:56:57Z</time>
      </trkpt>
      <trkpt lat="44.21717" lon="2.1453">
        <ele>618</ele>
        <time>2016-10-23T12:57:02Z</time>
      </trkpt>
      <trkpt lat="44.21717" lon="2.1453">
        <ele>618</ele>
        <time>2016-10-23T12:57:07Z</time>
      </trkpt>
      <trkpt lat="44.21717" lon="2.1453">
        <ele>618</ele>
        <time>2016-10-23T12:57:12Z</time>
      </trkpt>
      <trkpt lat="44.21717" lon="2.1453">
        <ele>618</ele>
        <time>2016-10-23T12:57:17Z</time>
      </trkpt>
      <trkpt lat="44.21717" lon="2.1453">
        <ele>618</ele>
        <time>2016-10-23T12:57:22Z</time>
      </trkpt>
      <trkpt lat="44.21717" lon="2.1453">
        <ele>618</ele>
        <time>2016-10-23T12:57:27Z</time>
      </trkpt>
      <trkpt lat="44.21717" lon="2.1453">
        <ele>618</ele>
        <time>2016-10-23T12:57:32Z</time>
      </trkpt>
      <trkpt lat="44.21717" lon="2.14531">
        <ele>618</ele>
        <time>2016-10-23T12:57:37Z</time>
      </trkpt>
      <trkpt lat="44.21717" lon="2.14531">
        <ele>618</ele>
        <time>2016-10-23T12:57:42Z</time>
      </trkpt>
      <trkpt lat="44.21717" lon="2.14531">
        <ele>618</ele>
        <time>2016-10-23T12:57:47Z</time>
      </trkpt>
      <trkpt lat="44.21718" lon="2.14531">
        <ele>618</ele>
        <time>2016-10-23T12:57:52Z</time>
      </trkpt>
      <trkpt lat="44.21718" lon="2.1453">
        <ele>618</ele>
        <time>2016-10-23T12:57:57Z</time>
      </trkpt>
      <trkpt lat="44.21718" lon="2.1453">
        <ele>618</ele>
        <time>2016-10-23T12:58:02Z</time>
      </trkpt>
      <trkpt lat="44.21718" lon="2.14526">
        <ele>618</ele>
        <time>2016-10-23T12:58:07Z</time>
      </trkpt>
      <trkpt lat="44.21719" lon="2.14521">
        <ele>618</ele>
        <time>2016-10-23T12:58:12Z</time>
      </trkpt>
      <trkpt lat="44.21719" lon="2.14521">
        <ele>618</ele>
        <time>2016-10-23T12:58:17Z</time>
      </trkpt>
      <trkpt lat="44.21722" lon="2.14518">
        <ele>618</ele>
        <time>2016-10-23T12:58:22Z</time>
      </trkpt>
      <trkpt lat="44.21722" lon="2.14517">
        <ele>618</ele>
        <time>2016-10-23T12:58:27Z</time>
      </trkpt>
      <trkpt lat="44.21726" lon="2.14513">
        <ele>618</ele>
        <time>2016-10-23T12:58:32Z</time>
      </trkpt>
      <trkpt lat="44.21726" lon="2.14512">
        <ele>618</ele>
        <time>2016-10-23T12:58:37Z</time>
      </trkpt>
      <trkpt lat="44.21728" lon="2.14509">
        <ele>618</ele>
        <time>2016-10-23T12:58:42Z</time>
      </trkpt>
      <trkpt lat="44.21728" lon="2.14507">
        <ele>618</ele>
        <time>2016-10-23T12:58:47Z</time>
      </trkpt>
      <trkpt lat="44.2173" lon="2.14503">
        <ele>618</ele>
        <time>2016-10-23T12:58:52Z</time>
      </trkpt>
      <trkpt lat="44.21733" lon="2.14499">
        <ele>618</ele>
        <time>2016-10-23T12:58:57Z</time>
      </trkpt>
      <trkpt lat="44.21734" lon="2.14498">
        <ele>618</ele>
        <time>2016-10-23T12:59:02Z</time>
      </trkpt>
      <trkpt lat="44.21734" lon="2.14498">
        <ele>618</ele>
        <time>2016-10-23T12:59:07Z</time>
      </trkpt>
      <trkpt lat="44.21735" lon="2.14497">
        <ele>618</ele>
        <time>2016-10-23T12:59:12Z</time>
      </trkpt>
      <trkpt lat="44.21736" lon="2.14493">
        <ele>618</ele>
        <time>2016-10-23T12:59:17Z</time>
      </trkpt>
      <trkpt lat="44.21736" lon="2.14493">
        <ele>618</ele>
        <time>2016-10-23T12:59:22Z</time>
      </trkpt>
      <trkpt lat="44.21737" lon="2.14492">
        <ele>618</ele>
        <time>2016-10-23T12:59:27Z</time>
      </trkpt>
      <trkpt lat="44.21737" lon="2.14492">
        <ele>618</ele>
        <time>2016-10-23T12:59:32Z</time>
      </trkpt>
      <trkpt lat="44.21737" lon="2.14492">
        <ele>618</ele>
        <time>2016-10-23T12:59:37Z</time>
      </trkpt>
      <trkpt lat="44.21738" lon="2.14492">
        <ele>618</ele>
        <time>2016-10-23T12:59:42Z</time>
      </trkpt>
      <trkpt lat="44.21738" lon="2.14492">
        <ele>618</ele>
        <time>2016-10-23T12:59:47Z</time>
      </trkpt>
      <trkpt lat="44.21738" lon="2.14492">
        <ele>618</ele>
        <time>2016-10-23T12:59:52Z</time>
      </trkpt>
      <trkpt lat="44.21738" lon="2.14492">
        <ele>618</ele>
        <time>2016-10-23T12:59:57Z</time>
      </trkpt>
      <trkpt lat="44.21738" lon="2.14492">
        <ele>618</ele>
        <time>2016-10-23T13:00:02Z</time>
      </trkpt>
      <trkpt lat="44.21738" lon="2.14492">
        <ele>618</ele>
        <time>2016-10-23T13:00:07Z</time>
      </trkpt>
      <trkpt lat="44.21738" lon="2.14491">
        <ele>618</ele>
        <time>2016-10-23T13:00:12Z</time>
      </trkpt>
      <trkpt lat="44.21738" lon="2.14492">
        <ele>618</ele>
        <time>2016-10-23T13:00:17Z</time>
      </trkpt>
      <trkpt lat="44.21738" lon="2.14492">
        <ele>618</ele>
        <time>2016-10-23T13:00:22Z</time>
      </trkpt>
      <trkpt lat="44.21738" lon="2.14492">
        <ele>618</ele>
        <time>2016-10-23T13:00:27Z</time>
      </trkpt>
      <trkpt lat="44.21739" lon="2.14491">
        <ele>618</ele>
        <time>2016-10-23T13:00:32Z</time>
      </trkpt>
      <trkpt lat="44.21739" lon="2.1449">
        <ele>618</ele>
        <time>2016-10-23T13:00:37Z</time>
      </trkpt>
      <trkpt lat="44.21739" lon="2.1449">
        <ele>618</ele>
        <time>2016-10-23T13:00:42Z</time>
      </trkpt>
      <trkpt lat="44.21739" lon="2.14489">
        <ele>618</ele>
        <time>2016-10-23T13:00:47Z</time>
      </trkpt>
      <trkpt lat="44.21739" lon="2.14489">
        <ele>618</ele>
        <time>2016-10-23T13:00:52Z</time>
      </trkpt>
      <trkpt lat="44.2174" lon="2.14489">
        <ele>618</ele>
        <time>2016-10-23T13:00:57Z</time>
      </trkpt>
      <trkpt lat="44.2174" lon="2.14489">
        <ele>618</ele>
        <time>2016-10-23T13:01:02Z</time>
      </trkpt>
      <trkpt lat="44.2174" lon="2.14489">
        <ele>618</ele>
        <time>2016-10-23T13:01:07Z</time>
      </trkpt>
      <trkpt lat="44.2174" lon="2.14489">
        <ele>618</ele>
        <time>2016-10-23T13:01:12Z</time>
      </trkpt>
      <trkpt lat="44.2174" lon="2.14489">
        <ele>618</ele>
        <time>2016-10-23T13:01:17Z</time>
      </trkpt>
      <trkpt lat="44.2174" lon="2.14489">
        <ele>618</ele>
        <time>2016-10-23T13:01:22Z</time>
      </trkpt>
      <trkpt lat="44.2174" lon="2.14489">
        <ele>618</ele>
        <time>2016-10-23T13:01:27Z</time>
      </trkpt>
      <trkpt lat="44.21741" lon="2.14489">
        <ele>618</ele>
        <time>2016-10-23T13:01:32Z</time>
      </trkpt>
      <trkpt lat="44.21741" lon="2.14489">
        <ele>618</ele>
        <time>2016-10-23T13:01:37Z</time>
      </trkpt>
      <trkpt lat="44.21741" lon="2.14489">
        <ele>618</ele>
        <time>2016-10-23T13:01:42Z</time>
      </trkpt>
      <trkpt lat="44.21742" lon="2.14489">
        <ele>618</ele>
        <time>2016-10-23T13:01:47Z</time>
      </trkpt>
      <trkpt lat="44.21742" lon="2.14489">
        <ele>618</ele>
        <time>2016-10-23T13:01:52Z</time>
      </trkpt>
      <trkpt lat="44.21742" lon="2.14489">
        <ele>618</ele>
        <time>2016-10-23T13:01:57Z</time>
      </trkpt>
      <trkpt lat="44.21742" lon="2.14489">
        <ele>618</ele>
        <time>2016-10-23T13:02:02Z</time>
      </trkpt>
      <trkpt lat="44.21742" lon="2.1449">
        <ele>618</ele>
        <time>2016-10-23T13:02:07Z</time>
      </trkpt>
      <trkpt lat="44.21742" lon="2.1449">
        <ele>618</ele>
        <time>2016-10-23T13:02:12Z</time>
      </trkpt>
      <trkpt lat="44.21742" lon="2.14491">
        <ele>618</ele>
        <time>2016-10-23T13:02:17Z</time>
      </trkpt>
      <trkpt lat="44.21742" lon="2.14491">
        <ele>618</ele>
        <time>2016-10-23T13:02:22Z</time>
      </trkpt>
      <trkpt lat="44.21742" lon="2.14491">
        <ele>618</ele>
        <time>2016-10-23T13:02:27Z</time>
      </trkpt>
      <trkpt lat="44.21742" lon="2.14491">
        <ele>618</ele>
        <time>2016-10-23T13:02:32Z</time>
      </trkpt>
      <trkpt lat="44.21742" lon="2.1449">
        <ele>618</ele>
        <time>2016-10-23T13:02:37Z</time>
      </trkpt>
      <trkpt lat="44.21742" lon="2.1449">
        <ele>618</ele>
        <time>2016-10-23T13:02:42Z</time>
      </trkpt>
      <trkpt lat="44.21739" lon="2.14488">
        <ele>618</ele>
        <time>2016-10-23T13:02:47Z</time>
      </trkpt>
      <trkpt lat="44.21739" lon="2.14487">
        <ele>618</ele>
        <time>2016-10-23T13:02:52Z</time>
      </trkpt>
      <trkpt lat="44.21741" lon="2.14492">
        <ele>618</ele>
        <time>2016-10-23T13:02:57Z</time>
      </trkpt>
      <trkpt lat="44.21743" lon="2.14493">
        <ele>618</ele>
        <time>2016-10-23T13:03:02Z</time>
      </trkpt>
      <trkpt lat="44.21743" lon="2.14494">
        <ele>618</ele>
        <time>2016-10-23T13:03:07Z</time>
      </trkpt>
      <trkpt lat="44.21744" lon="2.14494">
        <ele>618</ele>
        <time>2016-10-23T13:03:12Z</time>
      </trkpt>
      <trkpt lat="44.21743" lon="2.14494">
        <ele>618</ele>
        <time>2016-10-23T13:03:17Z</time>
      </trkpt>
      <trkpt lat="44.21742" lon="2.14494">
        <ele>618</ele>
        <time>2016-10-23T13:03:22Z</time>
      </trkpt>
      <trkpt lat="44.21742" lon="2.14494">
        <ele>618</ele>
        <time>2016-10-23T13:03:27Z</time>
      </trkpt>
      <trkpt lat="44.21742" lon="2.14495">
        <ele>618</ele>
        <time>2016-10-23T13:03:32Z</time>
      </trkpt>
      <trkpt lat="44.21741" lon="2.14494">
        <ele>618</ele>
        <time>2016-10-23T13:03:37Z</time>
      </trkpt>
      <trkpt lat="44.2174" lon="2.14495">
        <ele>618</ele>
        <time>2016-10-23T13:03:42Z</time>
      </trkpt>
      <trkpt lat="44.2174" lon="2.14496">
        <ele>618</ele>
        <time>2016-10-23T13:03:47Z</time>
      </trkpt>
      <trkpt lat="44.2174" lon="2.14496">
        <ele>618</ele>
        <time>2016-10-23T13:03:52Z</time>
      </trkpt>
      <trkpt lat="44.21739" lon="2.14496">
        <ele>618</ele>
        <time>2016-10-23T13:03:57Z</time>
      </trkpt>
      <trkpt lat="44.21739" lon="2.14495">
        <ele>618</ele>
        <time>2016-10-23T13:04:02Z</time>
      </trkpt>
      <trkpt lat="44.21739" lon="2.14495">
        <ele>618</ele>
        <time>2016-10-23T13:04:07Z</time>
      </trkpt>
      <trkpt lat="44.2174" lon="2.14495">
        <ele>618</ele>
        <time>2016-10-23T13:04:12Z</time>
      </trkpt>
      <trkpt lat="44.2174" lon="2.14495">
        <ele>618</ele>
        <time>2016-10-23T13:04:17Z</time>
      </trkpt>
      <trkpt lat="44.2174" lon="2.14493">
        <ele>618</ele>
        <time>2016-10-23T13:04:22Z</time>
      </trkpt>
      <trkpt lat="44.21742" lon="2.14492">
        <ele>618</ele>
        <time>2016-10-23T13:04:27Z</time>
      </trkpt>
      <trkpt lat="44.21742" lon="2.14491">
        <ele>618</ele>
        <time>2016-10-23T13:04:32Z</time>
      </trkpt>
      <trkpt lat="44.21743" lon="2.1449">
        <ele>618</ele>
        <time>2016-10-23T13:04:37Z</time>
      </trkpt>
      <trkpt lat="44.21743" lon="2.1449">
        <ele>618</ele>
        <time>2016-10-23T13:04:42Z</time>
      </trkpt>
      <trkpt lat="44.21743" lon="2.14491">
        <ele>618</ele>
        <time>2016-10-23T13:04:47Z</time>
      </trkpt>
      <trkpt lat="44.21743" lon="2.14489">
        <ele>618</ele>
        <time>2016-10-23T13:04:52Z</time>
      </trkpt>
      <trkpt lat="44.21744" lon="2.14488">
        <ele>618</ele>
        <time>2016-10-23T13:04:57Z</time>
      </trkpt>
      <trkpt lat="44.21743" lon="2.14488">
        <ele>618</ele>
        <time>2016-10-23T13:05:02Z</time>
      </trkpt>
      <trkpt lat="44.21743" lon="2.14488">
        <ele>618</ele>
        <time>2016-10-23T13:05:07Z</time>
      </trkpt>
      <trkpt lat="44.21744" lon="2.14486">
        <ele>618</ele>
        <time>2016-10-23T13:05:12Z</time>
      </trkpt>
      <trkpt lat="44.21745" lon="2.14486">
        <ele>618</ele>
        <time>2016-10-23T13:05:17Z</time>
      </trkpt>
      <trkpt lat="44.21745" lon="2.14486">
        <ele>618</ele>
        <time>2016-10-23T13:05:22Z</time>
      </trkpt>
      <trkpt lat="44.21745" lon="2.14486">
        <ele>618</ele>
        <time>2016-10-23T13:05:27Z</time>
      </trkpt>
      <trkpt lat="44.21745" lon="2.14486">
        <ele>618</ele>
        <time>2016-10-23T13:05:32Z</time>
      </trkpt>
      <trkpt lat="44.21745" lon="2.14487">
        <ele>618</ele>
        <time>2016-10-23T13:05:37Z</time>
      </trkpt>
      <trkpt lat="44.21744" lon="2.14488">
        <ele>618</ele>
        <time>2016-10-23T13:05:42Z</time>
      </trkpt>
      <trkpt lat="44.21745" lon="2.14489">
        <ele>618</ele>
        <time>2016-10-23T13:05:47Z</time>
      </trkpt>
      <trkpt lat="44.21746" lon="2.1449">
        <ele>618</ele>
        <time>2016-10-23T13:05:52Z</time>
      </trkpt>
      <trkpt lat="44.21746" lon="2.14489">
        <ele>618</ele>
        <time>2016-10-23T13:05:57Z</time>
      </trkpt>
      <trkpt lat="44.21746" lon="2.14489">
        <ele>618</ele>
        <time>2016-10-23T13:06:02Z</time>
      </trkpt>
      <trkpt lat="44.21747" lon="2.1449">
        <ele>618</ele>
        <time>2016-10-23T13:06:07Z</time>
      </trkpt>
      <trkpt lat="44.21746" lon="2.1449">
        <ele>618</ele>
        <time>2016-10-23T13:06:12Z</time>
      </trkpt>
      <trkpt lat="44.21747" lon="2.1449">
        <ele>618</ele>
        <time>2016-10-23T13:06:17Z</time>
      </trkpt>
      <trkpt lat="44.21747" lon="2.1449">
        <ele>618</ele>
        <time>2016-10-23T13:06:22Z</time>
      </trkpt>
      <trkpt lat="44.21747" lon="2.14489">
        <ele>618</ele>
        <time>2016-10-23T13:06:27Z</time>
      </trkpt>
      <trkpt lat="44.21747" lon="2.14489">
        <ele>618</ele>
        <time>2016-10-23T13:06:32Z</time>
      </trkpt>
      <trkpt lat="44.21747" lon="2.14488">
        <ele>618</ele>
        <time>2016-10-23T13:06:37Z</time>
      </trkpt>
      <trkpt lat="44.21748" lon="2.14488">
        <ele>618</ele>
        <time>2016-10-23T13:06:42Z</time>
      </trkpt>
      <trkpt lat="44.21748" lon="2.14487">
        <ele>618</ele>
        <time>2016-10-23T13:06:47Z</time>
      </trkpt>
      <trkpt lat="44.21748" lon="2.14487">
        <ele>618</ele>
        <time>2016-10-23T13:06:52Z</time>
      </trkpt>
      <trkpt lat="44.21748" lon="2.14487">
        <ele>618</ele>
        <time>2016-10-23T13:06:57Z</time>
      </trkpt>
      <trkpt lat="44.21747" lon="2.14487">
        <ele>618</ele>
        <time>2016-10-23T13:07:02Z</time>
      </trkpt>
      <trkpt lat="44.21747" lon="2.14488">
        <ele>618</ele>
        <time>2016-10-23T13:07:07Z</time>
      </trkpt>
      <trkpt lat="44.21747" lon="2.14488">
        <ele>618</ele>
        <time>2016-10-23T13:07:12Z</time>
      </trkpt>
      <trkpt lat="44.21747" lon="2.14488">
        <ele>618</ele>
        <time>2016-10-23T13:07:17Z</time>
      </trkpt>
      <trkpt lat="44.21747" lon="2.14488">
        <ele>618</ele>
        <time>2016-10-23T13:07:22Z</time>
      </trkpt>
      <trkpt lat="44.21747" lon="2.14489">
        <ele>618</ele>
        <time>2016-10-23T13:07:27Z</time>
      </trkpt>
      <trkpt lat="44.21747" lon="2.14489">
        <ele>618</ele>
        <time>2016-10-23T13:07:32Z</time>
      </trkpt>
      <trkpt lat="44.21747" lon="2.14489">
        <ele>618</ele>
        <time>2016-10-23T13:07:37Z</time>
      </trkpt>
      <trkpt lat="44.21747" lon="2.14489">
        <ele>618</ele>
        <time>2016-10-23T13:07:42Z</time>
      </trkpt>
      <trkpt lat="44.21747" lon="2.14489">
        <ele>618</ele>
        <time>2016-10-23T13:07:47Z</time>
      </trkpt>
      <trkpt lat="44.21746" lon="2.1449">
        <ele>618</ele>
        <time>2016-10-23T13:07:52Z</time>
      </trkpt>
      <trkpt lat="44.21745" lon="2.14492">
        <ele>618</ele>
        <time>2016-10-23T13:07:57Z</time>
      </trkpt>
      <trkpt lat="44.21745" lon="2.14492">
        <ele>618</ele>
        <time>2016-10-23T13:08:02Z</time>
      </trkpt>
      <trkpt lat="44.21744" lon="2.14494">
        <ele>618</ele>
        <time>2016-10-23T13:08:07Z</time>
      </trkpt>
      <trkpt lat="44.21744" lon="2.14494">
        <ele>618</ele>
        <time>2016-10-23T13:08:12Z</time>
      </trkpt>
      <trkpt lat="44.21743" lon="2.14495">
        <ele>618</ele>
        <time>2016-10-23T13:08:17Z</time>
      </trkpt>
      <trkpt lat="44.21743" lon="2.14495">
        <ele>618</ele>
        <time>2016-10-23T13:08:22Z</time>
      </trkpt>
      <trkpt lat="44.21743" lon="2.14496">
        <ele>618</ele>
        <time>2016-10-23T13:08:27Z</time>
      </trkpt>
      <trkpt lat="44.21743" lon="2.14496">
        <ele>618</ele>
        <time>2016-10-23T13:08:32Z</time>
      </trkpt>
      <trkpt lat="44.21744" lon="2.14495">
        <ele>618</ele>
        <time>2016-10-23T13:08:37Z</time>
      </trkpt>
      <trkpt lat="44.21745" lon="2.14494">
        <ele>618</ele>
        <time>2016-10-23T13:08:42Z</time>
      </trkpt>
      <trkpt lat="44.21746" lon="2.14493">
        <ele>618</ele>
        <time>2016-10-23T13:08:47Z</time>
      </trkpt>
      <trkpt lat="44.21747" lon="2.14492">
        <ele>618</ele>
        <time>2016-10-23T13:08:52Z</time>
      </trkpt>
      <trkpt lat="44.21746" lon="2.14492">
        <ele>618</ele>
        <time>2016-10-23T13:08:57Z</time>
      </trkpt>
      <trkpt lat="44.21746" lon="2.14491">
        <ele>618</ele>
        <time>2016-10-23T13:09:02Z</time>
      </trkpt>
      <trkpt lat="44.21746" lon="2.14491">
        <ele>618</ele>
        <time>2016-10-23T13:09:07Z</time>
      </trkpt>
      <trkpt lat="44.21746" lon="2.14491">
        <ele>618</ele>
        <time>2016-10-23T13:09:12Z</time>
      </trkpt>
      <trkpt lat="44.21746" lon="2.14492">
        <ele>618</ele>
        <time>2016-10-23T13:09:17Z</time>
      </trkpt>
      <trkpt lat="44.21746" lon="2.14492">
        <ele>618</ele>
        <time>2016-10-23T13:09:22Z</time>
      </trkpt>
      <trkpt lat="44.21746" lon="2.14492">
        <ele>618</ele>
        <time>2016-10-23T13:09:27Z</time>
      </trkpt>
      <trkpt lat="44.21745" lon="2.14492">
        <ele>618</ele>
        <time>2016-10-23T13:09:32Z</time>
      </trkpt>
      <trkpt lat="44.21745" lon="2.14492">
        <ele>618</ele>
        <time>2016-10-23T13:09:37Z</time>
      </trkpt>
      <trkpt lat="44.21745" lon="2.14493">
        <ele>618</ele>
        <time>2016-10-23T13:09:42Z</time>
      </trkpt>
      <trkpt lat="44.21745" lon="2.14493">
        <ele>618</ele>
        <time>2016-10-23T13:09:47Z</time>
      </trkpt>
      <trkpt lat="44.21744" lon="2.14493">
        <ele>618</ele>
        <time>2016-10-23T13:09:52Z</time>
      </trkpt>
      <trkpt lat="44.21744" lon="2.14493">
        <ele>618</ele>
        <time>2016-10-23T13:09:57Z</time>
      </trkpt>
      <trkpt lat="44.21744" lon="2.14494">
        <ele>618</ele>
        <time>2016-10-23T13:10:02Z</time>
      </trkpt>
      <trkpt lat="44.21744" lon="2.14494">
        <ele>618</ele>
        <time>2016-10-23T13:10:07Z</time>
      </trkpt>
      <trkpt lat="44.21743" lon="2.14494">
        <ele>618</ele>
        <time>2016-10-23T13:10:12Z</time>
      </trkpt>
      <trkpt lat="44.21744" lon="2.14494">
        <ele>618</ele>
        <time>2016-10-23T13:10:17Z</time>
      </trkpt>
      <trkpt lat="44.21744" lon="2.14494">
        <ele>618</ele>
        <time>2016-10-23T13:10:22Z</time>
      </trkpt>
      <trkpt lat="44.21744" lon="2.14494">
        <ele>618</ele>
        <time>2016-10-23T13:10:27Z</time>
      </trkpt>
      <trkpt lat="44.21743" lon="2.14494">
        <ele>618</ele>
        <time>2016-10-23T13:10:32Z</time>
      </trkpt>
      <trkpt lat="44.21743" lon="2.14494">
        <ele>618</ele>
        <time>2016-10-23T13:10:37Z</time>
      </trkpt>
      <trkpt lat="44.21743" lon="2.14493">
        <ele>618</ele>
        <time>2016-10-23T13:10:42Z</time>
      </trkpt>
      <trkpt lat="44.21743" lon="2.14493">
        <ele>618</ele>
        <time>2016-10-23T13:10:47Z</time>
      </trkpt>
      <trkpt lat="44.21742" lon="2.14493">
        <ele>618</ele>
        <time>2016-10-23T13:10:52Z</time>
      </trkpt>
      <trkpt lat="44.21742" lon="2.14493">
        <ele>618</ele>
        <time>2016-10-23T13:10:57Z</time>
      </trkpt>
      <trkpt lat="44.21742" lon="2.14494">
        <ele>618</ele>
        <time>2016-10-23T13:11:02Z</time>
      </trkpt>
      <trkpt lat="44.21742" lon="2.14494">
        <ele>618</ele>
        <time>2016-10-23T13:11:07Z</time>
      </trkpt>
      <trkpt lat="44.21742" lon="2.14493">
        <ele>618</ele>
        <time>2016-10-23T13:11:12Z</time>
      </trkpt>
      <trkpt lat="44.21742" lon="2.14493">
        <ele>618</ele>
        <time>2016-10-23T13:11:17Z</time>
      </trkpt>
      <trkpt lat="44.21742" lon="2.14493">
        <ele>618</ele>
        <time>2016-10-23T13:11:22Z</time>
      </trkpt>
      <trkpt lat="44.21743" lon="2.14493">
        <ele>618</ele>
        <time>2016-10-23T13:11:27Z</time>
      </trkpt>
      <trkpt lat="44.21743" lon="2.14494">
        <ele>618</ele>
        <time>2016-10-23T13:11:32Z</time>
      </trkpt>
      <trkpt lat="44.21743" lon="2.14494">
        <ele>618</ele>
        <time>2016-10-23T13:11:37Z</time>
      </trkpt>
      <trkpt lat="44.21743" lon="2.14494">
        <ele>618</ele>
        <time>2016-10-23T13:11:42Z</time>
      </trkpt>
      <trkpt lat="44.21743" lon="2.14494">
        <ele>618</ele>
        <time>2016-10-23T13:11:47Z</time>
      </trkpt>
      <trkpt lat="44.21743" lon="2.14495">
        <ele>618</ele>
        <time>2016-10-23T13:11:52Z</time>
      </trkpt>
      <trkpt lat="44.21743" lon="2.14495">
        <ele>618</ele>
        <time>2016-10-23T13:11:57Z</time>
      </trkpt>
      <trkpt lat="44.21743" lon="2.14495">
        <ele>618</ele>
        <time>2016-10-23T13:12:02Z</time>
      </trkpt>
      <trkpt lat="44.21743" lon="2.14495">
        <ele>618</ele>
        <time>2016-10-23T13:12:07Z</time>
      </trkpt>
      <trkpt lat="44.21743" lon="2.14495">
        <ele>618</ele>
        <time>2016-10-23T13:12:12Z</time>
      </trkpt>
      <trkpt lat="44.21743" lon="2.14495">
        <ele>618</ele>
        <time>2016-10-23T13:12:17Z</time>
      </trkpt>
      <trkpt lat="44.21743" lon="2.14495">
        <ele>618</ele>
        <time>2016-10-23T13:12:22Z</time>
      </trkpt>
      <trkpt lat="44.21743" lon="2.14495">
        <ele>618</ele>
        <time>2016-10-23T13:12:27Z</time>
      </trkpt>
      <trkpt lat="44.21744" lon="2.14495">
        <ele>618</ele>
        <time>2016-10-23T13:12:32Z</time>
      </trkpt>
      <trkpt lat="44.21743" lon="2.14494">
        <ele>618</ele>
        <time>2016-10-23T13:12:37Z</time>
      </trkpt>
      <trkpt lat="44.21743" lon="2.14494">
        <ele>618</ele>
        <time>2016-10-23T13:12:42Z</time>
      </trkpt>
      <trkpt lat="44.21743" lon="2.14494">
        <ele>618</ele>
        <time>2016-10-23T13:12:47Z</time>
      </trkpt>
      <trkpt lat="44.21743" lon="2.14494">
        <ele>618</ele>
        <time>2016-10-23T13:12:52Z</time>
      </trkpt>
      <trkpt lat="44.21743" lon="2.14494">
        <ele>618</ele>
        <time>2016-10-23T13:12:57Z</time>
      </trkpt>
      <trkpt lat="44.21742" lon="2.14494">
        <ele>618</ele>
        <time>2016-10-23T13:13:02Z</time>
      </trkpt>
      <trkpt lat="44.21742" lon="2.14495">
        <ele>618</ele>
        <time>2016-10-23T13:13:07Z</time>
      </trkpt>
      <trkpt lat="44.21742" lon="2.14494">
        <ele>618</ele>
        <time>2016-10-23T13:13:12Z</time>
      </trkpt>
      <trkpt lat="44.21742" lon="2.14494">
        <ele>618</ele>
        <time>2016-10-23T13:13:17Z</time>
      </trkpt>
      <trkpt lat="44.21742" lon="2.14494">
        <ele>618</ele>
        <time>2016-10-23T13:13:22Z</time>
      </trkpt>
      <trkpt lat="44.21742" lon="2.14495">
        <ele>618</ele>
        <time>2016-10-23T13:13:27Z</time>
      </trkpt>
      <trkpt lat="44.21742" lon="2.14494">
        <ele>618</ele>
        <time>2016-10-23T13:13:32Z</time>
      </trkpt>
      <trkpt lat="44.21742" lon="2.14494">
        <ele>618</ele>
        <time>2016-10-23T13:13:37Z</time>
      </trkpt>
      <trkpt lat="44.21741" lon="2.14494">
        <ele>618</ele>
        <time>2016-10-23T13:13:42Z</time>
      </trkpt>
      <trkpt lat="44.21741" lon="2.14495">
        <ele>618</ele>
        <time>2016-10-23T13:13:47Z</time>
      </trkpt>
      <trkpt lat="44.21741" lon="2.14495">
        <ele>618</ele>
        <time>2016-10-23T13:13:52Z</time>
      </trkpt>
      <trkpt lat="44.21741" lon="2.14495">
        <ele>618</ele>
        <time>2016-10-23T13:13:57Z</time>
      </trkpt>
      <trkpt lat="44.2174" lon="2.14495">
        <ele>618</ele>
        <time>2016-10-23T13:14:02Z</time>
      </trkpt>
      <trkpt lat="44.2174" lon="2.14495">
        <ele>618</ele>
        <time>2016-10-23T13:14:07Z</time>
      </trkpt>
      <trkpt lat="44.21739" lon="2.14494">
        <ele>618</ele>
        <time>2016-10-23T13:14:12Z</time>
      </trkpt>
      <trkpt lat="44.21739" lon="2.14494">
        <ele>618</ele>
        <time>2016-10-23T13:14:17Z</time>
      </trkpt>
      <trkpt lat="44.21739" lon="2.14495">
        <ele>618</ele>
        <time>2016-10-23T13:14:22Z</time>
      </trkpt>
      <trkpt lat="44.21737" lon="2.14494">
        <ele>618</ele>
        <time>2016-10-23T13:14:27Z</time>
      </trkpt>
      <trkpt lat="44.21736" lon="2.14495">
        <ele>618</ele>
        <time>2016-10-23T13:14:32Z</time>
      </trkpt>
      <trkpt lat="44.21736" lon="2.14495">
        <ele>618</ele>
        <time>2016-10-23T13:14:37Z</time>
      </trkpt>
      <trkpt lat="44.21736" lon="2.14496">
        <ele>618</ele>
        <time>2016-10-23T13:14:42Z</time>
      </trkpt>
      <trkpt lat="44.21736" lon="2.14496">
        <ele>618</ele>
        <time>2016-10-23T13:14:47Z</time>
      </trkpt>
      <trkpt lat="44.21736" lon="2.14496">
        <ele>618</ele>
        <time>2016-10-23T13:14:52Z</time>
      </trkpt>
      <trkpt lat="44.21736" lon="2.14496">
        <ele>618</ele>
        <time>2016-10-23T13:14:57Z</time>
      </trkpt>
      <trkpt lat="44.21736" lon="2.14496">
        <ele>618</ele>
        <time>2016-10-23T13:15:02Z</time>
      </trkpt>
      <trkpt lat="44.21736" lon="2.14496">
        <ele>618</ele>
        <time>2016-10-23T13:15:07Z</time>
      </trkpt>
      <trkpt lat="44.21736" lon="2.14496">
        <ele>618</ele>
        <time>2016-10-23T13:15:12Z</time>
      </trkpt>
      <trkpt lat="44.21736" lon="2.14496">
        <ele>618</ele>
        <time>2016-10-23T13:15:17Z</time>
      </trkpt>
      <trkpt lat="44.21736" lon="2.14496">
        <ele>618</ele>
        <time>2016-10-23T13:15:22Z</time>
      </trkpt>
      <trkpt lat="44.21736" lon="2.14496">
        <ele>618</ele>
        <time>2016-10-23T13:15:27Z</time>
      </trkpt>
      <trkpt lat="44.21736" lon="2.14496">
        <ele>618</ele>
        <time>2016-10-23T13:15:32Z</time>
      </trkpt>
      <trkpt lat="44.21736" lon="2.14496">
        <ele>618</ele>
        <time>2016-10-23T13:15:37Z</time>
      </trkpt>
      <trkpt lat="44.21738" lon="2.14495">
        <ele>618</ele>
        <time>2016-10-23T13:15:42Z</time>
      </trkpt>
      <trkpt lat="44.21738" lon="2.14495">
        <ele>618</ele>
        <time>2016-10-23T13:15:47Z</time>
      </trkpt>
      <trkpt lat="44.21738" lon="2.14495">
        <ele>618</ele>
        <time>2016-10-23T13:15:52Z</time>
      </trkpt>
      <trkpt lat="44.21738" lon="2.14495">
        <ele>618</ele>
        <time>2016-10-23T13:15:57Z</time>
      </trkpt>
      <trkpt lat="44.21739" lon="2.14495">
        <ele>618</ele>
        <time>2016-10-23T13:16:02Z</time>
      </trkpt>
      <trkpt lat="44.21739" lon="2.14495">
        <ele>618</ele>
        <time>2016-10-23T13:16:07Z</time>
      </trkpt>
      <trkpt lat="44.21739" lon="2.14495">
        <ele>618</ele>
        <time>2016-10-23T13:16:12Z</time>
      </trkpt>
      <trkpt lat="44.2174" lon="2.14493">
        <ele>618</ele>
        <time>2016-10-23T13:16:17Z</time>
      </trkpt>
      <trkpt lat="44.2174" lon="2.14493">
        <ele>618</ele>
        <time>2016-10-23T13:16:22Z</time>
      </trkpt>
      <trkpt lat="44.2174" lon="2.14493">
        <ele>618</ele>
        <time>2016-10-23T13:16:27Z</time>
      </trkpt>
      <trkpt lat="44.2174" lon="2.14493">
        <ele>618</ele>
        <time>2016-10-23T13:16:32Z</time>
      </trkpt>
      <trkpt lat="44.21741" lon="2.14493">
        <ele>618</ele>
        <time>2016-10-23T13:16:37Z</time>
      </trkpt>
      <trkpt lat="44.21741" lon="2.14494">
        <ele>618</ele>
        <time>2016-10-23T13:16:42Z</time>
      </trkpt>
      <trkpt lat="44.21741" lon="2.14494">
        <ele>618</ele>
        <time>2016-10-23T13:16:47Z</time>
      </trkpt>
      <trkpt lat="44.21741" lon="2.14494">
        <ele>618</ele>
        <time>2016-10-23T13:16:52Z</time>
      </trkpt>
      <trkpt lat="44.21741" lon="2.14495">
        <ele>618</ele>
        <time>2016-10-23T13:16:57Z</time>
      </trkpt>
      <trkpt lat="44.21741" lon="2.14495">
        <ele>618</ele>
        <time>2016-10-23T13:17:02Z</time>
      </trkpt>
      <trkpt lat="44.21741" lon="2.14495">
        <ele>618</ele>
        <time>2016-10-23T13:17:07Z</time>
      </trkpt>
      <trkpt lat="44.21741" lon="2.14495">
        <ele>618</ele>
        <time>2016-10-23T13:17:12Z</time>
      </trkpt>
      <trkpt lat="44.21741" lon="2.14495">
        <ele>618</ele>
        <time>2016-10-23T13:17:17Z</time>
      </trkpt>
      <trkpt lat="44.2174" lon="2.14495">
        <ele>618</ele>
        <time>2016-10-23T13:17:22Z</time>
      </trkpt>
      <trkpt lat="44.2174" lon="2.14495">
        <ele>618</ele>
        <time>2016-10-23T13:17:27Z</time>
      </trkpt>
      <trkpt lat="44.2174" lon="2.14494">
        <ele>618</ele>
        <time>2016-10-23T13:17:32Z</time>
      </trkpt>
      <trkpt lat="44.2174" lon="2.14494">
        <ele>618</ele>
        <time>2016-10-23T13:17:37Z</time>
      </trkpt>
      <trkpt lat="44.21741" lon="2.14493">
        <ele>618</ele>
        <time>2016-10-23T13:17:42Z</time>
      </trkpt>
      <trkpt lat="44.21741" lon="2.14492">
        <ele>618</ele>
        <time>2016-10-23T13:17:47Z</time>
      </trkpt>
      <trkpt lat="44.21741" lon="2.14492">
        <ele>618</ele>
        <time>2016-10-23T13:17:52Z</time>
      </trkpt>
      <trkpt lat="44.21741" lon="2.14492">
        <ele>618</ele>
        <time>2016-10-23T13:17:57Z</time>
      </trkpt>
      <trkpt lat="44.21741" lon="2.14491">
        <ele>618</ele>
        <time>2016-10-23T13:18:02Z</time>
      </trkpt>
      <trkpt lat="44.21743" lon="2.14493">
        <ele>618</ele>
        <time>2016-10-23T13:18:07Z</time>
      </trkpt>
      <trkpt lat="44.21744" lon="2.14495">
        <ele>618</ele>
        <time>2016-10-23T13:18:12Z</time>
      </trkpt>
      <trkpt lat="44.21744" lon="2.14496">
        <ele>618</ele>
        <time>2016-10-23T13:18:17Z</time>
      </trkpt>
      <trkpt lat="44.21743" lon="2.14497">
        <ele>618</ele>
        <time>2016-10-23T13:18:22Z</time>
      </trkpt>
      <trkpt lat="44.21743" lon="2.14497">
        <ele>618</ele>
        <time>2016-10-23T13:18:27Z</time>
      </trkpt>
      <trkpt lat="44.21743" lon="2.14497">
        <ele>618</ele>
        <time>2016-10-23T13:18:32Z</time>
      </trkpt>
      <trkpt lat="44.21743" lon="2.14497">
        <ele>618</ele>
        <time>2016-10-23T13:18:37Z</time>
      </trkpt>
      <trkpt lat="44.21743" lon="2.14497">
        <ele>618</ele>
        <time>2016-10-23T13:18:42Z</time>
      </trkpt>
      <trkpt lat="44.21744" lon="2.14497">
        <ele>618</ele>
        <time>2016-10-23T13:18:47Z</time>
      </trkpt>
      <trkpt lat="44.21744" lon="2.14497">
        <ele>618</ele>
        <time>2016-10-23T13:18:52Z</time>
      </trkpt>
      <trkpt lat="44.21743" lon="2.14496">
        <ele>618</ele>
        <time>2016-10-23T13:18:57Z</time>
      </trkpt>
      <trkpt lat="44.21743" lon="2.14496">
        <ele>618</ele>
        <time>2016-10-23T13:19:02Z</time>
      </trkpt>
      <trkpt lat="44.21743" lon="2.14496">
        <ele>618</ele>
        <time>2016-10-23T13:19:07Z</time>
      </trkpt>
      <trkpt lat="44.21742" lon="2.14495">
        <ele>618</ele>
        <time>2016-10-23T13:19:12Z</time>
      </trkpt>
      <trkpt lat="44.21743" lon="2.14495">
        <ele>618</ele>
        <time>2016-10-23T13:19:17Z</time>
      </trkpt>
      <trkpt lat="44.21743" lon="2.14495">
        <ele>618</ele>
        <time>2016-10-23T13:19:22Z</time>
      </trkpt>
      <trkpt lat="44.21743" lon="2.14494">
        <ele>618</ele>
        <time>2016-10-23T13:19:27Z</time>
      </trkpt>
      <trkpt lat="44.21743" lon="2.14493">
        <ele>618</ele>
        <time>2016-10-23T13:19:32Z</time>
      </trkpt>
      <trkpt lat="44.21743" lon="2.14493">
        <ele>618</ele>
        <time>2016-10-23T13:19:37Z</time>
      </trkpt>
      <trkpt lat="44.21743" lon="2.14494">
        <ele>618</ele>
        <time>2016-10-23T13:19:42Z</time>
      </trkpt>
      <trkpt lat="44.21743" lon="2.14496">
        <ele>618</ele>
        <time>2016-10-23T13:19:47Z</time>
      </trkpt>
      <trkpt lat="44.21743" lon="2.14496">
        <ele>618</ele>
        <time>2016-10-23T13:19:52Z</time>
      </trkpt>
      <trkpt lat="44.21742" lon="2.14496">
        <ele>618</ele>
        <time>2016-10-23T13:19:57Z</time>
      </trkpt>
      <trkpt lat="44.21742" lon="2.14497">
        <ele>618</ele>
        <time>2016-10-23T13:20:02Z</time>
      </trkpt>
      <trkpt lat="44.21741" lon="2.14498">
        <ele>618</ele>
        <time>2016-10-23T13:20:07Z</time>
      </trkpt>
      <trkpt lat="44.21741" lon="2.14499">
        <ele>618</ele>
        <time>2016-10-23T13:20:12Z</time>
      </trkpt>
      <trkpt lat="44.21741" lon="2.14499">
        <ele>618</ele>
        <time>2016-10-23T13:20:17Z</time>
      </trkpt>
      <trkpt lat="44.21741" lon="2.14499">
        <ele>618</ele>
        <time>2016-10-23T13:20:22Z</time>
      </trkpt>
      <trkpt lat="44.21741" lon="2.14499">
        <ele>618</ele>
        <time>2016-10-23T13:20:27Z</time>
      </trkpt>
      <trkpt lat="44.21741" lon="2.14499">
        <ele>618</ele>
        <time>2016-10-23T13:20:32Z</time>
      </trkpt>
      <trkpt lat="44.21741" lon="2.14499">
        <ele>618</ele>
        <time>2016-10-23T13:20:37Z</time>
      </trkpt>
      <trkpt lat="44.21741" lon="2.14498">
        <ele>618</ele>
        <time>2016-10-23T13:20:42Z</time>
      </trkpt>
      <trkpt lat="44.21741" lon="2.14499">
        <ele>618</ele>
        <time>2016-10-23T13:20:47Z</time>
      </trkpt>
      <trkpt lat="44.21741" lon="2.14498">
        <ele>618</ele>
        <time>2016-10-23T13:20:52Z</time>
      </trkpt>
      <trkpt lat="44.21741" lon="2.14498">
        <ele>618</ele>
        <time>2016-10-23T13:20:57Z</time>
      </trkpt>
      <trkpt lat="44.21742" lon="2.14498">
        <ele>618</ele>
        <time>2016-10-23T13:21:02Z</time>
      </trkpt>
      <trkpt lat="44.21741" lon="2.14497">
        <ele>618</ele>
        <time>2016-10-23T13:21:07Z</time>
      </trkpt>
      <trkpt lat="44.21741" lon="2.14497">
        <ele>618</ele>
        <time>2016-10-23T13:21:12Z</time>
      </trkpt>
      <trkpt lat="44.21741" lon="2.14498">
        <ele>618</ele>
        <time>2016-10-23T13:21:17Z</time>
      </trkpt>
      <trkpt lat="44.21741" lon="2.14498">
        <ele>618</ele>
        <time>2016-10-23T13:21:22Z</time>
      </trkpt>
      <trkpt lat="44.21741" lon="2.14499">
        <ele>618</ele>
        <time>2016-10-23T13:21:27Z</time>
      </trkpt>
      <trkpt lat="44.21741" lon="2.14497">
        <ele>618</ele>
        <time>2016-10-23T13:21:32Z</time>
      </trkpt>
      <trkpt lat="44.21741" lon="2.14497">
        <ele>618</ele>
        <time>2016-10-23T13:21:37Z</time>
      </trkpt>
      <trkpt lat="44.21741" lon="2.14497">
        <ele>618</ele>
        <time>2016-10-23T13:21:42Z</time>
      </trkpt>
      <trkpt lat="44.2174" lon="2.14496">
        <ele>618</ele>
        <time>2016-10-23T13:21:47Z</time>
      </trkpt>
      <trkpt lat="44.2174" lon="2.14496">
        <ele>618</ele>
        <time>2016-10-23T13:21:52Z</time>
      </trkpt>
      <trkpt lat="44.2174" lon="2.14496">
        <ele>618</ele>
        <time>2016-10-23T13:21:57Z</time>
      </trkpt>
      <trkpt lat="44.2174" lon="2.14496">
        <ele>618</ele>
        <time>2016-10-23T13:22:02Z</time>
      </trkpt>
      <trkpt lat="44.2174" lon="2.14496">
        <ele>618</ele>
        <time>2016-10-23T13:22:07Z</time>
      </trkpt>
      <trkpt lat="44.2174" lon="2.14496">
        <ele>618</ele>
        <time>2016-10-23T13:22:12Z</time>
      </trkpt>
      <trkpt lat="44.2174" lon="2.14496">
        <ele>618</ele>
        <time>2016-10-23T13:22:17Z</time>
      </trkpt>
      <trkpt lat="44.21741" lon="2.14495">
        <ele>618</ele>
        <time>2016-10-23T13:22:22Z</time>
      </trkpt>
      <trkpt lat="44.21741" lon="2.14495">
        <ele>618</ele>
        <time>2016-10-23T13:22:27Z</time>
      </trkpt>
      <trkpt lat="44.21741" lon="2.14494">
        <ele>618</ele>
        <time>2016-10-23T13:22:32Z</time>
      </trkpt>
      <trkpt lat="44.21741" lon="2.14494">
        <ele>618</ele>
        <time>2016-10-23T13:22:37Z</time>
      </trkpt>
      <trkpt lat="44.21741" lon="2.14495">
        <ele>618</ele>
        <time>2016-10-23T13:22:42Z</time>
      </trkpt>
      <trkpt lat="44.21742" lon="2.14496">
        <ele>618</ele>
        <time>2016-10-23T13:22:47Z</time>
      </trkpt>
      <trkpt lat="44.21743" lon="2.14496">
        <ele>618</ele>
        <time>2016-10-23T13:22:52Z</time>
      </trkpt>
      <trkpt lat="44.21743" lon="2.14496">
        <ele>618</ele>
        <time>2016-10-23T13:22:57Z</time>
      </trkpt>
      <trkpt lat="44.21743" lon="2.14496">
        <ele>618</ele>
        <time>2016-10-23T13:23:02Z</time>
      </trkpt>
      <trkpt lat="44.21742" lon="2.14496">
        <ele>618</ele>
        <time>2016-10-23T13:23:07Z</time>
      </trkpt>
      <trkpt lat="44.21742" lon="2.14496">
        <ele>618</ele>
        <time>2016-10-23T13:23:12Z</time>
      </trkpt>
      <trkpt lat="44.21742" lon="2.14497">
        <ele>618</ele>
        <time>2016-10-23T13:23:17Z</time>
      </trkpt>
      <trkpt lat="44.21741" lon="2.14497">
        <ele>618</ele>
        <time>2016-10-23T13:23:22Z</time>
      </trkpt>
      <trkpt lat="44.21741" lon="2.14497">
        <ele>618</ele>
        <time>2016-10-23T13:23:27Z</time>
      </trkpt>
      <trkpt lat="44.21741" lon="2.14497">
        <ele>618</ele>
        <time>2016-10-23T13:23:32Z</time>
      </trkpt>
      <trkpt lat="44.21741" lon="2.14497">
        <ele>618</ele>
        <time>2016-10-23T13:23:37Z</time>
      </trkpt>
      <trkpt lat="44.21741" lon="2.14497">
        <ele>618</ele>
        <time>2016-10-23T13:23:42Z</time>
      </trkpt>
      <trkpt lat="44.2174" lon="2.14497">
        <ele>618</ele>
        <time>2016-10-23T13:23:47Z</time>
      </trkpt>
      <trkpt lat="44.2174" lon="2.14497">
        <ele>618</ele>
        <time>2016-10-23T13:23:52Z</time>
      </trkpt>
      <trkpt lat="44.2174" lon="2.14497">
        <ele>618</ele>
        <time>2016-10-23T13:23:57Z</time>
      </trkpt>
      <trkpt lat="44.2174" lon="2.14497">
        <ele>618</ele>
        <time>2016-10-23T13:24:02Z</time>
      </trkpt>
      <trkpt lat="44.2174" lon="2.14498">
        <ele>618</ele>
        <time>2016-10-23T13:24:07Z</time>
      </trkpt>
      <trkpt lat="44.2174" lon="2.14498">
        <ele>618</ele>
        <time>2016-10-23T13:24:12Z</time>
      </trkpt>
      <trkpt lat="44.21739" lon="2.14498">
        <ele>618</ele>
        <time>2016-10-23T13:24:17Z</time>
      </trkpt>
      <trkpt lat="44.21739" lon="2.14498">
        <ele>618</ele>
        <time>2016-10-23T13:24:22Z</time>
      </trkpt>
      <trkpt lat="44.21739" lon="2.14498">
        <ele>618</ele>
        <time>2016-10-23T13:24:27Z</time>
      </trkpt>
      <trkpt lat="44.21739" lon="2.14498">
        <ele>618</ele>
        <time>2016-10-23T13:24:32Z</time>
      </trkpt>
      <trkpt lat="44.21739" lon="2.14498">
        <ele>618</ele>
        <time>2016-10-23T13:24:37Z</time>
      </trkpt>
      <trkpt lat="44.21738" lon="2.14499">
        <ele>618</ele>
        <time>2016-10-23T13:24:42Z</time>
      </trkpt>
      <trkpt lat="44.21737" lon="2.14499">
        <ele>618</ele>
        <time>2016-10-23T13:24:47Z</time>
      </trkpt>
      <trkpt lat="44.21737" lon="2.14499">
        <ele>618</ele>
        <time>2016-10-23T13:24:52Z</time>
      </trkpt>
      <trkpt lat="44.21737" lon="2.14499">
        <ele>618</ele>
        <time>2016-10-23T13:24:57Z</time>
      </trkpt>
      <trkpt lat="44.21737" lon="2.14499">
        <ele>618</ele>
        <time>2016-10-23T13:25:02Z</time>
      </trkpt>
      <trkpt lat="44.21737" lon="2.14499">
        <ele>618</ele>
        <time>2016-10-23T13:25:07Z</time>
      </trkpt>
      <trkpt lat="44.21737" lon="2.14498">
        <ele>618</ele>
        <time>2016-10-23T13:25:12Z</time>
      </trkpt>
      <trkpt lat="44.21737" lon="2.14499">
        <ele>618</ele>
        <time>2016-10-23T13:25:17Z</time>
      </trkpt>
      <trkpt lat="44.21737" lon="2.14499">
        <ele>618</ele>
        <time>2016-10-23T13:25:22Z</time>
      </trkpt>
      <trkpt lat="44.21737" lon="2.14499">
        <ele>618</ele>
        <time>2016-10-23T13:25:27Z</time>
      </trkpt>
      <trkpt lat="44.21737" lon="2.14499">
        <ele>618</ele>
        <time>2016-10-23T13:25:32Z</time>
      </trkpt>
      <trkpt lat="44.21738" lon="2.14498">
        <ele>618</ele>
        <time>2016-10-23T13:25:37Z</time>
      </trkpt>
      <trkpt lat="44.21738" lon="2.14498">
        <ele>618</ele>
        <time>2016-10-23T13:25:42Z</time>
      </trkpt>
      <trkpt lat="44.21738" lon="2.14498">
        <ele>618</ele>
        <time>2016-10-23T13:25:47Z</time>
      </trkpt>
      <trkpt lat="44.21738" lon="2.14497">
        <ele>618</ele>
        <time>2016-10-23T13:25:52Z</time>
      </trkpt>
      <trkpt lat="44.21739" lon="2.14497">
        <ele>618</ele>
        <time>2016-10-23T13:25:57Z</time>
      </trkpt>
      <trkpt lat="44.21739" lon="2.14497">
        <ele>618</ele>
        <time>2016-10-23T13:26:02Z</time>
      </trkpt>
      <trkpt lat="44.21739" lon="2.14497">
        <ele>618</ele>
        <time>2016-10-23T13:26:07Z</time>
      </trkpt>
      <trkpt lat="44.21739" lon="2.14497">
        <ele>618</ele>
        <time>2016-10-23T13:26:12Z</time>
      </trkpt>
      <trkpt lat="44.21739" lon="2.14497">
        <ele>618</ele>
        <time>2016-10-23T13:26:17Z</time>
      </trkpt>
      <trkpt lat="44.21739" lon="2.14497">
        <ele>618</ele>
        <time>2016-10-23T13:26:22Z</time>
      </trkpt>
      <trkpt lat="44.21739" lon="2.14497">
        <ele>618</ele>
        <time>2016-10-23T13:26:27Z</time>
      </trkpt>
      <trkpt lat="44.21739" lon="2.14497">
        <ele>618</ele>
        <time>2016-10-23T13:26:32Z</time>
      </trkpt>
      <trkpt lat="44.21739" lon="2.14497">
        <ele>618</ele>
        <time>2016-10-23T13:26:37Z</time>
      </trkpt>
      <trkpt lat="44.21738" lon="2.14497">
        <ele>618</ele>
        <time>2016-10-23T13:26:42Z</time>
      </trkpt>
      <trkpt lat="44.21738" lon="2.14497">
        <ele>618</ele>
        <time>2016-10-23T13:26:47Z</time>
      </trkpt>
      <trkpt lat="44.21738" lon="2.14497">
        <ele>618</ele>
        <time>2016-10-23T13:26:52Z</time>
      </trkpt>
      <trkpt lat="44.21738" lon="2.14497">
        <ele>618</ele>
        <time>2016-10-23T13:26:57Z</time>
      </trkpt>
      <trkpt lat="44.21738" lon="2.14497">
        <ele>618</ele>
        <time>2016-10-23T13:27:02Z</time>
      </trkpt>
      <trkpt lat="44.21738" lon="2.14497">
        <ele>618</ele>
        <time>2016-10-23T13:27:07Z</time>
      </trkpt>
      <trkpt lat="44.21738" lon="2.14497">
        <ele>618</ele>
        <time>2016-10-23T13:27:12Z</time>
      </trkpt>
      <trkpt lat="44.21738" lon="2.14497">
        <ele>618</ele>
        <time>2016-10-23T13:27:17Z</time>
      </trkpt>
      <trkpt lat="44.21738" lon="2.14497">
        <ele>618</ele>
        <time>2016-10-23T13:27:22Z</time>
      </trkpt>
      <trkpt lat="44.21739" lon="2.14497">
        <ele>618</ele>
        <time>2016-10-23T13:27:27Z</time>
      </trkpt>
      <trkpt lat="44.21739" lon="2.14497">
        <ele>618</ele>
        <time>2016-10-23T13:27:32Z</time>
      </trkpt>
      <trkpt lat="44.21739" lon="2.14497">
        <ele>618</ele>
        <time>2016-10-23T13:27:37Z</time>
      </trkpt>
      <trkpt lat="44.21739" lon="2.14497">
        <ele>618</ele>
        <time>2016-10-23T13:27:42Z</time>
      </trkpt>
      <trkpt lat="44.2174" lon="2.14497">
        <ele>618</ele>
        <time>2016-10-23T13:27:47Z</time>
      </trkpt>
      <trkpt lat="44.2174" lon="2.14497">
        <ele>618</ele>
        <time>2016-10-23T13:27:52Z</time>
      </trkpt>
      <trkpt lat="44.21741" lon="2.14497">
        <ele>618</ele>
        <time>2016-10-23T13:27:57Z</time>
      </trkpt>
      <trkpt lat="44.21741" lon="2.14497">
        <ele>618</ele>
        <time>2016-10-23T13:28:02Z</time>
      </trkpt>
      <trkpt lat="44.21741" lon="2.14497">
        <ele>618</ele>
        <time>2016-10-23T13:28:07Z</time>
      </trkpt>
      <trkpt lat="44.21741" lon="2.14498">
        <ele>618</ele>
        <time>2016-10-23T13:28:12Z</time>
      </trkpt>
      <trkpt lat="44.21741" lon="2.14498">
        <ele>618</ele>
        <time>2016-10-23T13:28:17Z</time>
      </trkpt>
      <trkpt lat="44.21741" lon="2.14498">
        <ele>618</ele>
        <time>2016-10-23T13:28:22Z</time>
      </trkpt>
      <trkpt lat="44.2174" lon="2.14498">
        <ele>618</ele>
        <time>2016-10-23T13:28:27Z</time>
      </trkpt>
      <trkpt lat="44.2174" lon="2.14499">
        <ele>618</ele>
        <time>2016-10-23T13:28:32Z</time>
      </trkpt>
      <trkpt lat="44.2174" lon="2.14499">
        <ele>618</ele>
        <time>2016-10-23T13:28:37Z</time>
      </trkpt>
      <trkpt lat="44.2174" lon="2.14499">
        <ele>618</ele>
        <time>2016-10-23T13:28:42Z</time>
      </trkpt>
      <trkpt lat="44.2174" lon="2.14499">
        <ele>618</ele>
        <time>2016-10-23T13:28:47Z</time>
      </trkpt>
      <trkpt lat="44.2174" lon="2.14499">
        <ele>618</ele>
        <time>2016-10-23T13:28:52Z</time>
      </trkpt>
      <trkpt lat="44.2174" lon="2.14499">
        <ele>618</ele>
        <time>2016-10-23T13:28:57Z</time>
      </trkpt>
      <trkpt lat="44.2174" lon="2.14499">
        <ele>618</ele>
        <time>2016-10-23T13:29:02Z</time>
      </trkpt>
      <trkpt lat="44.2174" lon="2.14499">
        <ele>618</ele>
        <time>2016-10-23T13:29:07Z</time>
      </trkpt>
      <trkpt lat="44.2174" lon="2.14499">
        <ele>618</ele>
        <time>2016-10-23T13:29:12Z</time>
      </trkpt>
      <trkpt lat="44.21741" lon="2.14499">
        <ele>618</ele>
        <time>2016-10-23T13:29:17Z</time>
      </trkpt>
      <trkpt lat="44.21741" lon="2.145">
        <ele>618</ele>
        <time>2016-10-23T13:29:22Z</time>
      </trkpt>
      <trkpt lat="44.21741" lon="2.145">
        <ele>618</ele>
        <time>2016-10-23T13:29:27Z</time>
      </trkpt>
      <trkpt lat="44.21741" lon="2.145">
        <ele>618</ele>
        <time>2016-10-23T13:29:32Z</time>
      </trkpt>
      <trkpt lat="44.21741" lon="2.145">
        <ele>618</ele>
        <time>2016-10-23T13:29:37Z</time>
      </trkpt>
      <trkpt lat="44.21741" lon="2.145">
        <ele>618</ele>
        <time>2016-10-23T13:29:42Z</time>
      </trkpt>
      <trkpt lat="44.21741" lon="2.145">
        <ele>618</ele>
        <time>2016-10-23T13:29:47Z</time>
      </trkpt>
      <trkpt lat="44.21741" lon="2.145">
        <ele>618</ele>
        <time>2016-10-23T13:29:52Z</time>
      </trkpt>
      <trkpt lat="44.21741" lon="2.145">
        <ele>618</ele>
        <time>2016-10-23T13:29:57Z</time>
      </trkpt>
      <trkpt lat="44.21741" lon="2.145">
        <ele>618</ele>
        <time>2016-10-23T13:30:02Z</time>
      </trkpt>
      <trkpt lat="44.21741" lon="2.145">
        <ele>618</ele>
        <time>2016-10-23T13:30:07Z</time>
      </trkpt>
      <trkpt lat="44.2174" lon="2.14501">
        <ele>618</ele>
        <time>2016-10-23T13:30:12Z</time>
      </trkpt>
      <trkpt lat="44.21741" lon="2.14501">
        <ele>618</ele>
        <time>2016-10-23T13:30:17Z</time>
      </trkpt>
      <trkpt lat="44.21741" lon="2.14501">
        <ele>618</ele>
        <time>2016-10-23T13:30:22Z</time>
      </trkpt>
      <trkpt lat="44.21741" lon="2.14501">
        <ele>618</ele>
        <time>2016-10-23T13:30:27Z</time>
      </trkpt>
      <trkpt lat="44.21741" lon="2.145">
        <ele>618</ele>
        <time>2016-10-23T13:30:32Z</time>
      </trkpt>
      <trkpt lat="44.21741" lon="2.145">
        <ele>618</ele>
        <time>2016-10-23T13:30:37Z</time>
      </trkpt>
      <trkpt lat="44.21741" lon="2.14499">
        <ele>618</ele>
        <time>2016-10-23T13:30:42Z</time>
      </trkpt>
      <trkpt lat="44.21741" lon="2.14499">
        <ele>618</ele>
        <time>2016-10-23T13:30:47Z</time>
      </trkpt>
      <trkpt lat="44.21741" lon="2.14499">
        <ele>618</ele>
        <time>2016-10-23T13:30:52Z</time>
      </trkpt>
      <trkpt lat="44.21741" lon="2.14499">
        <ele>618</ele>
        <time>2016-10-23T13:30:57Z</time>
      </trkpt>
      <trkpt lat="44.21741" lon="2.14499">
        <ele>618</ele>
        <time>2016-10-23T13:31:02Z</time>
      </trkpt>
      <trkpt lat="44.21741" lon="2.14499">
        <ele>618</ele>
        <time>2016-10-23T13:31:07Z</time>
      </trkpt>
      <trkpt lat="44.21741" lon="2.145">
        <ele>618</ele>
        <time>2016-10-23T13:31:12Z</time>
      </trkpt>
      <trkpt lat="44.21742" lon="2.14499">
        <ele>618</ele>
        <time>2016-10-23T13:31:17Z</time>
      </trkpt>
      <trkpt lat="44.21742" lon="2.14499">
        <ele>618</ele>
        <time>2016-10-23T13:31:22Z</time>
      </trkpt>
      <trkpt lat="44.21743" lon="2.14499">
        <ele>618</ele>
        <time>2016-10-23T13:31:27Z</time>
      </trkpt>
      <trkpt lat="44.21744" lon="2.14498">
        <ele>618</ele>
        <time>2016-10-23T13:31:32Z</time>
      </trkpt>
      <trkpt lat="44.21744" lon="2.14495">
        <ele>618</ele>
        <time>2016-10-23T13:31:37Z</time>
      </trkpt>
      <trkpt lat="44.21744" lon="2.14495">
        <ele>618</ele>
        <time>2016-10-23T13:31:42Z</time>
      </trkpt>
      <trkpt lat="44.21744" lon="2.14495">
        <ele>618</ele>
        <time>2016-10-23T13:31:47Z</time>
      </trkpt>
      <trkpt lat="44.21744" lon="2.14496">
        <ele>618</ele>
        <time>2016-10-23T13:31:52Z</time>
      </trkpt>
      <trkpt lat="44.21743" lon="2.14496">
        <ele>618</ele>
        <time>2016-10-23T13:31:57Z</time>
      </trkpt>
      <trkpt lat="44.21743" lon="2.14496">
        <ele>618</ele>
        <time>2016-10-23T13:32:02Z</time>
      </trkpt>
      <trkpt lat="44.21742" lon="2.14497">
        <ele>618</ele>
        <time>2016-10-23T13:32:07Z</time>
      </trkpt>
      <trkpt lat="44.21742" lon="2.14497">
        <ele>618</ele>
        <time>2016-10-23T13:32:12Z</time>
      </trkpt>
      <trkpt lat="44.21742" lon="2.14497">
        <ele>618</ele>
        <time>2016-10-23T13:32:17Z</time>
      </trkpt>
      <trkpt lat="44.21742" lon="2.14498">
        <ele>618</ele>
        <time>2016-10-23T13:32:22Z</time>
      </trkpt>
      <trkpt lat="44.21742" lon="2.14498">
        <ele>618</ele>
        <time>2016-10-23T13:32:27Z</time>
      </trkpt>
      <trkpt lat="44.21742" lon="2.14498">
        <ele>618</ele>
        <time>2016-10-23T13:32:32Z</time>
      </trkpt>
      <trkpt lat="44.21742" lon="2.14497">
        <ele>618</ele>
        <time>2016-10-23T13:32:37Z</time>
      </trkpt>
      <trkpt lat="44.21741" lon="2.14497">
        <ele>618</ele>
        <time>2016-10-23T13:32:42Z</time>
      </trkpt>
      <trkpt lat="44.2174" lon="2.14498">
        <ele>618</ele>
        <time>2016-10-23T13:32:47Z</time>
      </trkpt>
      <trkpt lat="44.21739" lon="2.14498">
        <ele>618</ele>
        <time>2016-10-23T13:32:52Z</time>
      </trkpt>
      <trkpt lat="44.21739" lon="2.14498">
        <ele>618</ele>
        <time>2016-10-23T13:32:57Z</time>
      </trkpt>
      <trkpt lat="44.2174" lon="2.14498">
        <ele>618</ele>
        <time>2016-10-23T13:33:02Z</time>
      </trkpt>
      <trkpt lat="44.2174" lon="2.14498">
        <ele>618</ele>
        <time>2016-10-23T13:33:07Z</time>
      </trkpt>
      <trkpt lat="44.2174" lon="2.14498">
        <ele>618</ele>
        <time>2016-10-23T13:33:12Z</time>
      </trkpt>
      <trkpt lat="44.2174" lon="2.14497">
        <ele>618</ele>
        <time>2016-10-23T13:33:17Z</time>
      </trkpt>
      <trkpt lat="44.2174" lon="2.14497">
        <ele>618</ele>
        <time>2016-10-23T13:33:22Z</time>
      </trkpt>
      <trkpt lat="44.2174" lon="2.14497">
        <ele>618</ele>
        <time>2016-10-23T13:33:27Z</time>
      </trkpt>
      <trkpt lat="44.2174" lon="2.14497">
        <ele>618</ele>
        <time>2016-10-23T13:33:32Z</time>
      </trkpt>
      <trkpt lat="44.2174" lon="2.14496">
        <ele>618</ele>
        <time>2016-10-23T13:33:37Z</time>
      </trkpt>
      <trkpt lat="44.2174" lon="2.14495">
        <ele>618</ele>
        <time>2016-10-23T13:33:42Z</time>
      </trkpt>
      <trkpt lat="44.2174" lon="2.14495">
        <ele>618</ele>
        <time>2016-10-23T13:33:47Z</time>
      </trkpt>
      <trkpt lat="44.2174" lon="2.14495">
        <ele>618</ele>
        <time>2016-10-23T13:33:52Z</time>
      </trkpt>
      <trkpt lat="44.2174" lon="2.14495">
        <ele>618</ele>
        <time>2016-10-23T13:33:57Z</time>
      </trkpt>
      <trkpt lat="44.21739" lon="2.14495">
        <ele>618</ele>
        <time>2016-10-23T13:34:02Z</time>
      </trkpt>
      <trkpt lat="44.2174" lon="2.14495">
        <ele>618</ele>
        <time>2016-10-23T13:34:07Z</time>
      </trkpt>
      <trkpt lat="44.2174" lon="2.14496">
        <ele>618</ele>
        <time>2016-10-23T13:34:12Z</time>
      </trkpt>
      <trkpt lat="44.2174" lon="2.14497">
        <ele>618</ele>
        <time>2016-10-23T13:34:17Z</time>
      </trkpt>
      <trkpt lat="44.2174" lon="2.14498">
        <ele>618</ele>
        <time>2016-10-23T13:34:22Z</time>
      </trkpt>
      <trkpt lat="44.21739" lon="2.14498">
        <ele>618</ele>
        <time>2016-10-23T13:34:27Z</time>
      </trkpt>
      <trkpt lat="44.21739" lon="2.14499">
        <ele>618</ele>
        <time>2016-10-23T13:34:32Z</time>
      </trkpt>
      <trkpt lat="44.2174" lon="2.14499">
        <ele>618</ele>
        <time>2016-10-23T13:34:37Z</time>
      </trkpt>
      <trkpt lat="44.2174" lon="2.14499">
        <ele>618</ele>
        <time>2016-10-23T13:34:42Z</time>
      </trkpt>
      <trkpt lat="44.21739" lon="2.14502">
        <ele>618</ele>
        <time>2016-10-23T13:34:47Z</time>
      </trkpt>
      <trkpt lat="44.21736" lon="2.14506">
        <ele>618</ele>
        <time>2016-10-23T13:34:52Z</time>
      </trkpt>
      <trkpt lat="44.21733" lon="2.1451">
        <ele>618</ele>
        <time>2016-10-23T13:34:57Z</time>
      </trkpt>
      <trkpt lat="44.21732" lon="2.14513">
        <ele>618</ele>
        <time>2016-10-23T13:35:02Z</time>
      </trkpt>
      <trkpt lat="44.2173" lon="2.14518">
        <ele>618</ele>
        <time>2016-10-23T13:35:07Z</time>
      </trkpt>
      <trkpt lat="44.21729" lon="2.1452">
        <ele>618</ele>
        <time>2016-10-23T13:35:12Z</time>
      </trkpt>
      <trkpt lat="44.21728" lon="2.14523">
        <ele>618</ele>
        <time>2016-10-23T13:35:17Z</time>
      </trkpt>
      <trkpt lat="44.21725" lon="2.14526">
        <ele>618</ele>
        <time>2016-10-23T13:35:22Z</time>
      </trkpt>
      <trkpt lat="44.21725" lon="2.14527">
        <ele>618</ele>
        <time>2016-10-23T13:35:27Z</time>
      </trkpt>
      <trkpt lat="44.21725" lon="2.14527">
        <ele>618</ele>
        <time>2016-10-23T13:35:32Z</time>
      </trkpt>
      <trkpt lat="44.21725" lon="2.14528">
        <ele>618</ele>
        <time>2016-10-23T13:35:37Z</time>
      </trkpt>
      <trkpt lat="44.21725" lon="2.14528">
        <ele>618</ele>
        <time>2016-10-23T13:35:42Z</time>
      </trkpt>
      <trkpt lat="44.21725" lon="2.14528">
        <ele>618</ele>
        <time>2016-10-23T13:35:47Z</time>
      </trkpt>
      <trkpt lat="44.21725" lon="2.14529">
        <ele>618</ele>
        <time>2016-10-23T13:35:52Z</time>
      </trkpt>
      <trkpt lat="44.21723" lon="2.14531">
        <ele>618</ele>
        <time>2016-10-23T13:35:57Z</time>
      </trkpt>
      <trkpt lat="44.21723" lon="2.14532">
        <ele>618</ele>
        <time>2016-10-23T13:36:02Z</time>
      </trkpt>
      <trkpt lat="44.21723" lon="2.14534">
        <ele>618</ele>
        <time>2016-10-23T13:36:07Z</time>
      </trkpt>
      <trkpt lat="44.21722" lon="2.14535">
        <ele>618</ele>
        <time>2016-10-23T13:36:12Z</time>
      </trkpt>
      <trkpt lat="44.21722" lon="2.14535">
        <ele>618</ele>
        <time>2016-10-23T13:36:17Z</time>
      </trkpt>
      <trkpt lat="44.21722" lon="2.14535">
        <ele>618</ele>
        <time>2016-10-23T13:36:22Z</time>
      </trkpt>
      <trkpt lat="44.21721" lon="2.14535">
        <ele>618</ele>
        <time>2016-10-23T13:36:27Z</time>
      </trkpt>
      <trkpt lat="44.21721" lon="2.14536">
        <ele>618</ele>
        <time>2016-10-23T13:36:32Z</time>
      </trkpt>
      <trkpt lat="44.2172" lon="2.14536">
        <ele>618</ele>
        <time>2016-10-23T13:36:37Z</time>
      </trkpt>
      <trkpt lat="44.2172" lon="2.14536">
        <ele>618</ele>
        <time>2016-10-23T13:36:42Z</time>
      </trkpt>
      <trkpt lat="44.2172" lon="2.14536">
        <ele>618</ele>
        <time>2016-10-23T13:36:47Z</time>
      </trkpt>
      <trkpt lat="44.2172" lon="2.14536">
        <ele>618</ele>
        <time>2016-10-23T13:36:52Z</time>
      </trkpt>
      <trkpt lat="44.2172" lon="2.14536">
        <ele>618</ele>
        <time>2016-10-23T13:36:57Z</time>
      </trkpt>
      <trkpt lat="44.21719" lon="2.14535">
        <ele>618</ele>
        <time>2016-10-23T13:37:02Z</time>
      </trkpt>
      <trkpt lat="44.21721" lon="2.14532">
        <ele>618</ele>
        <time>2016-10-23T13:37:07Z</time>
      </trkpt>
      <trkpt lat="44.21722" lon="2.14532">
        <ele>618</ele>
        <time>2016-10-23T13:37:12Z</time>
      </trkpt>
      <trkpt lat="44.21722" lon="2.14531">
        <ele>618</ele>
        <time>2016-10-23T13:37:17Z</time>
      </trkpt>
      <trkpt lat="44.21722" lon="2.14531">
        <ele>618</ele>
        <time>2016-10-23T13:37:22Z</time>
      </trkpt>
      <trkpt lat="44.21722" lon="2.1453">
        <ele>618</ele>
        <time>2016-10-23T13:37:27Z</time>
      </trkpt>
      <trkpt lat="44.21724" lon="2.14529">
        <ele>618</ele>
        <time>2016-10-23T13:37:32Z</time>
      </trkpt>
      <trkpt lat="44.21724" lon="2.14528">
        <ele>618</ele>
        <time>2016-10-23T13:37:37Z</time>
      </trkpt>
      <trkpt lat="44.21725" lon="2.14527">
        <ele>618</ele>
        <time>2016-10-23T13:37:42Z</time>
      </trkpt>
      <trkpt lat="44.21725" lon="2.14527">
        <ele>618</ele>
        <time>2016-10-23T13:37:47Z</time>
      </trkpt>
      <trkpt lat="44.21725" lon="2.14526">
        <ele>618</ele>
        <time>2016-10-23T13:37:52Z</time>
      </trkpt>
      <trkpt lat="44.21725" lon="2.14525">
        <ele>618</ele>
        <time>2016-10-23T13:37:57Z</time>
      </trkpt>
      <trkpt lat="44.21725" lon="2.14524">
        <ele>618</ele>
        <time>2016-10-23T13:38:02Z</time>
      </trkpt>
      <trkpt lat="44.21725" lon="2.14524">
        <ele>618</ele>
        <time>2016-10-23T13:38:07Z</time>
      </trkpt>
      <trkpt lat="44.21724" lon="2.14524">
        <ele>618</ele>
        <time>2016-10-23T13:38:12Z</time>
      </trkpt>
      <trkpt lat="44.21725" lon="2.14524">
        <ele>618</ele>
        <time>2016-10-23T13:38:17Z</time>
      </trkpt>
      <trkpt lat="44.21725" lon="2.14524">
        <ele>618</ele>
        <time>2016-10-23T13:38:22Z</time>
      </trkpt>
      <trkpt lat="44.21725" lon="2.14524">
        <ele>618</ele>
        <time>2016-10-23T13:38:27Z</time>
      </trkpt>
      <trkpt lat="44.21725" lon="2.14524">
        <ele>618</ele>
        <time>2016-10-23T13:38:32Z</time>
      </trkpt>
      <trkpt lat="44.21725" lon="2.14525">
        <ele>618</ele>
        <time>2016-10-23T13:38:37Z</time>
      </trkpt>
      <trkpt lat="44.21725" lon="2.14525">
        <ele>618</ele>
        <time>2016-10-23T13:38:42Z</time>
      </trkpt>
      <trkpt lat="44.21725" lon="2.14527">
        <ele>618</ele>
        <time>2016-10-23T13:38:47Z</time>
      </trkpt>
      <trkpt lat="44.21726" lon="2.14528">
        <ele>618</ele>
        <time>2016-10-23T13:38:52Z</time>
      </trkpt>
      <trkpt lat="44.21728" lon="2.14525">
        <ele>618</ele>
        <time>2016-10-23T13:38:57Z</time>
      </trkpt>
      <trkpt lat="44.2173" lon="2.14517">
        <ele>618</ele>
        <time>2016-10-23T13:39:02Z</time>
      </trkpt>
      <trkpt lat="44.21733" lon="2.1451">
        <ele>618</ele>
        <time>2016-10-23T13:39:07Z</time>
      </trkpt>
      <trkpt lat="44.21736" lon="2.14502">
        <ele>618</ele>
        <time>2016-10-23T13:39:12Z</time>
      </trkpt>
      <trkpt lat="44.21738" lon="2.14499">
        <ele>618</ele>
        <time>2016-10-23T13:39:17Z</time>
      </trkpt>
      <trkpt lat="44.2174" lon="2.14497">
        <ele>618</ele>
        <time>2016-10-23T13:39:22Z</time>
      </trkpt>
      <trkpt lat="44.2174" lon="2.14497">
        <ele>618</ele>
        <time>2016-10-23T13:39:27Z</time>
      </trkpt>
      <trkpt lat="44.2174" lon="2.14497">
        <ele>618</ele>
        <time>2016-10-23T13:39:32Z</time>
      </trkpt>
      <trkpt lat="44.2174" lon="2.14496">
        <ele>618</ele>
        <time>2016-10-23T13:39:37Z</time>
      </trkpt>
      <trkpt lat="44.2174" lon="2.14496">
        <ele>618</ele>
        <time>2016-10-23T13:39:42Z</time>
      </trkpt>
      <trkpt lat="44.21739" lon="2.14497">
        <ele>618</ele>
        <time>2016-10-23T13:39:47Z</time>
      </trkpt>
      <trkpt lat="44.21739" lon="2.14495">
        <ele>618</ele>
        <time>2016-10-23T13:39:52Z</time>
      </trkpt>
      <trkpt lat="44.21742" lon="2.1449">
        <ele>618</ele>
        <time>2016-10-23T13:39:57Z</time>
      </trkpt>
      <trkpt lat="44.21744" lon="2.14486">
        <ele>618</ele>
        <time>2016-10-23T13:40:02Z</time>
      </trkpt>
      <trkpt lat="44.21744" lon="2.14485">
        <ele>618</ele>
        <time>2016-10-23T13:40:07Z</time>
      </trkpt>
      <trkpt lat="44.21746" lon="2.14484">
        <ele>618</ele>
        <time>2016-10-23T13:40:12Z</time>
      </trkpt>
      <trkpt lat="44.21749" lon="2.14481">
        <ele>618</ele>
        <time>2016-10-23T13:40:17Z</time>
      </trkpt>
      <trkpt lat="44.2175" lon="2.14476">
        <ele>618</ele>
        <time>2016-10-23T13:40:22Z</time>
      </trkpt>
      <trkpt lat="44.21751" lon="2.14472">
        <ele>618</ele>
        <time>2016-10-23T13:40:27Z</time>
      </trkpt>
      <trkpt lat="44.21754" lon="2.14469">
        <ele>618</ele>
        <time>2016-10-23T13:40:32Z</time>
      </trkpt>
      <trkpt lat="44.21756" lon="2.14463">
        <ele>618</ele>
        <time>2016-10-23T13:40:37Z</time>
      </trkpt>
      <trkpt lat="44.21758" lon="2.14458">
        <ele>613</ele>
        <time>2016-10-23T13:40:42Z</time>
      </trkpt>
      <trkpt lat="44.21761" lon="2.14452">
        <ele>613</ele>
        <time>2016-10-23T13:40:47Z</time>
      </trkpt>
      <trkpt lat="44.21765" lon="2.14445">
        <ele>613</ele>
        <time>2016-10-23T13:40:52Z</time>
      </trkpt>
      <trkpt lat="44.21768" lon="2.1444">
        <ele>613</ele>
        <time>2016-10-23T13:40:57Z</time>
      </trkpt>
      <trkpt lat="44.21771" lon="2.14435">
        <ele>613</ele>
        <time>2016-10-23T13:41:02Z</time>
      </trkpt>
      <trkpt lat="44.21772" lon="2.14435">
        <ele>613</ele>
        <time>2016-10-23T13:41:07Z</time>
      </trkpt>
      <trkpt lat="44.21773" lon="2.14435">
        <ele>613</ele>
        <time>2016-10-23T13:41:12Z</time>
      </trkpt>
      <trkpt lat="44.21777" lon="2.14429">
        <ele>613</ele>
        <time>2016-10-23T13:41:17Z</time>
      </trkpt>
      <trkpt lat="44.21782" lon="2.14421">
        <ele>613</ele>
        <time>2016-10-23T13:41:22Z</time>
      </trkpt>
      <trkpt lat="44.21784" lon="2.1442">
        <ele>613</ele>
        <time>2016-10-23T13:41:27Z</time>
      </trkpt>
      <trkpt lat="44.21784" lon="2.1442">
        <ele>613</ele>
        <time>2016-10-23T13:41:32Z</time>
      </trkpt>
      <trkpt lat="44.21784" lon="2.1442">
        <ele>613</ele>
        <time>2016-10-23T13:41:37Z</time>
      </trkpt>
      <trkpt lat="44.21784" lon="2.1442">
        <ele>613</ele>
        <time>2016-10-23T13:41:42Z</time>
      </trkpt>
      <trkpt lat="44.21784" lon="2.14418">
        <ele>613</ele>
        <time>2016-10-23T13:41:47Z</time>
      </trkpt>
      <trkpt lat="44.21787" lon="2.14412">
        <ele>613</ele>
        <time>2016-10-23T13:41:52Z</time>
      </trkpt>
      <trkpt lat="44.21792" lon="2.14404">
        <ele>613</ele>
        <time>2016-10-23T13:41:57Z</time>
      </trkpt>
      <trkpt lat="44.21794" lon="2.14397">
        <ele>610</ele>
        <time>2016-10-23T13:42:02Z</time>
      </trkpt>
      <trkpt lat="44.21798" lon="2.14392">
        <ele>610</ele>
        <time>2016-10-23T13:42:07Z</time>
      </trkpt>
      <trkpt lat="44.21802" lon="2.14389">
        <ele>610</ele>
        <time>2016-10-23T13:42:12Z</time>
      </trkpt>
      <trkpt lat="44.21807" lon="2.14389">
        <ele>610</ele>
        <time>2016-10-23T13:42:17Z</time>
      </trkpt>
      <trkpt lat="44.21812" lon="2.14395">
        <ele>610</ele>
        <time>2016-10-23T13:42:22Z</time>
      </trkpt>
      <trkpt lat="44.21815" lon="2.144">
        <ele>610</ele>
        <time>2016-10-23T13:42:27Z</time>
      </trkpt>
      <trkpt lat="44.21821" lon="2.14405">
        <ele>610</ele>
        <time>2016-10-23T13:42:32Z</time>
      </trkpt>
      <trkpt lat="44.21826" lon="2.14411">
        <ele>610</ele>
        <time>2016-10-23T13:42:37Z</time>
      </trkpt>
      <trkpt lat="44.21831" lon="2.14416">
        <ele>610</ele>
        <time>2016-10-23T13:42:42Z</time>
      </trkpt>
      <trkpt lat="44.21834" lon="2.14417">
        <ele>610</ele>
        <time>2016-10-23T13:42:47Z</time>
      </trkpt>
      <trkpt lat="44.21838" lon="2.1442">
        <ele>610</ele>
        <time>2016-10-23T13:42:52Z</time>
      </trkpt>
      <trkpt lat="44.21843" lon="2.14424">
        <ele>610</ele>
        <time>2016-10-23T13:42:57Z</time>
      </trkpt>
      <trkpt lat="44.21848" lon="2.14429">
        <ele>610</ele>
        <time>2016-10-23T13:43:02Z</time>
      </trkpt>
      <trkpt lat="44.21854" lon="2.14434">
        <ele>610</ele>
        <time>2016-10-23T13:43:07Z</time>
      </trkpt>
      <trkpt lat="44.21859" lon="2.1444">
        <ele>610</ele>
        <time>2016-10-23T13:43:12Z</time>
      </trkpt>
      <trkpt lat="44.21864" lon="2.14445">
        <ele>610</ele>
        <time>2016-10-23T13:43:17Z</time>
      </trkpt>
      <trkpt lat="44.21869" lon="2.14451">
        <ele>610</ele>
        <time>2016-10-23T13:43:22Z</time>
      </trkpt>
      <trkpt lat="44.21874" lon="2.14456">
        <ele>610</ele>
        <time>2016-10-23T13:43:27Z</time>
      </trkpt>
      <trkpt lat="44.21878" lon="2.14463">
        <ele>608</ele>
        <time>2016-10-23T13:43:32Z</time>
      </trkpt>
      <trkpt lat="44.2188" lon="2.14467">
        <ele>608</ele>
        <time>2016-10-23T13:43:37Z</time>
      </trkpt>
      <trkpt lat="44.2188" lon="2.14468">
        <ele>608</ele>
        <time>2016-10-23T13:43:42Z</time>
      </trkpt>
      <trkpt lat="44.2188" lon="2.14468">
        <ele>608</ele>
        <time>2016-10-23T13:43:47Z</time>
      </trkpt>
      <trkpt lat="44.2188" lon="2.14468">
        <ele>608</ele>
        <time>2016-10-23T13:43:52Z</time>
      </trkpt>
      <trkpt lat="44.2188" lon="2.1447">
        <ele>608</ele>
        <time>2016-10-23T13:43:57Z</time>
      </trkpt>
      <trkpt lat="44.21879" lon="2.14473">
        <ele>608</ele>
        <time>2016-10-23T13:44:02Z</time>
      </trkpt>
      <trkpt lat="44.2188" lon="2.1448">
        <ele>608</ele>
        <time>2016-10-23T13:44:07Z</time>
      </trkpt>
      <trkpt lat="44.2188" lon="2.14487">
        <ele>608</ele>
        <time>2016-10-23T13:44:12Z</time>
      </trkpt>
      <trkpt lat="44.21881" lon="2.14492">
        <ele>608</ele>
        <time>2016-10-23T13:44:17Z</time>
      </trkpt>
      <trkpt lat="44.21881" lon="2.14498">
        <ele>608</ele>
        <time>2016-10-23T13:44:22Z</time>
      </trkpt>
      <trkpt lat="44.21884" lon="2.14507">
        <ele>608</ele>
        <time>2016-10-23T13:44:27Z</time>
      </trkpt>
      <trkpt lat="44.21886" lon="2.14514">
        <ele>608</ele>
        <time>2016-10-23T13:44:32Z</time>
      </trkpt>
      <trkpt lat="44.21889" lon="2.14522">
        <ele>608</ele>
        <time>2016-10-23T13:44:37Z</time>
      </trkpt>
      <trkpt lat="44.21892" lon="2.14529">
        <ele>608</ele>
        <time>2016-10-23T13:44:42Z</time>
      </trkpt>
      <trkpt lat="44.21895" lon="2.14534">
        <ele>608</ele>
        <time>2016-10-23T13:44:47Z</time>
      </trkpt>
      <trkpt lat="44.21896" lon="2.14542">
        <ele>608</ele>
        <time>2016-10-23T13:44:52Z</time>
      </trkpt>
      <trkpt lat="44.21899" lon="2.14549">
        <ele>608</ele>
        <time>2016-10-23T13:44:57Z</time>
      </trkpt>
      <trkpt lat="44.21901" lon="2.14555">
        <ele>608</ele>
        <time>2016-10-23T13:45:02Z</time>
      </trkpt>
      <trkpt lat="44.21902" lon="2.14562">
        <ele>608</ele>
        <time>2016-10-23T13:45:07Z</time>
      </trkpt>
      <trkpt lat="44.21903" lon="2.14569">
        <ele>608</ele>
        <time>2016-10-23T13:45:12Z</time>
      </trkpt>
      <trkpt lat="44.21906" lon="2.14575">
        <ele>608</ele>
        <time>2016-10-23T13:45:17Z</time>
      </trkpt>
      <trkpt lat="44.21907" lon="2.14584">
        <ele>608</ele>
        <time>2016-10-23T13:45:22Z</time>
      </trkpt>
      <trkpt lat="44.21909" lon="2.14592">
        <ele>608</ele>
        <time>2016-10-23T13:45:27Z</time>
      </trkpt>
      <trkpt lat="44.21909" lon="2.14598">
        <ele>608</ele>
        <time>2016-10-23T13:45:32Z</time>
      </trkpt>
      <trkpt lat="44.21909" lon="2.14604">
        <ele>608</ele>
        <time>2016-10-23T13:45:37Z</time>
      </trkpt>
      <trkpt lat="44.2191" lon="2.14611">
        <ele>608</ele>
        <time>2016-10-23T13:45:42Z</time>
      </trkpt>
      <trkpt lat="44.21912" lon="2.14618">
        <ele>608</ele>
        <time>2016-10-23T13:45:47Z</time>
      </trkpt>
      <trkpt lat="44.21913" lon="2.14624">
        <ele>608</ele>
        <time>2016-10-23T13:45:52Z</time>
      </trkpt>
      <trkpt lat="44.21915" lon="2.14631">
        <ele>611</ele>
        <time>2016-10-23T13:45:57Z</time>
      </trkpt>
      <trkpt lat="44.21917" lon="2.14639">
        <ele>611</ele>
        <time>2016-10-23T13:46:02Z</time>
      </trkpt>
      <trkpt lat="44.21918" lon="2.14646">
        <ele>611</ele>
        <time>2016-10-23T13:46:07Z</time>
      </trkpt>
      <trkpt lat="44.21919" lon="2.14654">
        <ele>611</ele>
        <time>2016-10-23T13:46:12Z</time>
      </trkpt>
      <trkpt lat="44.21921" lon="2.14663">
        <ele>611</ele>
        <time>2016-10-23T13:46:17Z</time>
      </trkpt>
      <trkpt lat="44.21921" lon="2.14668">
        <ele>611</ele>
        <time>2016-10-23T13:46:22Z</time>
      </trkpt>
      <trkpt lat="44.2192" lon="2.14674">
        <ele>611</ele>
        <time>2016-10-23T13:46:27Z</time>
      </trkpt>
      <trkpt lat="44.2192" lon="2.1468">
        <ele>611</ele>
        <time>2016-10-23T13:46:32Z</time>
      </trkpt>
      <trkpt lat="44.2192" lon="2.14688">
        <ele>611</ele>
        <time>2016-10-23T13:46:37Z</time>
      </trkpt>
      <trkpt lat="44.21921" lon="2.14697">
        <ele>611</ele>
        <time>2016-10-23T13:46:42Z</time>
      </trkpt>
      <trkpt lat="44.2192" lon="2.14706">
        <ele>611</ele>
        <time>2016-10-23T13:46:47Z</time>
      </trkpt>
      <trkpt lat="44.21919" lon="2.14712">
        <ele>609</ele>
        <time>2016-10-23T13:46:52Z</time>
      </trkpt>
      <trkpt lat="44.21919" lon="2.14718">
        <ele>609</ele>
        <time>2016-10-23T13:46:57Z</time>
      </trkpt>
      <trkpt lat="44.21919" lon="2.14723">
        <ele>609</ele>
        <time>2016-10-23T13:47:02Z</time>
      </trkpt>
      <trkpt lat="44.21918" lon="2.1473">
        <ele>609</ele>
        <time>2016-10-23T13:47:07Z</time>
      </trkpt>
      <trkpt lat="44.21917" lon="2.14737">
        <ele>609</ele>
        <time>2016-10-23T13:47:12Z</time>
      </trkpt>
      <trkpt lat="44.21917" lon="2.14744">
        <ele>609</ele>
        <time>2016-10-23T13:47:17Z</time>
      </trkpt>
      <trkpt lat="44.21919" lon="2.14751">
        <ele>609</ele>
        <time>2016-10-23T13:47:22Z</time>
      </trkpt>
      <trkpt lat="44.21918" lon="2.14756">
        <ele>609</ele>
        <time>2016-10-23T13:47:27Z</time>
      </trkpt>
      <trkpt lat="44.21917" lon="2.14764">
        <ele>609</ele>
        <time>2016-10-23T13:47:32Z</time>
      </trkpt>
      <trkpt lat="44.21918" lon="2.1477">
        <ele>609</ele>
        <time>2016-10-23T13:47:37Z</time>
      </trkpt>
      <trkpt lat="44.21916" lon="2.14779">
        <ele>609</ele>
        <time>2016-10-23T13:47:42Z</time>
      </trkpt>
      <trkpt lat="44.21915" lon="2.14787">
        <ele>609</ele>
        <time>2016-10-23T13:47:47Z</time>
      </trkpt>
      <trkpt lat="44.21913" lon="2.14794">
        <ele>601</ele>
        <time>2016-10-23T13:47:52Z</time>
      </trkpt>
      <trkpt lat="44.2191" lon="2.14803">
        <ele>601</ele>
        <time>2016-10-23T13:47:57Z</time>
      </trkpt>
      <trkpt lat="44.21908" lon="2.14811">
        <ele>601</ele>
        <time>2016-10-23T13:48:02Z</time>
      </trkpt>
      <trkpt lat="44.21905" lon="2.14819">
        <ele>601</ele>
        <time>2016-10-23T13:48:07Z</time>
      </trkpt>
      <trkpt lat="44.21903" lon="2.14823">
        <ele>601</ele>
        <time>2016-10-23T13:48:12Z</time>
      </trkpt>
      <trkpt lat="44.219" lon="2.14827">
        <ele>601</ele>
        <time>2016-10-23T13:48:17Z</time>
      </trkpt>
      <trkpt lat="44.21896" lon="2.14832">
        <ele>601</ele>
        <time>2016-10-23T13:48:22Z</time>
      </trkpt>
      <trkpt lat="44.21896" lon="2.14836">
        <ele>601</ele>
        <time>2016-10-23T13:48:27Z</time>
      </trkpt>
      <trkpt lat="44.21894" lon="2.14841">
        <ele>601</ele>
        <time>2016-10-23T13:48:32Z</time>
      </trkpt>
      <trkpt lat="44.21892" lon="2.14845">
        <ele>601</ele>
        <time>2016-10-23T13:48:37Z</time>
      </trkpt>
      <trkpt lat="44.21891" lon="2.14849">
        <ele>601</ele>
        <time>2016-10-23T13:48:42Z</time>
      </trkpt>
      <trkpt lat="44.21888" lon="2.14854">
        <ele>601</ele>
        <time>2016-10-23T13:48:47Z</time>
      </trkpt>
      <trkpt lat="44.21887" lon="2.14859">
        <ele>601</ele>
        <time>2016-10-23T13:48:52Z</time>
      </trkpt>
      <trkpt lat="44.21886" lon="2.14865">
        <ele>601</ele>
        <time>2016-10-23T13:48:57Z</time>
      </trkpt>
      <trkpt lat="44.21886" lon="2.14869">
        <ele>601</ele>
        <time>2016-10-23T13:49:02Z</time>
      </trkpt>
      <trkpt lat="44.21886" lon="2.14872">
        <ele>601</ele>
        <time>2016-10-23T13:49:07Z</time>
      </trkpt>
      <trkpt lat="44.21886" lon="2.14877">
        <ele>591</ele>
        <time>2016-10-23T13:49:12Z</time>
      </trkpt>
      <trkpt lat="44.21886" lon="2.14881">
        <ele>591</ele>
        <time>2016-10-23T13:49:17Z</time>
      </trkpt>
      <trkpt lat="44.21884" lon="2.14885">
        <ele>591</ele>
        <time>2016-10-23T13:49:22Z</time>
      </trkpt>
      <trkpt lat="44.21884" lon="2.14885">
        <ele>591</ele>
        <time>2016-10-23T13:49:27Z</time>
      </trkpt>
      <trkpt lat="44.21882" lon="2.14887">
        <ele>591</ele>
        <time>2016-10-23T13:49:32Z</time>
      </trkpt>
      <trkpt lat="44.2188" lon="2.14892">
        <ele>591</ele>
        <time>2016-10-23T13:49:37Z</time>
      </trkpt>
      <trkpt lat="44.21877" lon="2.14895">
        <ele>591</ele>
        <time>2016-10-23T13:49:42Z</time>
      </trkpt>
      <trkpt lat="44.21875" lon="2.14898">
        <ele>592</ele>
        <time>2016-10-23T13:49:47Z</time>
      </trkpt>
      <trkpt lat="44.21871" lon="2.14904">
        <ele>592</ele>
        <time>2016-10-23T13:49:52Z</time>
      </trkpt>
      <trkpt lat="44.21868" lon="2.1491">
        <ele>592</ele>
        <time>2016-10-23T13:49:57Z</time>
      </trkpt>
      <trkpt lat="44.21864" lon="2.14914">
        <ele>592</ele>
        <time>2016-10-23T13:50:02Z</time>
      </trkpt>
      <trkpt lat="44.2186" lon="2.14919">
        <ele>592</ele>
        <time>2016-10-23T13:50:07Z</time>
      </trkpt>
      <trkpt lat="44.21856" lon="2.14925">
        <ele>592</ele>
        <time>2016-10-23T13:50:12Z</time>
      </trkpt>
      <trkpt lat="44.21852" lon="2.14929">
        <ele>592</ele>
        <time>2016-10-23T13:50:17Z</time>
      </trkpt>
      <trkpt lat="44.21848" lon="2.14934">
        <ele>592</ele>
        <time>2016-10-23T13:50:22Z</time>
      </trkpt>
      <trkpt lat="44.21844" lon="2.14941">
        <ele>592</ele>
        <time>2016-10-23T13:50:27Z</time>
      </trkpt>
      <trkpt lat="44.2184" lon="2.14946">
        <ele>592</ele>
        <time>2016-10-23T13:50:32Z</time>
      </trkpt>
      <trkpt lat="44.21836" lon="2.1495">
        <ele>592</ele>
        <time>2016-10-23T13:50:37Z</time>
      </trkpt>
      <trkpt lat="44.2183" lon="2.14956">
        <ele>592</ele>
        <time>2016-10-23T13:50:42Z</time>
      </trkpt>
      <trkpt lat="44.21825" lon="2.14961">
        <ele>585</ele>
        <time>2016-10-23T13:50:47Z</time>
      </trkpt>
      <trkpt lat="44.2182" lon="2.14963">
        <ele>585</ele>
        <time>2016-10-23T13:50:52Z</time>
      </trkpt>
      <trkpt lat="44.21814" lon="2.14963">
        <ele>585</ele>
        <time>2016-10-23T13:50:57Z</time>
      </trkpt>
      <trkpt lat="44.2181" lon="2.14964">
        <ele>585</ele>
        <time>2016-10-23T13:51:02Z</time>
      </trkpt>
      <trkpt lat="44.21805" lon="2.14965">
        <ele>585</ele>
        <time>2016-10-23T13:51:07Z</time>
      </trkpt>
      <trkpt lat="44.218" lon="2.14966">
        <ele>585</ele>
        <time>2016-10-23T13:51:12Z</time>
      </trkpt>
      <trkpt lat="44.21795" lon="2.14968">
        <ele>585</ele>
        <time>2016-10-23T13:51:17Z</time>
      </trkpt>
      <trkpt lat="44.2179" lon="2.14971">
        <ele>584</ele>
        <time>2016-10-23T13:51:22Z</time>
      </trkpt>
      <trkpt lat="44.21785" lon="2.14974">
        <ele>584</ele>
        <time>2016-10-23T13:51:27Z</time>
      </trkpt>
      <trkpt lat="44.21782" lon="2.14978">
        <ele>584</ele>
        <time>2016-10-23T13:51:32Z</time>
      </trkpt>
      <trkpt lat="44.21778" lon="2.14982">
        <ele>584</ele>
        <time>2016-10-23T13:51:37Z</time>
      </trkpt>
      <trkpt lat="44.21773" lon="2.14985">
        <ele>584</ele>
        <time>2016-10-23T13:51:42Z</time>
      </trkpt>
      <trkpt lat="44.21762" lon="2.15001">
        <ele>584</ele>
        <time>2016-10-23T13:51:47Z</time>
      </trkpt>
      <trkpt lat="44.21759" lon="2.15006">
        <ele>584</ele>
        <time>2016-10-23T13:51:52Z</time>
      </trkpt>
      <trkpt lat="44.21755" lon="2.15008">
        <ele>584</ele>
        <time>2016-10-23T13:51:57Z</time>
      </trkpt>
      <trkpt lat="44.21751" lon="2.15007">
        <ele>584</ele>
        <time>2016-10-23T13:52:02Z</time>
      </trkpt>
      <trkpt lat="44.21746" lon="2.15006">
        <ele>584</ele>
        <time>2016-10-23T13:52:07Z</time>
      </trkpt>
      <trkpt lat="44.21743" lon="2.15006">
        <ele>584</ele>
        <time>2016-10-23T13:52:12Z</time>
      </trkpt>
      <trkpt lat="44.21738" lon="2.15006">
        <ele>584</ele>
        <time>2016-10-23T13:52:17Z</time>
      </trkpt>
      <trkpt lat="44.21734" lon="2.15007">
        <ele>584</ele>
        <time>2016-10-23T13:52:22Z</time>
      </trkpt>
      <trkpt lat="44.21731" lon="2.15007">
        <ele>584</ele>
        <time>2016-10-23T13:52:27Z</time>
      </trkpt>
      <trkpt lat="44.21726" lon="2.15009">
        <ele>584</ele>
        <time>2016-10-23T13:52:32Z</time>
      </trkpt>
      <trkpt lat="44.21722" lon="2.15012">
        <ele>584</ele>
        <time>2016-10-23T13:52:37Z</time>
      </trkpt>
      <trkpt lat="44.21715" lon="2.15015">
        <ele>584</ele>
        <time>2016-10-23T13:52:42Z</time>
      </trkpt>
      <trkpt lat="44.21709" lon="2.15018">
        <ele>584</ele>
        <time>2016-10-23T13:52:47Z</time>
      </trkpt>
      <trkpt lat="44.21703" lon="2.15025">
        <ele>577</ele>
        <time>2016-10-23T13:52:52Z</time>
      </trkpt>
      <trkpt lat="44.217" lon="2.15028">
        <ele>577</ele>
        <time>2016-10-23T13:52:57Z</time>
      </trkpt>
      <trkpt lat="44.21696" lon="2.15034">
        <ele>577</ele>
        <time>2016-10-23T13:53:02Z</time>
      </trkpt>
      <trkpt lat="44.21693" lon="2.15036">
        <ele>577</ele>
        <time>2016-10-23T13:53:07Z</time>
      </trkpt>
      <trkpt lat="44.21688" lon="2.15031">
        <ele>577</ele>
        <time>2016-10-23T13:53:12Z</time>
      </trkpt>
      <trkpt lat="44.21683" lon="2.15026">
        <ele>577</ele>
        <time>2016-10-23T13:53:17Z</time>
      </trkpt>
      <trkpt lat="44.21677" lon="2.15024">
        <ele>577</ele>
        <time>2016-10-23T13:53:22Z</time>
      </trkpt>
      <trkpt lat="44.21672" lon="2.15019">
        <ele>577</ele>
        <time>2016-10-23T13:53:27Z</time>
      </trkpt>
      <trkpt lat="44.21667" lon="2.15014">
        <ele>577</ele>
        <time>2016-10-23T13:53:32Z</time>
      </trkpt>
      <trkpt lat="44.21661" lon="2.15011">
        <ele>577</ele>
        <time>2016-10-23T13:53:37Z</time>
      </trkpt>
      <trkpt lat="44.21656" lon="2.15006">
        <ele>577</ele>
        <time>2016-10-23T13:53:42Z</time>
      </trkpt>
      <trkpt lat="44.21653" lon="2.15001">
        <ele>577</ele>
        <time>2016-10-23T13:53:47Z</time>
      </trkpt>
      <trkpt lat="44.21652" lon="2.14995">
        <ele>577</ele>
        <time>2016-10-23T13:53:52Z</time>
      </trkpt>
      <trkpt lat="44.2165" lon="2.14991">
        <ele>577</ele>
        <time>2016-10-23T13:53:57Z</time>
      </trkpt>
      <trkpt lat="44.21648" lon="2.14985">
        <ele>577</ele>
        <time>2016-10-23T13:54:02Z</time>
      </trkpt>
      <trkpt lat="44.21644" lon="2.1498">
        <ele>577</ele>
        <time>2016-10-23T13:54:07Z</time>
      </trkpt>
      <trkpt lat="44.21641" lon="2.14975">
        <ele>577</ele>
        <time>2016-10-23T13:54:12Z</time>
      </trkpt>
      <trkpt lat="44.21639" lon="2.14974">
        <ele>577</ele>
        <time>2016-10-23T13:54:17Z</time>
      </trkpt>
      <trkpt lat="44.21635" lon="2.14971">
        <ele>577</ele>
        <time>2016-10-23T13:54:22Z</time>
      </trkpt>
      <trkpt lat="44.21628" lon="2.14967">
        <ele>577</ele>
        <time>2016-10-23T13:54:27Z</time>
      </trkpt>
      <trkpt lat="44.21623" lon="2.14964">
        <ele>566</ele>
        <time>2016-10-23T13:54:32Z</time>
      </trkpt>
      <trkpt lat="44.21619" lon="2.14964">
        <ele>566</ele>
        <time>2016-10-23T13:54:37Z</time>
      </trkpt>
      <trkpt lat="44.21613" lon="2.14966">
        <ele>566</ele>
        <time>2016-10-23T13:54:42Z</time>
      </trkpt>
      <trkpt lat="44.21606" lon="2.14969">
        <ele>566</ele>
        <time>2016-10-23T13:54:47Z</time>
      </trkpt>
      <trkpt lat="44.21597" lon="2.14974">
        <ele>566</ele>
        <time>2016-10-23T13:54:52Z</time>
      </trkpt>
      <trkpt lat="44.21593" lon="2.14975">
        <ele>566</ele>
        <time>2016-10-23T13:54:57Z</time>
      </trkpt>
      <trkpt lat="44.21588" lon="2.14975">
        <ele>566</ele>
        <time>2016-10-23T13:55:02Z</time>
      </trkpt>
      <trkpt lat="44.21582" lon="2.14975">
        <ele>566</ele>
        <time>2016-10-23T13:55:07Z</time>
      </trkpt>
      <trkpt lat="44.21578" lon="2.14974">
        <ele>566</ele>
        <time>2016-10-23T13:55:12Z</time>
      </trkpt>
      <trkpt lat="44.21576" lon="2.14973">
        <ele>566</ele>
        <time>2016-10-23T13:55:17Z</time>
      </trkpt>
      <trkpt lat="44.21572" lon="2.14972">
        <ele>566</ele>
        <time>2016-10-23T13:55:22Z</time>
      </trkpt>
      <trkpt lat="44.21567" lon="2.14972">
        <ele>566</ele>
        <time>2016-10-23T13:55:27Z</time>
      </trkpt>
      <trkpt lat="44.21563" lon="2.14972">
        <ele>566</ele>
        <time>2016-10-23T13:55:32Z</time>
      </trkpt>
      <trkpt lat="44.21559" lon="2.14977">
        <ele>566</ele>
        <time>2016-10-23T13:55:37Z</time>
      </trkpt>
      <trkpt lat="44.21554" lon="2.14981">
        <ele>566</ele>
        <time>2016-10-23T13:55:42Z</time>
      </trkpt>
      <trkpt lat="44.2155" lon="2.14984">
        <ele>566</ele>
        <time>2016-10-23T13:55:47Z</time>
      </trkpt>
      <trkpt lat="44.21546" lon="2.14988">
        <ele>566</ele>
        <time>2016-10-23T13:55:52Z</time>
      </trkpt>
      <trkpt lat="44.21543" lon="2.14994">
        <ele>566</ele>
        <time>2016-10-23T13:55:57Z</time>
      </trkpt>
      <trkpt lat="44.21542" lon="2.15">
        <ele>556</ele>
        <time>2016-10-23T13:56:02Z</time>
      </trkpt>
      <trkpt lat="44.2154" lon="2.15008">
        <ele>556</ele>
        <time>2016-10-23T13:56:07Z</time>
      </trkpt>
      <trkpt lat="44.21538" lon="2.15015">
        <ele>556</ele>
        <time>2016-10-23T13:56:12Z</time>
      </trkpt>
      <trkpt lat="44.21536" lon="2.15022">
        <ele>556</ele>
        <time>2016-10-23T13:56:17Z</time>
      </trkpt>
      <trkpt lat="44.21533" lon="2.1503">
        <ele>556</ele>
        <time>2016-10-23T13:56:22Z</time>
      </trkpt>
      <trkpt lat="44.21528" lon="2.15037">
        <ele>556</ele>
        <time>2016-10-23T13:56:27Z</time>
      </trkpt>
      <trkpt lat="44.21527" lon="2.15042">
        <ele>557</ele>
        <time>2016-10-23T13:56:32Z</time>
      </trkpt>
      <trkpt lat="44.21529" lon="2.15049">
        <ele>557</ele>
        <time>2016-10-23T13:56:37Z</time>
      </trkpt>
      <trkpt lat="44.21528" lon="2.15053">
        <ele>557</ele>
        <time>2016-10-23T13:56:42Z</time>
      </trkpt>
      <trkpt lat="44.21526" lon="2.15047">
        <ele>557</ele>
        <time>2016-10-23T13:56:47Z</time>
      </trkpt>
      <trkpt lat="44.21522" lon="2.15043">
        <ele>557</ele>
        <time>2016-10-23T13:56:52Z</time>
      </trkpt>
      <trkpt lat="44.21521" lon="2.1504">
        <ele>556</ele>
        <time>2016-10-23T13:56:57Z</time>
      </trkpt>
      <trkpt lat="44.21521" lon="2.1504">
        <ele>556</ele>
        <time>2016-10-23T13:57:02Z</time>
      </trkpt>
      <trkpt lat="44.21521" lon="2.15042">
        <ele>557</ele>
        <time>2016-10-23T13:57:07Z</time>
      </trkpt>
      <trkpt lat="44.2152" lon="2.15046">
        <ele>557</ele>
        <time>2016-10-23T13:57:12Z</time>
      </trkpt>
      <trkpt lat="44.21516" lon="2.15051">
        <ele>557</ele>
        <time>2016-10-23T13:57:17Z</time>
      </trkpt>
      <trkpt lat="44.21511" lon="2.15055">
        <ele>557</ele>
        <time>2016-10-23T13:57:22Z</time>
      </trkpt>
      <trkpt lat="44.21506" lon="2.1506">
        <ele>557</ele>
        <time>2016-10-23T13:57:27Z</time>
      </trkpt>
      <trkpt lat="44.21502" lon="2.15065">
        <ele>557</ele>
        <time>2016-10-23T13:57:32Z</time>
      </trkpt>
      <trkpt lat="44.21496" lon="2.15069">
        <ele>557</ele>
        <time>2016-10-23T13:57:37Z</time>
      </trkpt>
      <trkpt lat="44.21489" lon="2.15071">
        <ele>557</ele>
        <time>2016-10-23T13:57:42Z</time>
      </trkpt>
      <trkpt lat="44.21484" lon="2.15072">
        <ele>557</ele>
        <time>2016-10-23T13:57:47Z</time>
      </trkpt>
      <trkpt lat="44.21481" lon="2.15073">
        <ele>557</ele>
        <time>2016-10-23T13:57:52Z</time>
      </trkpt>
      <trkpt lat="44.21476" lon="2.15076">
        <ele>557</ele>
        <time>2016-10-23T13:57:57Z</time>
      </trkpt>
      <trkpt lat="44.21469" lon="2.15078">
        <ele>557</ele>
        <time>2016-10-23T13:58:02Z</time>
      </trkpt>
      <trkpt lat="44.21463" lon="2.1508">
        <ele>557</ele>
        <time>2016-10-23T13:58:07Z</time>
      </trkpt>
      <trkpt lat="44.21457" lon="2.15082">
        <ele>551</ele>
        <time>2016-10-23T13:58:12Z</time>
      </trkpt>
      <trkpt lat="44.21449" lon="2.15085">
        <ele>551</ele>
        <time>2016-10-23T13:58:17Z</time>
      </trkpt>
      <trkpt lat="44.21442" lon="2.15086">
        <ele>551</ele>
        <time>2016-10-23T13:58:22Z</time>
      </trkpt>
      <trkpt lat="44.21438" lon="2.15087">
        <ele>551</ele>
        <time>2016-10-23T13:58:27Z</time>
      </trkpt>
      <trkpt lat="44.21432" lon="2.15087">
        <ele>551</ele>
        <time>2016-10-23T13:58:32Z</time>
      </trkpt>
      <trkpt lat="44.21426" lon="2.1509">
        <ele>551</ele>
        <time>2016-10-23T13:58:37Z</time>
      </trkpt>
      <trkpt lat="44.2142" lon="2.15093">
        <ele>551</ele>
        <time>2016-10-23T13:58:42Z</time>
      </trkpt>
      <trkpt lat="44.21416" lon="2.15094">
        <ele>551</ele>
        <time>2016-10-23T13:58:47Z</time>
      </trkpt>
      <trkpt lat="44.21412" lon="2.151">
        <ele>551</ele>
        <time>2016-10-23T13:58:52Z</time>
      </trkpt>
      <trkpt lat="44.21408" lon="2.15105">
        <ele>551</ele>
        <time>2016-10-23T13:58:57Z</time>
      </trkpt>
      <trkpt lat="44.21404" lon="2.15111">
        <ele>551</ele>
        <time>2016-10-23T13:59:02Z</time>
      </trkpt>
      <trkpt lat="44.21402" lon="2.15117">
        <ele>551</ele>
        <time>2016-10-23T13:59:07Z</time>
      </trkpt>
      <trkpt lat="44.21398" lon="2.15124">
        <ele>551</ele>
        <time>2016-10-23T13:59:12Z</time>
      </trkpt>
      <trkpt lat="44.21395" lon="2.1513">
        <ele>549</ele>
        <time>2016-10-23T13:59:17Z</time>
      </trkpt>
      <trkpt lat="44.21391" lon="2.15136">
        <ele>549</ele>
        <time>2016-10-23T13:59:22Z</time>
      </trkpt>
      <trkpt lat="44.21389" lon="2.15143">
        <ele>549</ele>
        <time>2016-10-23T13:59:27Z</time>
      </trkpt>
      <trkpt lat="44.21384" lon="2.15151">
        <ele>549</ele>
        <time>2016-10-23T13:59:32Z</time>
      </trkpt>
      <trkpt lat="44.21379" lon="2.15157">
        <ele>549</ele>
        <time>2016-10-23T13:59:37Z</time>
      </trkpt>
      <trkpt lat="44.21377" lon="2.15167">
        <ele>549</ele>
        <time>2016-10-23T13:59:42Z</time>
      </trkpt>
      <trkpt lat="44.21378" lon="2.15171">
        <ele>549</ele>
        <time>2016-10-23T13:59:47Z</time>
      </trkpt>
      <trkpt lat="44.21378" lon="2.15173">
        <ele>549</ele>
        <time>2016-10-23T13:59:52Z</time>
      </trkpt>
      <trkpt lat="44.21382" lon="2.1518">
        <ele>549</ele>
        <time>2016-10-23T13:59:57Z</time>
      </trkpt>
      <trkpt lat="44.21383" lon="2.15188">
        <ele>549</ele>
        <time>2016-10-23T14:00:02Z</time>
      </trkpt>
      <trkpt lat="44.21381" lon="2.15196">
        <ele>549</ele>
        <time>2016-10-23T14:00:07Z</time>
      </trkpt>
      <trkpt lat="44.21378" lon="2.15202">
        <ele>549</ele>
        <time>2016-10-23T14:00:12Z</time>
      </trkpt>
      <trkpt lat="44.21376" lon="2.15206">
        <ele>549</ele>
        <time>2016-10-23T14:00:17Z</time>
      </trkpt>
      <trkpt lat="44.21373" lon="2.15212">
        <ele>539</ele>
        <time>2016-10-23T14:00:22Z</time>
      </trkpt>
      <trkpt lat="44.21369" lon="2.15222">
        <ele>539</ele>
        <time>2016-10-23T14:00:27Z</time>
      </trkpt>
      <trkpt lat="44.21364" lon="2.15227">
        <ele>539</ele>
        <time>2016-10-23T14:00:32Z</time>
      </trkpt>
      <trkpt lat="44.2136" lon="2.15231">
        <ele>539</ele>
        <time>2016-10-23T14:00:37Z</time>
      </trkpt>
      <trkpt lat="44.21354" lon="2.15231">
        <ele>539</ele>
        <time>2016-10-23T14:00:42Z</time>
      </trkpt>
      <trkpt lat="44.21347" lon="2.1523">
        <ele>539</ele>
        <time>2016-10-23T14:00:47Z</time>
      </trkpt>
      <trkpt lat="44.21343" lon="2.15232">
        <ele>539</ele>
        <time>2016-10-23T14:00:52Z</time>
      </trkpt>
      <trkpt lat="44.21342" lon="2.15233">
        <ele>539</ele>
        <time>2016-10-23T14:00:57Z</time>
      </trkpt>
      <trkpt lat="44.21344" lon="2.15239">
        <ele>539</ele>
        <time>2016-10-23T14:01:02Z</time>
      </trkpt>
      <trkpt lat="44.21343" lon="2.15246">
        <ele>539</ele>
        <time>2016-10-23T14:01:07Z</time>
      </trkpt>
      <trkpt lat="44.21339" lon="2.15254">
        <ele>539</ele>
        <time>2016-10-23T14:01:12Z</time>
      </trkpt>
      <trkpt lat="44.21335" lon="2.1526">
        <ele>539</ele>
        <time>2016-10-23T14:01:17Z</time>
      </trkpt>
      <trkpt lat="44.21332" lon="2.15262">
        <ele>539</ele>
        <time>2016-10-23T14:01:22Z</time>
      </trkpt>
      <trkpt lat="44.21328" lon="2.15265">
        <ele>539</ele>
        <time>2016-10-23T14:01:27Z</time>
      </trkpt>
      <trkpt lat="44.21323" lon="2.15269">
        <ele>539</ele>
        <time>2016-10-23T14:01:32Z</time>
      </trkpt>
      <trkpt lat="44.21319" lon="2.1527">
        <ele>539</ele>
        <time>2016-10-23T14:01:37Z</time>
      </trkpt>
      <trkpt lat="44.21315" lon="2.15272">
        <ele>539</ele>
        <time>2016-10-23T14:01:42Z</time>
      </trkpt>
      <trkpt lat="44.21312" lon="2.15272">
        <ele>539</ele>
        <time>2016-10-23T14:01:47Z</time>
      </trkpt>
      <trkpt lat="44.21307" lon="2.15274">
        <ele>539</ele>
        <time>2016-10-23T14:01:52Z</time>
      </trkpt>
      <trkpt lat="44.21302" lon="2.15275">
        <ele>539</ele>
        <time>2016-10-23T14:01:57Z</time>
      </trkpt>
      <trkpt lat="44.21297" lon="2.15277">
        <ele>539</ele>
        <time>2016-10-23T14:02:02Z</time>
      </trkpt>
      <trkpt lat="44.21293" lon="2.15278">
        <ele>539</ele>
        <time>2016-10-23T14:02:07Z</time>
      </trkpt>
      <trkpt lat="44.21288" lon="2.1528">
        <ele>529</ele>
        <time>2016-10-23T14:02:12Z</time>
      </trkpt>
      <trkpt lat="44.21283" lon="2.15281">
        <ele>529</ele>
        <time>2016-10-23T14:02:17Z</time>
      </trkpt>
      <trkpt lat="44.21279" lon="2.15281">
        <ele>529</ele>
        <time>2016-10-23T14:02:22Z</time>
      </trkpt>
      <trkpt lat="44.21275" lon="2.15282">
        <ele>529</ele>
        <time>2016-10-23T14:02:27Z</time>
      </trkpt>
      <trkpt lat="44.21269" lon="2.15284">
        <ele>529</ele>
        <time>2016-10-23T14:02:32Z</time>
      </trkpt>
      <trkpt lat="44.21264" lon="2.15287">
        <ele>529</ele>
        <time>2016-10-23T14:02:37Z</time>
      </trkpt>
      <trkpt lat="44.21259" lon="2.15289">
        <ele>529</ele>
        <time>2016-10-23T14:02:42Z</time>
      </trkpt>
      <trkpt lat="44.21253" lon="2.15291">
        <ele>529</ele>
        <time>2016-10-23T14:02:47Z</time>
      </trkpt>
      <trkpt lat="44.21245" lon="2.15295">
        <ele>525</ele>
        <time>2016-10-23T14:02:52Z</time>
      </trkpt>
      <trkpt lat="44.21241" lon="2.15299">
        <ele>525</ele>
        <time>2016-10-23T14:02:57Z</time>
      </trkpt>
      <trkpt lat="44.21236" lon="2.15296">
        <ele>525</ele>
        <time>2016-10-23T14:03:02Z</time>
      </trkpt>
      <trkpt lat="44.21232" lon="2.15295">
        <ele>525</ele>
        <time>2016-10-23T14:03:07Z</time>
      </trkpt>
      <trkpt lat="44.21229" lon="2.15296">
        <ele>525</ele>
        <time>2016-10-23T14:03:12Z</time>
      </trkpt>
      <trkpt lat="44.21226" lon="2.15298">
        <ele>525</ele>
        <time>2016-10-23T14:03:17Z</time>
      </trkpt>
      <trkpt lat="44.21222" lon="2.15299">
        <ele>525</ele>
        <time>2016-10-23T14:03:22Z</time>
      </trkpt>
      <trkpt lat="44.21216" lon="2.15301">
        <ele>525</ele>
        <time>2016-10-23T14:03:27Z</time>
      </trkpt>
      <trkpt lat="44.2121" lon="2.15304">
        <ele>525</ele>
        <time>2016-10-23T14:03:32Z</time>
      </trkpt>
      <trkpt lat="44.21206" lon="2.15305">
        <ele>521</ele>
        <time>2016-10-23T14:03:37Z</time>
      </trkpt>
      <trkpt lat="44.212" lon="2.15309">
        <ele>521</ele>
        <time>2016-10-23T14:03:42Z</time>
      </trkpt>
      <trkpt lat="44.21194" lon="2.15312">
        <ele>521</ele>
        <time>2016-10-23T14:03:47Z</time>
      </trkpt>
      <trkpt lat="44.21189" lon="2.15315">
        <ele>521</ele>
        <time>2016-10-23T14:03:52Z</time>
      </trkpt>
      <trkpt lat="44.21185" lon="2.15316">
        <ele>521</ele>
        <time>2016-10-23T14:03:57Z</time>
      </trkpt>
      <trkpt lat="44.2118" lon="2.15317">
        <ele>521</ele>
        <time>2016-10-23T14:04:02Z</time>
      </trkpt>
      <trkpt lat="44.21174" lon="2.1532">
        <ele>521</ele>
        <time>2016-10-23T14:04:07Z</time>
      </trkpt>
      <trkpt lat="44.2117" lon="2.15322">
        <ele>521</ele>
        <time>2016-10-23T14:04:12Z</time>
      </trkpt>
      <trkpt lat="44.21165" lon="2.15325">
        <ele>521</ele>
        <time>2016-10-23T14:04:17Z</time>
      </trkpt>
      <trkpt lat="44.21161" lon="2.15327">
        <ele>521</ele>
        <time>2016-10-23T14:04:22Z</time>
      </trkpt>
      <trkpt lat="44.21156" lon="2.15332">
        <ele>521</ele>
        <time>2016-10-23T14:04:27Z</time>
      </trkpt>
      <trkpt lat="44.21151" lon="2.15335">
        <ele>521</ele>
        <time>2016-10-23T14:04:32Z</time>
      </trkpt>
      <trkpt lat="44.21146" lon="2.15339">
        <ele>521</ele>
        <time>2016-10-23T14:04:37Z</time>
      </trkpt>
      <trkpt lat="44.2114" lon="2.1534">
        <ele>521</ele>
        <time>2016-10-23T14:04:42Z</time>
      </trkpt>
      <trkpt lat="44.21135" lon="2.15344">
        <ele>521</ele>
        <time>2016-10-23T14:04:47Z</time>
      </trkpt>
      <trkpt lat="44.21131" lon="2.15347">
        <ele>521</ele>
        <time>2016-10-23T14:04:52Z</time>
      </trkpt>
      <trkpt lat="44.21127" lon="2.15352">
        <ele>521</ele>
        <time>2016-10-23T14:04:57Z</time>
      </trkpt>
      <trkpt lat="44.21123" lon="2.15354">
        <ele>514</ele>
        <time>2016-10-23T14:05:02Z</time>
      </trkpt>
      <trkpt lat="44.21118" lon="2.15356">
        <ele>514</ele>
        <time>2016-10-23T14:05:07Z</time>
      </trkpt>
      <trkpt lat="44.21114" lon="2.15358">
        <ele>514</ele>
        <time>2016-10-23T14:05:12Z</time>
      </trkpt>
      <trkpt lat="44.21108" lon="2.15359">
        <ele>514</ele>
        <time>2016-10-23T14:05:17Z</time>
      </trkpt>
      <trkpt lat="44.21103" lon="2.15359">
        <ele>514</ele>
        <time>2016-10-23T14:05:22Z</time>
      </trkpt>
      <trkpt lat="44.21098" lon="2.15363">
        <ele>514</ele>
        <time>2016-10-23T14:05:27Z</time>
      </trkpt>
      <trkpt lat="44.21091" lon="2.15365">
        <ele>514</ele>
        <time>2016-10-23T14:05:32Z</time>
      </trkpt>
      <trkpt lat="44.21086" lon="2.15368">
        <ele>514</ele>
        <time>2016-10-23T14:05:37Z</time>
      </trkpt>
      <trkpt lat="44.21082" lon="2.15372">
        <ele>514</ele>
        <time>2016-10-23T14:05:42Z</time>
      </trkpt>
      <trkpt lat="44.21076" lon="2.15376">
        <ele>515</ele>
        <time>2016-10-23T14:05:47Z</time>
      </trkpt>
      <trkpt lat="44.21071" lon="2.15377">
        <ele>515</ele>
        <time>2016-10-23T14:05:52Z</time>
      </trkpt>
      <trkpt lat="44.21066" lon="2.15381">
        <ele>515</ele>
        <time>2016-10-23T14:05:57Z</time>
      </trkpt>
      <trkpt lat="44.2106" lon="2.15382">
        <ele>515</ele>
        <time>2016-10-23T14:06:02Z</time>
      </trkpt>
      <trkpt lat="44.21053" lon="2.15385">
        <ele>515</ele>
        <time>2016-10-23T14:06:07Z</time>
      </trkpt>
      <trkpt lat="44.21048" lon="2.15387">
        <ele>515</ele>
        <time>2016-10-23T14:06:12Z</time>
      </trkpt>
      <trkpt lat="44.21044" lon="2.15389">
        <ele>515</ele>
        <time>2016-10-23T14:06:17Z</time>
      </trkpt>
      <trkpt lat="44.21041" lon="2.15391">
        <ele>512</ele>
        <time>2016-10-23T14:06:22Z</time>
      </trkpt>
      <trkpt lat="44.21033" lon="2.15396">
        <ele>512</ele>
        <time>2016-10-23T14:06:27Z</time>
      </trkpt>
      <trkpt lat="44.21024" lon="2.15399">
        <ele>512</ele>
        <time>2016-10-23T14:06:32Z</time>
      </trkpt>
      <trkpt lat="44.21019" lon="2.15401">
        <ele>512</ele>
        <time>2016-10-23T14:06:37Z</time>
      </trkpt>
      <trkpt lat="44.21014" lon="2.15406">
        <ele>512</ele>
        <time>2016-10-23T14:06:42Z</time>
      </trkpt>
      <trkpt lat="44.21009" lon="2.15408">
        <ele>512</ele>
        <time>2016-10-23T14:06:47Z</time>
      </trkpt>
      <trkpt lat="44.21002" lon="2.15411">
        <ele>512</ele>
        <time>2016-10-23T14:06:52Z</time>
      </trkpt>
      <trkpt lat="44.20996" lon="2.15414">
        <ele>512</ele>
        <time>2016-10-23T14:06:57Z</time>
      </trkpt>
      <trkpt lat="44.20991" lon="2.15415">
        <ele>512</ele>
        <time>2016-10-23T14:07:02Z</time>
      </trkpt>
      <trkpt lat="44.20985" lon="2.15415">
        <ele>512</ele>
        <time>2016-10-23T14:07:07Z</time>
      </trkpt>
      <trkpt lat="44.20979" lon="2.15413">
        <ele>512</ele>
        <time>2016-10-23T14:07:12Z</time>
      </trkpt>
      <trkpt lat="44.20973" lon="2.1541">
        <ele>512</ele>
        <time>2016-10-23T14:07:17Z</time>
      </trkpt>
      <trkpt lat="44.2097" lon="2.15408">
        <ele>512</ele>
        <time>2016-10-23T14:07:22Z</time>
      </trkpt>
      <trkpt lat="44.2097" lon="2.15408">
        <ele>512</ele>
        <time>2016-10-23T14:07:27Z</time>
      </trkpt>
      <trkpt lat="44.20967" lon="2.15408">
        <ele>512</ele>
        <time>2016-10-23T14:07:32Z</time>
      </trkpt>
      <trkpt lat="44.20962" lon="2.15408">
        <ele>512</ele>
        <time>2016-10-23T14:07:37Z</time>
      </trkpt>
      <trkpt lat="44.20957" lon="2.15407">
        <ele>508</ele>
        <time>2016-10-23T14:07:42Z</time>
      </trkpt>
      <trkpt lat="44.20951" lon="2.15408">
        <ele>508</ele>
        <time>2016-10-23T14:07:47Z</time>
      </trkpt>
      <trkpt lat="44.20946" lon="2.15408">
        <ele>508</ele>
        <time>2016-10-23T14:07:52Z</time>
      </trkpt>
      <trkpt lat="44.20941" lon="2.15408">
        <ele>508</ele>
        <time>2016-10-23T14:07:57Z</time>
      </trkpt>
      <trkpt lat="44.20933" lon="2.15409">
        <ele>508</ele>
        <time>2016-10-23T14:08:02Z</time>
      </trkpt>
      <trkpt lat="44.20928" lon="2.15408">
        <ele>508</ele>
        <time>2016-10-23T14:08:07Z</time>
      </trkpt>
      <trkpt lat="44.20921" lon="2.15409">
        <ele>508</ele>
        <time>2016-10-23T14:08:12Z</time>
      </trkpt>
      <trkpt lat="44.20915" lon="2.15408">
        <ele>508</ele>
        <time>2016-10-23T14:08:17Z</time>
      </trkpt>
      <trkpt lat="44.20907" lon="2.15409">
        <ele>508</ele>
        <time>2016-10-23T14:08:22Z</time>
      </trkpt>
      <trkpt lat="44.20899" lon="2.1541">
        <ele>508</ele>
        <time>2016-10-23T14:08:27Z</time>
      </trkpt>
      <trkpt lat="44.20893" lon="2.15411">
        <ele>508</ele>
        <time>2016-10-23T14:08:32Z</time>
      </trkpt>
      <trkpt lat="44.20887" lon="2.15413">
        <ele>508</ele>
        <time>2016-10-23T14:08:37Z</time>
      </trkpt>
      <trkpt lat="44.20881" lon="2.15414">
        <ele>508</ele>
        <time>2016-10-23T14:08:42Z</time>
      </trkpt>
      <trkpt lat="44.20876" lon="2.15416">
        <ele>508</ele>
        <time>2016-10-23T14:08:47Z</time>
      </trkpt>
      <trkpt lat="44.20869" lon="2.15418">
        <ele>503</ele>
        <time>2016-10-23T14:08:52Z</time>
      </trkpt>
      <trkpt lat="44.20863" lon="2.1542">
        <ele>503</ele>
        <time>2016-10-23T14:08:57Z</time>
      </trkpt>
      <trkpt lat="44.20857" lon="2.15424">
        <ele>503</ele>
        <time>2016-10-23T14:09:02Z</time>
      </trkpt>
      <trkpt lat="44.2085" lon="2.15428">
        <ele>503</ele>
        <time>2016-10-23T14:09:07Z</time>
      </trkpt>
      <trkpt lat="44.20845" lon="2.1543">
        <ele>503</ele>
        <time>2016-10-23T14:09:12Z</time>
      </trkpt>
      <trkpt lat="44.20839" lon="2.15434">
        <ele>503</ele>
        <time>2016-10-23T14:09:17Z</time>
      </trkpt>
      <trkpt lat="44.20833" lon="2.15438">
        <ele>503</ele>
        <time>2016-10-23T14:09:22Z</time>
      </trkpt>
      <trkpt lat="44.20826" lon="2.15441">
        <ele>503</ele>
        <time>2016-10-23T14:09:27Z</time>
      </trkpt>
      <trkpt lat="44.20819" lon="2.15444">
        <ele>503</ele>
        <time>2016-10-23T14:09:32Z</time>
      </trkpt>
      <trkpt lat="44.20812" lon="2.15446">
        <ele>503</ele>
        <time>2016-10-23T14:09:37Z</time>
      </trkpt>
      <trkpt lat="44.20806" lon="2.15451">
        <ele>503</ele>
        <time>2016-10-23T14:09:42Z</time>
      </trkpt>
      <trkpt lat="44.20799" lon="2.15453">
        <ele>503</ele>
        <time>2016-10-23T14:09:47Z</time>
      </trkpt>
      <trkpt lat="44.20794" lon="2.15455">
        <ele>503</ele>
        <time>2016-10-23T14:09:52Z</time>
      </trkpt>
      <trkpt lat="44.20789" lon="2.15458">
        <ele>493</ele>
        <time>2016-10-23T14:09:57Z</time>
      </trkpt>
      <trkpt lat="44.20782" lon="2.15461">
        <ele>495</ele>
        <time>2016-10-23T14:10:02Z</time>
      </trkpt>
      <trkpt lat="44.20778" lon="2.15463">
        <ele>495</ele>
        <time>2016-10-23T14:10:07Z</time>
      </trkpt>
      <trkpt lat="44.20774" lon="2.15462">
        <ele>495</ele>
        <time>2016-10-23T14:10:12Z</time>
      </trkpt>
      <trkpt lat="44.2077" lon="2.15458">
        <ele>495</ele>
        <time>2016-10-23T14:10:17Z</time>
      </trkpt>
      <trkpt lat="44.20765" lon="2.15457">
        <ele>493</ele>
        <time>2016-10-23T14:10:22Z</time>
      </trkpt>
      <trkpt lat="44.20761" lon="2.15457">
        <ele>493</ele>
        <time>2016-10-23T14:10:27Z</time>
      </trkpt>
      <trkpt lat="44.20754" lon="2.15458">
        <ele>493</ele>
        <time>2016-10-23T14:10:32Z</time>
      </trkpt>
      <trkpt lat="44.20747" lon="2.1546">
        <ele>495</ele>
        <time>2016-10-23T14:10:37Z</time>
      </trkpt>
      <trkpt lat="44.20742" lon="2.15461">
        <ele>495</ele>
        <time>2016-10-23T14:10:42Z</time>
      </trkpt>
      <trkpt lat="44.20737" lon="2.15463">
        <ele>495</ele>
        <time>2016-10-23T14:10:47Z</time>
      </trkpt>
      <trkpt lat="44.2073" lon="2.15465">
        <ele>495</ele>
        <time>2016-10-23T14:10:52Z</time>
      </trkpt>
      <trkpt lat="44.20724" lon="2.15466">
        <ele>495</ele>
        <time>2016-10-23T14:10:57Z</time>
      </trkpt>
      <trkpt lat="44.20719" lon="2.15463">
        <ele>495</ele>
        <time>2016-10-23T14:11:02Z</time>
      </trkpt>
      <trkpt lat="44.20714" lon="2.15464">
        <ele>495</ele>
        <time>2016-10-23T14:11:07Z</time>
      </trkpt>
      <trkpt lat="44.20707" lon="2.15468">
        <ele>491</ele>
        <time>2016-10-23T14:11:12Z</time>
      </trkpt>
      <trkpt lat="44.20699" lon="2.15469">
        <ele>491</ele>
        <time>2016-10-23T14:11:17Z</time>
      </trkpt>
      <trkpt lat="44.20693" lon="2.15471">
        <ele>491</ele>
        <time>2016-10-23T14:11:22Z</time>
      </trkpt>
      <trkpt lat="44.20688" lon="2.15471">
        <ele>491</ele>
        <time>2016-10-23T14:11:27Z</time>
      </trkpt>
      <trkpt lat="44.20683" lon="2.15472">
        <ele>491</ele>
        <time>2016-10-23T14:11:32Z</time>
      </trkpt>
      <trkpt lat="44.20678" lon="2.15474">
        <ele>491</ele>
        <time>2016-10-23T14:11:37Z</time>
      </trkpt>
      <trkpt lat="44.20673" lon="2.15475">
        <ele>491</ele>
        <time>2016-10-23T14:11:42Z</time>
      </trkpt>
      <trkpt lat="44.20666" lon="2.15475">
        <ele>491</ele>
        <time>2016-10-23T14:11:47Z</time>
      </trkpt>
      <trkpt lat="44.20662" lon="2.15472">
        <ele>491</ele>
        <time>2016-10-23T14:11:52Z</time>
      </trkpt>
      <trkpt lat="44.20656" lon="2.15472">
        <ele>491</ele>
        <time>2016-10-23T14:11:57Z</time>
      </trkpt>
      <trkpt lat="44.2065" lon="2.15475">
        <ele>491</ele>
        <time>2016-10-23T14:12:02Z</time>
      </trkpt>
      <trkpt lat="44.20644" lon="2.15478">
        <ele>491</ele>
        <time>2016-10-23T14:12:07Z</time>
      </trkpt>
      <trkpt lat="44.20637" lon="2.15479">
        <ele>491</ele>
        <time>2016-10-23T14:12:12Z</time>
      </trkpt>
      <trkpt lat="44.20627" lon="2.1548">
        <ele>491</ele>
        <time>2016-10-23T14:12:17Z</time>
      </trkpt>
      <trkpt lat="44.20622" lon="2.15482">
        <ele>475</ele>
        <time>2016-10-23T14:12:22Z</time>
      </trkpt>
      <trkpt lat="44.20616" lon="2.15483">
        <ele>475</ele>
        <time>2016-10-23T14:12:27Z</time>
      </trkpt>
      <trkpt lat="44.20612" lon="2.15483">
        <ele>475</ele>
        <time>2016-10-23T14:12:32Z</time>
      </trkpt>
      <trkpt lat="44.20606" lon="2.15483">
        <ele>475</ele>
        <time>2016-10-23T14:12:37Z</time>
      </trkpt>
      <trkpt lat="44.20601" lon="2.15483">
        <ele>475</ele>
        <time>2016-10-23T14:12:42Z</time>
      </trkpt>
      <trkpt lat="44.20592" lon="2.15485">
        <ele>475</ele>
        <time>2016-10-23T14:12:47Z</time>
      </trkpt>
      <trkpt lat="44.20587" lon="2.15486">
        <ele>475</ele>
        <time>2016-10-23T14:12:52Z</time>
      </trkpt>
      <trkpt lat="44.20582" lon="2.15484">
        <ele>475</ele>
        <time>2016-10-23T14:12:57Z</time>
      </trkpt>
      <trkpt lat="44.20578" lon="2.15484">
        <ele>475</ele>
        <time>2016-10-23T14:13:02Z</time>
      </trkpt>
      <trkpt lat="44.20573" lon="2.15485">
        <ele>475</ele>
        <time>2016-10-23T14:13:07Z</time>
      </trkpt>
      <trkpt lat="44.20569" lon="2.15486">
        <ele>475</ele>
        <time>2016-10-23T14:13:12Z</time>
      </trkpt>
      <trkpt lat="44.20567" lon="2.15487">
        <ele>475</ele>
        <time>2016-10-23T14:13:17Z</time>
      </trkpt>
      <trkpt lat="44.20563" lon="2.15488">
        <ele>475</ele>
        <time>2016-10-23T14:13:22Z</time>
      </trkpt>
      <trkpt lat="44.20559" lon="2.15491">
        <ele>475</ele>
        <time>2016-10-23T14:13:27Z</time>
      </trkpt>
      <trkpt lat="44.20557" lon="2.15493">
        <ele>475</ele>
        <time>2016-10-23T14:13:32Z</time>
      </trkpt>
      <trkpt lat="44.20557" lon="2.15494">
        <ele>475</ele>
        <time>2016-10-23T14:13:37Z</time>
      </trkpt>
      <trkpt lat="44.20557" lon="2.15497">
        <ele>475</ele>
        <time>2016-10-23T14:13:42Z</time>
      </trkpt>
      <trkpt lat="44.20561" lon="2.15499">
        <ele>475</ele>
        <time>2016-10-23T14:13:47Z</time>
      </trkpt>
      <trkpt lat="44.20564" lon="2.155">
        <ele>475</ele>
        <time>2016-10-23T14:13:52Z</time>
      </trkpt>
      <trkpt lat="44.20568" lon="2.15501">
        <ele>475</ele>
        <time>2016-10-23T14:13:57Z</time>
      </trkpt>
      <trkpt lat="44.20573" lon="2.15504">
        <ele>475</ele>
        <time>2016-10-23T14:14:02Z</time>
      </trkpt>
      <trkpt lat="44.20578" lon="2.15507">
        <ele>475</ele>
        <time>2016-10-23T14:14:07Z</time>
      </trkpt>
      <trkpt lat="44.20579" lon="2.15509">
        <ele>475</ele>
        <time>2016-10-23T14:14:12Z</time>
      </trkpt>
      <trkpt lat="44.20584" lon="2.1551">
        <ele>475</ele>
        <time>2016-10-23T14:14:17Z</time>
      </trkpt>
      <trkpt lat="44.20585" lon="2.1551">
        <ele>475</ele>
        <time>2016-10-23T14:14:22Z</time>
      </trkpt>
      <trkpt lat="44.20587" lon="2.15512">
        <ele>475</ele>
        <time>2016-10-23T14:14:27Z</time>
      </trkpt>
      <trkpt lat="44.20591" lon="2.15517">
        <ele>475</ele>
        <time>2016-10-23T14:14:32Z</time>
      </trkpt>
      <trkpt lat="44.20599" lon="2.15521">
        <ele>475</ele>
        <time>2016-10-23T14:14:37Z</time>
      </trkpt>
      <trkpt lat="44.20605" lon="2.15525">
        <ele>475</ele>
        <time>2016-10-23T14:14:42Z</time>
      </trkpt>
      <trkpt lat="44.20607" lon="2.15529">
        <ele>475</ele>
        <time>2016-10-23T14:14:47Z</time>
      </trkpt>
      <trkpt lat="44.20611" lon="2.15533">
        <ele>475</ele>
        <time>2016-10-23T14:14:52Z</time>
      </trkpt>
      <trkpt lat="44.20613" lon="2.15536">
        <ele>475</ele>
        <time>2016-10-23T14:14:57Z</time>
      </trkpt>
      <trkpt lat="44.20617" lon="2.15542">
        <ele>448</ele>
        <time>2016-10-23T14:15:02Z</time>
      </trkpt>
      <trkpt lat="44.20621" lon="2.15547">
        <ele>448</ele>
        <time>2016-10-23T14:15:07Z</time>
      </trkpt>
      <trkpt lat="44.20626" lon="2.1555">
        <ele>465</ele>
        <time>2016-10-23T14:15:12Z</time>
      </trkpt>
      <trkpt lat="44.20633" lon="2.15557">
        <ele>465</ele>
        <time>2016-10-23T14:15:17Z</time>
      </trkpt>
      <trkpt lat="44.20637" lon="2.15564">
        <ele>465</ele>
        <time>2016-10-23T14:15:22Z</time>
      </trkpt>
      <trkpt lat="44.20641" lon="2.15567">
        <ele>465</ele>
        <time>2016-10-23T14:15:27Z</time>
      </trkpt>
      <trkpt lat="44.20645" lon="2.15569">
        <ele>465</ele>
        <time>2016-10-23T14:15:32Z</time>
      </trkpt>
      <trkpt lat="44.2065" lon="2.15573">
        <ele>465</ele>
        <time>2016-10-23T14:15:37Z</time>
      </trkpt>
      <trkpt lat="44.20657" lon="2.15579">
        <ele>465</ele>
        <time>2016-10-23T14:15:42Z</time>
      </trkpt>
      <trkpt lat="44.20661" lon="2.15583">
        <ele>465</ele>
        <time>2016-10-23T14:15:47Z</time>
      </trkpt>
      <trkpt lat="44.20667" lon="2.15586">
        <ele>465</ele>
        <time>2016-10-23T14:15:52Z</time>
      </trkpt>
      <trkpt lat="44.20671" lon="2.15589">
        <ele>465</ele>
        <time>2016-10-23T14:15:57Z</time>
      </trkpt>
      <trkpt lat="44.20674" lon="2.15595">
        <ele>465</ele>
        <time>2016-10-23T14:16:02Z</time>
      </trkpt>
      <trkpt lat="44.20677" lon="2.156">
        <ele>465</ele>
        <time>2016-10-23T14:16:07Z</time>
      </trkpt>
      <trkpt lat="44.20679" lon="2.15603">
        <ele>465</ele>
        <time>2016-10-23T14:16:12Z</time>
      </trkpt>
      <trkpt lat="44.2068" lon="2.15611">
        <ele>465</ele>
        <time>2016-10-23T14:16:17Z</time>
      </trkpt>
      <trkpt lat="44.20684" lon="2.15619">
        <ele>465</ele>
        <time>2016-10-23T14:16:22Z</time>
      </trkpt>
      <trkpt lat="44.20688" lon="2.15622">
        <ele>465</ele>
        <time>2016-10-23T14:16:27Z</time>
      </trkpt>
      <trkpt lat="44.20689" lon="2.15627">
        <ele>433</ele>
        <time>2016-10-23T14:16:32Z</time>
      </trkpt>
      <trkpt lat="44.20689" lon="2.15629">
        <ele>433</ele>
        <time>2016-10-23T14:16:37Z</time>
      </trkpt>
      <trkpt lat="44.20688" lon="2.15629">
        <ele>433</ele>
        <time>2016-10-23T14:16:42Z</time>
      </trkpt>
      <trkpt lat="44.20688" lon="2.1563">
        <ele>433</ele>
        <time>2016-10-23T14:16:47Z</time>
      </trkpt>
      <trkpt lat="44.20688" lon="2.15631">
        <ele>433</ele>
        <time>2016-10-23T14:16:52Z</time>
      </trkpt>
      <trkpt lat="44.20688" lon="2.15631">
        <ele>433</ele>
        <time>2016-10-23T14:16:57Z</time>
      </trkpt>
      <trkpt lat="44.20688" lon="2.15631">
        <ele>433</ele>
        <time>2016-10-23T14:17:02Z</time>
      </trkpt>
      <trkpt lat="44.20688" lon="2.15632">
        <ele>433</ele>
        <time>2016-10-23T14:17:07Z</time>
      </trkpt>
      <trkpt lat="44.20687" lon="2.15632">
        <ele>433</ele>
        <time>2016-10-23T14:17:12Z</time>
      </trkpt>
      <trkpt lat="44.20687" lon="2.15632">
        <ele>433</ele>
        <time>2016-10-23T14:17:17Z</time>
      </trkpt>
      <trkpt lat="44.20687" lon="2.15632">
        <ele>433</ele>
        <time>2016-10-23T14:17:22Z</time>
      </trkpt>
      <trkpt lat="44.20687" lon="2.15632">
        <ele>433</ele>
        <time>2016-10-23T14:17:27Z</time>
      </trkpt>
      <trkpt lat="44.20687" lon="2.15632">
        <ele>433</ele>
        <time>2016-10-23T14:17:32Z</time>
      </trkpt>
      <trkpt lat="44.20687" lon="2.15632">
        <ele>433</ele>
        <time>2016-10-23T14:17:37Z</time>
      </trkpt>
      <trkpt lat="44.20687" lon="2.15633">
        <ele>433</ele>
        <time>2016-10-23T14:17:42Z</time>
      </trkpt>
      <trkpt lat="44.20686" lon="2.15635">
        <ele>433</ele>
        <time>2016-10-23T14:17:47Z</time>
      </trkpt>
      <trkpt lat="44.20686" lon="2.15635">
        <ele>433</ele>
        <time>2016-10-23T14:17:52Z</time>
      </trkpt>
      <trkpt lat="44.20685" lon="2.15635">
        <ele>433</ele>
        <time>2016-10-23T14:17:57Z</time>
      </trkpt>
      <trkpt lat="44.20685" lon="2.15635">
        <ele>433</ele>
        <time>2016-10-23T14:18:02Z</time>
      </trkpt>
      <trkpt lat="44.20685" lon="2.15635">
        <ele>433</ele>
        <time>2016-10-23T14:18:07Z</time>
      </trkpt>
      <trkpt lat="44.20685" lon="2.15635">
        <ele>433</ele>
        <time>2016-10-23T14:18:12Z</time>
      </trkpt>
      <trkpt lat="44.20685" lon="2.15635">
        <ele>433</ele>
        <time>2016-10-23T14:18:17Z</time>
      </trkpt>
      <trkpt lat="44.20685" lon="2.15635">
        <ele>433</ele>
        <time>2016-10-23T14:18:22Z</time>
      </trkpt>
      <trkpt lat="44.20686" lon="2.15635">
        <ele>433</ele>
        <time>2016-10-23T14:18:27Z</time>
      </trkpt>
      <trkpt lat="44.20686" lon="2.15635">
        <ele>433</ele>
        <time>2016-10-23T14:18:32Z</time>
      </trkpt>
      <trkpt lat="44.20686" lon="2.15635">
        <ele>433</ele>
        <time>2016-10-23T14:18:37Z</time>
      </trkpt>
      <trkpt lat="44.20686" lon="2.15635">
        <ele>433</ele>
        <time>2016-10-23T14:18:42Z</time>
      </trkpt>
      <trkpt lat="44.20686" lon="2.15635">
        <ele>433</ele>
        <time>2016-10-23T14:18:47Z</time>
      </trkpt>
      <trkpt lat="44.20686" lon="2.15635">
        <ele>433</ele>
        <time>2016-10-23T14:18:52Z</time>
      </trkpt>
      <trkpt lat="44.20686" lon="2.15635">
        <ele>433</ele>
        <time>2016-10-23T14:18:57Z</time>
      </trkpt>
      <trkpt lat="44.20686" lon="2.15635">
        <ele>433</ele>
        <time>2016-10-23T14:19:02Z</time>
      </trkpt>
      <trkpt lat="44.20686" lon="2.15634">
        <ele>433</ele>
        <time>2016-10-23T14:19:07Z</time>
      </trkpt>
      <trkpt lat="44.20686" lon="2.15633">
        <ele>433</ele>
        <time>2016-10-23T14:19:12Z</time>
      </trkpt>
      <trkpt lat="44.20686" lon="2.15632">
        <ele>433</ele>
        <time>2016-10-23T14:19:17Z</time>
      </trkpt>
      <trkpt lat="44.20686" lon="2.15632">
        <ele>433</ele>
        <time>2016-10-23T14:19:22Z</time>
      </trkpt>
      <trkpt lat="44.20686" lon="2.15632">
        <ele>433</ele>
        <time>2016-10-23T14:19:27Z</time>
      </trkpt>
      <trkpt lat="44.20686" lon="2.15632">
        <ele>433</ele>
        <time>2016-10-23T14:19:32Z</time>
      </trkpt>
      <trkpt lat="44.20686" lon="2.15632">
        <ele>433</ele>
        <time>2016-10-23T14:19:37Z</time>
      </trkpt>
      <trkpt lat="44.20686" lon="2.15632">
        <ele>433</ele>
        <time>2016-10-23T14:19:42Z</time>
      </trkpt>
      <trkpt lat="44.20686" lon="2.15632">
        <ele>433</ele>
        <time>2016-10-23T14:19:47Z</time>
      </trkpt>
      <trkpt lat="44.20686" lon="2.15631">
        <ele>433</ele>
        <time>2016-10-23T14:19:52Z</time>
      </trkpt>
      <trkpt lat="44.20687" lon="2.1563">
        <ele>433</ele>
        <time>2016-10-23T14:19:57Z</time>
      </trkpt>
      <trkpt lat="44.20687" lon="2.1563">
        <ele>433</ele>
        <time>2016-10-23T14:20:02Z</time>
      </trkpt>
      <trkpt lat="44.20687" lon="2.1563">
        <ele>433</ele>
        <time>2016-10-23T14:20:07Z</time>
      </trkpt>
      <trkpt lat="44.20687" lon="2.1563">
        <ele>433</ele>
        <time>2016-10-23T14:20:12Z</time>
      </trkpt>
      <trkpt lat="44.20687" lon="2.1563">
        <ele>433</ele>
        <time>2016-10-23T14:20:17Z</time>
      </trkpt>
      <trkpt lat="44.20687" lon="2.1563">
        <ele>433</ele>
        <time>2016-10-23T14:20:22Z</time>
      </trkpt>
      <trkpt lat="44.20687" lon="2.1563">
        <ele>433</ele>
        <time>2016-10-23T14:20:27Z</time>
      </trkpt>
      <trkpt lat="44.20687" lon="2.1563">
        <ele>433</ele>
        <time>2016-10-23T14:20:32Z</time>
      </trkpt>
      <trkpt lat="44.20687" lon="2.15629">
        <ele>433</ele>
        <time>2016-10-23T14:20:37Z</time>
      </trkpt>
      <trkpt lat="44.20687" lon="2.15628">
        <ele>433</ele>
        <time>2016-10-23T14:20:42Z</time>
      </trkpt>
      <trkpt lat="44.20687" lon="2.15628">
        <ele>433</ele>
        <time>2016-10-23T14:20:47Z</time>
      </trkpt>
      <trkpt lat="44.20686" lon="2.15627">
        <ele>433</ele>
        <time>2016-10-23T14:20:52Z</time>
      </trkpt>
      <trkpt lat="44.20686" lon="2.15627">
        <ele>433</ele>
        <time>2016-10-23T14:20:57Z</time>
      </trkpt>
      <trkpt lat="44.20686" lon="2.15627">
        <ele>433</ele>
        <time>2016-10-23T14:21:02Z</time>
      </trkpt>
      <trkpt lat="44.20686" lon="2.15626">
        <ele>433</ele>
        <time>2016-10-23T14:21:07Z</time>
      </trkpt>
      <trkpt lat="44.20685" lon="2.15626">
        <ele>433</ele>
        <time>2016-10-23T14:21:12Z</time>
      </trkpt>
      <trkpt lat="44.20685" lon="2.15626">
        <ele>433</ele>
        <time>2016-10-23T14:21:17Z</time>
      </trkpt>
      <trkpt lat="44.20684" lon="2.15626">
        <ele>433</ele>
        <time>2016-10-23T14:21:22Z</time>
      </trkpt>
      <trkpt lat="44.20686" lon="2.15627">
        <ele>433</ele>
        <time>2016-10-23T14:21:27Z</time>
      </trkpt>
      <trkpt lat="44.20687" lon="2.15626">
        <ele>433</ele>
        <time>2016-10-23T14:21:32Z</time>
      </trkpt>
      <trkpt lat="44.20687" lon="2.15627">
        <ele>433</ele>
        <time>2016-10-23T14:21:37Z</time>
      </trkpt>
      <trkpt lat="44.20687" lon="2.15627">
        <ele>433</ele>
        <time>2016-10-23T14:21:42Z</time>
      </trkpt>
      <trkpt lat="44.20687" lon="2.15627">
        <ele>433</ele>
        <time>2016-10-23T14:21:47Z</time>
      </trkpt>
      <trkpt lat="44.20686" lon="2.15626">
        <ele>433</ele>
        <time>2016-10-23T14:21:52Z</time>
      </trkpt>
      <trkpt lat="44.20687" lon="2.15626">
        <ele>433</ele>
        <time>2016-10-23T14:21:57Z</time>
      </trkpt>
      <trkpt lat="44.20686" lon="2.15626">
        <ele>433</ele>
        <time>2016-10-23T14:22:02Z</time>
      </trkpt>
      <trkpt lat="44.20684" lon="2.15624">
        <ele>465</ele>
        <time>2016-10-23T14:22:07Z</time>
      </trkpt>
      <trkpt lat="44.20682" lon="2.15621">
        <ele>465</ele>
        <time>2016-10-23T14:22:12Z</time>
      </trkpt>
      <trkpt lat="44.2068" lon="2.1562">
        <ele>465</ele>
        <time>2016-10-23T14:22:17Z</time>
      </trkpt>
      <trkpt lat="44.20675" lon="2.1562">
        <ele>465</ele>
        <time>2016-10-23T14:22:22Z</time>
      </trkpt>
      <trkpt lat="44.20669" lon="2.15618">
        <ele>465</ele>
        <time>2016-10-23T14:22:27Z</time>
      </trkpt>
      <trkpt lat="44.20665" lon="2.15617">
        <ele>465</ele>
        <time>2016-10-23T14:22:32Z</time>
      </trkpt>
      <trkpt lat="44.20662" lon="2.15618">
        <ele>465</ele>
        <time>2016-10-23T14:22:37Z</time>
      </trkpt>
      <trkpt lat="44.2066" lon="2.15618">
        <ele>465</ele>
        <time>2016-10-23T14:22:42Z</time>
      </trkpt>
      <trkpt lat="44.2066" lon="2.15618">
        <ele>465</ele>
        <time>2016-10-23T14:22:47Z</time>
      </trkpt>
      <trkpt lat="44.20659" lon="2.15619">
        <ele>465</ele>
        <time>2016-10-23T14:22:52Z</time>
      </trkpt>
      <trkpt lat="44.20658" lon="2.1562">
        <ele>465</ele>
        <time>2016-10-23T14:22:57Z</time>
      </trkpt>
      <trkpt lat="44.20655" lon="2.15617">
        <ele>465</ele>
        <time>2016-10-23T14:23:02Z</time>
      </trkpt>
      <trkpt lat="44.20649" lon="2.15617">
        <ele>465</ele>
        <time>2016-10-23T14:23:07Z</time>
      </trkpt>
      <trkpt lat="44.20644" lon="2.15617">
        <ele>465</ele>
        <time>2016-10-23T14:23:12Z</time>
      </trkpt>
      <trkpt lat="44.20639" lon="2.15616">
        <ele>465</ele>
        <time>2016-10-23T14:23:17Z</time>
      </trkpt>
      <trkpt lat="44.20636" lon="2.15616">
        <ele>465</ele>
        <time>2016-10-23T14:23:22Z</time>
      </trkpt>
      <trkpt lat="44.20632" lon="2.15613">
        <ele>465</ele>
        <time>2016-10-23T14:23:27Z</time>
      </trkpt>
      <trkpt lat="44.20625" lon="2.15609">
        <ele>465</ele>
        <time>2016-10-23T14:23:32Z</time>
      </trkpt>
      <trkpt lat="44.20619" lon="2.15611">
        <ele>448</ele>
        <time>2016-10-23T14:23:37Z</time>
      </trkpt>
      <trkpt lat="44.20614" lon="2.15611">
        <ele>448</ele>
        <time>2016-10-23T14:23:42Z</time>
      </trkpt>
      <trkpt lat="44.20609" lon="2.15612">
        <ele>448</ele>
        <time>2016-10-23T14:23:47Z</time>
      </trkpt>
      <trkpt lat="44.20606" lon="2.1561">
        <ele>448</ele>
        <time>2016-10-23T14:23:52Z</time>
      </trkpt>
      <trkpt lat="44.206" lon="2.15608">
        <ele>448</ele>
        <time>2016-10-23T14:23:57Z</time>
      </trkpt>
      <trkpt lat="44.20597" lon="2.15606">
        <ele>448</ele>
        <time>2016-10-23T14:24:02Z</time>
      </trkpt>
      <trkpt lat="44.20596" lon="2.15607">
        <ele>448</ele>
        <time>2016-10-23T14:24:07Z</time>
      </trkpt>
      <trkpt lat="44.20596" lon="2.15608">
        <ele>448</ele>
        <time>2016-10-23T14:24:12Z</time>
      </trkpt>
      <trkpt lat="44.20595" lon="2.15607">
        <ele>448</ele>
        <time>2016-10-23T14:24:17Z</time>
      </trkpt>
      <trkpt lat="44.20593" lon="2.15605">
        <ele>448</ele>
        <time>2016-10-23T14:24:22Z</time>
      </trkpt>
      <trkpt lat="44.20593" lon="2.15604">
        <ele>448</ele>
        <time>2016-10-23T14:24:27Z</time>
      </trkpt>
      <trkpt lat="44.20593" lon="2.15604">
        <ele>448</ele>
        <time>2016-10-23T14:24:32Z</time>
      </trkpt>
      <trkpt lat="44.20593" lon="2.15605">
        <ele>448</ele>
        <time>2016-10-23T14:24:37Z</time>
      </trkpt>
      <trkpt lat="44.20593" lon="2.15605">
        <ele>448</ele>
        <time>2016-10-23T14:24:42Z</time>
      </trkpt>
      <trkpt lat="44.20594" lon="2.15606">
        <ele>448</ele>
        <time>2016-10-23T14:24:47Z</time>
      </trkpt>
      <trkpt lat="44.20593" lon="2.15607">
        <ele>448</ele>
        <time>2016-10-23T14:24:52Z</time>
      </trkpt>
      <trkpt lat="44.20592" lon="2.15608">
        <ele>448</ele>
        <time>2016-10-23T14:24:57Z</time>
      </trkpt>
      <trkpt lat="44.20591" lon="2.15609">
        <ele>448</ele>
        <time>2016-10-23T14:25:02Z</time>
      </trkpt>
      <trkpt lat="44.20591" lon="2.15609">
        <ele>448</ele>
        <time>2016-10-23T14:25:07Z</time>
      </trkpt>
      <trkpt lat="44.20592" lon="2.15608">
        <ele>448</ele>
        <time>2016-10-23T14:25:12Z</time>
      </trkpt>
      <trkpt lat="44.20592" lon="2.15609">
        <ele>448</ele>
        <time>2016-10-23T14:25:17Z</time>
      </trkpt>
      <trkpt lat="44.20592" lon="2.15609">
        <ele>448</ele>
        <time>2016-10-23T14:25:22Z</time>
      </trkpt>
      <trkpt lat="44.20593" lon="2.15609">
        <ele>448</ele>
        <time>2016-10-23T14:25:27Z</time>
      </trkpt>
      <trkpt lat="44.20593" lon="2.15609">
        <ele>448</ele>
        <time>2016-10-23T14:25:32Z</time>
      </trkpt>
      <trkpt lat="44.20593" lon="2.1561">
        <ele>448</ele>
        <time>2016-10-23T14:25:37Z</time>
      </trkpt>
      <trkpt lat="44.20593" lon="2.1561">
        <ele>448</ele>
        <time>2016-10-23T14:25:42Z</time>
      </trkpt>
      <trkpt lat="44.20593" lon="2.1561">
        <ele>448</ele>
        <time>2016-10-23T14:25:47Z</time>
      </trkpt>
      <trkpt lat="44.20594" lon="2.15611">
        <ele>448</ele>
        <time>2016-10-23T14:25:52Z</time>
      </trkpt>
      <trkpt lat="44.20594" lon="2.15611">
        <ele>448</ele>
        <time>2016-10-23T14:25:57Z</time>
      </trkpt>
      <trkpt lat="44.20594" lon="2.1561">
        <ele>448</ele>
        <time>2016-10-23T14:26:02Z</time>
      </trkpt>
      <trkpt lat="44.20594" lon="2.1561">
        <ele>448</ele>
        <time>2016-10-23T14:26:07Z</time>
      </trkpt>
      <trkpt lat="44.20593" lon="2.15609">
        <ele>448</ele>
        <time>2016-10-23T14:26:12Z</time>
      </trkpt>
      <trkpt lat="44.20592" lon="2.1561">
        <ele>448</ele>
        <time>2016-10-23T14:26:17Z</time>
      </trkpt>
      <trkpt lat="44.20591" lon="2.15609">
        <ele>448</ele>
        <time>2016-10-23T14:26:22Z</time>
      </trkpt>
      <trkpt lat="44.20591" lon="2.15613">
        <ele>448</ele>
        <time>2016-10-23T14:26:27Z</time>
      </trkpt>
      <trkpt lat="44.20591" lon="2.15613">
        <ele>448</ele>
        <time>2016-10-23T14:26:32Z</time>
      </trkpt>
      <trkpt lat="44.20592" lon="2.15615">
        <ele>448</ele>
        <time>2016-10-23T14:26:37Z</time>
      </trkpt>
      <trkpt lat="44.20592" lon="2.15614">
        <ele>448</ele>
        <time>2016-10-23T14:26:42Z</time>
      </trkpt>
      <trkpt lat="44.20592" lon="2.15614">
        <ele>448</ele>
        <time>2016-10-23T14:26:47Z</time>
      </trkpt>
      <trkpt lat="44.20592" lon="2.15613">
        <ele>448</ele>
        <time>2016-10-23T14:26:52Z</time>
      </trkpt>
      <trkpt lat="44.20592" lon="2.15613">
        <ele>448</ele>
        <time>2016-10-23T14:26:57Z</time>
      </trkpt>
      <trkpt lat="44.20592" lon="2.15614">
        <ele>448</ele>
        <time>2016-10-23T14:27:02Z</time>
      </trkpt>
      <trkpt lat="44.20593" lon="2.15611">
        <ele>448</ele>
        <time>2016-10-23T14:27:07Z</time>
      </trkpt>
      <trkpt lat="44.20595" lon="2.15613">
        <ele>448</ele>
        <time>2016-10-23T14:27:12Z</time>
      </trkpt>
      <trkpt lat="44.20596" lon="2.15614">
        <ele>448</ele>
        <time>2016-10-23T14:27:17Z</time>
      </trkpt>
      <trkpt lat="44.20596" lon="2.15613">
        <ele>448</ele>
        <time>2016-10-23T14:27:22Z</time>
      </trkpt>
      <trkpt lat="44.20596" lon="2.15614">
        <ele>448</ele>
        <time>2016-10-23T14:27:27Z</time>
      </trkpt>
      <trkpt lat="44.20597" lon="2.15614">
        <ele>448</ele>
        <time>2016-10-23T14:27:32Z</time>
      </trkpt>
      <trkpt lat="44.20597" lon="2.15614">
        <ele>448</ele>
        <time>2016-10-23T14:27:37Z</time>
      </trkpt>
      <trkpt lat="44.20597" lon="2.15614">
        <ele>448</ele>
        <time>2016-10-23T14:27:42Z</time>
      </trkpt>
      <trkpt lat="44.20597" lon="2.15614">
        <ele>448</ele>
        <time>2016-10-23T14:27:47Z</time>
      </trkpt>
      <trkpt lat="44.20598" lon="2.15614">
        <ele>448</ele>
        <time>2016-10-23T14:27:52Z</time>
      </trkpt>
      <trkpt lat="44.20598" lon="2.15614">
        <ele>448</ele>
        <time>2016-10-23T14:27:57Z</time>
      </trkpt>
      <trkpt lat="44.20598" lon="2.15614">
        <ele>448</ele>
        <time>2016-10-23T14:28:02Z</time>
      </trkpt>
      <trkpt lat="44.20598" lon="2.15614">
        <ele>448</ele>
        <time>2016-10-23T14:28:07Z</time>
      </trkpt>
      <trkpt lat="44.20598" lon="2.15614">
        <ele>448</ele>
        <time>2016-10-23T14:28:12Z</time>
      </trkpt>
      <trkpt lat="44.20599" lon="2.15614">
        <ele>448</ele>
        <time>2016-10-23T14:28:17Z</time>
      </trkpt>
      <trkpt lat="44.20604" lon="2.15612">
        <ele>448</ele>
        <time>2016-10-23T14:28:22Z</time>
      </trkpt>
      <trkpt lat="44.20609" lon="2.15613">
        <ele>448</ele>
        <time>2016-10-23T14:28:27Z</time>
      </trkpt>
      <trkpt lat="44.20616" lon="2.15612">
        <ele>448</ele>
        <time>2016-10-23T14:28:32Z</time>
      </trkpt>
      <trkpt lat="44.20621" lon="2.15614">
        <ele>448</ele>
        <time>2016-10-23T14:28:37Z</time>
      </trkpt>
      <trkpt lat="44.20626" lon="2.15616">
        <ele>465</ele>
        <time>2016-10-23T14:28:42Z</time>
      </trkpt>
      <trkpt lat="44.2063" lon="2.15615">
        <ele>465</ele>
        <time>2016-10-23T14:28:47Z</time>
      </trkpt>
      <trkpt lat="44.20635" lon="2.15614">
        <ele>465</ele>
        <time>2016-10-23T14:28:52Z</time>
      </trkpt>
      <trkpt lat="44.20642" lon="2.15612">
        <ele>465</ele>
        <time>2016-10-23T14:28:57Z</time>
      </trkpt>
      <trkpt lat="44.2065" lon="2.15611">
        <ele>465</ele>
        <time>2016-10-23T14:29:02Z</time>
      </trkpt>
      <trkpt lat="44.20657" lon="2.15614">
        <ele>465</ele>
        <time>2016-10-23T14:29:07Z</time>
      </trkpt>
      <trkpt lat="44.20662" lon="2.15618">
        <ele>465</ele>
        <time>2016-10-23T14:29:12Z</time>
      </trkpt>
      <trkpt lat="44.20664" lon="2.15625">
        <ele>433</ele>
        <time>2016-10-23T14:29:17Z</time>
      </trkpt>
      <trkpt lat="44.20668" lon="2.15627">
        <ele>433</ele>
        <time>2016-10-23T14:29:22Z</time>
      </trkpt>
      <trkpt lat="44.20671" lon="2.1563">
        <ele>433</ele>
        <time>2016-10-23T14:29:27Z</time>
      </trkpt>
      <trkpt lat="44.20674" lon="2.15633">
        <ele>433</ele>
        <time>2016-10-23T14:29:32Z</time>
      </trkpt>
      <trkpt lat="44.20677" lon="2.15638">
        <ele>433</ele>
        <time>2016-10-23T14:29:37Z</time>
      </trkpt>
      <trkpt lat="44.20681" lon="2.15644">
        <ele>433</ele>
        <time>2016-10-23T14:29:42Z</time>
      </trkpt>
      <trkpt lat="44.20684" lon="2.15649">
        <ele>433</ele>
        <time>2016-10-23T14:29:47Z</time>
      </trkpt>
      <trkpt lat="44.20683" lon="2.15654">
        <ele>433</ele>
        <time>2016-10-23T14:29:52Z</time>
      </trkpt>
      <trkpt lat="44.20686" lon="2.15659">
        <ele>433</ele>
        <time>2016-10-23T14:29:57Z</time>
      </trkpt>
      <trkpt lat="44.20694" lon="2.15665">
        <ele>433</ele>
        <time>2016-10-23T14:30:02Z</time>
      </trkpt>
      <trkpt lat="44.20699" lon="2.15669">
        <ele>433</ele>
        <time>2016-10-23T14:30:07Z</time>
      </trkpt>
      <trkpt lat="44.20706" lon="2.15675">
        <ele>433</ele>
        <time>2016-10-23T14:30:12Z</time>
      </trkpt>
      <trkpt lat="44.2071" lon="2.15679">
        <ele>450</ele>
        <time>2016-10-23T14:30:17Z</time>
      </trkpt>
      <trkpt lat="44.20715" lon="2.15683">
        <ele>450</ele>
        <time>2016-10-23T14:30:22Z</time>
      </trkpt>
      <trkpt lat="44.20721" lon="2.15689">
        <ele>450</ele>
        <time>2016-10-23T14:30:27Z</time>
      </trkpt>
      <trkpt lat="44.20729" lon="2.15694">
        <ele>450</ele>
        <time>2016-10-23T14:30:32Z</time>
      </trkpt>
      <trkpt lat="44.20736" lon="2.15701">
        <ele>450</ele>
        <time>2016-10-23T14:30:37Z</time>
      </trkpt>
      <trkpt lat="44.2074" lon="2.15705">
        <ele>450</ele>
        <time>2016-10-23T14:30:42Z</time>
      </trkpt>
      <trkpt lat="44.20745" lon="2.15707">
        <ele>450</ele>
        <time>2016-10-23T14:30:47Z</time>
      </trkpt>
      <trkpt lat="44.20751" lon="2.15708">
        <ele>450</ele>
        <time>2016-10-23T14:30:52Z</time>
      </trkpt>
      <trkpt lat="44.20759" lon="2.1571">
        <ele>411</ele>
        <time>2016-10-23T14:30:57Z</time>
      </trkpt>
      <trkpt lat="44.20766" lon="2.15713">
        <ele>411</ele>
        <time>2016-10-23T14:31:02Z</time>
      </trkpt>
      <trkpt lat="44.20771" lon="2.15717">
        <ele>411</ele>
        <time>2016-10-23T14:31:07Z</time>
      </trkpt>
      <trkpt lat="44.20774" lon="2.15719">
        <ele>411</ele>
        <time>2016-10-23T14:31:12Z</time>
      </trkpt>
      <trkpt lat="44.20775" lon="2.15722">
        <ele>411</ele>
        <time>2016-10-23T14:31:17Z</time>
      </trkpt>
      <trkpt lat="44.20781" lon="2.15725">
        <ele>411</ele>
        <time>2016-10-23T14:31:22Z</time>
      </trkpt>
      <trkpt lat="44.20787" lon="2.15728">
        <ele>411</ele>
        <time>2016-10-23T14:31:27Z</time>
      </trkpt>
      <trkpt lat="44.20793" lon="2.15732">
        <ele>427</ele>
        <time>2016-10-23T14:31:32Z</time>
      </trkpt>
      <trkpt lat="44.208" lon="2.15734">
        <ele>427</ele>
        <time>2016-10-23T14:31:37Z</time>
      </trkpt>
      <trkpt lat="44.20807" lon="2.15735">
        <ele>427</ele>
        <time>2016-10-23T14:31:42Z</time>
      </trkpt>
      <trkpt lat="44.20817" lon="2.15737">
        <ele>427</ele>
        <time>2016-10-23T14:31:47Z</time>
      </trkpt>
      <trkpt lat="44.20823" lon="2.1574">
        <ele>427</ele>
        <time>2016-10-23T14:31:52Z</time>
      </trkpt>
      <trkpt lat="44.2083" lon="2.15742">
        <ele>427</ele>
        <time>2016-10-23T14:31:57Z</time>
      </trkpt>
      <trkpt lat="44.20836" lon="2.15745">
        <ele>427</ele>
        <time>2016-10-23T14:32:02Z</time>
      </trkpt>
      <trkpt lat="44.20842" lon="2.15748">
        <ele>427</ele>
        <time>2016-10-23T14:32:07Z</time>
      </trkpt>
      <trkpt lat="44.20844" lon="2.15751">
        <ele>427</ele>
        <time>2016-10-23T14:32:12Z</time>
      </trkpt>
      <trkpt lat="44.20848" lon="2.15754">
        <ele>427</ele>
        <time>2016-10-23T14:32:17Z</time>
      </trkpt>
      <trkpt lat="44.2085" lon="2.1576">
        <ele>427</ele>
        <time>2016-10-23T14:32:22Z</time>
      </trkpt>
      <trkpt lat="44.20858" lon="2.15765">
        <ele>427</ele>
        <time>2016-10-23T14:32:27Z</time>
      </trkpt>
      <trkpt lat="44.20859" lon="2.15774">
        <ele>427</ele>
        <time>2016-10-23T14:32:32Z</time>
      </trkpt>
      <trkpt lat="44.20863" lon="2.15782">
        <ele>427</ele>
        <time>2016-10-23T14:32:37Z</time>
      </trkpt>
      <trkpt lat="44.20866" lon="2.15789">
        <ele>427</ele>
        <time>2016-10-23T14:32:42Z</time>
      </trkpt>
      <trkpt lat="44.20868" lon="2.15796">
        <ele>399</ele>
        <time>2016-10-23T14:32:47Z</time>
      </trkpt>
      <trkpt lat="44.20872" lon="2.15804">
        <ele>399</ele>
        <time>2016-10-23T14:32:52Z</time>
      </trkpt>
      <trkpt lat="44.20876" lon="2.15811">
        <ele>405</ele>
        <time>2016-10-23T14:32:57Z</time>
      </trkpt>
      <trkpt lat="44.20879" lon="2.15815">
        <ele>405</ele>
        <time>2016-10-23T14:33:02Z</time>
      </trkpt>
      <trkpt lat="44.20882" lon="2.15821">
        <ele>405</ele>
        <time>2016-10-23T14:33:07Z</time>
      </trkpt>
      <trkpt lat="44.20883" lon="2.15826">
        <ele>405</ele>
        <time>2016-10-23T14:33:12Z</time>
      </trkpt>
      <trkpt lat="44.20885" lon="2.15831">
        <ele>405</ele>
        <time>2016-10-23T14:33:17Z</time>
      </trkpt>
      <trkpt lat="44.20885" lon="2.15834">
        <ele>405</ele>
        <time>2016-10-23T14:33:22Z</time>
      </trkpt>
      <trkpt lat="44.20884" lon="2.15831">
        <ele>405</ele>
        <time>2016-10-23T14:33:27Z</time>
      </trkpt>
      <trkpt lat="44.20883" lon="2.15833">
        <ele>405</ele>
        <time>2016-10-23T14:33:32Z</time>
      </trkpt>
      <trkpt lat="44.2088" lon="2.15831">
        <ele>405</ele>
        <time>2016-10-23T14:33:37Z</time>
      </trkpt>
      <trkpt lat="44.20878" lon="2.15833">
        <ele>405</ele>
        <time>2016-10-23T14:33:42Z</time>
      </trkpt>
      <trkpt lat="44.20875" lon="2.15832">
        <ele>399</ele>
        <time>2016-10-23T14:33:47Z</time>
      </trkpt>
      <trkpt lat="44.20871" lon="2.15832">
        <ele>399</ele>
        <time>2016-10-23T14:33:52Z</time>
      </trkpt>
      <trkpt lat="44.20864" lon="2.15831">
        <ele>399</ele>
        <time>2016-10-23T14:33:57Z</time>
      </trkpt>
      <trkpt lat="44.20858" lon="2.1583">
        <ele>399</ele>
        <time>2016-10-23T14:34:02Z</time>
      </trkpt>
      <trkpt lat="44.20852" lon="2.15828">
        <ele>399</ele>
        <time>2016-10-23T14:34:07Z</time>
      </trkpt>
      <trkpt lat="44.20847" lon="2.15828">
        <ele>399</ele>
        <time>2016-10-23T14:34:12Z</time>
      </trkpt>
      <trkpt lat="44.2084" lon="2.15828">
        <ele>399</ele>
        <time>2016-10-23T14:34:17Z</time>
      </trkpt>
      <trkpt lat="44.20835" lon="2.15826">
        <ele>399</ele>
        <time>2016-10-23T14:34:22Z</time>
      </trkpt>
      <trkpt lat="44.20828" lon="2.15824">
        <ele>399</ele>
        <time>2016-10-23T14:34:27Z</time>
      </trkpt>
      <trkpt lat="44.20823" lon="2.15822">
        <ele>399</ele>
        <time>2016-10-23T14:34:32Z</time>
      </trkpt>
      <trkpt lat="44.2082" lon="2.15823">
        <ele>399</ele>
        <time>2016-10-23T14:34:37Z</time>
      </trkpt>
      <trkpt lat="44.20816" lon="2.15825">
        <ele>399</ele>
        <time>2016-10-23T14:34:42Z</time>
      </trkpt>
      <trkpt lat="44.20813" lon="2.15829">
        <ele>399</ele>
        <time>2016-10-23T14:34:47Z</time>
      </trkpt>
      <trkpt lat="44.20809" lon="2.15831">
        <ele>399</ele>
        <time>2016-10-23T14:34:52Z</time>
      </trkpt>
      <trkpt lat="44.20806" lon="2.15833">
        <ele>399</ele>
        <time>2016-10-23T14:34:57Z</time>
      </trkpt>
      <trkpt lat="44.20803" lon="2.15834">
        <ele>399</ele>
        <time>2016-10-23T14:35:02Z</time>
      </trkpt>
      <trkpt lat="44.20802" lon="2.15832">
        <ele>399</ele>
        <time>2016-10-23T14:35:07Z</time>
      </trkpt>
      <trkpt lat="44.20803" lon="2.15832">
        <ele>399</ele>
        <time>2016-10-23T14:35:12Z</time>
      </trkpt>
      <trkpt lat="44.20803" lon="2.15831">
        <ele>399</ele>
        <time>2016-10-23T14:35:17Z</time>
      </trkpt>
      <trkpt lat="44.20803" lon="2.15831">
        <ele>399</ele>
        <time>2016-10-23T14:35:22Z</time>
      </trkpt>
      <trkpt lat="44.20803" lon="2.15831">
        <ele>399</ele>
        <time>2016-10-23T14:35:27Z</time>
      </trkpt>
      <trkpt lat="44.20803" lon="2.1583">
        <ele>399</ele>
        <time>2016-10-23T14:35:32Z</time>
      </trkpt>
      <trkpt lat="44.20803" lon="2.15831">
        <ele>399</ele>
        <time>2016-10-23T14:35:37Z</time>
      </trkpt>
      <trkpt lat="44.20803" lon="2.15832">
        <ele>399</ele>
        <time>2016-10-23T14:35:42Z</time>
      </trkpt>
      <trkpt lat="44.20802" lon="2.15833">
        <ele>399</ele>
        <time>2016-10-23T14:35:47Z</time>
      </trkpt>
      <trkpt lat="44.20802" lon="2.15833">
        <ele>399</ele>
        <time>2016-10-23T14:35:52Z</time>
      </trkpt>
      <trkpt lat="44.20802" lon="2.15832">
        <ele>399</ele>
        <time>2016-10-23T14:35:57Z</time>
      </trkpt>
      <trkpt lat="44.208" lon="2.15832">
        <ele>399</ele>
        <time>2016-10-23T14:36:02Z</time>
      </trkpt>
      <trkpt lat="44.208" lon="2.1583">
        <ele>399</ele>
        <time>2016-10-23T14:36:07Z</time>
      </trkpt>
      <trkpt lat="44.20798" lon="2.15829">
        <ele>399</ele>
        <time>2016-10-23T14:36:12Z</time>
      </trkpt>
      <trkpt lat="44.20798" lon="2.15828">
        <ele>399</ele>
        <time>2016-10-23T14:36:17Z</time>
      </trkpt>
      <trkpt lat="44.20798" lon="2.15828">
        <ele>399</ele>
        <time>2016-10-23T14:36:22Z</time>
      </trkpt>
      <trkpt lat="44.20798" lon="2.15828">
        <ele>399</ele>
        <time>2016-10-23T14:36:27Z</time>
      </trkpt>
      <trkpt lat="44.20793" lon="2.15827">
        <ele>399</ele>
        <time>2016-10-23T14:36:32Z</time>
      </trkpt>
      <trkpt lat="44.20786" lon="2.15826">
        <ele>383</ele>
        <time>2016-10-23T14:36:37Z</time>
      </trkpt>
      <trkpt lat="44.20782" lon="2.15825">
        <ele>383</ele>
        <time>2016-10-23T14:36:42Z</time>
      </trkpt>
      <trkpt lat="44.20779" lon="2.15824">
        <ele>383</ele>
        <time>2016-10-23T14:36:47Z</time>
      </trkpt>
      <trkpt lat="44.20775" lon="2.15824">
        <ele>383</ele>
        <time>2016-10-23T14:36:52Z</time>
      </trkpt>
      <trkpt lat="44.2077" lon="2.15827">
        <ele>383</ele>
        <time>2016-10-23T14:36:57Z</time>
      </trkpt>
      <trkpt lat="44.20765" lon="2.15826">
        <ele>383</ele>
        <time>2016-10-23T14:37:02Z</time>
      </trkpt>
      <trkpt lat="44.20761" lon="2.15826">
        <ele>383</ele>
        <time>2016-10-23T14:37:07Z</time>
      </trkpt>
      <trkpt lat="44.20755" lon="2.15829">
        <ele>383</ele>
        <time>2016-10-23T14:37:12Z</time>
      </trkpt>
      <trkpt lat="44.20751" lon="2.1583">
        <ele>383</ele>
        <time>2016-10-23T14:37:17Z</time>
      </trkpt>
      <trkpt lat="44.20747" lon="2.15831">
        <ele>383</ele>
        <time>2016-10-23T14:37:22Z</time>
      </trkpt>
      <trkpt lat="44.2074" lon="2.15831">
        <ele>383</ele>
        <time>2016-10-23T14:37:27Z</time>
      </trkpt>
      <trkpt lat="44.20736" lon="2.15831">
        <ele>383</ele>
        <time>2016-10-23T14:37:32Z</time>
      </trkpt>
      <trkpt lat="44.2073" lon="2.15831">
        <ele>383</ele>
        <time>2016-10-23T14:37:37Z</time>
      </trkpt>
      <trkpt lat="44.20727" lon="2.1583">
        <ele>383</ele>
        <time>2016-10-23T14:37:42Z</time>
      </trkpt>
      <trkpt lat="44.20721" lon="2.15829">
        <ele>383</ele>
        <time>2016-10-23T14:37:47Z</time>
      </trkpt>
      <trkpt lat="44.20716" lon="2.15828">
        <ele>383</ele>
        <time>2016-10-23T14:37:52Z</time>
      </trkpt>
      <trkpt lat="44.20711" lon="2.15829">
        <ele>383</ele>
        <time>2016-10-23T14:37:57Z</time>
      </trkpt>
      <trkpt lat="44.20705" lon="2.15829">
        <ele>364</ele>
        <time>2016-10-23T14:38:02Z</time>
      </trkpt>
      <trkpt lat="44.20701" lon="2.15828">
        <ele>364</ele>
        <time>2016-10-23T14:38:07Z</time>
      </trkpt>
      <trkpt lat="44.20696" lon="2.15827">
        <ele>364</ele>
        <time>2016-10-23T14:38:12Z</time>
      </trkpt>
      <trkpt lat="44.20692" lon="2.15829">
        <ele>364</ele>
        <time>2016-10-23T14:38:17Z</time>
      </trkpt>
      <trkpt lat="44.20689" lon="2.1583">
        <ele>364</ele>
        <time>2016-10-23T14:38:22Z</time>
      </trkpt>
      <trkpt lat="44.20685" lon="2.1583">
        <ele>364</ele>
        <time>2016-10-23T14:38:27Z</time>
      </trkpt>
      <trkpt lat="44.2068" lon="2.15828">
        <ele>364</ele>
        <time>2016-10-23T14:38:32Z</time>
      </trkpt>
      <trkpt lat="44.20675" lon="2.15831">
        <ele>364</ele>
        <time>2016-10-23T14:38:37Z</time>
      </trkpt>
      <trkpt lat="44.20669" lon="2.15831">
        <ele>364</ele>
        <time>2016-10-23T14:38:42Z</time>
      </trkpt>
      <trkpt lat="44.20666" lon="2.15829">
        <ele>364</ele>
        <time>2016-10-23T14:38:47Z</time>
      </trkpt>
      <trkpt lat="44.20662" lon="2.15829">
        <ele>364</ele>
        <time>2016-10-23T14:38:52Z</time>
      </trkpt>
      <trkpt lat="44.20659" lon="2.15829">
        <ele>364</ele>
        <time>2016-10-23T14:38:57Z</time>
      </trkpt>
      <trkpt lat="44.20656" lon="2.15831">
        <ele>364</ele>
        <time>2016-10-23T14:39:02Z</time>
      </trkpt>
      <trkpt lat="44.20652" lon="2.15833">
        <ele>364</ele>
        <time>2016-10-23T14:39:07Z</time>
      </trkpt>
      <trkpt lat="44.20649" lon="2.15832">
        <ele>364</ele>
        <time>2016-10-23T14:39:12Z</time>
      </trkpt>
      <trkpt lat="44.20644" lon="2.15833">
        <ele>364</ele>
        <time>2016-10-23T14:39:17Z</time>
      </trkpt>
      <trkpt lat="44.2064" lon="2.15834">
        <ele>364</ele>
        <time>2016-10-23T14:39:22Z</time>
      </trkpt>
      <trkpt lat="44.20637" lon="2.15836">
        <ele>364</ele>
        <time>2016-10-23T14:39:27Z</time>
      </trkpt>
      <trkpt lat="44.20632" lon="2.15838">
        <ele>364</ele>
        <time>2016-10-23T14:39:32Z</time>
      </trkpt>
      <trkpt lat="44.20627" lon="2.1584">
        <ele>364</ele>
        <time>2016-10-23T14:39:37Z</time>
      </trkpt>
      <trkpt lat="44.20624" lon="2.15841">
        <ele>348</ele>
        <time>2016-10-23T14:39:42Z</time>
      </trkpt>
      <trkpt lat="44.20622" lon="2.15839">
        <ele>348</ele>
        <time>2016-10-23T14:39:47Z</time>
      </trkpt>
      <trkpt lat="44.20618" lon="2.15837">
        <ele>348</ele>
        <time>2016-10-23T14:39:52Z</time>
      </trkpt>
      <trkpt lat="44.20616" lon="2.15837">
        <ele>348</ele>
        <time>2016-10-23T14:39:57Z</time>
      </trkpt>
      <trkpt lat="44.20614" lon="2.15837">
        <ele>348</ele>
        <time>2016-10-23T14:40:02Z</time>
      </trkpt>
      <trkpt lat="44.20613" lon="2.15834">
        <ele>348</ele>
        <time>2016-10-23T14:40:07Z</time>
      </trkpt>
      <trkpt lat="44.20613" lon="2.1583">
        <ele>348</ele>
        <time>2016-10-23T14:40:12Z</time>
      </trkpt>
      <trkpt lat="44.20614" lon="2.1583">
        <ele>348</ele>
        <time>2016-10-23T14:40:17Z</time>
      </trkpt>
      <trkpt lat="44.20615" lon="2.15831">
        <ele>348</ele>
        <time>2016-10-23T14:40:22Z</time>
      </trkpt>
      <trkpt lat="44.20614" lon="2.1583">
        <ele>348</ele>
        <time>2016-10-23T14:40:27Z</time>
      </trkpt>
      <trkpt lat="44.20614" lon="2.1583">
        <ele>348</ele>
        <time>2016-10-23T14:40:32Z</time>
      </trkpt>
      <trkpt lat="44.20615" lon="2.15829">
        <ele>348</ele>
        <time>2016-10-23T14:40:37Z</time>
      </trkpt>
      <trkpt lat="44.20615" lon="2.15825">
        <ele>348</ele>
        <time>2016-10-23T14:40:42Z</time>
      </trkpt>
      <trkpt lat="44.20616" lon="2.15825">
        <ele>348</ele>
        <time>2016-10-23T14:40:47Z</time>
      </trkpt>
      <trkpt lat="44.20616" lon="2.15825">
        <ele>348</ele>
        <time>2016-10-23T14:40:52Z</time>
      </trkpt>
      <trkpt lat="44.20616" lon="2.15824">
        <ele>348</ele>
        <time>2016-10-23T14:40:57Z</time>
      </trkpt>
      <trkpt lat="44.20617" lon="2.15822">
        <ele>348</ele>
        <time>2016-10-23T14:41:02Z</time>
      </trkpt>
      <trkpt lat="44.20618" lon="2.15822">
        <ele>348</ele>
        <time>2016-10-23T14:41:07Z</time>
      </trkpt>
      <trkpt lat="44.20617" lon="2.15822">
        <ele>348</ele>
        <time>2016-10-23T14:41:12Z</time>
      </trkpt>
      <trkpt lat="44.20617" lon="2.15822">
        <ele>348</ele>
        <time>2016-10-23T14:41:17Z</time>
      </trkpt>
      <trkpt lat="44.20617" lon="2.15822">
        <ele>348</ele>
        <time>2016-10-23T14:41:22Z</time>
      </trkpt>
      <trkpt lat="44.20618" lon="2.15821">
        <ele>348</ele>
        <time>2016-10-23T14:41:27Z</time>
      </trkpt>
      <trkpt lat="44.20618" lon="2.15822">
        <ele>348</ele>
        <time>2016-10-23T14:41:32Z</time>
      </trkpt>
      <trkpt lat="44.20618" lon="2.15823">
        <ele>348</ele>
        <time>2016-10-23T14:41:37Z</time>
      </trkpt>
      <trkpt lat="44.20618" lon="2.15823">
        <ele>348</ele>
        <time>2016-10-23T14:41:42Z</time>
      </trkpt>
      <trkpt lat="44.20619" lon="2.15825">
        <ele>348</ele>
        <time>2016-10-23T14:41:47Z</time>
      </trkpt>
      <trkpt lat="44.2062" lon="2.15825">
        <ele>348</ele>
        <time>2016-10-23T14:41:52Z</time>
      </trkpt>
      <trkpt lat="44.2062" lon="2.15825">
        <ele>348</ele>
        <time>2016-10-23T14:41:57Z</time>
      </trkpt>
      <trkpt lat="44.20621" lon="2.15825">
        <ele>348</ele>
        <time>2016-10-23T14:42:02Z</time>
      </trkpt>
      <trkpt lat="44.20621" lon="2.15825">
        <ele>348</ele>
        <time>2016-10-23T14:42:07Z</time>
      </trkpt>
      <trkpt lat="44.2062" lon="2.15825">
        <ele>348</ele>
        <time>2016-10-23T14:42:12Z</time>
      </trkpt>
      <trkpt lat="44.20618" lon="2.15825">
        <ele>348</ele>
        <time>2016-10-23T14:42:17Z</time>
      </trkpt>
      <trkpt lat="44.20617" lon="2.15825">
        <ele>348</ele>
        <time>2016-10-23T14:42:22Z</time>
      </trkpt>
      <trkpt lat="44.20617" lon="2.15825">
        <ele>348</ele>
        <time>2016-10-23T14:42:27Z</time>
      </trkpt>
      <trkpt lat="44.20617" lon="2.15824">
        <ele>348</ele>
        <time>2016-10-23T14:42:32Z</time>
      </trkpt>
      <trkpt lat="44.20614" lon="2.15822">
        <ele>348</ele>
        <time>2016-10-23T14:42:37Z</time>
      </trkpt>
      <trkpt lat="44.20611" lon="2.15818">
        <ele>348</ele>
        <time>2016-10-23T14:42:42Z</time>
      </trkpt>
      <trkpt lat="44.20603" lon="2.15816">
        <ele>348</ele>
        <time>2016-10-23T14:42:47Z</time>
      </trkpt>
      <trkpt lat="44.20594" lon="2.15815">
        <ele>348</ele>
        <time>2016-10-23T14:42:52Z</time>
      </trkpt>
      <trkpt lat="44.20585" lon="2.15815">
        <ele>348</ele>
        <time>2016-10-23T14:42:57Z</time>
      </trkpt>
      <trkpt lat="44.20578" lon="2.15816">
        <ele>348</ele>
        <time>2016-10-23T14:43:02Z</time>
      </trkpt>
      <trkpt lat="44.20572" lon="2.15816">
        <ele>348</ele>
        <time>2016-10-23T14:43:07Z</time>
      </trkpt>
      <trkpt lat="44.20565" lon="2.15819">
        <ele>348</ele>
        <time>2016-10-23T14:43:12Z</time>
      </trkpt>
      <trkpt lat="44.20558" lon="2.15821">
        <ele>348</ele>
        <time>2016-10-23T14:43:17Z</time>
      </trkpt>
      <trkpt lat="44.20554" lon="2.15822">
        <ele>348</ele>
        <time>2016-10-23T14:43:22Z</time>
      </trkpt>
      <trkpt lat="44.20551" lon="2.15827">
        <ele>348</ele>
        <time>2016-10-23T14:43:27Z</time>
      </trkpt>
      <trkpt lat="44.20549" lon="2.15829">
        <ele>348</ele>
        <time>2016-10-23T14:43:32Z</time>
      </trkpt>
      <trkpt lat="44.20545" lon="2.1583">
        <ele>348</ele>
        <time>2016-10-23T14:43:37Z</time>
      </trkpt>
      <trkpt lat="44.2054" lon="2.15833">
        <ele>343</ele>
        <time>2016-10-23T14:43:42Z</time>
      </trkpt>
      <trkpt lat="44.20533" lon="2.15835">
        <ele>343</ele>
        <time>2016-10-23T14:43:47Z</time>
      </trkpt>
      <trkpt lat="44.20526" lon="2.15839">
        <ele>343</ele>
        <time>2016-10-23T14:43:52Z</time>
      </trkpt>
      <trkpt lat="44.20521" lon="2.15844">
        <ele>343</ele>
        <time>2016-10-23T14:43:57Z</time>
      </trkpt>
      <trkpt lat="44.20515" lon="2.15848">
        <ele>343</ele>
        <time>2016-10-23T14:44:02Z</time>
      </trkpt>
      <trkpt lat="44.20504" lon="2.15854">
        <ele>343</ele>
        <time>2016-10-23T14:44:07Z</time>
      </trkpt>
      <trkpt lat="44.20496" lon="2.15856">
        <ele>343</ele>
        <time>2016-10-23T14:44:12Z</time>
      </trkpt>
      <trkpt lat="44.20496" lon="2.15856">
        <ele>343</ele>
        <time>2016-10-23T14:44:17Z</time>
      </trkpt>
      <trkpt lat="44.20492" lon="2.15858">
        <ele>343</ele>
        <time>2016-10-23T14:44:22Z</time>
      </trkpt>
      <trkpt lat="44.20488" lon="2.15858">
        <ele>343</ele>
        <time>2016-10-23T14:44:27Z</time>
      </trkpt>
      <trkpt lat="44.20483" lon="2.15859">
        <ele>343</ele>
        <time>2016-10-23T14:44:32Z</time>
      </trkpt>
      <trkpt lat="44.2048" lon="2.15857">
        <ele>343</ele>
        <time>2016-10-23T14:44:37Z</time>
      </trkpt>
      <trkpt lat="44.20477" lon="2.15858">
        <ele>343</ele>
        <time>2016-10-23T14:44:42Z</time>
      </trkpt>
      <trkpt lat="44.20474" lon="2.15858">
        <ele>343</ele>
        <time>2016-10-23T14:44:47Z</time>
      </trkpt>
      <trkpt lat="44.2047" lon="2.15858">
        <ele>343</ele>
        <time>2016-10-23T14:44:52Z</time>
      </trkpt>
      <trkpt lat="44.20463" lon="2.15858">
        <ele>343</ele>
        <time>2016-10-23T14:44:57Z</time>
      </trkpt>
      <trkpt lat="44.2046" lon="2.15858">
        <ele>343</ele>
        <time>2016-10-23T14:45:02Z</time>
      </trkpt>
      <trkpt lat="44.20457" lon="2.15856">
        <ele>326</ele>
        <time>2016-10-23T14:45:07Z</time>
      </trkpt>
      <trkpt lat="44.2045" lon="2.15857">
        <ele>326</ele>
        <time>2016-10-23T14:45:12Z</time>
      </trkpt>
      <trkpt lat="44.20443" lon="2.15861">
        <ele>326</ele>
        <time>2016-10-23T14:45:17Z</time>
      </trkpt>
      <trkpt lat="44.20438" lon="2.15861">
        <ele>326</ele>
        <time>2016-10-23T14:45:22Z</time>
      </trkpt>
      <trkpt lat="44.20435" lon="2.1586">
        <ele>326</ele>
        <time>2016-10-23T14:45:27Z</time>
      </trkpt>
      <trkpt lat="44.20431" lon="2.15857">
        <ele>326</ele>
        <time>2016-10-23T14:45:32Z</time>
      </trkpt>
      <trkpt lat="44.20427" lon="2.15861">
        <ele>326</ele>
        <time>2016-10-23T14:45:37Z</time>
      </trkpt>
      <trkpt lat="44.20422" lon="2.15862">
        <ele>326</ele>
        <time>2016-10-23T14:45:42Z</time>
      </trkpt>
      <trkpt lat="44.20417" lon="2.15863">
        <ele>326</ele>
        <time>2016-10-23T14:45:47Z</time>
      </trkpt>
      <trkpt lat="44.20411" lon="2.1586">
        <ele>326</ele>
        <time>2016-10-23T14:45:52Z</time>
      </trkpt>
      <trkpt lat="44.20405" lon="2.15856">
        <ele>326</ele>
        <time>2016-10-23T14:45:57Z</time>
      </trkpt>
      <trkpt lat="44.20402" lon="2.15854">
        <ele>326</ele>
        <time>2016-10-23T14:46:02Z</time>
      </trkpt>
      <trkpt lat="44.20394" lon="2.15856">
        <ele>326</ele>
        <time>2016-10-23T14:46:07Z</time>
      </trkpt>
      <trkpt lat="44.20386" lon="2.15853">
        <ele>326</ele>
        <time>2016-10-23T14:46:12Z</time>
      </trkpt>
      <trkpt lat="44.20378" lon="2.1585">
        <ele>326</ele>
        <time>2016-10-23T14:46:17Z</time>
      </trkpt>
      <trkpt lat="44.20377" lon="2.15851">
        <ele>326</ele>
        <time>2016-10-23T14:46:22Z</time>
      </trkpt>
      <trkpt lat="44.20376" lon="2.15852">
        <ele>326</ele>
        <time>2016-10-23T14:46:27Z</time>
      </trkpt>
      <trkpt lat="44.20376" lon="2.15856">
        <ele>326</ele>
        <time>2016-10-23T14:46:32Z</time>
      </trkpt>
      <trkpt lat="44.20376" lon="2.15861">
        <ele>326</ele>
        <time>2016-10-23T14:46:37Z</time>
      </trkpt>
      <trkpt lat="44.20376" lon="2.15866">
        <ele>326</ele>
        <time>2016-10-23T14:46:42Z</time>
      </trkpt>
      <trkpt lat="44.20378" lon="2.15871">
        <ele>326</ele>
        <time>2016-10-23T14:46:47Z</time>
      </trkpt>
      <trkpt lat="44.20379" lon="2.15875">
        <ele>293</ele>
        <time>2016-10-23T14:46:52Z</time>
      </trkpt>
      <trkpt lat="44.20379" lon="2.15875">
        <ele>293</ele>
        <time>2016-10-23T14:46:57Z</time>
      </trkpt>
      <trkpt lat="44.20382" lon="2.15877">
        <ele>293</ele>
        <time>2016-10-23T14:47:02Z</time>
      </trkpt>
      <trkpt lat="44.20387" lon="2.15878">
        <ele>293</ele>
        <time>2016-10-23T14:47:07Z</time>
      </trkpt>
      <trkpt lat="44.20391" lon="2.15884">
        <ele>293</ele>
        <time>2016-10-23T14:47:12Z</time>
      </trkpt>
      <trkpt lat="44.20395" lon="2.15882">
        <ele>293</ele>
        <time>2016-10-23T14:47:17Z</time>
      </trkpt>
      <trkpt lat="44.20403" lon="2.1588">
        <ele>293</ele>
        <time>2016-10-23T14:47:22Z</time>
      </trkpt>
      <trkpt lat="44.20412" lon="2.15883">
        <ele>293</ele>
        <time>2016-10-23T14:47:27Z</time>
      </trkpt>
      <trkpt lat="44.20416" lon="2.15886">
        <ele>293</ele>
        <time>2016-10-23T14:47:32Z</time>
      </trkpt>
      <trkpt lat="44.20418" lon="2.1589">
        <ele>293</ele>
        <time>2016-10-23T14:47:37Z</time>
      </trkpt>
      <trkpt lat="44.20421" lon="2.1589">
        <ele>293</ele>
        <time>2016-10-23T14:47:42Z</time>
      </trkpt>
      <trkpt lat="44.2043" lon="2.15896">
        <ele>293</ele>
        <time>2016-10-23T14:47:47Z</time>
      </trkpt>
      <trkpt lat="44.20435" lon="2.15901">
        <ele>293</ele>
        <time>2016-10-23T14:47:52Z</time>
      </trkpt>
      <trkpt lat="44.20435" lon="2.15906">
        <ele>293</ele>
        <time>2016-10-23T14:47:57Z</time>
      </trkpt>
      <trkpt lat="44.20434" lon="2.15911">
        <ele>293</ele>
        <time>2016-10-23T14:48:02Z</time>
      </trkpt>
      <trkpt lat="44.20434" lon="2.15913">
        <ele>293</ele>
        <time>2016-10-23T14:48:07Z</time>
      </trkpt>
      <trkpt lat="44.20432" lon="2.15914">
        <ele>293</ele>
        <time>2016-10-23T14:48:12Z</time>
      </trkpt>
      <trkpt lat="44.20429" lon="2.15916">
        <ele>293</ele>
        <time>2016-10-23T14:48:17Z</time>
      </trkpt>
      <trkpt lat="44.20426" lon="2.15918">
        <ele>293</ele>
        <time>2016-10-23T14:48:22Z</time>
      </trkpt>
      <trkpt lat="44.20422" lon="2.15922">
        <ele>293</ele>
        <time>2016-10-23T14:48:27Z</time>
      </trkpt>
      <trkpt lat="44.20418" lon="2.15921">
        <ele>293</ele>
        <time>2016-10-23T14:48:32Z</time>
      </trkpt>
      <trkpt lat="44.20412" lon="2.15924">
        <ele>293</ele>
        <time>2016-10-23T14:48:37Z</time>
      </trkpt>
      <trkpt lat="44.20407" lon="2.15928">
        <ele>293</ele>
        <time>2016-10-23T14:48:42Z</time>
      </trkpt>
      <trkpt lat="44.20405" lon="2.1593">
        <ele>293</ele>
        <time>2016-10-23T14:48:47Z</time>
      </trkpt>
      <trkpt lat="44.20402" lon="2.15932">
        <ele>293</ele>
        <time>2016-10-23T14:48:52Z</time>
      </trkpt>
      <trkpt lat="44.204" lon="2.15934">
        <ele>293</ele>
        <time>2016-10-23T14:48:57Z</time>
      </trkpt>
      <trkpt lat="44.20394" lon="2.15937">
        <ele>293</ele>
        <time>2016-10-23T14:49:02Z</time>
      </trkpt>
      <trkpt lat="44.20392" lon="2.15937">
        <ele>293</ele>
        <time>2016-10-23T14:49:07Z</time>
      </trkpt>
      <trkpt lat="44.2039" lon="2.1594">
        <ele>293</ele>
        <time>2016-10-23T14:49:12Z</time>
      </trkpt>
      <trkpt lat="44.20389" lon="2.15943">
        <ele>293</ele>
        <time>2016-10-23T14:49:17Z</time>
      </trkpt>
      <trkpt lat="44.20384" lon="2.15949">
        <ele>293</ele>
        <time>2016-10-23T14:49:22Z</time>
      </trkpt>
      <trkpt lat="44.2038" lon="2.15952">
        <ele>293</ele>
        <time>2016-10-23T14:49:27Z</time>
      </trkpt>
      <trkpt lat="44.20376" lon="2.15952">
        <ele>293</ele>
        <time>2016-10-23T14:49:32Z</time>
      </trkpt>
      <trkpt lat="44.20375" lon="2.15952">
        <ele>279</ele>
        <time>2016-10-23T14:49:37Z</time>
      </trkpt>
      <trkpt lat="44.20373" lon="2.15952">
        <ele>279</ele>
        <time>2016-10-23T14:49:42Z</time>
      </trkpt>
      <trkpt lat="44.2037" lon="2.1595">
        <ele>279</ele>
        <time>2016-10-23T14:49:47Z</time>
      </trkpt>
      <trkpt lat="44.20369" lon="2.1595">
        <ele>279</ele>
        <time>2016-10-23T14:49:52Z</time>
      </trkpt>
      <trkpt lat="44.20368" lon="2.1595">
        <ele>279</ele>
        <time>2016-10-23T14:49:57Z</time>
      </trkpt>
      <trkpt lat="44.20359" lon="2.15953">
        <ele>279</ele>
        <time>2016-10-23T14:50:02Z</time>
      </trkpt>
      <trkpt lat="44.20359" lon="2.15948">
        <ele>279</ele>
        <time>2016-10-23T14:50:07Z</time>
      </trkpt>
      <trkpt lat="44.20359" lon="2.15949">
        <ele>279</ele>
        <time>2016-10-23T14:50:12Z</time>
      </trkpt>
      <trkpt lat="44.20352" lon="2.15946">
        <ele>279</ele>
        <time>2016-10-23T14:50:17Z</time>
      </trkpt>
      <trkpt lat="44.20345" lon="2.15942">
        <ele>279</ele>
        <time>2016-10-23T14:50:22Z</time>
      </trkpt>
      <trkpt lat="44.20342" lon="2.15944">
        <ele>279</ele>
        <time>2016-10-23T14:50:27Z</time>
      </trkpt>
      <trkpt lat="44.20343" lon="2.15944">
        <ele>279</ele>
        <time>2016-10-23T14:50:32Z</time>
      </trkpt>
      <trkpt lat="44.20344" lon="2.15944">
        <ele>279</ele>
        <time>2016-10-23T14:50:37Z</time>
      </trkpt>
      <trkpt lat="44.20343" lon="2.15944">
        <ele>279</ele>
        <time>2016-10-23T14:50:42Z</time>
      </trkpt>
      <trkpt lat="44.20341" lon="2.15943">
        <ele>279</ele>
        <time>2016-10-23T14:50:47Z</time>
      </trkpt>
      <trkpt lat="44.20342" lon="2.15944">
        <ele>279</ele>
        <time>2016-10-23T14:50:52Z</time>
      </trkpt>
      <trkpt lat="44.20339" lon="2.15945">
        <ele>279</ele>
        <time>2016-10-23T14:50:57Z</time>
      </trkpt>
      <trkpt lat="44.20335" lon="2.15945">
        <ele>279</ele>
        <time>2016-10-23T14:51:02Z</time>
      </trkpt>
      <trkpt lat="44.2033" lon="2.15945">
        <ele>279</ele>
        <time>2016-10-23T14:51:07Z</time>
      </trkpt>
      <trkpt lat="44.20329" lon="2.15943">
        <ele>279</ele>
        <time>2016-10-23T14:51:12Z</time>
      </trkpt>
      <trkpt lat="44.20324" lon="2.15944">
        <ele>279</ele>
        <time>2016-10-23T14:51:17Z</time>
      </trkpt>
      <trkpt lat="44.2032" lon="2.15943">
        <ele>279</ele>
        <time>2016-10-23T14:51:22Z</time>
      </trkpt>
      <trkpt lat="44.20316" lon="2.15941">
        <ele>279</ele>
        <time>2016-10-23T14:51:27Z</time>
      </trkpt>
      <trkpt lat="44.20316" lon="2.15942">
        <ele>279</ele>
        <time>2016-10-23T14:51:32Z</time>
      </trkpt>
      <trkpt lat="44.20312" lon="2.15941">
        <ele>279</ele>
        <time>2016-10-23T14:51:37Z</time>
      </trkpt>
      <trkpt lat="44.20311" lon="2.1594">
        <ele>279</ele>
        <time>2016-10-23T14:51:42Z</time>
      </trkpt>
      <trkpt lat="44.2031" lon="2.1594">
        <ele>279</ele>
        <time>2016-10-23T14:51:47Z</time>
      </trkpt>
      <trkpt lat="44.20309" lon="2.15937">
        <ele>279</ele>
        <time>2016-10-23T14:51:52Z</time>
      </trkpt>
      <trkpt lat="44.2031" lon="2.15932">
        <ele>279</ele>
        <time>2016-10-23T14:51:57Z</time>
      </trkpt>
      <trkpt lat="44.20307" lon="2.15926">
        <ele>279</ele>
        <time>2016-10-23T14:52:02Z</time>
      </trkpt>
      <trkpt lat="44.20307" lon="2.15925">
        <ele>279</ele>
        <time>2016-10-23T14:52:07Z</time>
      </trkpt>
      <trkpt lat="44.20307" lon="2.15924">
        <ele>279</ele>
        <time>2016-10-23T14:52:12Z</time>
      </trkpt>
      <trkpt lat="44.20307" lon="2.15923">
        <ele>279</ele>
        <time>2016-10-23T14:52:17Z</time>
      </trkpt>
      <trkpt lat="44.20307" lon="2.15923">
        <ele>279</ele>
        <time>2016-10-23T14:52:22Z</time>
      </trkpt>
      <trkpt lat="44.20308" lon="2.15922">
        <ele>279</ele>
        <time>2016-10-23T14:52:27Z</time>
      </trkpt>
      <trkpt lat="44.20308" lon="2.15922">
        <ele>279</ele>
        <time>2016-10-23T14:52:32Z</time>
      </trkpt>
      <trkpt lat="44.20308" lon="2.15923">
        <ele>279</ele>
        <time>2016-10-23T14:52:37Z</time>
      </trkpt>
      <trkpt lat="44.20309" lon="2.15922">
        <ele>279</ele>
        <time>2016-10-23T14:52:42Z</time>
      </trkpt>
      <trkpt lat="44.20306" lon="2.15919">
        <ele>279</ele>
        <time>2016-10-23T14:52:47Z</time>
      </trkpt>
      <trkpt lat="44.20306" lon="2.15914">
        <ele>279</ele>
        <time>2016-10-23T14:52:52Z</time>
      </trkpt>
      <trkpt lat="44.20307" lon="2.15914">
        <ele>279</ele>
        <time>2016-10-23T14:52:57Z</time>
      </trkpt>
      <trkpt lat="44.20308" lon="2.15915">
        <ele>279</ele>
        <time>2016-10-23T14:53:02Z</time>
      </trkpt>
      <trkpt lat="44.20308" lon="2.15915">
        <ele>279</ele>
        <time>2016-10-23T14:53:07Z</time>
      </trkpt>
      <trkpt lat="44.20309" lon="2.15915">
        <ele>279</ele>
        <time>2016-10-23T14:53:12Z</time>
      </trkpt>
      <trkpt lat="44.20306" lon="2.15912">
        <ele>279</ele>
        <time>2016-10-23T14:53:17Z</time>
      </trkpt>
      <trkpt lat="44.20305" lon="2.1591">
        <ele>279</ele>
        <time>2016-10-23T14:53:22Z</time>
      </trkpt>
      <trkpt lat="44.20301" lon="2.15905">
        <ele>279</ele>
        <time>2016-10-23T14:53:27Z</time>
      </trkpt>
      <trkpt lat="44.20298" lon="2.15906">
        <ele>279</ele>
        <time>2016-10-23T14:53:32Z</time>
      </trkpt>
      <trkpt lat="44.20299" lon="2.15907">
        <ele>279</ele>
        <time>2016-10-23T14:53:37Z</time>
      </trkpt>
      <trkpt lat="44.20298" lon="2.15909">
        <ele>279</ele>
        <time>2016-10-23T14:53:42Z</time>
      </trkpt>
      <trkpt lat="44.20297" lon="2.15909">
        <ele>279</ele>
        <time>2016-10-23T14:53:47Z</time>
      </trkpt>
      <trkpt lat="44.20293" lon="2.15904">
        <ele>279</ele>
        <time>2016-10-23T14:53:52Z</time>
      </trkpt>
      <trkpt lat="44.20286" lon="2.15898">
        <ele>265</ele>
        <time>2016-10-23T14:53:57Z</time>
      </trkpt>
      <trkpt lat="44.20285" lon="2.15899">
        <ele>265</ele>
        <time>2016-10-23T14:54:02Z</time>
      </trkpt>
      <trkpt lat="44.20285" lon="2.15906">
        <ele>265</ele>
        <time>2016-10-23T14:54:07Z</time>
      </trkpt>
      <trkpt lat="44.20291" lon="2.15906">
        <ele>265</ele>
        <time>2016-10-23T14:54:12Z</time>
      </trkpt>
      <trkpt lat="44.20294" lon="2.15908">
        <ele>279</ele>
        <time>2016-10-23T14:54:17Z</time>
      </trkpt>
      <trkpt lat="44.20296" lon="2.1591">
        <ele>279</ele>
        <time>2016-10-23T14:54:22Z</time>
      </trkpt>
      <trkpt lat="44.20295" lon="2.15912">
        <ele>279</ele>
        <time>2016-10-23T14:54:27Z</time>
      </trkpt>
      <trkpt lat="44.20295" lon="2.15917">
        <ele>279</ele>
        <time>2016-10-23T14:54:32Z</time>
      </trkpt>
      <trkpt lat="44.20299" lon="2.15919">
        <ele>279</ele>
        <time>2016-10-23T14:54:37Z</time>
      </trkpt>
      <trkpt lat="44.20299" lon="2.1592">
        <ele>279</ele>
        <time>2016-10-23T14:54:42Z</time>
      </trkpt>
      <trkpt lat="44.20302" lon="2.15924">
        <ele>279</ele>
        <time>2016-10-23T14:54:47Z</time>
      </trkpt>
      <trkpt lat="44.20303" lon="2.15921">
        <ele>279</ele>
        <time>2016-10-23T14:54:52Z</time>
      </trkpt>
      <trkpt lat="44.20304" lon="2.1592">
        <ele>279</ele>
        <time>2016-10-23T14:54:57Z</time>
      </trkpt>
      <trkpt lat="44.20303" lon="2.15919">
        <ele>279</ele>
        <time>2016-10-23T14:55:02Z</time>
      </trkpt>
      <trkpt lat="44.20299" lon="2.15917">
        <ele>279</ele>
        <time>2016-10-23T14:55:07Z</time>
      </trkpt>
      <trkpt lat="44.203" lon="2.15914">
        <ele>279</ele>
        <time>2016-10-23T14:55:12Z</time>
      </trkpt>
      <trkpt lat="44.203" lon="2.15915">
        <ele>279</ele>
        <time>2016-10-23T14:55:17Z</time>
      </trkpt>
      <trkpt lat="44.203" lon="2.15916">
        <ele>279</ele>
        <time>2016-10-23T14:55:22Z</time>
      </trkpt>
      <trkpt lat="44.203" lon="2.15916">
        <ele>279</ele>
        <time>2016-10-23T14:55:27Z</time>
      </trkpt>
      <trkpt lat="44.203" lon="2.15917">
        <ele>279</ele>
        <time>2016-10-23T14:55:32Z</time>
      </trkpt>
      <trkpt lat="44.203" lon="2.15917">
        <ele>279</ele>
        <time>2016-10-23T14:55:37Z</time>
      </trkpt>
      <trkpt lat="44.203" lon="2.15917">
        <ele>279</ele>
        <time>2016-10-23T14:55:42Z</time>
      </trkpt>
      <trkpt lat="44.20301" lon="2.15918">
        <ele>279</ele>
        <time>2016-10-23T14:55:47Z</time>
      </trkpt>
      <trkpt lat="44.20301" lon="2.15918">
        <ele>279</ele>
        <time>2016-10-23T14:55:52Z</time>
      </trkpt>
      <trkpt lat="44.203" lon="2.15917">
        <ele>279</ele>
        <time>2016-10-23T14:55:57Z</time>
      </trkpt>
      <trkpt lat="44.20297" lon="2.15916">
        <ele>279</ele>
        <time>2016-10-23T14:56:02Z</time>
      </trkpt>
      <trkpt lat="44.20296" lon="2.15919">
        <ele>279</ele>
        <time>2016-10-23T14:56:07Z</time>
      </trkpt>
      <trkpt lat="44.20297" lon="2.15918">
        <ele>279</ele>
        <time>2016-10-23T14:56:12Z</time>
      </trkpt>
      <trkpt lat="44.20298" lon="2.15915">
        <ele>279</ele>
        <time>2016-10-23T14:56:17Z</time>
      </trkpt>
      <trkpt lat="44.20298" lon="2.15914">
        <ele>279</ele>
        <time>2016-10-23T14:56:22Z</time>
      </trkpt>
      <trkpt lat="44.20299" lon="2.1591">
        <ele>279</ele>
        <time>2016-10-23T14:56:27Z</time>
      </trkpt>
      <trkpt lat="44.203" lon="2.1591">
        <ele>279</ele>
        <time>2016-10-23T14:56:32Z</time>
      </trkpt>
      <trkpt lat="44.203" lon="2.1591">
        <ele>279</ele>
        <time>2016-10-23T14:56:37Z</time>
      </trkpt>
      <trkpt lat="44.203" lon="2.15909">
        <ele>279</ele>
        <time>2016-10-23T14:56:42Z</time>
      </trkpt>
      <trkpt lat="44.203" lon="2.15908">
        <ele>279</ele>
        <time>2016-10-23T14:56:47Z</time>
      </trkpt>
      <trkpt lat="44.203" lon="2.15908">
        <ele>279</ele>
        <time>2016-10-23T14:56:52Z</time>
      </trkpt>
      <trkpt lat="44.203" lon="2.15905">
        <ele>279</ele>
        <time>2016-10-23T14:56:57Z</time>
      </trkpt>
      <trkpt lat="44.20303" lon="2.15905">
        <ele>279</ele>
        <time>2016-10-23T14:57:02Z</time>
      </trkpt>
      <trkpt lat="44.20305" lon="2.15906">
        <ele>279</ele>
        <time>2016-10-23T14:57:07Z</time>
      </trkpt>
      <trkpt lat="44.20304" lon="2.15901">
        <ele>279</ele>
        <time>2016-10-23T14:57:12Z</time>
      </trkpt>
      <trkpt lat="44.20304" lon="2.15901">
        <ele>279</ele>
        <time>2016-10-23T14:57:17Z</time>
      </trkpt>
      <trkpt lat="44.20306" lon="2.15902">
        <ele>279</ele>
        <time>2016-10-23T14:57:22Z</time>
      </trkpt>
      <trkpt lat="44.20307" lon="2.15907">
        <ele>279</ele>
        <time>2016-10-23T14:57:27Z</time>
      </trkpt>
      <trkpt lat="44.2031" lon="2.1591">
        <ele>279</ele>
        <time>2016-10-23T14:57:32Z</time>
      </trkpt>
      <trkpt lat="44.20315" lon="2.15914">
        <ele>279</ele>
        <time>2016-10-23T14:57:37Z</time>
      </trkpt>
      <trkpt lat="44.20317" lon="2.15917">
        <ele>279</ele>
        <time>2016-10-23T14:57:42Z</time>
      </trkpt>
      <trkpt lat="44.20315" lon="2.15918">
        <ele>279</ele>
        <time>2016-10-23T14:57:47Z</time>
      </trkpt>
      <trkpt lat="44.20314" lon="2.15911">
        <ele>279</ele>
        <time>2016-10-23T14:57:52Z</time>
      </trkpt>
      <trkpt lat="44.20311" lon="2.15908">
        <ele>279</ele>
        <time>2016-10-23T14:57:57Z</time>
      </trkpt>
      <trkpt lat="44.20307" lon="2.15905">
        <ele>279</ele>
        <time>2016-10-23T14:58:02Z</time>
      </trkpt>
      <trkpt lat="44.20304" lon="2.159">
        <ele>279</ele>
        <time>2016-10-23T14:58:07Z</time>
      </trkpt>
      <trkpt lat="44.20305" lon="2.15901">
        <ele>279</ele>
        <time>2016-10-23T14:58:12Z</time>
      </trkpt>
      <trkpt lat="44.20305" lon="2.15901">
        <ele>279</ele>
        <time>2016-10-23T14:58:17Z</time>
      </trkpt>
      <trkpt lat="44.20305" lon="2.15901">
        <ele>279</ele>
        <time>2016-10-23T14:58:22Z</time>
      </trkpt>
      <trkpt lat="44.20305" lon="2.15901">
        <ele>279</ele>
        <time>2016-10-23T14:58:27Z</time>
      </trkpt>
      <trkpt lat="44.20305" lon="2.15901">
        <ele>279</ele>
        <time>2016-10-23T14:58:32Z</time>
      </trkpt>
      <trkpt lat="44.20306" lon="2.15904">
        <ele>279</ele>
        <time>2016-10-23T14:58:37Z</time>
      </trkpt>
      <trkpt lat="44.2031" lon="2.15908">
        <ele>279</ele>
        <time>2016-10-23T14:58:42Z</time>
      </trkpt>
      <trkpt lat="44.2031" lon="2.15909">
        <ele>279</ele>
        <time>2016-10-23T14:58:47Z</time>
      </trkpt>
      <trkpt lat="44.2031" lon="2.15909">
        <ele>279</ele>
        <time>2016-10-23T14:58:52Z</time>
      </trkpt>
      <trkpt lat="44.2031" lon="2.15909">
        <ele>279</ele>
        <time>2016-10-23T14:58:57Z</time>
      </trkpt>
      <trkpt lat="44.20311" lon="2.1591">
        <ele>279</ele>
        <time>2016-10-23T14:59:02Z</time>
      </trkpt>
      <trkpt lat="44.20311" lon="2.15911">
        <ele>279</ele>
        <time>2016-10-23T14:59:07Z</time>
      </trkpt>
      <trkpt lat="44.20308" lon="2.15909">
        <ele>279</ele>
        <time>2016-10-23T14:59:12Z</time>
      </trkpt>
      <trkpt lat="44.20307" lon="2.1591">
        <ele>279</ele>
        <time>2016-10-23T14:59:17Z</time>
      </trkpt>
      <trkpt lat="44.20306" lon="2.1591">
        <ele>279</ele>
        <time>2016-10-23T14:59:22Z</time>
      </trkpt>
      <trkpt lat="44.20306" lon="2.1591">
        <ele>279</ele>
        <time>2016-10-23T14:59:27Z</time>
      </trkpt>
      <trkpt lat="44.20303" lon="2.15904">
        <ele>279</ele>
        <time>2016-10-23T14:59:32Z</time>
      </trkpt>
      <trkpt lat="44.20301" lon="2.159">
        <ele>279</ele>
        <time>2016-10-23T14:59:37Z</time>
      </trkpt>
      <trkpt lat="44.20301" lon="2.15901">
        <ele>279</ele>
        <time>2016-10-23T14:59:42Z</time>
      </trkpt>
      <trkpt lat="44.203" lon="2.159">
        <ele>279</ele>
        <time>2016-10-23T14:59:47Z</time>
      </trkpt>
      <trkpt lat="44.203" lon="2.15901">
        <ele>279</ele>
        <time>2016-10-23T14:59:52Z</time>
      </trkpt>
      <trkpt lat="44.20298" lon="2.159">
        <ele>279</ele>
        <time>2016-10-23T14:59:57Z</time>
      </trkpt>
      <trkpt lat="44.20293" lon="2.15894">
        <ele>279</ele>
        <time>2016-10-23T15:00:02Z</time>
      </trkpt>
      <trkpt lat="44.20288" lon="2.15889">
        <ele>265</ele>
        <time>2016-10-23T15:00:07Z</time>
      </trkpt>
      <trkpt lat="44.20283" lon="2.15885">
        <ele>265</ele>
        <time>2016-10-23T15:00:12Z</time>
      </trkpt>
      <trkpt lat="44.20278" lon="2.15882">
        <ele>265</ele>
        <time>2016-10-23T15:00:17Z</time>
      </trkpt>
      <trkpt lat="44.20275" lon="2.15881">
        <ele>265</ele>
        <time>2016-10-23T15:00:22Z</time>
      </trkpt>
      <trkpt lat="44.2027" lon="2.15876">
        <ele>265</ele>
        <time>2016-10-23T15:00:27Z</time>
      </trkpt>
      <trkpt lat="44.20269" lon="2.15875">
        <ele>292</ele>
        <time>2016-10-23T15:00:32Z</time>
      </trkpt>
      <trkpt lat="44.20267" lon="2.15871">
        <ele>292</ele>
        <time>2016-10-23T15:00:37Z</time>
      </trkpt>
      <trkpt lat="44.20267" lon="2.15871">
        <ele>292</ele>
        <time>2016-10-23T15:00:42Z</time>
      </trkpt>
      <trkpt lat="44.20266" lon="2.15869">
        <ele>292</ele>
        <time>2016-10-23T15:00:47Z</time>
      </trkpt>
      <trkpt lat="44.20265" lon="2.15868">
        <ele>292</ele>
        <time>2016-10-23T15:00:52Z</time>
      </trkpt>
      <trkpt lat="44.20264" lon="2.15867">
        <ele>292</ele>
        <time>2016-10-23T15:00:57Z</time>
      </trkpt>
      <trkpt lat="44.20262" lon="2.15861">
        <ele>292</ele>
        <time>2016-10-23T15:01:02Z</time>
      </trkpt>
      <trkpt lat="44.20258" lon="2.15852">
        <ele>292</ele>
        <time>2016-10-23T15:01:07Z</time>
      </trkpt>
      <trkpt lat="44.20257" lon="2.15851">
        <ele>292</ele>
        <time>2016-10-23T15:01:12Z</time>
      </trkpt>
      <trkpt lat="44.20255" lon="2.15847">
        <ele>292</ele>
        <time>2016-10-23T15:01:17Z</time>
      </trkpt>
      <trkpt lat="44.20251" lon="2.15842">
        <ele>292</ele>
        <time>2016-10-23T15:01:22Z</time>
      </trkpt>
      <trkpt lat="44.20245" lon="2.15836">
        <ele>292</ele>
        <time>2016-10-23T15:01:27Z</time>
      </trkpt>
      <trkpt lat="44.20237" lon="2.1583">
        <ele>292</ele>
        <time>2016-10-23T15:01:32Z</time>
      </trkpt>
      <trkpt lat="44.20233" lon="2.15829">
        <ele>292</ele>
        <time>2016-10-23T15:01:37Z</time>
      </trkpt>
      <trkpt lat="44.20226" lon="2.15828">
        <ele>292</ele>
        <time>2016-10-23T15:01:42Z</time>
      </trkpt>
      <trkpt lat="44.20222" lon="2.15832">
        <ele>292</ele>
        <time>2016-10-23T15:01:47Z</time>
      </trkpt>
      <trkpt lat="44.20213" lon="2.15836">
        <ele>292</ele>
        <time>2016-10-23T15:01:52Z</time>
      </trkpt>
      <trkpt lat="44.20207" lon="2.15842">
        <ele>299</ele>
        <time>2016-10-23T15:01:57Z</time>
      </trkpt>
      <trkpt lat="44.20201" lon="2.15844">
        <ele>299</ele>
        <time>2016-10-23T15:02:02Z</time>
      </trkpt>
      <trkpt lat="44.20195" lon="2.15845">
        <ele>299</ele>
        <time>2016-10-23T15:02:07Z</time>
      </trkpt>
      <trkpt lat="44.20191" lon="2.15846">
        <ele>299</ele>
        <time>2016-10-23T15:02:12Z</time>
      </trkpt>
      <trkpt lat="44.20188" lon="2.15847">
        <ele>299</ele>
        <time>2016-10-23T15:02:17Z</time>
      </trkpt>
      <trkpt lat="44.20183" lon="2.15848">
        <ele>299</ele>
        <time>2016-10-23T15:02:22Z</time>
      </trkpt>
      <trkpt lat="44.20177" lon="2.15847">
        <ele>299</ele>
        <time>2016-10-23T15:02:27Z</time>
      </trkpt>
      <trkpt lat="44.20173" lon="2.15847">
        <ele>299</ele>
        <time>2016-10-23T15:02:32Z</time>
      </trkpt>
      <trkpt lat="44.20168" lon="2.15847">
        <ele>299</ele>
        <time>2016-10-23T15:02:37Z</time>
      </trkpt>
      <trkpt lat="44.20164" lon="2.15847">
        <ele>299</ele>
        <time>2016-10-23T15:02:42Z</time>
      </trkpt>
      <trkpt lat="44.20157" lon="2.15846">
        <ele>299</ele>
        <time>2016-10-23T15:02:47Z</time>
      </trkpt>
      <trkpt lat="44.20152" lon="2.15847">
        <ele>299</ele>
        <time>2016-10-23T15:02:52Z</time>
      </trkpt>
      <trkpt lat="44.20148" lon="2.1585">
        <ele>299</ele>
        <time>2016-10-23T15:02:57Z</time>
      </trkpt>
      <trkpt lat="44.20142" lon="2.1585">
        <ele>299</ele>
        <time>2016-10-23T15:03:02Z</time>
      </trkpt>
      <trkpt lat="44.20138" lon="2.15853">
        <ele>299</ele>
        <time>2016-10-23T15:03:07Z</time>
      </trkpt>
      <trkpt lat="44.20132" lon="2.15855">
        <ele>299</ele>
        <time>2016-10-23T15:03:12Z</time>
      </trkpt>
      <trkpt lat="44.20126" lon="2.15857">
        <ele>299</ele>
        <time>2016-10-23T15:03:17Z</time>
      </trkpt>
      <trkpt lat="44.20123" lon="2.1586">
        <ele>290</ele>
        <time>2016-10-23T15:03:22Z</time>
      </trkpt>
      <trkpt lat="44.20119" lon="2.15861">
        <ele>290</ele>
        <time>2016-10-23T15:03:27Z</time>
      </trkpt>
      <trkpt lat="44.20111" lon="2.15862">
        <ele>290</ele>
        <time>2016-10-23T15:03:32Z</time>
      </trkpt>
      <trkpt lat="44.20105" lon="2.15867">
        <ele>290</ele>
        <time>2016-10-23T15:03:37Z</time>
      </trkpt>
      <trkpt lat="44.20101" lon="2.15869">
        <ele>290</ele>
        <time>2016-10-23T15:03:42Z</time>
      </trkpt>
      <trkpt lat="44.20095" lon="2.15873">
        <ele>290</ele>
        <time>2016-10-23T15:03:47Z</time>
      </trkpt>
      <trkpt lat="44.20089" lon="2.15877">
        <ele>258</ele>
        <time>2016-10-23T15:03:52Z</time>
      </trkpt>
      <trkpt lat="44.20083" lon="2.15882">
        <ele>258</ele>
        <time>2016-10-23T15:03:57Z</time>
      </trkpt>
      <trkpt lat="44.20078" lon="2.15886">
        <ele>258</ele>
        <time>2016-10-23T15:04:02Z</time>
      </trkpt>
      <trkpt lat="44.20073" lon="2.15887">
        <ele>258</ele>
        <time>2016-10-23T15:04:07Z</time>
      </trkpt>
      <trkpt lat="44.20066" lon="2.15889">
        <ele>258</ele>
        <time>2016-10-23T15:04:12Z</time>
      </trkpt>
      <trkpt lat="44.2006" lon="2.15888">
        <ele>258</ele>
        <time>2016-10-23T15:04:17Z</time>
      </trkpt>
      <trkpt lat="44.20055" lon="2.15884">
        <ele>258</ele>
        <time>2016-10-23T15:04:22Z</time>
      </trkpt>
      <trkpt lat="44.20051" lon="2.1588">
        <ele>258</ele>
        <time>2016-10-23T15:04:27Z</time>
      </trkpt>
      <trkpt lat="44.20047" lon="2.15875">
        <ele>258</ele>
        <time>2016-10-23T15:04:32Z</time>
      </trkpt>
      <trkpt lat="44.20044" lon="2.15868">
        <ele>290</ele>
        <time>2016-10-23T15:04:37Z</time>
      </trkpt>
      <trkpt lat="44.20039" lon="2.15862">
        <ele>256</ele>
        <time>2016-10-23T15:04:42Z</time>
      </trkpt>
      <trkpt lat="44.20037" lon="2.15855">
        <ele>256</ele>
        <time>2016-10-23T15:04:47Z</time>
      </trkpt>
      <trkpt lat="44.20033" lon="2.15847">
        <ele>256</ele>
        <time>2016-10-23T15:04:52Z</time>
      </trkpt>
      <trkpt lat="44.20029" lon="2.15842">
        <ele>256</ele>
        <time>2016-10-23T15:04:57Z</time>
      </trkpt>
      <trkpt lat="44.20027" lon="2.15837">
        <ele>256</ele>
        <time>2016-10-23T15:05:02Z</time>
      </trkpt>
      <trkpt lat="44.20023" lon="2.15832">
        <ele>256</ele>
        <time>2016-10-23T15:05:07Z</time>
      </trkpt>
      <trkpt lat="44.20021" lon="2.15826">
        <ele>256</ele>
        <time>2016-10-23T15:05:12Z</time>
      </trkpt>
      <trkpt lat="44.20016" lon="2.1582">
        <ele>256</ele>
        <time>2016-10-23T15:05:17Z</time>
      </trkpt>
      <trkpt lat="44.20012" lon="2.15813">
        <ele>256</ele>
        <time>2016-10-23T15:05:22Z</time>
      </trkpt>
      <trkpt lat="44.2001" lon="2.15808">
        <ele>256</ele>
        <time>2016-10-23T15:05:27Z</time>
      </trkpt>
      <trkpt lat="44.20007" lon="2.15804">
        <ele>256</ele>
        <time>2016-10-23T15:05:32Z</time>
      </trkpt>
      <trkpt lat="44.20007" lon="2.15798">
        <ele>256</ele>
        <time>2016-10-23T15:05:37Z</time>
      </trkpt>
      <trkpt lat="44.20008" lon="2.15791">
        <ele>266</ele>
        <time>2016-10-23T15:05:42Z</time>
      </trkpt>
      <trkpt lat="44.20008" lon="2.15784">
        <ele>266</ele>
        <time>2016-10-23T15:05:47Z</time>
      </trkpt>
      <trkpt lat="44.20008" lon="2.15777">
        <ele>266</ele>
        <time>2016-10-23T15:05:52Z</time>
      </trkpt>
      <trkpt lat="44.20006" lon="2.15765">
        <ele>266</ele>
        <time>2016-10-23T15:05:57Z</time>
      </trkpt>
      <trkpt lat="44.20006" lon="2.15755">
        <ele>266</ele>
        <time>2016-10-23T15:06:02Z</time>
      </trkpt>
      <trkpt lat="44.20005" lon="2.15744">
        <ele>266</ele>
        <time>2016-10-23T15:06:07Z</time>
      </trkpt>
      <trkpt lat="44.20004" lon="2.15734">
        <ele>266</ele>
        <time>2016-10-23T15:06:12Z</time>
      </trkpt>
      <trkpt lat="44.20001" lon="2.15727">
        <ele>266</ele>
        <time>2016-10-23T15:06:17Z</time>
      </trkpt>
      <trkpt lat="44.19999" lon="2.15723">
        <ele>266</ele>
        <time>2016-10-23T15:06:22Z</time>
      </trkpt>
      <trkpt lat="44.19998" lon="2.15714">
        <ele>266</ele>
        <time>2016-10-23T15:06:27Z</time>
      </trkpt>
      <trkpt lat="44.19997" lon="2.1571">
        <ele>266</ele>
        <time>2016-10-23T15:06:32Z</time>
      </trkpt>
      <trkpt lat="44.19992" lon="2.15704">
        <ele>295</ele>
        <time>2016-10-23T15:06:37Z</time>
      </trkpt>
      <trkpt lat="44.19987" lon="2.15702">
        <ele>295</ele>
        <time>2016-10-23T15:06:42Z</time>
      </trkpt>
      <trkpt lat="44.19983" lon="2.15701">
        <ele>295</ele>
        <time>2016-10-23T15:06:47Z</time>
      </trkpt>
      <trkpt lat="44.19978" lon="2.15699">
        <ele>295</ele>
        <time>2016-10-23T15:06:52Z</time>
      </trkpt>
      <trkpt lat="44.19974" lon="2.15698">
        <ele>295</ele>
        <time>2016-10-23T15:06:57Z</time>
      </trkpt>
      <trkpt lat="44.19968" lon="2.15696">
        <ele>295</ele>
        <time>2016-10-23T15:07:02Z</time>
      </trkpt>
      <trkpt lat="44.19964" lon="2.15692">
        <ele>295</ele>
        <time>2016-10-23T15:07:07Z</time>
      </trkpt>
      <trkpt lat="44.19959" lon="2.1569">
        <ele>295</ele>
        <time>2016-10-23T15:07:12Z</time>
      </trkpt>
      <trkpt lat="44.19954" lon="2.15685">
        <ele>259</ele>
        <time>2016-10-23T15:07:17Z</time>
      </trkpt>
      <trkpt lat="44.1995" lon="2.1568">
        <ele>259</ele>
        <time>2016-10-23T15:07:22Z</time>
      </trkpt>
      <trkpt lat="44.19945" lon="2.15675">
        <ele>259</ele>
        <time>2016-10-23T15:07:27Z</time>
      </trkpt>
      <trkpt lat="44.19941" lon="2.15669">
        <ele>259</ele>
        <time>2016-10-23T15:07:32Z</time>
      </trkpt>
      <trkpt lat="44.19938" lon="2.15665">
        <ele>259</ele>
        <time>2016-10-23T15:07:37Z</time>
      </trkpt>
      <trkpt lat="44.19932" lon="2.15667">
        <ele>259</ele>
        <time>2016-10-23T15:07:42Z</time>
      </trkpt>
      <trkpt lat="44.1993" lon="2.15665">
        <ele>259</ele>
        <time>2016-10-23T15:07:47Z</time>
      </trkpt>
      <trkpt lat="44.19929" lon="2.15668">
        <ele>259</ele>
        <time>2016-10-23T15:07:52Z</time>
      </trkpt>
      <trkpt lat="44.19928" lon="2.15674">
        <ele>259</ele>
        <time>2016-10-23T15:07:57Z</time>
      </trkpt>
      <trkpt lat="44.19927" lon="2.15676">
        <ele>259</ele>
        <time>2016-10-23T15:08:02Z</time>
      </trkpt>
      <trkpt lat="44.19922" lon="2.15678">
        <ele>259</ele>
        <time>2016-10-23T15:08:07Z</time>
      </trkpt>
      <trkpt lat="44.1992" lon="2.1568">
        <ele>259</ele>
        <time>2016-10-23T15:08:12Z</time>
      </trkpt>
      <trkpt lat="44.19919" lon="2.15684">
        <ele>259</ele>
        <time>2016-10-23T15:08:17Z</time>
      </trkpt>
      <trkpt lat="44.19917" lon="2.15688">
        <ele>259</ele>
        <time>2016-10-23T15:08:22Z</time>
      </trkpt>
      <trkpt lat="44.19919" lon="2.15687">
        <ele>259</ele>
        <time>2016-10-23T15:08:27Z</time>
      </trkpt>
      <trkpt lat="44.19919" lon="2.15687">
        <ele>259</ele>
        <time>2016-10-23T15:08:32Z</time>
      </trkpt>
      <trkpt lat="44.19919" lon="2.15688">
        <ele>259</ele>
        <time>2016-10-23T15:08:37Z</time>
      </trkpt>
      <trkpt lat="44.19915" lon="2.15688">
        <ele>259</ele>
        <time>2016-10-23T15:08:42Z</time>
      </trkpt>
      <trkpt lat="44.19917" lon="2.15688">
        <ele>259</ele>
        <time>2016-10-23T15:08:47Z</time>
      </trkpt>
      <trkpt lat="44.19916" lon="2.1569">
        <ele>259</ele>
        <time>2016-10-23T15:08:52Z</time>
      </trkpt>
      <trkpt lat="44.19916" lon="2.15689">
        <ele>259</ele>
        <time>2016-10-23T15:08:57Z</time>
      </trkpt>
      <trkpt lat="44.19915" lon="2.1569">
        <ele>259</ele>
        <time>2016-10-23T15:09:02Z</time>
      </trkpt>
      <trkpt lat="44.19913" lon="2.15688">
        <ele>259</ele>
        <time>2016-10-23T15:09:07Z</time>
      </trkpt>
      <trkpt lat="44.19913" lon="2.15688">
        <ele>259</ele>
        <time>2016-10-23T15:09:12Z</time>
      </trkpt>
      <trkpt lat="44.19914" lon="2.1569">
        <ele>259</ele>
        <time>2016-10-23T15:09:17Z</time>
      </trkpt>
      <trkpt lat="44.19915" lon="2.15693">
        <ele>259</ele>
        <time>2016-10-23T15:09:22Z</time>
      </trkpt>
      <trkpt lat="44.19913" lon="2.15692">
        <ele>259</ele>
        <time>2016-10-23T15:09:27Z</time>
      </trkpt>
      <trkpt lat="44.19911" lon="2.15694">
        <ele>259</ele>
        <time>2016-10-23T15:09:32Z</time>
      </trkpt>
      <trkpt lat="44.1991" lon="2.15696">
        <ele>259</ele>
        <time>2016-10-23T15:09:37Z</time>
      </trkpt>
      <trkpt lat="44.1991" lon="2.15698">
        <ele>259</ele>
        <time>2016-10-23T15:09:42Z</time>
      </trkpt>
      <trkpt lat="44.1991" lon="2.15699">
        <ele>259</ele>
        <time>2016-10-23T15:09:47Z</time>
      </trkpt>
      <trkpt lat="44.1991" lon="2.15698">
        <ele>259</ele>
        <time>2016-10-23T15:09:52Z</time>
      </trkpt>
      <trkpt lat="44.1991" lon="2.15699">
        <ele>259</ele>
        <time>2016-10-23T15:09:57Z</time>
      </trkpt>
      <trkpt lat="44.1991" lon="2.15699">
        <ele>259</ele>
        <time>2016-10-23T15:10:02Z</time>
      </trkpt>
      <trkpt lat="44.1991" lon="2.157">
        <ele>259</ele>
        <time>2016-10-23T15:10:07Z</time>
      </trkpt>
      <trkpt lat="44.1991" lon="2.157">
        <ele>259</ele>
        <time>2016-10-23T15:10:12Z</time>
      </trkpt>
      <trkpt lat="44.19911" lon="2.157">
        <ele>259</ele>
        <time>2016-10-23T15:10:17Z</time>
      </trkpt>
      <trkpt lat="44.1991" lon="2.15701">
        <ele>259</ele>
        <time>2016-10-23T15:10:22Z</time>
      </trkpt>
      <trkpt lat="44.19907" lon="2.15707">
        <ele>259</ele>
        <time>2016-10-23T15:10:27Z</time>
      </trkpt>
      <trkpt lat="44.19908" lon="2.15708">
        <ele>259</ele>
        <time>2016-10-23T15:10:32Z</time>
      </trkpt>
      <trkpt lat="44.19908" lon="2.15708">
        <ele>259</ele>
        <time>2016-10-23T15:10:37Z</time>
      </trkpt>
      <trkpt lat="44.19911" lon="2.15707">
        <ele>259</ele>
        <time>2016-10-23T15:10:42Z</time>
      </trkpt>
      <trkpt lat="44.19911" lon="2.15704">
        <ele>259</ele>
        <time>2016-10-23T15:10:47Z</time>
      </trkpt>
      <trkpt lat="44.19909" lon="2.15703">
        <ele>259</ele>
        <time>2016-10-23T15:10:52Z</time>
      </trkpt>
      <trkpt lat="44.19909" lon="2.15704">
        <ele>259</ele>
        <time>2016-10-23T15:10:57Z</time>
      </trkpt>
      <trkpt lat="44.19909" lon="2.15705">
        <ele>259</ele>
        <time>2016-10-23T15:11:02Z</time>
      </trkpt>
      <trkpt lat="44.19909" lon="2.15706">
        <ele>259</ele>
        <time>2016-10-23T15:11:07Z</time>
      </trkpt>
      <trkpt lat="44.19909" lon="2.15705">
        <ele>259</ele>
        <time>2016-10-23T15:11:12Z</time>
      </trkpt>
      <trkpt lat="44.19908" lon="2.15705">
        <ele>259</ele>
        <time>2016-10-23T15:11:17Z</time>
      </trkpt>
      <trkpt lat="44.19909" lon="2.15704">
        <ele>259</ele>
        <time>2016-10-23T15:11:22Z</time>
      </trkpt>
      <trkpt lat="44.19908" lon="2.15704">
        <ele>259</ele>
        <time>2016-10-23T15:11:27Z</time>
      </trkpt>
      <trkpt lat="44.19911" lon="2.15699">
        <ele>259</ele>
        <time>2016-10-23T15:11:32Z</time>
      </trkpt>
      <trkpt lat="44.19911" lon="2.15688">
        <ele>259</ele>
        <time>2016-10-23T15:11:37Z</time>
      </trkpt>
      <trkpt lat="44.19911" lon="2.15685">
        <ele>259</ele>
        <time>2016-10-23T15:11:42Z</time>
      </trkpt>
      <trkpt lat="44.19911" lon="2.15684">
        <ele>259</ele>
        <time>2016-10-23T15:11:47Z</time>
      </trkpt>
      <trkpt lat="44.19911" lon="2.15683">
        <ele>259</ele>
        <time>2016-10-23T15:11:52Z</time>
      </trkpt>
      <trkpt lat="44.19912" lon="2.15684">
        <ele>259</ele>
        <time>2016-10-23T15:11:57Z</time>
      </trkpt>
      <trkpt lat="44.19912" lon="2.15684">
        <ele>259</ele>
        <time>2016-10-23T15:12:02Z</time>
      </trkpt>
      <trkpt lat="44.19912" lon="2.15684">
        <ele>259</ele>
        <time>2016-10-23T15:12:07Z</time>
      </trkpt>
      <trkpt lat="44.19911" lon="2.15684">
        <ele>259</ele>
        <time>2016-10-23T15:12:12Z</time>
      </trkpt>
      <trkpt lat="44.19912" lon="2.15685">
        <ele>259</ele>
        <time>2016-10-23T15:12:17Z</time>
      </trkpt>
      <trkpt lat="44.19913" lon="2.15686">
        <ele>259</ele>
        <time>2016-10-23T15:12:22Z</time>
      </trkpt>
      <trkpt lat="44.19914" lon="2.15688">
        <ele>259</ele>
        <time>2016-10-23T15:12:27Z</time>
      </trkpt>
      <trkpt lat="44.19914" lon="2.15688">
        <ele>259</ele>
        <time>2016-10-23T15:12:32Z</time>
      </trkpt>
      <trkpt lat="44.19914" lon="2.1569">
        <ele>259</ele>
        <time>2016-10-23T15:12:37Z</time>
      </trkpt>
      <trkpt lat="44.19914" lon="2.15691">
        <ele>259</ele>
        <time>2016-10-23T15:12:42Z</time>
      </trkpt>
      <trkpt lat="44.19914" lon="2.15691">
        <ele>259</ele>
        <time>2016-10-23T15:12:47Z</time>
      </trkpt>
      <trkpt lat="44.19915" lon="2.15691">
        <ele>259</ele>
        <time>2016-10-23T15:12:52Z</time>
      </trkpt>
      <trkpt lat="44.19913" lon="2.1569">
        <ele>259</ele>
        <time>2016-10-23T15:12:57Z</time>
      </trkpt>
      <trkpt lat="44.19911" lon="2.1569">
        <ele>259</ele>
        <time>2016-10-23T15:13:02Z</time>
      </trkpt>
      <trkpt lat="44.19908" lon="2.15689">
        <ele>259</ele>
        <time>2016-10-23T15:13:07Z</time>
      </trkpt>
      <trkpt lat="44.19904" lon="2.15689">
        <ele>259</ele>
        <time>2016-10-23T15:13:12Z</time>
      </trkpt>
      <trkpt lat="44.199" lon="2.1569">
        <ele>259</ele>
        <time>2016-10-23T15:13:17Z</time>
      </trkpt>
      <trkpt lat="44.19897" lon="2.15687">
        <ele>259</ele>
        <time>2016-10-23T15:13:22Z</time>
      </trkpt>
      <trkpt lat="44.19893" lon="2.15688">
        <ele>259</ele>
        <time>2016-10-23T15:13:27Z</time>
      </trkpt>
      <trkpt lat="44.19891" lon="2.15685">
        <ele>259</ele>
        <time>2016-10-23T15:13:32Z</time>
      </trkpt>
      <trkpt lat="44.19889" lon="2.1568">
        <ele>259</ele>
        <time>2016-10-23T15:13:37Z</time>
      </trkpt>
      <trkpt lat="44.19884" lon="2.15675">
        <ele>259</ele>
        <time>2016-10-23T15:13:42Z</time>
      </trkpt>
      <trkpt lat="44.19885" lon="2.15672">
        <ele>259</ele>
        <time>2016-10-23T15:13:47Z</time>
      </trkpt>
      <trkpt lat="44.19884" lon="2.15671">
        <ele>259</ele>
        <time>2016-10-23T15:13:52Z</time>
      </trkpt>
      <trkpt lat="44.1988" lon="2.15668">
        <ele>259</ele>
        <time>2016-10-23T15:13:57Z</time>
      </trkpt>
      <trkpt lat="44.19875" lon="2.1566">
        <ele>242</ele>
        <time>2016-10-23T15:14:02Z</time>
      </trkpt>
      <trkpt lat="44.1987" lon="2.15654">
        <ele>242</ele>
        <time>2016-10-23T15:14:07Z</time>
      </trkpt>
      <trkpt lat="44.19867" lon="2.15649">
        <ele>242</ele>
        <time>2016-10-23T15:14:12Z</time>
      </trkpt>
      <trkpt lat="44.19866" lon="2.15641">
        <ele>242</ele>
        <time>2016-10-23T15:14:17Z</time>
      </trkpt>
      <trkpt lat="44.19864" lon="2.1563">
        <ele>242</ele>
        <time>2016-10-23T15:14:22Z</time>
      </trkpt>
      <trkpt lat="44.19862" lon="2.1562">
        <ele>247</ele>
        <time>2016-10-23T15:14:27Z</time>
      </trkpt>
      <trkpt lat="44.1986" lon="2.15612">
        <ele>247</ele>
        <time>2016-10-23T15:14:32Z</time>
      </trkpt>
      <trkpt lat="44.19857" lon="2.15606">
        <ele>247</ele>
        <time>2016-10-23T15:14:37Z</time>
      </trkpt>
      <trkpt lat="44.19855" lon="2.15598">
        <ele>247</ele>
        <time>2016-10-23T15:14:42Z</time>
      </trkpt>
      <trkpt lat="44.19854" lon="2.15592">
        <ele>247</ele>
        <time>2016-10-23T15:14:47Z</time>
      </trkpt>
      <trkpt lat="44.1985" lon="2.15586">
        <ele>247</ele>
        <time>2016-10-23T15:14:52Z</time>
      </trkpt>
      <trkpt lat="44.19846" lon="2.15582">
        <ele>247</ele>
        <time>2016-10-23T15:14:57Z</time>
      </trkpt>
      <trkpt lat="44.19842" lon="2.15575">
        <ele>247</ele>
        <time>2016-10-23T15:15:02Z</time>
      </trkpt>
      <trkpt lat="44.19839" lon="2.1557">
        <ele>247</ele>
        <time>2016-10-23T15:15:07Z</time>
      </trkpt>
      <trkpt lat="44.19835" lon="2.15562">
        <ele>247</ele>
        <time>2016-10-23T15:15:12Z</time>
      </trkpt>
      <trkpt lat="44.19831" lon="2.15556">
        <ele>247</ele>
        <time>2016-10-23T15:15:17Z</time>
      </trkpt>
      <trkpt lat="44.19827" lon="2.1555">
        <ele>247</ele>
        <time>2016-10-23T15:15:22Z</time>
      </trkpt>
      <trkpt lat="44.19824" lon="2.15547">
        <ele>247</ele>
        <time>2016-10-23T15:15:27Z</time>
      </trkpt>
      <trkpt lat="44.19821" lon="2.15542">
        <ele>247</ele>
        <time>2016-10-23T15:15:32Z</time>
      </trkpt>
      <trkpt lat="44.19815" lon="2.15538">
        <ele>268</ele>
        <time>2016-10-23T15:15:37Z</time>
      </trkpt>
      <trkpt lat="44.1981" lon="2.15537">
        <ele>268</ele>
        <time>2016-10-23T15:15:42Z</time>
      </trkpt>
      <trkpt lat="44.19805" lon="2.15535">
        <ele>268</ele>
        <time>2016-10-23T15:15:47Z</time>
      </trkpt>
      <trkpt lat="44.19799" lon="2.15536">
        <ele>268</ele>
        <time>2016-10-23T15:15:52Z</time>
      </trkpt>
      <trkpt lat="44.19793" lon="2.15535">
        <ele>268</ele>
        <time>2016-10-23T15:15:57Z</time>
      </trkpt>
      <trkpt lat="44.19788" lon="2.15529">
        <ele>247</ele>
        <time>2016-10-23T15:16:02Z</time>
      </trkpt>
      <trkpt lat="44.19784" lon="2.15529">
        <ele>247</ele>
        <time>2016-10-23T15:16:07Z</time>
      </trkpt>
      <trkpt lat="44.19779" lon="2.15527">
        <ele>247</ele>
        <time>2016-10-23T15:16:12Z</time>
      </trkpt>
      <trkpt lat="44.19775" lon="2.15525">
        <ele>247</ele>
        <time>2016-10-23T15:16:17Z</time>
      </trkpt>
      <trkpt lat="44.19777" lon="2.15527">
        <ele>247</ele>
        <time>2016-10-23T15:16:22Z</time>
      </trkpt>
      <trkpt lat="44.19774" lon="2.15529">
        <ele>247</ele>
        <time>2016-10-23T15:16:27Z</time>
      </trkpt>
      <trkpt lat="44.19768" lon="2.15528">
        <ele>247</ele>
        <time>2016-10-23T15:16:32Z</time>
      </trkpt>
      <trkpt lat="44.19761" lon="2.15526">
        <ele>247</ele>
        <time>2016-10-23T15:16:37Z</time>
      </trkpt>
      <trkpt lat="44.19756" lon="2.1552">
        <ele>247</ele>
        <time>2016-10-23T15:16:42Z</time>
      </trkpt>
      <trkpt lat="44.1975" lon="2.15514">
        <ele>247</ele>
        <time>2016-10-23T15:16:47Z</time>
      </trkpt>
      <trkpt lat="44.19745" lon="2.15509">
        <ele>247</ele>
        <time>2016-10-23T15:16:52Z</time>
      </trkpt>
      <trkpt lat="44.19741" lon="2.15505">
        <ele>247</ele>
        <time>2016-10-23T15:16:57Z</time>
      </trkpt>
      <trkpt lat="44.19736" lon="2.15502">
        <ele>247</ele>
        <time>2016-10-23T15:17:02Z</time>
      </trkpt>
      <trkpt lat="44.19731" lon="2.15498">
        <ele>247</ele>
        <time>2016-10-23T15:17:07Z</time>
      </trkpt>
      <trkpt lat="44.19725" lon="2.15496">
        <ele>247</ele>
        <time>2016-10-23T15:17:12Z</time>
      </trkpt>
      <trkpt lat="44.1972" lon="2.15494">
        <ele>247</ele>
        <time>2016-10-23T15:17:17Z</time>
      </trkpt>
      <trkpt lat="44.19714" lon="2.15492">
        <ele>247</ele>
        <time>2016-10-23T15:17:22Z</time>
      </trkpt>
      <trkpt lat="44.19709" lon="2.15489">
        <ele>247</ele>
        <time>2016-10-23T15:17:27Z</time>
      </trkpt>
      <trkpt lat="44.19704" lon="2.15485">
        <ele>251</ele>
        <time>2016-10-23T15:17:32Z</time>
      </trkpt>
      <trkpt lat="44.19698" lon="2.15484">
        <ele>251</ele>
        <time>2016-10-23T15:17:37Z</time>
      </trkpt>
      <trkpt lat="44.19693" lon="2.15482">
        <ele>251</ele>
        <time>2016-10-23T15:17:42Z</time>
      </trkpt>
      <trkpt lat="44.19687" lon="2.15479">
        <ele>251</ele>
        <time>2016-10-23T15:17:47Z</time>
      </trkpt>
      <trkpt lat="44.19682" lon="2.15477">
        <ele>251</ele>
        <time>2016-10-23T15:17:52Z</time>
      </trkpt>
      <trkpt lat="44.19677" lon="2.15473">
        <ele>251</ele>
        <time>2016-10-23T15:17:57Z</time>
      </trkpt>
      <trkpt lat="44.19673" lon="2.15471">
        <ele>251</ele>
        <time>2016-10-23T15:18:02Z</time>
      </trkpt>
      <trkpt lat="44.19667" lon="2.15468">
        <ele>251</ele>
        <time>2016-10-23T15:18:07Z</time>
      </trkpt>
      <trkpt lat="44.19662" lon="2.15465">
        <ele>251</ele>
        <time>2016-10-23T15:18:12Z</time>
      </trkpt>
      <trkpt lat="44.19656" lon="2.15461">
        <ele>251</ele>
        <time>2016-10-23T15:18:17Z</time>
      </trkpt>
      <trkpt lat="44.1965" lon="2.15457">
        <ele>228</ele>
        <time>2016-10-23T15:18:22Z</time>
      </trkpt>
      <trkpt lat="44.19643" lon="2.15453">
        <ele>228</ele>
        <time>2016-10-23T15:18:27Z</time>
      </trkpt>
      <trkpt lat="44.19637" lon="2.15451">
        <ele>228</ele>
        <time>2016-10-23T15:18:32Z</time>
      </trkpt>
      <trkpt lat="44.19632" lon="2.15448">
        <ele>228</ele>
        <time>2016-10-23T15:18:37Z</time>
      </trkpt>
      <trkpt lat="44.19627" lon="2.15446">
        <ele>228</ele>
        <time>2016-10-23T15:18:42Z</time>
      </trkpt>
      <trkpt lat="44.19621" lon="2.15442">
        <ele>242</ele>
        <time>2016-10-23T15:18:47Z</time>
      </trkpt>
      <trkpt lat="44.19615" lon="2.15439">
        <ele>242</ele>
        <time>2016-10-23T15:18:52Z</time>
      </trkpt>
      <trkpt lat="44.1961" lon="2.15436">
        <ele>242</ele>
        <time>2016-10-23T15:18:57Z</time>
      </trkpt>
      <trkpt lat="44.19604" lon="2.15431">
        <ele>242</ele>
        <time>2016-10-23T15:19:02Z</time>
      </trkpt>
      <trkpt lat="44.19599" lon="2.15428">
        <ele>242</ele>
        <time>2016-10-23T15:19:07Z</time>
      </trkpt>
      <trkpt lat="44.19593" lon="2.15426">
        <ele>242</ele>
        <time>2016-10-23T15:19:12Z</time>
      </trkpt>
      <trkpt lat="44.19587" lon="2.15422">
        <ele>242</ele>
        <time>2016-10-23T15:19:17Z</time>
      </trkpt>
      <trkpt lat="44.19579" lon="2.1542">
        <ele>242</ele>
        <time>2016-10-23T15:19:22Z</time>
      </trkpt>
      <trkpt lat="44.19573" lon="2.15418">
        <ele>242</ele>
        <time>2016-10-23T15:19:27Z</time>
      </trkpt>
      <trkpt lat="44.19566" lon="2.15412">
        <ele>242</ele>
        <time>2016-10-23T15:19:32Z</time>
      </trkpt>
      <trkpt lat="44.19562" lon="2.15408">
        <ele>242</ele>
        <time>2016-10-23T15:19:37Z</time>
      </trkpt>
      <trkpt lat="44.19557" lon="2.15404">
        <ele>242</ele>
        <time>2016-10-23T15:19:42Z</time>
      </trkpt>
      <trkpt lat="44.19553" lon="2.15401">
        <ele>242</ele>
        <time>2016-10-23T15:19:47Z</time>
      </trkpt>
      <trkpt lat="44.19549" lon="2.15397">
        <ele>242</ele>
        <time>2016-10-23T15:19:52Z</time>
      </trkpt>
      <trkpt lat="44.19544" lon="2.15394">
        <ele>242</ele>
        <time>2016-10-23T15:19:57Z</time>
      </trkpt>
      <trkpt lat="44.19539" lon="2.15393">
        <ele>253</ele>
        <time>2016-10-23T15:20:02Z</time>
      </trkpt>
      <trkpt lat="44.19533" lon="2.15389">
        <ele>253</ele>
        <time>2016-10-23T15:20:07Z</time>
      </trkpt>
      <trkpt lat="44.19528" lon="2.15388">
        <ele>253</ele>
        <time>2016-10-23T15:20:12Z</time>
      </trkpt>
      <trkpt lat="44.19522" lon="2.15383">
        <ele>253</ele>
        <time>2016-10-23T15:20:17Z</time>
      </trkpt>
      <trkpt lat="44.19519" lon="2.15378">
        <ele>253</ele>
        <time>2016-10-23T15:20:22Z</time>
      </trkpt>
      <trkpt lat="44.19515" lon="2.15376">
        <ele>253</ele>
        <time>2016-10-23T15:20:27Z</time>
      </trkpt>
      <trkpt lat="44.1951" lon="2.15373">
        <ele>229</ele>
        <time>2016-10-23T15:20:32Z</time>
      </trkpt>
      <trkpt lat="44.19505" lon="2.1537">
        <ele>229</ele>
        <time>2016-10-23T15:20:37Z</time>
      </trkpt>
      <trkpt lat="44.195" lon="2.15367">
        <ele>229</ele>
        <time>2016-10-23T15:20:42Z</time>
      </trkpt>
      <trkpt lat="44.19496" lon="2.15361">
        <ele>229</ele>
        <time>2016-10-23T15:20:47Z</time>
      </trkpt>
      <trkpt lat="44.1949" lon="2.15359">
        <ele>229</ele>
        <time>2016-10-23T15:20:52Z</time>
      </trkpt>
      <trkpt lat="44.19485" lon="2.15356">
        <ele>229</ele>
        <time>2016-10-23T15:20:57Z</time>
      </trkpt>
      <trkpt lat="44.19481" lon="2.1535">
        <ele>229</ele>
        <time>2016-10-23T15:21:02Z</time>
      </trkpt>
      <trkpt lat="44.19474" lon="2.15344">
        <ele>229</ele>
        <time>2016-10-23T15:21:07Z</time>
      </trkpt>
      <trkpt lat="44.19469" lon="2.15342">
        <ele>229</ele>
        <time>2016-10-23T15:21:12Z</time>
      </trkpt>
      <trkpt lat="44.19464" lon="2.15338">
        <ele>229</ele>
        <time>2016-10-23T15:21:17Z</time>
      </trkpt>
      <trkpt lat="44.19459" lon="2.15338">
        <ele>229</ele>
        <time>2016-10-23T15:21:22Z</time>
      </trkpt>
      <trkpt lat="44.19453" lon="2.15335">
        <ele>235</ele>
        <time>2016-10-23T15:21:27Z</time>
      </trkpt>
      <trkpt lat="44.19446" lon="2.15332">
        <ele>235</ele>
        <time>2016-10-23T15:21:32Z</time>
      </trkpt>
      <trkpt lat="44.19442" lon="2.15329">
        <ele>235</ele>
        <time>2016-10-23T15:21:37Z</time>
      </trkpt>
      <trkpt lat="44.19437" lon="2.15326">
        <ele>235</ele>
        <time>2016-10-23T15:21:42Z</time>
      </trkpt>
      <trkpt lat="44.19431" lon="2.15323">
        <ele>235</ele>
        <time>2016-10-23T15:21:47Z</time>
      </trkpt>
      <trkpt lat="44.19426" lon="2.1532">
        <ele>235</ele>
        <time>2016-10-23T15:21:52Z</time>
      </trkpt>
      <trkpt lat="44.19422" lon="2.15319">
        <ele>235</ele>
        <time>2016-10-23T15:21:57Z</time>
      </trkpt>
      <trkpt lat="44.19419" lon="2.15316">
        <ele>235</ele>
        <time>2016-10-23T15:22:02Z</time>
      </trkpt>
      <trkpt lat="44.19411" lon="2.15311">
        <ele>235</ele>
        <time>2016-10-23T15:22:07Z</time>
      </trkpt>
      <trkpt lat="44.19406" lon="2.15308">
        <ele>235</ele>
        <time>2016-10-23T15:22:12Z</time>
      </trkpt>
      <trkpt lat="44.19399" lon="2.15304">
        <ele>235</ele>
        <time>2016-10-23T15:22:17Z</time>
      </trkpt>
      <trkpt lat="44.19394" lon="2.15301">
        <ele>235</ele>
        <time>2016-10-23T15:22:22Z</time>
      </trkpt>
      <trkpt lat="44.19389" lon="2.15295">
        <ele>235</ele>
        <time>2016-10-23T15:22:27Z</time>
      </trkpt>
      <trkpt lat="44.19383" lon="2.15291">
        <ele>216</ele>
        <time>2016-10-23T15:22:32Z</time>
      </trkpt>
      <trkpt lat="44.19379" lon="2.15286">
        <ele>216</ele>
        <time>2016-10-23T15:22:37Z</time>
      </trkpt>
      <trkpt lat="44.19372" lon="2.15282">
        <ele>229</ele>
        <time>2016-10-23T15:22:42Z</time>
      </trkpt>
      <trkpt lat="44.19368" lon="2.15278">
        <ele>229</ele>
        <time>2016-10-23T15:22:47Z</time>
      </trkpt>
      <trkpt lat="44.19363" lon="2.15274">
        <ele>229</ele>
        <time>2016-10-23T15:22:52Z</time>
      </trkpt>
      <trkpt lat="44.19358" lon="2.15269">
        <ele>229</ele>
        <time>2016-10-23T15:22:57Z</time>
      </trkpt>
      <trkpt lat="44.19356" lon="2.15267">
        <ele>229</ele>
        <time>2016-10-23T15:23:02Z</time>
      </trkpt>
      <trkpt lat="44.19354" lon="2.15265">
        <ele>229</ele>
        <time>2016-10-23T15:23:07Z</time>
      </trkpt>
      <trkpt lat="44.19355" lon="2.15265">
        <ele>229</ele>
        <time>2016-10-23T15:23:12Z</time>
      </trkpt>
      <trkpt lat="44.19352" lon="2.15266">
        <ele>229</ele>
        <time>2016-10-23T15:23:17Z</time>
      </trkpt>
      <trkpt lat="44.19353" lon="2.15265">
        <ele>229</ele>
        <time>2016-10-23T15:23:22Z</time>
      </trkpt>
      <trkpt lat="44.19353" lon="2.15265">
        <ele>229</ele>
        <time>2016-10-23T15:23:27Z</time>
      </trkpt>
      <trkpt lat="44.1935" lon="2.1526">
        <ele>229</ele>
        <time>2016-10-23T15:23:32Z</time>
      </trkpt>
      <trkpt lat="44.19346" lon="2.15256">
        <ele>229</ele>
        <time>2016-10-23T15:23:37Z</time>
      </trkpt>
      <trkpt lat="44.19339" lon="2.15251">
        <ele>229</ele>
        <time>2016-10-23T15:23:42Z</time>
      </trkpt>
      <trkpt lat="44.19332" lon="2.15245">
        <ele>229</ele>
        <time>2016-10-23T15:23:47Z</time>
      </trkpt>
      <trkpt lat="44.19326" lon="2.15238">
        <ele>229</ele>
        <time>2016-10-23T15:23:52Z</time>
      </trkpt>
      <trkpt lat="44.19322" lon="2.15233">
        <ele>229</ele>
        <time>2016-10-23T15:23:57Z</time>
      </trkpt>
      <trkpt lat="44.19316" lon="2.15227">
        <ele>229</ele>
        <time>2016-10-23T15:24:02Z</time>
      </trkpt>
      <trkpt lat="44.19311" lon="2.15222">
        <ele>229</ele>
        <time>2016-10-23T15:24:07Z</time>
      </trkpt>
      <trkpt lat="44.19305" lon="2.15218">
        <ele>229</ele>
        <time>2016-10-23T15:24:12Z</time>
      </trkpt>
      <trkpt lat="44.19301" lon="2.15213">
        <ele>229</ele>
        <time>2016-10-23T15:24:17Z</time>
      </trkpt>
      <trkpt lat="44.19297" lon="2.15209">
        <ele>229</ele>
        <time>2016-10-23T15:24:22Z</time>
      </trkpt>
      <trkpt lat="44.19292" lon="2.15205">
        <ele>219</ele>
        <time>2016-10-23T15:24:27Z</time>
      </trkpt>
      <trkpt lat="44.19286" lon="2.15199">
        <ele>223</ele>
        <time>2016-10-23T15:24:32Z</time>
      </trkpt>
      <trkpt lat="44.1928" lon="2.15193">
        <ele>223</ele>
        <time>2016-10-23T15:24:37Z</time>
      </trkpt>
      <trkpt lat="44.19275" lon="2.15187">
        <ele>223</ele>
        <time>2016-10-23T15:24:42Z</time>
      </trkpt>
      <trkpt lat="44.19271" lon="2.15183">
        <ele>223</ele>
        <time>2016-10-23T15:24:47Z</time>
      </trkpt>
      <trkpt lat="44.19264" lon="2.1518">
        <ele>223</ele>
        <time>2016-10-23T15:24:52Z</time>
      </trkpt>
      <trkpt lat="44.19259" lon="2.15178">
        <ele>223</ele>
        <time>2016-10-23T15:24:57Z</time>
      </trkpt>
      <trkpt lat="44.19254" lon="2.15174">
        <ele>223</ele>
        <time>2016-10-23T15:25:02Z</time>
      </trkpt>
      <trkpt lat="44.1925" lon="2.1517">
        <ele>223</ele>
        <time>2016-10-23T15:25:07Z</time>
      </trkpt>
      <trkpt lat="44.19244" lon="2.15166">
        <ele>223</ele>
        <time>2016-10-23T15:25:12Z</time>
      </trkpt>
      <trkpt lat="44.1924" lon="2.15165">
        <ele>223</ele>
        <time>2016-10-23T15:25:17Z</time>
      </trkpt>
      <trkpt lat="44.19235" lon="2.15162">
        <ele>223</ele>
        <time>2016-10-23T15:25:22Z</time>
      </trkpt>
      <trkpt lat="44.19229" lon="2.1516">
        <ele>223</ele>
        <time>2016-10-23T15:25:27Z</time>
      </trkpt>
      <trkpt lat="44.19223" lon="2.15157">
        <ele>223</ele>
        <time>2016-10-23T15:25:32Z</time>
      </trkpt>
      <trkpt lat="44.19218" lon="2.15155">
        <ele>223</ele>
        <time>2016-10-23T15:25:37Z</time>
      </trkpt>
      <trkpt lat="44.19213" lon="2.15151">
        <ele>223</ele>
        <time>2016-10-23T15:25:42Z</time>
      </trkpt>
      <trkpt lat="44.19208" lon="2.15151">
        <ele>230</ele>
        <time>2016-10-23T15:25:47Z</time>
      </trkpt>
      <trkpt lat="44.19201" lon="2.1515">
        <ele>230</ele>
        <time>2016-10-23T15:25:52Z</time>
      </trkpt>
      <trkpt lat="44.19195" lon="2.1515">
        <ele>230</ele>
        <time>2016-10-23T15:25:57Z</time>
      </trkpt>
      <trkpt lat="44.19188" lon="2.15148">
        <ele>230</ele>
        <time>2016-10-23T15:26:02Z</time>
      </trkpt>
      <trkpt lat="44.19182" lon="2.15146">
        <ele>230</ele>
        <time>2016-10-23T15:26:07Z</time>
      </trkpt>
      <trkpt lat="44.19177" lon="2.15144">
        <ele>230</ele>
        <time>2016-10-23T15:26:12Z</time>
      </trkpt>
      <trkpt lat="44.1917" lon="2.1514">
        <ele>230</ele>
        <time>2016-10-23T15:26:17Z</time>
      </trkpt>
      <trkpt lat="44.19163" lon="2.15136">
        <ele>230</ele>
        <time>2016-10-23T15:26:22Z</time>
      </trkpt>
      <trkpt lat="44.19156" lon="2.15136">
        <ele>230</ele>
        <time>2016-10-23T15:26:27Z</time>
      </trkpt>
      <trkpt lat="44.19149" lon="2.15136">
        <ele>230</ele>
        <time>2016-10-23T15:26:32Z</time>
      </trkpt>
      <trkpt lat="44.19143" lon="2.15137">
        <ele>230</ele>
        <time>2016-10-23T15:26:37Z</time>
      </trkpt>
      <trkpt lat="44.19136" lon="2.1514">
        <ele>230</ele>
        <time>2016-10-23T15:26:42Z</time>
      </trkpt>
      <trkpt lat="44.1913" lon="2.15142">
        <ele>230</ele>
        <time>2016-10-23T15:26:47Z</time>
      </trkpt>
      <trkpt lat="44.19128" lon="2.15146">
        <ele>230</ele>
        <time>2016-10-23T15:26:52Z</time>
      </trkpt>
      <trkpt lat="44.19121" lon="2.1515">
        <ele>226</ele>
        <time>2016-10-23T15:26:57Z</time>
      </trkpt>
      <trkpt lat="44.19115" lon="2.15155">
        <ele>226</ele>
        <time>2016-10-23T15:27:02Z</time>
      </trkpt>
      <trkpt lat="44.19111" lon="2.1516">
        <ele>226</ele>
        <time>2016-10-23T15:27:07Z</time>
      </trkpt>
      <trkpt lat="44.19106" lon="2.15165">
        <ele>226</ele>
        <time>2016-10-23T15:27:12Z</time>
      </trkpt>
      <trkpt lat="44.19102" lon="2.15172">
        <ele>226</ele>
        <time>2016-10-23T15:27:17Z</time>
      </trkpt>
      <trkpt lat="44.19098" lon="2.15176">
        <ele>226</ele>
        <time>2016-10-23T15:27:22Z</time>
      </trkpt>
      <trkpt lat="44.19093" lon="2.1518">
        <ele>226</ele>
        <time>2016-10-23T15:27:27Z</time>
      </trkpt>
      <trkpt lat="44.1909" lon="2.15187">
        <ele>226</ele>
        <time>2016-10-23T15:27:32Z</time>
      </trkpt>
      <trkpt lat="44.19087" lon="2.15195">
        <ele>226</ele>
        <time>2016-10-23T15:27:37Z</time>
      </trkpt>
      <trkpt lat="44.19084" lon="2.15201">
        <ele>226</ele>
        <time>2016-10-23T15:27:42Z</time>
      </trkpt>
      <trkpt lat="44.19083" lon="2.15209">
        <ele>237</ele>
        <time>2016-10-23T15:27:47Z</time>
      </trkpt>
      <trkpt lat="44.19081" lon="2.15216">
        <ele>237</ele>
        <time>2016-10-23T15:27:52Z</time>
      </trkpt>
      <trkpt lat="44.19078" lon="2.15226">
        <ele>237</ele>
        <time>2016-10-23T15:27:57Z</time>
      </trkpt>
      <trkpt lat="44.19075" lon="2.15233">
        <ele>237</ele>
        <time>2016-10-23T15:28:02Z</time>
      </trkpt>
      <trkpt lat="44.19074" lon="2.15241">
        <ele>237</ele>
        <time>2016-10-23T15:28:07Z</time>
      </trkpt>
      <trkpt lat="44.19073" lon="2.15251">
        <ele>237</ele>
        <time>2016-10-23T15:28:12Z</time>
      </trkpt>
      <trkpt lat="44.1907" lon="2.15259">
        <ele>237</ele>
        <time>2016-10-23T15:28:17Z</time>
      </trkpt>
      <trkpt lat="44.19068" lon="2.15268">
        <ele>237</ele>
        <time>2016-10-23T15:28:22Z</time>
      </trkpt>
      <trkpt lat="44.19066" lon="2.15277">
        <ele>237</ele>
        <time>2016-10-23T15:28:27Z</time>
      </trkpt>
      <trkpt lat="44.19065" lon="2.15285">
        <ele>237</ele>
        <time>2016-10-23T15:28:32Z</time>
      </trkpt>
      <trkpt lat="44.19063" lon="2.15292">
        <ele>250</ele>
        <time>2016-10-23T15:28:37Z</time>
      </trkpt>
      <trkpt lat="44.19059" lon="2.15299">
        <ele>250</ele>
        <time>2016-10-23T15:28:42Z</time>
      </trkpt>
      <trkpt lat="44.19057" lon="2.15303">
        <ele>250</ele>
        <time>2016-10-23T15:28:47Z</time>
      </trkpt>
      <trkpt lat="44.19054" lon="2.15311">
        <ele>250</ele>
        <time>2016-10-23T15:28:52Z</time>
      </trkpt>
      <trkpt lat="44.1905" lon="2.15319">
        <ele>250</ele>
        <time>2016-10-23T15:28:57Z</time>
      </trkpt>
      <trkpt lat="44.19047" lon="2.15326">
        <ele>250</ele>
        <time>2016-10-23T15:29:02Z</time>
      </trkpt>
      <trkpt lat="44.19043" lon="2.15333">
        <ele>250</ele>
        <time>2016-10-23T15:29:07Z</time>
      </trkpt>
      <trkpt lat="44.1904" lon="2.15341">
        <ele>226</ele>
        <time>2016-10-23T15:29:12Z</time>
      </trkpt>
      <trkpt lat="44.19038" lon="2.15347">
        <ele>226</ele>
        <time>2016-10-23T15:29:17Z</time>
      </trkpt>
      <trkpt lat="44.19034" lon="2.15357">
        <ele>226</ele>
        <time>2016-10-23T15:29:22Z</time>
      </trkpt>
      <trkpt lat="44.19031" lon="2.15363">
        <ele>226</ele>
        <time>2016-10-23T15:29:27Z</time>
      </trkpt>
      <trkpt lat="44.1903" lon="2.15368">
        <ele>226</ele>
        <time>2016-10-23T15:29:32Z</time>
      </trkpt>
      <trkpt lat="44.19028" lon="2.15375">
        <ele>224</ele>
        <time>2016-10-23T15:29:37Z</time>
      </trkpt>
      <trkpt lat="44.19026" lon="2.15383">
        <ele>224</ele>
        <time>2016-10-23T15:29:42Z</time>
      </trkpt>
      <trkpt lat="44.19024" lon="2.15393">
        <ele>224</ele>
        <time>2016-10-23T15:29:47Z</time>
      </trkpt>
      <trkpt lat="44.19023" lon="2.15401">
        <ele>224</ele>
        <time>2016-10-23T15:29:52Z</time>
      </trkpt>
      <trkpt lat="44.19023" lon="2.15413">
        <ele>224</ele>
        <time>2016-10-23T15:29:57Z</time>
      </trkpt>
      <trkpt lat="44.19022" lon="2.15421">
        <ele>224</ele>
        <time>2016-10-23T15:30:02Z</time>
      </trkpt>
      <trkpt lat="44.1902" lon="2.1543">
        <ele>224</ele>
        <time>2016-10-23T15:30:07Z</time>
      </trkpt>
      <trkpt lat="44.19017" lon="2.15439">
        <ele>224</ele>
        <time>2016-10-23T15:30:12Z</time>
      </trkpt>
      <trkpt lat="44.19015" lon="2.15447">
        <ele>224</ele>
        <time>2016-10-23T15:30:17Z</time>
      </trkpt>
      <trkpt lat="44.19012" lon="2.15453">
        <ele>224</ele>
        <time>2016-10-23T15:30:22Z</time>
      </trkpt>
      <trkpt lat="44.19013" lon="2.15454">
        <ele>224</ele>
        <time>2016-10-23T15:30:27Z</time>
      </trkpt>
      <trkpt lat="44.19013" lon="2.15458">
        <ele>224</ele>
        <time>2016-10-23T15:30:32Z</time>
      </trkpt>
      <trkpt lat="44.19014" lon="2.15465">
        <ele>223</ele>
        <time>2016-10-23T15:30:37Z</time>
      </trkpt>
      <trkpt lat="44.19015" lon="2.15473">
        <ele>223</ele>
        <time>2016-10-23T15:30:42Z</time>
      </trkpt>
      <trkpt lat="44.19017" lon="2.15479">
        <ele>223</ele>
        <time>2016-10-23T15:30:47Z</time>
      </trkpt>
      <trkpt lat="44.19019" lon="2.15486">
        <ele>223</ele>
        <time>2016-10-23T15:30:52Z</time>
      </trkpt>
      <trkpt lat="44.19021" lon="2.15496">
        <ele>223</ele>
        <time>2016-10-23T15:30:57Z</time>
      </trkpt>
      <trkpt lat="44.19022" lon="2.15504">
        <ele>223</ele>
        <time>2016-10-23T15:31:02Z</time>
      </trkpt>
      <trkpt lat="44.19022" lon="2.15512">
        <ele>223</ele>
        <time>2016-10-23T15:31:07Z</time>
      </trkpt>
      <trkpt lat="44.19023" lon="2.15521">
        <ele>223</ele>
        <time>2016-10-23T15:31:12Z</time>
      </trkpt>
      <trkpt lat="44.19023" lon="2.15527">
        <ele>223</ele>
        <time>2016-10-23T15:31:17Z</time>
      </trkpt>
      <trkpt lat="44.19023" lon="2.15534">
        <ele>223</ele>
        <time>2016-10-23T15:31:22Z</time>
      </trkpt>
      <trkpt lat="44.19024" lon="2.15538">
        <ele>223</ele>
        <time>2016-10-23T15:31:27Z</time>
      </trkpt>
      <trkpt lat="44.19025" lon="2.15539">
        <ele>223</ele>
        <time>2016-10-23T15:31:32Z</time>
      </trkpt>
      <trkpt lat="44.19027" lon="2.15542">
        <ele>223</ele>
        <time>2016-10-23T15:31:37Z</time>
      </trkpt>
      <trkpt lat="44.19031" lon="2.15547">
        <ele>223</ele>
        <time>2016-10-23T15:31:42Z</time>
      </trkpt>
      <trkpt lat="44.19036" lon="2.15553">
        <ele>223</ele>
        <time>2016-10-23T15:31:47Z</time>
      </trkpt>
      <trkpt lat="44.19039" lon="2.15558">
        <ele>223</ele>
        <time>2016-10-23T15:31:52Z</time>
      </trkpt>
      <trkpt lat="44.19046" lon="2.15565">
        <ele>230</ele>
        <time>2016-10-23T15:31:57Z</time>
      </trkpt>
      <trkpt lat="44.1905" lon="2.15568">
        <ele>230</ele>
        <time>2016-10-23T15:32:02Z</time>
      </trkpt>
      <trkpt lat="44.19052" lon="2.15572">
        <ele>230</ele>
        <time>2016-10-23T15:32:07Z</time>
      </trkpt>
      <trkpt lat="44.19056" lon="2.15577">
        <ele>230</ele>
        <time>2016-10-23T15:32:12Z</time>
      </trkpt>
      <trkpt lat="44.19059" lon="2.15584">
        <ele>230</ele>
        <time>2016-10-23T15:32:17Z</time>
      </trkpt>
      <trkpt lat="44.19063" lon="2.15586">
        <ele>230</ele>
        <time>2016-10-23T15:32:22Z</time>
      </trkpt>
      <trkpt lat="44.19067" lon="2.15587">
        <ele>230</ele>
        <time>2016-10-23T15:32:27Z</time>
      </trkpt>
      <trkpt lat="44.19076" lon="2.15587">
        <ele>230</ele>
        <time>2016-10-23T15:32:32Z</time>
      </trkpt>
      <trkpt lat="44.19082" lon="2.15589">
        <ele>230</ele>
        <time>2016-10-23T15:32:37Z</time>
      </trkpt>
      <trkpt lat="44.19087" lon="2.15591">
        <ele>230</ele>
        <time>2016-10-23T15:32:42Z</time>
      </trkpt>
      <trkpt lat="44.1909" lon="2.15591">
        <ele>230</ele>
        <time>2016-10-23T15:32:47Z</time>
      </trkpt>
      <trkpt lat="44.19095" lon="2.1559">
        <ele>230</ele>
        <time>2016-10-23T15:32:52Z</time>
      </trkpt>
      <trkpt lat="44.19101" lon="2.15591">
        <ele>230</ele>
        <time>2016-10-23T15:32:57Z</time>
      </trkpt>
      <trkpt lat="44.19105" lon="2.1559">
        <ele>230</ele>
        <time>2016-10-23T15:33:02Z</time>
      </trkpt>
      <trkpt lat="44.19112" lon="2.15591">
        <ele>230</ele>
        <time>2016-10-23T15:33:07Z</time>
      </trkpt>
      <trkpt lat="44.1912" lon="2.15592">
        <ele>230</ele>
        <time>2016-10-23T15:33:12Z</time>
      </trkpt>
      <trkpt lat="44.19126" lon="2.15591">
        <ele>235</ele>
        <time>2016-10-23T15:33:17Z</time>
      </trkpt>
      <trkpt lat="44.19131" lon="2.1559">
        <ele>235</ele>
        <time>2016-10-23T15:33:22Z</time>
      </trkpt>
      <trkpt lat="44.19137" lon="2.15591">
        <ele>235</ele>
        <time>2016-10-23T15:33:27Z</time>
      </trkpt>
      <trkpt lat="44.19143" lon="2.15592">
        <ele>235</ele>
        <time>2016-10-23T15:33:32Z</time>
      </trkpt>
      <trkpt lat="44.19147" lon="2.15592">
        <ele>235</ele>
        <time>2016-10-23T15:33:37Z</time>
      </trkpt>
      <trkpt lat="44.19151" lon="2.15593">
        <ele>235</ele>
        <time>2016-10-23T15:33:42Z</time>
      </trkpt>
      <trkpt lat="44.19151" lon="2.15591">
        <ele>235</ele>
        <time>2016-10-23T15:33:47Z</time>
      </trkpt>
      <trkpt lat="44.19154" lon="2.15591">
        <ele>235</ele>
        <time>2016-10-23T15:33:52Z</time>
      </trkpt>
      <trkpt lat="44.19158" lon="2.15592">
        <ele>235</ele>
        <time>2016-10-23T15:33:57Z</time>
      </trkpt>
      <trkpt lat="44.19166" lon="2.15591">
        <ele>235</ele>
        <time>2016-10-23T15:34:02Z</time>
      </trkpt>
      <trkpt lat="44.19172" lon="2.1559">
        <ele>235</ele>
        <time>2016-10-23T15:34:07Z</time>
      </trkpt>
      <trkpt lat="44.19177" lon="2.15588">
        <ele>235</ele>
        <time>2016-10-23T15:34:12Z</time>
      </trkpt>
      <trkpt lat="44.19184" lon="2.1559">
        <ele>235</ele>
        <time>2016-10-23T15:34:17Z</time>
      </trkpt>
      <trkpt lat="44.19189" lon="2.15593">
        <ele>235</ele>
        <time>2016-10-23T15:34:22Z</time>
      </trkpt>
      <trkpt lat="44.19193" lon="2.156">
        <ele>235</ele>
        <time>2016-10-23T15:34:27Z</time>
      </trkpt>
      <trkpt lat="44.19197" lon="2.1561">
        <ele>235</ele>
        <time>2016-10-23T15:34:32Z</time>
      </trkpt>
      <trkpt lat="44.19203" lon="2.15617">
        <ele>235</ele>
        <time>2016-10-23T15:34:37Z</time>
      </trkpt>
      <trkpt lat="44.19204" lon="2.15619">
        <ele>235</ele>
        <time>2016-10-23T15:34:42Z</time>
      </trkpt>
      <trkpt lat="44.19204" lon="2.1562">
        <ele>235</ele>
        <time>2016-10-23T15:34:47Z</time>
      </trkpt>
      <trkpt lat="44.19205" lon="2.15622">
        <ele>235</ele>
        <time>2016-10-23T15:34:52Z</time>
      </trkpt>
      <trkpt lat="44.19205" lon="2.15622">
        <ele>235</ele>
        <time>2016-10-23T15:34:57Z</time>
      </trkpt>
      <trkpt lat="44.19205" lon="2.15621">
        <ele>235</ele>
        <time>2016-10-23T15:35:02Z</time>
      </trkpt>
      <trkpt lat="44.19207" lon="2.15621">
        <ele>235</ele>
        <time>2016-10-23T15:35:07Z</time>
      </trkpt>
      <trkpt lat="44.19208" lon="2.15629">
        <ele>227</ele>
        <time>2016-10-23T15:35:12Z</time>
      </trkpt>
      <trkpt lat="44.19206" lon="2.15642">
        <ele>227</ele>
        <time>2016-10-23T15:35:17Z</time>
      </trkpt>
      <trkpt lat="44.19204" lon="2.15651">
        <ele>227</ele>
        <time>2016-10-23T15:35:22Z</time>
      </trkpt>
      <trkpt lat="44.19202" lon="2.15659">
        <ele>227</ele>
        <time>2016-10-23T15:35:27Z</time>
      </trkpt>
      <trkpt lat="44.19198" lon="2.15665">
        <ele>227</ele>
        <time>2016-10-23T15:35:32Z</time>
      </trkpt>
      <trkpt lat="44.19195" lon="2.15671">
        <ele>227</ele>
        <time>2016-10-23T15:35:37Z</time>
      </trkpt>
      <trkpt lat="44.1919" lon="2.15679">
        <ele>227</ele>
        <time>2016-10-23T15:35:42Z</time>
      </trkpt>
      <trkpt lat="44.19187" lon="2.15687">
        <ele>227</ele>
        <time>2016-10-23T15:35:47Z</time>
      </trkpt>
      <trkpt lat="44.19183" lon="2.15692">
        <ele>227</ele>
        <time>2016-10-23T15:35:52Z</time>
      </trkpt>
      <trkpt lat="44.19181" lon="2.15698">
        <ele>227</ele>
        <time>2016-10-23T15:35:57Z</time>
      </trkpt>
      <trkpt lat="44.19179" lon="2.15704">
        <ele>227</ele>
        <time>2016-10-23T15:36:02Z</time>
      </trkpt>
      <trkpt lat="44.19174" lon="2.15712">
        <ele>249</ele>
        <time>2016-10-23T15:36:07Z</time>
      </trkpt>
      <trkpt lat="44.19167" lon="2.15722">
        <ele>249</ele>
        <time>2016-10-23T15:36:12Z</time>
      </trkpt>
      <trkpt lat="44.1916" lon="2.1573">
        <ele>249</ele>
        <time>2016-10-23T15:36:17Z</time>
      </trkpt>
      <trkpt lat="44.19151" lon="2.15734">
        <ele>249</ele>
        <time>2016-10-23T15:36:22Z</time>
      </trkpt>
      <trkpt lat="44.19144" lon="2.15737">
        <ele>249</ele>
        <time>2016-10-23T15:36:27Z</time>
      </trkpt>
      <trkpt lat="44.19139" lon="2.15741">
        <ele>249</ele>
        <time>2016-10-23T15:36:32Z</time>
      </trkpt>
      <trkpt lat="44.1913" lon="2.15746">
        <ele>249</ele>
        <time>2016-10-23T15:36:37Z</time>
      </trkpt>
      <trkpt lat="44.19122" lon="2.15752">
        <ele>233</ele>
        <time>2016-10-23T15:36:42Z</time>
      </trkpt>
      <trkpt lat="44.19115" lon="2.15754">
        <ele>233</ele>
        <time>2016-10-23T15:36:47Z</time>
      </trkpt>
      <trkpt lat="44.19109" lon="2.15757">
        <ele>233</ele>
        <time>2016-10-23T15:36:52Z</time>
      </trkpt>
      <trkpt lat="44.19102" lon="2.15762">
        <ele>233</ele>
        <time>2016-10-23T15:36:57Z</time>
      </trkpt>
      <trkpt lat="44.19095" lon="2.15767">
        <ele>233</ele>
        <time>2016-10-23T15:37:02Z</time>
      </trkpt>
      <trkpt lat="44.1909" lon="2.15771">
        <ele>233</ele>
        <time>2016-10-23T15:37:07Z</time>
      </trkpt>
      <trkpt lat="44.19085" lon="2.15774">
        <ele>233</ele>
        <time>2016-10-23T15:37:12Z</time>
      </trkpt>
      <trkpt lat="44.19081" lon="2.15776">
        <ele>233</ele>
        <time>2016-10-23T15:37:17Z</time>
      </trkpt>
      <trkpt lat="44.19075" lon="2.15781">
        <ele>233</ele>
        <time>2016-10-23T15:37:22Z</time>
      </trkpt>
      <trkpt lat="44.1907" lon="2.15785">
        <ele>233</ele>
        <time>2016-10-23T15:37:27Z</time>
      </trkpt>
      <trkpt lat="44.19067" lon="2.1579">
        <ele>233</ele>
        <time>2016-10-23T15:37:32Z</time>
      </trkpt>
      <trkpt lat="44.19065" lon="2.15793">
        <ele>250</ele>
        <time>2016-10-23T15:37:37Z</time>
      </trkpt>
      <trkpt lat="44.19062" lon="2.15798">
        <ele>250</ele>
        <time>2016-10-23T15:37:42Z</time>
      </trkpt>
      <trkpt lat="44.1906" lon="2.15807">
        <ele>250</ele>
        <time>2016-10-23T15:37:47Z</time>
      </trkpt>
      <trkpt lat="44.19055" lon="2.15815">
        <ele>250</ele>
        <time>2016-10-23T15:37:52Z</time>
      </trkpt>
      <trkpt lat="44.19053" lon="2.15823">
        <ele>250</ele>
        <time>2016-10-23T15:37:57Z</time>
      </trkpt>
      <trkpt lat="44.19051" lon="2.1583">
        <ele>250</ele>
        <time>2016-10-23T15:38:02Z</time>
      </trkpt>
      <trkpt lat="44.19048" lon="2.15838">
        <ele>250</ele>
        <time>2016-10-23T15:38:07Z</time>
      </trkpt>
      <trkpt lat="44.19046" lon="2.15845">
        <ele>250</ele>
        <time>2016-10-23T15:38:12Z</time>
      </trkpt>
      <trkpt lat="44.19042" lon="2.15852">
        <ele>250</ele>
        <time>2016-10-23T15:38:17Z</time>
      </trkpt>
      <trkpt lat="44.19038" lon="2.15861">
        <ele>224</ele>
        <time>2016-10-23T15:38:22Z</time>
      </trkpt>
      <trkpt lat="44.19035" lon="2.15867">
        <ele>224</ele>
        <time>2016-10-23T15:38:27Z</time>
      </trkpt>
      <trkpt lat="44.19032" lon="2.15873">
        <ele>224</ele>
        <time>2016-10-23T15:38:32Z</time>
      </trkpt>
      <trkpt lat="44.1903" lon="2.15881">
        <ele>235</ele>
        <time>2016-10-23T15:38:37Z</time>
      </trkpt>
      <trkpt lat="44.19027" lon="2.15887">
        <ele>235</ele>
        <time>2016-10-23T15:38:42Z</time>
      </trkpt>
      <trkpt lat="44.19024" lon="2.15895">
        <ele>235</ele>
        <time>2016-10-23T15:38:47Z</time>
      </trkpt>
      <trkpt lat="44.1902" lon="2.15903">
        <ele>235</ele>
        <time>2016-10-23T15:38:52Z</time>
      </trkpt>
      <trkpt lat="44.19017" lon="2.15909">
        <ele>235</ele>
        <time>2016-10-23T15:38:57Z</time>
      </trkpt>
      <trkpt lat="44.19013" lon="2.15916">
        <ele>235</ele>
        <time>2016-10-23T15:39:02Z</time>
      </trkpt>
      <trkpt lat="44.1901" lon="2.15923">
        <ele>235</ele>
        <time>2016-10-23T15:39:07Z</time>
      </trkpt>
      <trkpt lat="44.19006" lon="2.1593">
        <ele>235</ele>
        <time>2016-10-23T15:39:12Z</time>
      </trkpt>
      <trkpt lat="44.19005" lon="2.1594">
        <ele>235</ele>
        <time>2016-10-23T15:39:17Z</time>
      </trkpt>
      <trkpt lat="44.19002" lon="2.15944">
        <ele>235</ele>
        <time>2016-10-23T15:39:22Z</time>
      </trkpt>
      <trkpt lat="44.18998" lon="2.15949">
        <ele>235</ele>
        <time>2016-10-23T15:39:27Z</time>
      </trkpt>
      <trkpt lat="44.18993" lon="2.15955">
        <ele>235</ele>
        <time>2016-10-23T15:39:32Z</time>
      </trkpt>
      <trkpt lat="44.18989" lon="2.15961">
        <ele>253</ele>
        <time>2016-10-23T15:39:37Z</time>
      </trkpt>
      <trkpt lat="44.18986" lon="2.1597">
        <ele>253</ele>
        <time>2016-10-23T15:39:42Z</time>
      </trkpt>
      <trkpt lat="44.18985" lon="2.15977">
        <ele>253</ele>
        <time>2016-10-23T15:39:47Z</time>
      </trkpt>
      <trkpt lat="44.18979" lon="2.15984">
        <ele>253</ele>
        <time>2016-10-23T15:39:52Z</time>
      </trkpt>
      <trkpt lat="44.18975" lon="2.15987">
        <ele>253</ele>
        <time>2016-10-23T15:39:57Z</time>
      </trkpt>
      <trkpt lat="44.18972" lon="2.15992">
        <ele>253</ele>
        <time>2016-10-23T15:40:02Z</time>
      </trkpt>
      <trkpt lat="44.18968" lon="2.15996">
        <ele>253</ele>
        <time>2016-10-23T15:40:07Z</time>
      </trkpt>
      <trkpt lat="44.18965" lon="2.16005">
        <ele>253</ele>
        <time>2016-10-23T15:40:12Z</time>
      </trkpt>
      <trkpt lat="44.1896" lon="2.1601">
        <ele>253</ele>
        <time>2016-10-23T15:40:17Z</time>
      </trkpt>
      <trkpt lat="44.18956" lon="2.16016">
        <ele>222</ele>
        <time>2016-10-23T15:40:22Z</time>
      </trkpt>
      <trkpt lat="44.18954" lon="2.16023">
        <ele>222</ele>
        <time>2016-10-23T15:40:27Z</time>
      </trkpt>
      <trkpt lat="44.18951" lon="2.16031">
        <ele>222</ele>
        <time>2016-10-23T15:40:32Z</time>
      </trkpt>
      <trkpt lat="44.18947" lon="2.16037">
        <ele>222</ele>
        <time>2016-10-23T15:40:37Z</time>
      </trkpt>
      <trkpt lat="44.18944" lon="2.16044">
        <ele>235</ele>
        <time>2016-10-23T15:40:42Z</time>
      </trkpt>
      <trkpt lat="44.1894" lon="2.16051">
        <ele>235</ele>
        <time>2016-10-23T15:40:47Z</time>
      </trkpt>
      <trkpt lat="44.18935" lon="2.16057">
        <ele>235</ele>
        <time>2016-10-23T15:40:52Z</time>
      </trkpt>
      <trkpt lat="44.18932" lon="2.16062">
        <ele>235</ele>
        <time>2016-10-23T15:40:57Z</time>
      </trkpt>
      <trkpt lat="44.18931" lon="2.16067">
        <ele>235</ele>
        <time>2016-10-23T15:41:02Z</time>
      </trkpt>
      <trkpt lat="44.18926" lon="2.16074">
        <ele>235</ele>
        <time>2016-10-23T15:41:07Z</time>
      </trkpt>
      <trkpt lat="44.18923" lon="2.1608">
        <ele>235</ele>
        <time>2016-10-23T15:41:12Z</time>
      </trkpt>
      <trkpt lat="44.18919" lon="2.16086">
        <ele>235</ele>
        <time>2016-10-23T15:41:17Z</time>
      </trkpt>
      <trkpt lat="44.18914" lon="2.16086">
        <ele>235</ele>
        <time>2016-10-23T15:41:22Z</time>
      </trkpt>
      <trkpt lat="44.18909" lon="2.16082">
        <ele>235</ele>
        <time>2016-10-23T15:41:27Z</time>
      </trkpt>
      <trkpt lat="44.18903" lon="2.16078">
        <ele>235</ele>
        <time>2016-10-23T15:41:32Z</time>
      </trkpt>
      <trkpt lat="44.18898" lon="2.16074">
        <ele>235</ele>
        <time>2016-10-23T15:41:37Z</time>
      </trkpt>
      <trkpt lat="44.18894" lon="2.16068">
        <ele>235</ele>
        <time>2016-10-23T15:41:42Z</time>
      </trkpt>
      <trkpt lat="44.18891" lon="2.16065">
        <ele>235</ele>
        <time>2016-10-23T15:41:47Z</time>
      </trkpt>
      <trkpt lat="44.18891" lon="2.16063">
        <ele>235</ele>
        <time>2016-10-23T15:41:52Z</time>
      </trkpt>
      <trkpt lat="44.18889" lon="2.16056">
        <ele>235</ele>
        <time>2016-10-23T15:41:57Z</time>
      </trkpt>
      <trkpt lat="44.18883" lon="2.16053">
        <ele>235</ele>
        <time>2016-10-23T15:42:02Z</time>
      </trkpt>
      <trkpt lat="44.18877" lon="2.1605">
        <ele>235</ele>
        <time>2016-10-23T15:42:07Z</time>
      </trkpt>
      <trkpt lat="44.18872" lon="2.16045">
        <ele>220</ele>
        <time>2016-10-23T15:42:12Z</time>
      </trkpt>
      <trkpt lat="44.18867" lon="2.16039">
        <ele>225</ele>
        <time>2016-10-23T15:42:17Z</time>
      </trkpt>
      <trkpt lat="44.18863" lon="2.16036">
        <ele>225</ele>
        <time>2016-10-23T15:42:22Z</time>
      </trkpt>
      <trkpt lat="44.18859" lon="2.16034">
        <ele>225</ele>
        <time>2016-10-23T15:42:27Z</time>
      </trkpt>
      <trkpt lat="44.18855" lon="2.1603">
        <ele>225</ele>
        <time>2016-10-23T15:42:32Z</time>
      </trkpt>
      <trkpt lat="44.18852" lon="2.16026">
        <ele>225</ele>
        <time>2016-10-23T15:42:37Z</time>
      </trkpt>
      <trkpt lat="44.18849" lon="2.16023">
        <ele>225</ele>
        <time>2016-10-23T15:42:42Z</time>
      </trkpt>
      <trkpt lat="44.18848" lon="2.16019">
        <ele>225</ele>
        <time>2016-10-23T15:42:47Z</time>
      </trkpt>
      <trkpt lat="44.18844" lon="2.16014">
        <ele>225</ele>
        <time>2016-10-23T15:42:52Z</time>
      </trkpt>
      <trkpt lat="44.1884" lon="2.16007">
        <ele>225</ele>
        <time>2016-10-23T15:42:57Z</time>
      </trkpt>
      <trkpt lat="44.18839" lon="2.1601">
        <ele>225</ele>
        <time>2016-10-23T15:43:02Z</time>
      </trkpt>
      <trkpt lat="44.18836" lon="2.16013">
        <ele>225</ele>
        <time>2016-10-23T15:43:07Z</time>
      </trkpt>
      <trkpt lat="44.18832" lon="2.16018">
        <ele>225</ele>
        <time>2016-10-23T15:43:12Z</time>
      </trkpt>
      <trkpt lat="44.18829" lon="2.16023">
        <ele>225</ele>
        <time>2016-10-23T15:43:17Z</time>
      </trkpt>
      <trkpt lat="44.18824" lon="2.16024">
        <ele>225</ele>
        <time>2016-10-23T15:43:22Z</time>
      </trkpt>
      <trkpt lat="44.18819" lon="2.16031">
        <ele>225</ele>
        <time>2016-10-23T15:43:27Z</time>
      </trkpt>
      <trkpt lat="44.18816" lon="2.16036">
        <ele>225</ele>
        <time>2016-10-23T15:43:32Z</time>
      </trkpt>
      <trkpt lat="44.18813" lon="2.16038">
        <ele>225</ele>
        <time>2016-10-23T15:43:37Z</time>
      </trkpt>
      <trkpt lat="44.18811" lon="2.16042">
        <ele>220</ele>
        <time>2016-10-23T15:43:42Z</time>
      </trkpt>
      <trkpt lat="44.18811" lon="2.16045">
        <ele>220</ele>
        <time>2016-10-23T15:43:47Z</time>
      </trkpt>
      <trkpt lat="44.1881" lon="2.1605">
        <ele>220</ele>
        <time>2016-10-23T15:43:52Z</time>
      </trkpt>
      <trkpt lat="44.1881" lon="2.1605">
        <ele>220</ele>
        <time>2016-10-23T15:43:57Z</time>
      </trkpt>
      <trkpt lat="44.18808" lon="2.16054">
        <ele>220</ele>
        <time>2016-10-23T15:44:02Z</time>
      </trkpt>
      <trkpt lat="44.18806" lon="2.16052">
        <ele>220</ele>
        <time>2016-10-23T15:44:07Z</time>
      </trkpt>
      <trkpt lat="44.18807" lon="2.16051">
        <ele>220</ele>
        <time>2016-10-23T15:44:12Z</time>
      </trkpt>
      <trkpt lat="44.18808" lon="2.16049">
        <ele>220</ele>
        <time>2016-10-23T15:44:17Z</time>
      </trkpt>
      <trkpt lat="44.18809" lon="2.16048">
        <ele>220</ele>
        <time>2016-10-23T15:44:22Z</time>
      </trkpt>
      <trkpt lat="44.18808" lon="2.16048">
        <ele>220</ele>
        <time>2016-10-23T15:44:27Z</time>
      </trkpt>
      <trkpt lat="44.18809" lon="2.16049">
        <ele>220</ele>
        <time>2016-10-23T15:44:32Z</time>
      </trkpt>
      <trkpt lat="44.18807" lon="2.16048">
        <ele>220</ele>
        <time>2016-10-23T15:44:37Z</time>
      </trkpt>
      <trkpt lat="44.18805" lon="2.16045">
        <ele>220</ele>
        <time>2016-10-23T15:44:42Z</time>
      </trkpt>
      <trkpt lat="44.18808" lon="2.16049">
        <ele>220</ele>
        <time>2016-10-23T15:44:47Z</time>
      </trkpt>
      <trkpt lat="44.18809" lon="2.16047">
        <ele>220</ele>
        <time>2016-10-23T15:44:52Z</time>
      </trkpt>
      <trkpt lat="44.1881" lon="2.16046">
        <ele>220</ele>
        <time>2016-10-23T15:44:57Z</time>
      </trkpt>
      <trkpt lat="44.1881" lon="2.16046">
        <ele>220</ele>
        <time>2016-10-23T15:45:02Z</time>
      </trkpt>
      <trkpt lat="44.1881" lon="2.16045">
        <ele>220</ele>
        <time>2016-10-23T15:45:07Z</time>
      </trkpt>
      <trkpt lat="44.18811" lon="2.16044">
        <ele>220</ele>
        <time>2016-10-23T15:45:12Z</time>
      </trkpt>
      <trkpt lat="44.18811" lon="2.16044">
        <ele>220</ele>
        <time>2016-10-23T15:45:17Z</time>
      </trkpt>
      <trkpt lat="44.18812" lon="2.16044">
        <ele>220</ele>
        <time>2016-10-23T15:45:22Z</time>
      </trkpt>
      <trkpt lat="44.18811" lon="2.16044">
        <ele>220</ele>
        <time>2016-10-23T15:45:27Z</time>
      </trkpt>
      <trkpt lat="44.18809" lon="2.16046">
        <ele>220</ele>
        <time>2016-10-23T15:45:32Z</time>
      </trkpt>
      <trkpt lat="44.18809" lon="2.16046">
        <ele>220</ele>
        <time>2016-10-23T15:45:37Z</time>
      </trkpt>
      <trkpt lat="44.18808" lon="2.16049">
        <ele>220</ele>
        <time>2016-10-23T15:45:42Z</time>
      </trkpt>
      <trkpt lat="44.18799" lon="2.16053">
        <ele>220</ele>
        <time>2016-10-23T15:45:47Z</time>
      </trkpt>
      <trkpt lat="44.18801" lon="2.16054">
        <ele>220</ele>
        <time>2016-10-23T15:45:52Z</time>
      </trkpt>
      <trkpt lat="44.18805" lon="2.16052">
        <ele>220</ele>
        <time>2016-10-23T15:45:57Z</time>
      </trkpt>
      <trkpt lat="44.18805" lon="2.16048">
        <ele>220</ele>
        <time>2016-10-23T15:46:02Z</time>
      </trkpt>
      <trkpt lat="44.18807" lon="2.16047">
        <ele>220</ele>
        <time>2016-10-23T15:46:07Z</time>
      </trkpt>
      <trkpt lat="44.18806" lon="2.16045">
        <ele>220</ele>
        <time>2016-10-23T15:46:12Z</time>
      </trkpt>
      <trkpt lat="44.18806" lon="2.16048">
        <ele>220</ele>
        <time>2016-10-23T15:46:17Z</time>
      </trkpt>
      <trkpt lat="44.18807" lon="2.16047">
        <ele>220</ele>
        <time>2016-10-23T15:46:22Z</time>
      </trkpt>
      <trkpt lat="44.18808" lon="2.16049">
        <ele>220</ele>
        <time>2016-10-23T15:46:27Z</time>
      </trkpt>
      <trkpt lat="44.18807" lon="2.16038">
        <ele>225</ele>
        <time>2016-10-23T15:46:32Z</time>
      </trkpt>
      <trkpt lat="44.18805" lon="2.16035">
        <ele>225</ele>
        <time>2016-10-23T15:46:37Z</time>
      </trkpt>
      <trkpt lat="44.188" lon="2.1604">
        <ele>225</ele>
        <time>2016-10-23T15:46:42Z</time>
      </trkpt>
      <trkpt lat="44.18802" lon="2.16034">
        <ele>225</ele>
        <time>2016-10-23T15:46:47Z</time>
      </trkpt>
      <trkpt lat="44.188" lon="2.16037">
        <ele>225</ele>
        <time>2016-10-23T15:46:52Z</time>
      </trkpt>
      <trkpt lat="44.18799" lon="2.16036">
        <ele>225</ele>
        <time>2016-10-23T15:46:57Z</time>
      </trkpt>
      <trkpt lat="44.18802" lon="2.1603">
        <ele>225</ele>
        <time>2016-10-23T15:47:02Z</time>
      </trkpt>
      <trkpt lat="44.18799" lon="2.16032">
        <ele>225</ele>
        <time>2016-10-23T15:47:07Z</time>
      </trkpt>
      <trkpt lat="44.18791" lon="2.16032">
        <ele>248</ele>
        <time>2016-10-23T15:47:12Z</time>
      </trkpt>
      <trkpt lat="44.18794" lon="2.16034">
        <ele>225</ele>
        <time>2016-10-23T15:47:17Z</time>
      </trkpt>
      <trkpt lat="44.18803" lon="2.16033">
        <ele>225</ele>
        <time>2016-10-23T15:47:22Z</time>
      </trkpt>
      <trkpt lat="44.18809" lon="2.16039">
        <ele>225</ele>
        <time>2016-10-23T15:47:27Z</time>
      </trkpt>
      <trkpt lat="44.18797" lon="2.1606">
        <ele>220</ele>
        <time>2016-10-23T15:47:32Z</time>
      </trkpt>
      <trkpt lat="44.18797" lon="2.16047">
        <ele>220</ele>
        <time>2016-10-23T15:47:37Z</time>
      </trkpt>
      <trkpt lat="44.18805" lon="2.16033">
        <ele>225</ele>
        <time>2016-10-23T15:47:42Z</time>
      </trkpt>
      <trkpt lat="44.18801" lon="2.16035">
        <ele>225</ele>
        <time>2016-10-23T15:47:47Z</time>
      </trkpt>
      <trkpt lat="44.18798" lon="2.16041">
        <ele>225</ele>
        <time>2016-10-23T15:47:52Z</time>
      </trkpt>
      <trkpt lat="44.18799" lon="2.16038">
        <ele>225</ele>
        <time>2016-10-23T15:47:57Z</time>
      </trkpt>
      <trkpt lat="44.18795" lon="2.16036">
        <ele>225</ele>
        <time>2016-10-23T15:48:02Z</time>
      </trkpt>
      <trkpt lat="44.18793" lon="2.16033">
        <ele>225</ele>
        <time>2016-10-23T15:48:07Z</time>
      </trkpt>
      <trkpt lat="44.18794" lon="2.16034">
        <ele>225</ele>
        <time>2016-10-23T15:48:12Z</time>
      </trkpt>
      <trkpt lat="44.18804" lon="2.16038">
        <ele>225</ele>
        <time>2016-10-23T15:48:17Z</time>
      </trkpt>
      <trkpt lat="44.18808" lon="2.16044">
        <ele>220</ele>
        <time>2016-10-23T15:48:22Z</time>
      </trkpt>
      <trkpt lat="44.18808" lon="2.16043">
        <ele>220</ele>
        <time>2016-10-23T15:48:27Z</time>
      </trkpt>
      <trkpt lat="44.18808" lon="2.16044">
        <ele>220</ele>
        <time>2016-10-23T15:48:32Z</time>
      </trkpt>
      <trkpt lat="44.18809" lon="2.16044">
        <ele>220</ele>
        <time>2016-10-23T15:48:37Z</time>
      </trkpt>
      <trkpt lat="44.18809" lon="2.16044">
        <ele>220</ele>
        <time>2016-10-23T15:48:42Z</time>
      </trkpt>
      <trkpt lat="44.18809" lon="2.16044">
        <ele>220</ele>
        <time>2016-10-23T15:48:47Z</time>
      </trkpt>
      <trkpt lat="44.18809" lon="2.16043">
        <ele>220</ele>
        <time>2016-10-23T15:48:52Z</time>
      </trkpt>
      <trkpt lat="44.18809" lon="2.16042">
        <ele>220</ele>
        <time>2016-10-23T15:48:57Z</time>
      </trkpt>
      <trkpt lat="44.18809" lon="2.16041">
        <ele>225</ele>
        <time>2016-10-23T15:49:02Z</time>
      </trkpt>
      <trkpt lat="44.18809" lon="2.16041">
        <ele>225</ele>
        <time>2016-10-23T15:49:07Z</time>
      </trkpt>
      <trkpt lat="44.18809" lon="2.16041">
        <ele>225</ele>
        <time>2016-10-23T15:49:12Z</time>
      </trkpt>
      <trkpt lat="44.18809" lon="2.16042">
        <ele>220</ele>
        <time>2016-10-23T15:49:17Z</time>
      </trkpt>
    </trkseg>
  </trk>
</gpx>